<?xml version='1.0' encoding='UTF-8'?><gpx version="1.1" creator="JPX - https://github.com/jenetics/jpx" xmlns="http://www.topografix.com/GPX/1/1"><trk><trkseg><trkpt lat="43.28488659544081" lon="13.327627959128167"><ele>149.0</ele><time>2026-04-20T07:38:25Z</time></trkpt><trkpt lat="43.28494863308056" lon="13.327597926834034"><ele>149.0</ele><time>2026-04-20T07:38:28Z</time></trkpt><trkpt lat="43.28499419964572" lon="13.32773667144405"><ele>149.0</ele><time>2026-04-20T07:38:32Z</time></trkpt><trkpt lat="43.28504099107011" lon="13.327853940587296"><ele>149.0</ele><time>2026-04-20T07:38:35Z</time></trkpt><trkpt lat="43.285089522921474" lon="13.327947054213904"><ele>149.0</ele><time>2026-04-20T07:38:37Z</time></trkpt><trkpt lat="43.285123680053324" lon="13.328043149434745"><ele>149.0</ele><time>2026-04-20T07:38:39Z</time></trkpt><trkpt lat="43.285175448128285" lon="13.328151482804962"><ele>149.0</ele><time>2026-04-20T07:38:41Z</time></trkpt><trkpt lat="43.285296312897955" lon="13.32819369743491"><ele>149.0</ele><time>2026-04-20T07:38:43Z</time></trkpt><trkpt lat="43.28537549383628" lon="13.328168864775707"><ele>149.0</ele><time>2026-04-20T07:38:44Z</time></trkpt><trkpt lat="43.285464742426875" lon="13.328099860221151"><ele>149.0</ele><time>2026-04-20T07:38:45Z</time></trkpt><trkpt lat="43.28554942245761" lon="13.328023542271355"><ele>149.0</ele><time>2026-04-20T07:38:46Z</time></trkpt><trkpt lat="43.28563170955936" lon="13.327950211902728"><ele>149.0</ele><time>2026-04-20T07:38:47Z</time></trkpt><trkpt lat="43.28571368117557" lon="13.327885769924169"><ele>149.0</ele><time>2026-04-20T07:38:48Z</time></trkpt><trkpt lat="43.28580048473323" lon="13.327814417173373"><ele>149.0</ele><time>2026-04-20T07:38:49Z</time></trkpt><trkpt lat="43.285889377448015" lon="13.327749235990957"><ele>149.0</ele><time>2026-04-20T07:38:50Z</time></trkpt><trkpt lat="43.285981113315934" lon="13.327679143872887"><ele>149.0</ele><time>2026-04-20T07:38:51Z</time></trkpt><trkpt lat="43.286065015624324" lon="13.327609860998873"><ele>149.0</ele><time>2026-04-20T07:38:52Z</time></trkpt><trkpt lat="43.28614830739726" lon="13.327542134052633"><ele>149.0</ele><time>2026-04-20T07:38:53Z</time></trkpt><trkpt lat="43.28623279446167" lon="13.327479353927659"><ele>149.0</ele><time>2026-04-20T07:38:54Z</time></trkpt><trkpt lat="43.286321353531996" lon="13.327416768451421"><ele>149.0</ele><time>2026-04-20T07:38:55Z</time></trkpt><trkpt lat="43.286412866618186" lon="13.32735071190831"><ele>149.0</ele><time>2026-04-20T07:38:56Z</time></trkpt><trkpt lat="43.286505332908426" lon="13.327274785021043"><ele>151.2</ele><time>2026-04-20T07:38:57Z</time></trkpt><trkpt lat="43.28660115956657" lon="13.327195957217352"><ele>153.4</ele><time>2026-04-20T07:38:58Z</time></trkpt><trkpt lat="43.286701277022736" lon="13.327117021203632"><ele>155.6</ele><time>2026-04-20T07:38:59Z</time></trkpt><trkpt lat="43.28679321000591" lon="13.32704583346201"><ele>157.8</ele><time>2026-04-20T07:39:00Z</time></trkpt><trkpt lat="43.28688657261829" lon="13.32698306686278"><ele>160.0</ele><time>2026-04-20T07:39:01Z</time></trkpt><trkpt lat="43.286987430691205" lon="13.326915250641559"><ele>160.0</ele><time>2026-04-20T07:39:02Z</time></trkpt><trkpt lat="43.287089013284465" lon="13.326847705459402"><ele>160.0</ele><time>2026-04-20T07:39:02.999Z</time></trkpt><trkpt lat="43.28720206815613" lon="13.326779481018704"><ele>160.0</ele><time>2026-04-20T07:39:03.999Z</time></trkpt><trkpt lat="43.28730867021357" lon="13.326715046633796"><ele>160.0</ele><time>2026-04-20T07:39:04.999Z</time></trkpt><trkpt lat="43.28741178614977" lon="13.326661616656152"><ele>163.75</ele><time>2026-04-20T07:39:05.999Z</time></trkpt><trkpt lat="43.28752197307988" lon="13.326606070225164"><ele>167.5</ele><time>2026-04-20T07:39:06.999Z</time></trkpt><trkpt lat="43.28762791305392" lon="13.326552704434018"><ele>171.25</ele><time>2026-04-20T07:39:07.999Z</time></trkpt><trkpt lat="43.287731596876256" lon="13.326472906758264"><ele>175.0</ele><time>2026-04-20T07:39:08.999Z</time></trkpt><trkpt lat="43.287846545978454" lon="13.326419534290372"><ele>173.75</ele><time>2026-04-20T07:39:09.999Z</time></trkpt><trkpt lat="43.28795216195395" lon="13.32633996522761"><ele>172.5</ele><time>2026-04-20T07:39:10.999Z</time></trkpt><trkpt lat="43.28806374376656" lon="13.326271661461291"><ele>171.25</ele><time>2026-04-20T07:39:11.999Z</time></trkpt><trkpt lat="43.28817395232401" lon="13.326208092772143"><ele>170.0</ele><time>2026-04-20T07:39:12.999Z</time></trkpt><trkpt lat="43.288281484429774" lon="13.326132643509341"><ele>172.75</ele><time>2026-04-20T07:39:13.999Z</time></trkpt><trkpt lat="43.288389582265474" lon="13.326058067733529"><ele>175.5</ele><time>2026-04-20T07:39:14.999Z</time></trkpt><trkpt lat="43.28850466403388" lon="13.325994036160564"><ele>178.25</ele><time>2026-04-20T07:39:15.999Z</time></trkpt><trkpt lat="43.288603936158225" lon="13.325946074265497"><ele>181.0</ele><time>2026-04-20T07:39:16.999Z</time></trkpt><trkpt lat="43.28870470783035" lon="13.325897024025679"><ele>181.0</ele><time>2026-04-20T07:39:17.999Z</time></trkpt><trkpt lat="43.288803497021654" lon="13.325856950583583"><ele>181.0</ele><time>2026-04-20T07:39:18.999Z</time></trkpt><trkpt lat="43.28889562321015" lon="13.325826240591775"><ele>181.0</ele><time>2026-04-20T07:39:19.999Z</time></trkpt><trkpt lat="43.28898873261074" lon="13.325797834988725"><ele>181.0</ele><time>2026-04-20T07:39:20.999Z</time></trkpt><trkpt lat="43.289098827054545" lon="13.325770126558286"><ele>181.0</ele><time>2026-04-20T07:39:21.999Z</time></trkpt><trkpt lat="43.289228482404596" lon="13.32573750467947"><ele>184.5</ele><time>2026-04-20T07:39:22.999Z</time></trkpt><trkpt lat="43.28936987264909" lon="13.325700072340235"><ele>188.0</ele><time>2026-04-20T07:39:23.999Z</time></trkpt><trkpt lat="43.28949081487273" lon="13.325661342393845"><ele>191.5</ele><time>2026-04-20T07:39:24.999Z</time></trkpt><trkpt lat="43.289596477225146" lon="13.325625479505765"><ele>195.0</ele><time>2026-04-20T07:39:25.999Z</time></trkpt><trkpt lat="43.28969620877531" lon="13.325587450514897"><ele>195.6</ele><time>2026-04-20T07:39:26.999Z</time></trkpt><trkpt lat="43.28978497397912" lon="13.325522464721404"><ele>196.2</ele><time>2026-04-20T07:39:27.999Z</time></trkpt><trkpt lat="43.28985791779742" lon="13.325420157655916"><ele>196.8</ele><time>2026-04-20T07:39:28.999Z</time></trkpt><trkpt lat="43.28990966555523" lon="13.325279644766043"><ele>197.4</ele><time>2026-04-20T07:39:29.999Z</time></trkpt><trkpt lat="43.289950348277884" lon="13.325122591995731"><ele>198.0</ele><time>2026-04-20T07:39:30.999Z</time></trkpt><trkpt lat="43.289991406476304" lon="13.324958812052168"><ele>198.0</ele><time>2026-04-20T07:39:31.999Z</time></trkpt><trkpt lat="43.29003208101598" lon="13.32479403396467"><ele>198.0</ele><time>2026-04-20T07:39:32.999Z</time></trkpt><trkpt lat="43.29006857514007" lon="13.324624520329516"><ele>198.0</ele><time>2026-04-20T07:39:33.999Z</time></trkpt><trkpt lat="43.29010895477651" lon="13.32444955500174"><ele>198.0</ele><time>2026-04-20T07:39:34.999Z</time></trkpt><trkpt lat="43.29015951611461" lon="13.32427812269817"><ele>199.25</ele><time>2026-04-20T07:39:35.999Z</time></trkpt><trkpt lat="43.290202384351616" lon="13.32410648187379"><ele>200.5</ele><time>2026-04-20T07:39:36.999Z</time></trkpt><trkpt lat="43.29024711106037" lon="13.323929365558971"><ele>201.75</ele><time>2026-04-20T07:39:37.999Z</time></trkpt><trkpt lat="43.290297355052296" lon="13.323781684276621"><ele>203.0</ele><time>2026-04-20T07:39:38.999Z</time></trkpt><trkpt lat="43.29034988496853" lon="13.323640477617825"><ele>204.5</ele><time>2026-04-20T07:39:39.999Z</time></trkpt><trkpt lat="43.29041435115295" lon="13.323499259403347"><ele>206.0</ele><time>2026-04-20T07:39:40.999Z</time></trkpt><trkpt lat="43.29046124348413" lon="13.323342892048098"><ele>207.5</ele><time>2026-04-20T07:39:41.999Z</time></trkpt><trkpt lat="43.29051994358532" lon="13.323184042678637"><ele>209.0</ele><time>2026-04-20T07:39:42.999Z</time></trkpt><trkpt lat="43.29057714222649" lon="13.323036971753856"><ele>210.5</ele><time>2026-04-20T07:39:43.999Z</time></trkpt><trkpt lat="43.290654005669595" lon="13.322889902831454"><ele>212.0</ele><time>2026-04-20T07:39:44.999Z</time></trkpt><trkpt lat="43.290710072954774" lon="13.322720894096262"><ele>213.5</ele><time>2026-04-20T07:39:45.999Z</time></trkpt><trkpt lat="43.290769244956856" lon="13.322552787584883"><ele>215.0</ele><time>2026-04-20T07:39:46.999Z</time></trkpt><trkpt lat="43.29083728922959" lon="13.322384983153103"><ele>218.5</ele><time>2026-04-20T07:39:47.999Z</time></trkpt><trkpt lat="43.29090142852319" lon="13.322205200335866"><ele>222.0</ele><time>2026-04-20T07:39:48.999Z</time></trkpt><trkpt lat="43.29097036828956" lon="13.322030076551915"><ele>225.5</ele><time>2026-04-20T07:39:49.999Z</time></trkpt><trkpt lat="43.29103880495465" lon="13.321851006063477"><ele>229.0</ele><time>2026-04-20T07:39:50.998Z</time></trkpt><trkpt lat="43.291099704627726" lon="13.321665437960055"><ele>229.0</ele><time>2026-04-20T07:39:51.998Z</time></trkpt><trkpt lat="43.2911598188987" lon="13.321485815018345"><ele>229.0</ele><time>2026-04-20T07:39:52.998Z</time></trkpt><trkpt lat="43.291205380085934" lon="13.321317535158018"><ele>229.0</ele><time>2026-04-20T07:39:53.998Z</time></trkpt><trkpt lat="43.29124665406891" lon="13.321149759079264"><ele>229.0</ele><time>2026-04-20T07:39:54.998Z</time></trkpt><trkpt lat="43.29128329422401" lon="13.320992203388808"><ele>231.5</ele><time>2026-04-20T07:39:55.998Z</time></trkpt><trkpt lat="43.291316953514155" lon="13.32082869912942"><ele>234.0</ele><time>2026-04-20T07:39:56.998Z</time></trkpt><trkpt lat="43.291349358504036" lon="13.320675805404326"><ele>236.5</ele><time>2026-04-20T07:39:57.998Z</time></trkpt><trkpt lat="43.29137320792144" lon="13.32051563545781"><ele>239.0</ele><time>2026-04-20T07:39:58.998Z</time></trkpt><trkpt lat="43.291391791568344" lon="13.320357021421854"><ele>240.5</ele><time>2026-04-20T07:39:59.998Z</time></trkpt><trkpt lat="43.29139481330077" lon="13.320194188637693"><ele>242.0</ele><time>2026-04-20T07:40:00.998Z</time></trkpt><trkpt lat="43.29138063279672" lon="13.320023216359399"><ele>243.5</ele><time>2026-04-20T07:40:01.998Z</time></trkpt><trkpt lat="43.29136377843204" lon="13.319852774352531"><ele>245.0</ele><time>2026-04-20T07:40:02.998Z</time></trkpt><trkpt lat="43.29133336411986" lon="13.31966831335393"><ele>246.25</ele><time>2026-04-20T07:40:03.998Z</time></trkpt><trkpt lat="43.291306317405265" lon="13.319479345029933"><ele>247.5</ele><time>2026-04-20T07:40:04.998Z</time></trkpt><trkpt lat="43.291282456381474" lon="13.319295622181818"><ele>248.75</ele><time>2026-04-20T07:40:05.998Z</time></trkpt><trkpt lat="43.29125341272407" lon="13.319109169570476"><ele>250.0</ele><time>2026-04-20T07:40:06.998Z</time></trkpt><trkpt lat="43.29121787323574" lon="13.318934817802171"><ele>251.25</ele><time>2026-04-20T07:40:07.998Z</time></trkpt><trkpt lat="43.29118518356771" lon="13.318770439205636"><ele>252.5</ele><time>2026-04-20T07:40:08.998Z</time></trkpt><trkpt lat="43.291151203740554" lon="13.318601295192913"><ele>253.75</ele><time>2026-04-20T07:40:09.998Z</time></trkpt><trkpt lat="43.29112452965236" lon="13.318426980830466"><ele>255.0</ele><time>2026-04-20T07:40:10.998Z</time></trkpt><trkpt lat="43.29109190682986" lon="13.318257737581218"><ele>255.0</ele><time>2026-04-20T07:40:11.998Z</time></trkpt><trkpt lat="43.29106921862849" lon="13.318092576875948"><ele>255.0</ele><time>2026-04-20T07:40:12.998Z</time></trkpt><trkpt lat="43.29105393555971" lon="13.317918920436044"><ele>255.0</ele><time>2026-04-20T07:40:13.998Z</time></trkpt><trkpt lat="43.29103849983458" lon="13.317752411957708"><ele>255.0</ele><time>2026-04-20T07:40:14.998Z</time></trkpt><trkpt lat="43.29101950894718" lon="13.317587220780323"><ele>256.0</ele><time>2026-04-20T07:40:15.998Z</time></trkpt><trkpt lat="43.29102185261272" lon="13.317416323005157"><ele>257.0</ele><time>2026-04-20T07:40:16.998Z</time></trkpt><trkpt lat="43.29101691114196" lon="13.31728059080617"><ele>258.0</ele><time>2026-04-20T07:40:17.998Z</time></trkpt><trkpt lat="43.29100375744901" lon="13.317161236135762"><ele>259.0</ele><time>2026-04-20T07:40:18.998Z</time></trkpt><trkpt lat="43.2909936513906" lon="13.317069579146342"><ele>260.0</ele><time>2026-04-20T07:40:19.998Z</time></trkpt><trkpt lat="43.290990793347405" lon="13.316947515820315"><ele>260.33333333333337</ele><time>2026-04-20T07:40:21.998Z</time></trkpt><trkpt lat="43.2910055126814" lon="13.316796593842293"><ele>260.6666666666667</ele><time>2026-04-20T07:40:23.998Z</time></trkpt><trkpt lat="43.29102096545931" lon="13.316684496658667"><ele>261.0</ele><time>2026-04-20T07:40:24.998Z</time></trkpt><trkpt lat="43.29103995200961" lon="13.316574827398789"><ele>261.3333333333333</ele><time>2026-04-20T07:40:25.998Z</time></trkpt><trkpt lat="43.291064240491195" lon="13.316475602216983"><ele>261.66666666666663</ele><time>2026-04-20T07:40:26.998Z</time></trkpt><trkpt lat="43.29109850671062" lon="13.316375250646825"><ele>262.0</ele><time>2026-04-20T07:40:27.998Z</time></trkpt><trkpt lat="43.291140370548796" lon="13.316279720048218"><ele>262.16666666666663</ele><time>2026-04-20T07:40:28.998Z</time></trkpt><trkpt lat="43.291182979240624" lon="13.316183636118144"><ele>262.3333333333333</ele><time>2026-04-20T07:40:30Z</time></trkpt><trkpt lat="43.29122781811701" lon="13.316081473700986"><ele>262.5</ele><time>2026-04-20T07:40:31Z</time></trkpt><trkpt lat="43.2912780219175" lon="13.315981732524182"><ele>262.6666666666667</ele><time>2026-04-20T07:40:32Z</time></trkpt><trkpt lat="43.291319521362986" lon="13.315885533112155"><ele>262.83333333333337</ele><time>2026-04-20T07:40:33Z</time></trkpt><trkpt lat="43.29136138990332" lon="13.315803185874984"><ele>263.0</ele><time>2026-04-20T07:40:34Z</time></trkpt><trkpt lat="43.29140503777161" lon="13.315705924884467"><ele>262.83333333333337</ele><time>2026-04-20T07:40:35Z</time></trkpt><trkpt lat="43.29144659135225" lon="13.315610997179862"><ele>262.6666666666667</ele><time>2026-04-20T07:40:36Z</time></trkpt><trkpt lat="43.29147929051027" lon="13.315519511584084"><ele>262.5</ele><time>2026-04-20T07:40:37Z</time></trkpt><trkpt lat="43.291527589070235" lon="13.315398353348689"><ele>262.3333333333333</ele><time>2026-04-20T07:40:39Z</time></trkpt><trkpt lat="43.29158466634264" lon="13.315338614421108"><ele>262.16666666666663</ele><time>2026-04-20T07:40:41Z</time></trkpt><trkpt lat="43.29166834955408" lon="13.315373685048618"><ele>262.0</ele><time>2026-04-20T07:40:43Z</time></trkpt><trkpt lat="43.29175963359058" lon="13.31539709152042"><ele>262.0</ele><time>2026-04-20T07:40:45Z</time></trkpt><trkpt lat="43.29186895100513" lon="13.315413339667497"><ele>262.0</ele><time>2026-04-20T07:40:47Z</time></trkpt><trkpt lat="43.291990980184856" lon="13.315406112144236"><ele>262.0</ele><time>2026-04-20T07:40:49Z</time></trkpt><trkpt lat="43.29205432969741" lon="13.315398835982029"><ele>262.0</ele><time>2026-04-20T07:40:50Z</time></trkpt><trkpt lat="43.292116691244146" lon="13.315367138901799"><ele>262.0</ele><time>2026-04-20T07:40:51Z</time></trkpt><trkpt lat="43.29223967325104" lon="13.315273937624418"><ele>259.16666666666663</ele><time>2026-04-20T07:40:53Z</time></trkpt><trkpt lat="43.292308150140684" lon="13.315223312618079"><ele>256.3333333333333</ele><time>2026-04-20T07:40:54Z</time></trkpt><trkpt lat="43.29237110059553" lon="13.315174038194934"><ele>253.5</ele><time>2026-04-20T07:40:55Z</time></trkpt><trkpt lat="43.29243784468059" lon="13.315122827602647"><ele>250.66666666666669</ele><time>2026-04-20T07:40:56Z</time></trkpt><trkpt lat="43.29250718832686" lon="13.315098887225176"><ele>247.83333333333334</ele><time>2026-04-20T07:40:57Z</time></trkpt><trkpt lat="43.29261328019991" lon="13.315104322349168"><ele>245.0</ele><time>2026-04-20T07:40:58Z</time></trkpt><trkpt lat="43.292719433893254" lon="13.315120517699512"><ele>245.0</ele><time>2026-04-20T07:40:59Z</time></trkpt><trkpt lat="43.29282981907733" lon="13.315133619258397"><ele>245.0</ele><time>2026-04-20T07:41:00Z</time></trkpt><trkpt lat="43.29293167086135" lon="13.315145989452727"><ele>245.0</ele><time>2026-04-20T07:41:01Z</time></trkpt><trkpt lat="43.29303089564721" lon="13.315157380438064"><ele>245.0</ele><time>2026-04-20T07:41:02Z</time></trkpt><trkpt lat="43.29312981884309" lon="13.315166149860504"><ele>245.0</ele><time>2026-04-20T07:41:02.999Z</time></trkpt><trkpt lat="43.29323041165042" lon="13.315174368865055"><ele>242.8</ele><time>2026-04-20T07:41:03.999Z</time></trkpt><trkpt lat="43.29333113275541" lon="13.315172493200812"><ele>240.6</ele><time>2026-04-20T07:41:04.999Z</time></trkpt><trkpt lat="43.293431812632946" lon="13.315177518302189"><ele>238.39999999999998</ele><time>2026-04-20T07:41:05.999Z</time></trkpt><trkpt lat="43.2935149083129" lon="13.31523163774122"><ele>236.2</ele><time>2026-04-20T07:41:06.999Z</time></trkpt><trkpt lat="43.29360365379585" lon="13.315269122023416"><ele>234.0</ele><time>2026-04-20T07:41:07.999Z</time></trkpt><trkpt lat="43.29367483175286" lon="13.315280998316027"><ele>234.0</ele><time>2026-04-20T07:41:08.999Z</time></trkpt><trkpt lat="43.29374093551292" lon="13.31531098623541"><ele>233.99999999999997</ele><time>2026-04-20T07:41:09.999Z</time></trkpt><trkpt lat="43.29385701269907" lon="13.315335857154603"><ele>233.99999999999997</ele><time>2026-04-20T07:41:11.999Z</time></trkpt><trkpt lat="43.29396379984686" lon="13.315310686775632"><ele>234.0</ele><time>2026-04-20T07:41:13.999Z</time></trkpt><trkpt lat="43.29401665996657" lon="13.315255580217157"><ele>234.0</ele><time>2026-04-20T07:41:14.999Z</time></trkpt><trkpt lat="43.29410264853388" lon="13.315121698149516"><ele>232.5</ele><time>2026-04-20T07:41:16.999Z</time></trkpt><trkpt lat="43.29415946602314" lon="13.315054851896003"><ele>231.0</ele><time>2026-04-20T07:41:17.999Z</time></trkpt><trkpt lat="43.29420331023075" lon="13.314976968795682"><ele>229.5</ele><time>2026-04-20T07:41:18.999Z</time></trkpt><trkpt lat="43.29425012120256" lon="13.3148880541313"><ele>228.0</ele><time>2026-04-20T07:41:19.999Z</time></trkpt><trkpt lat="43.29428449628365" lon="13.314802888593212"><ele>226.5</ele><time>2026-04-20T07:41:20.999Z</time></trkpt><trkpt lat="43.294329439904466" lon="13.314732597426303"><ele>225.0</ele><time>2026-04-20T07:41:21.999Z</time></trkpt><trkpt lat="43.29438311524791" lon="13.314591325158629"><ele>225.0</ele><time>2026-04-20T07:41:23.999Z</time></trkpt><trkpt lat="43.29441355187573" lon="13.314515068446958"><ele>225.0</ele><time>2026-04-20T07:41:24.999Z</time></trkpt><trkpt lat="43.29446694225947" lon="13.314401141336065"><ele>225.0</ele><time>2026-04-20T07:41:26.999Z</time></trkpt><trkpt lat="43.294508063908076" lon="13.314311520578203"><ele>225.0</ele><time>2026-04-20T07:41:28.999Z</time></trkpt><trkpt lat="43.29458460325121" lon="13.314300395785018"><ele>225.0</ele><time>2026-04-20T07:41:31.999Z</time></trkpt><trkpt lat="43.29462906771574" lon="13.314388525079782"><ele>225.0</ele><time>2026-04-20T07:41:33.999Z</time></trkpt><trkpt lat="43.294602573943536" lon="13.314471248255886"><ele>225.0</ele><time>2026-04-20T07:41:34.999Z</time></trkpt><trkpt lat="43.29461024247492" lon="13.314629324071875"><ele>225.0</ele><time>2026-04-20T07:41:36.999Z</time></trkpt><trkpt lat="43.29461430626106" lon="13.314724076341292"><ele>225.0</ele><time>2026-04-20T07:41:37.999Z</time></trkpt><trkpt lat="43.294622647542226" lon="13.314823666940775"><ele>225.0</ele><time>2026-04-20T07:41:38.999Z</time></trkpt><trkpt lat="43.29463023477857" lon="13.314916239642912"><ele>225.0</ele><time>2026-04-20T07:41:39.999Z</time></trkpt><trkpt lat="43.29465227065919" lon="13.315016870143504"><ele>225.0</ele><time>2026-04-20T07:41:40.999Z</time></trkpt><trkpt lat="43.2946769331107" lon="13.315107662318644"><ele>225.0</ele><time>2026-04-20T07:41:41.999Z</time></trkpt><trkpt lat="43.29469924424321" lon="13.31519457790078"><ele>225.0</ele><time>2026-04-20T07:41:42.999Z</time></trkpt><trkpt lat="43.29470214904891" lon="13.315371562983392"><ele>225.0</ele><time>2026-04-20T07:41:44.999Z</time></trkpt><trkpt lat="43.294694381926156" lon="13.315483667270577"><ele>225.0</ele><time>2026-04-20T07:41:45.999Z</time></trkpt><trkpt lat="43.294662817209925" lon="13.315604035552967"><ele>225.0</ele><time>2026-04-20T07:41:46.999Z</time></trkpt><trkpt lat="43.29464952865007" lon="13.315724546596403"><ele>222.6</ele><time>2026-04-20T07:41:47.999Z</time></trkpt><trkpt lat="43.29463361544244" lon="13.315848590405437"><ele>220.2</ele><time>2026-04-20T07:41:48.999Z</time></trkpt><trkpt lat="43.294609345478456" lon="13.315969862679983"><ele>217.8</ele><time>2026-04-20T07:41:49.999Z</time></trkpt><trkpt lat="43.294577966071046" lon="13.316097222718323"><ele>215.4</ele><time>2026-04-20T07:41:50.999Z</time></trkpt><trkpt lat="43.2945437954842" lon="13.316221626667744"><ele>213.0</ele><time>2026-04-20T07:41:51.999Z</time></trkpt><trkpt lat="43.29451612827168" lon="13.316335000921631"><ele>210.0</ele><time>2026-04-20T07:41:52.999Z</time></trkpt><trkpt lat="43.29449763632659" lon="13.316428162851027"><ele>207.0</ele><time>2026-04-20T07:41:53.998Z</time></trkpt><trkpt lat="43.29448570293482" lon="13.316528544468003"><ele>204.0</ele><time>2026-04-20T07:41:54.998Z</time></trkpt><trkpt lat="43.294459666300796" lon="13.31662103015024"><ele>201.0</ele><time>2026-04-20T07:41:55.998Z</time></trkpt><trkpt lat="43.29445635319433" lon="13.316732191814474"><ele>198.0</ele><time>2026-04-20T07:41:56.998Z</time></trkpt><trkpt lat="43.29446692246583" lon="13.316844890424864"><ele>195.0</ele><time>2026-04-20T07:41:57.998Z</time></trkpt><trkpt lat="43.294482252096415" lon="13.316957695283895"><ele>195.0</ele><time>2026-04-20T07:41:58.998Z</time></trkpt><trkpt lat="43.29451078518176" lon="13.317077024304345"><ele>195.0</ele><time>2026-04-20T07:41:59.998Z</time></trkpt><trkpt lat="43.29454300235688" lon="13.317194308434907"><ele>195.0</ele><time>2026-04-20T07:42:00.998Z</time></trkpt><trkpt lat="43.294566706841884" lon="13.317321604147912"><ele>195.0</ele><time>2026-04-20T07:42:01.998Z</time></trkpt><trkpt lat="43.29459490389083" lon="13.317454692371602"><ele>195.0</ele><time>2026-04-20T07:42:02.998Z</time></trkpt><trkpt lat="43.29464663801924" lon="13.317586722335959"><ele>192.5</ele><time>2026-04-20T07:42:03.998Z</time></trkpt><trkpt lat="43.294720101149935" lon="13.317695851882549"><ele>190.0</ele><time>2026-04-20T07:42:04.998Z</time></trkpt><trkpt lat="43.29483213518882" lon="13.317794869243034"><ele>187.5</ele><time>2026-04-20T07:42:05.998Z</time></trkpt><trkpt lat="43.29495848107674" lon="13.317894587790173"><ele>185.0</ele><time>2026-04-20T07:42:06.998Z</time></trkpt><trkpt lat="43.29507005393008" lon="13.31800191757124"><ele>181.6</ele><time>2026-04-20T07:42:07.998Z</time></trkpt><trkpt lat="43.295167957715414" lon="13.318101750980375"><ele>178.2</ele><time>2026-04-20T07:42:08.998Z</time></trkpt><trkpt lat="43.29524872139197" lon="13.318156489130182"><ele>174.8</ele><time>2026-04-20T07:42:09.998Z</time></trkpt><trkpt lat="43.29533900200807" lon="13.318210422816497"><ele>171.4</ele><time>2026-04-20T07:42:10.998Z</time></trkpt><trkpt lat="43.2954353581621" lon="13.31825672944782"><ele>168.0</ele><time>2026-04-20T07:42:11.998Z</time></trkpt><trkpt lat="43.29553969461749" lon="13.318298895569143"><ele>169.5</ele><time>2026-04-20T07:42:12.998Z</time></trkpt><trkpt lat="43.29565066436954" lon="13.318356110189573"><ele>171.0</ele><time>2026-04-20T07:42:13.998Z</time></trkpt><trkpt lat="43.29574445399838" lon="13.31845976861885"><ele>172.5</ele><time>2026-04-20T07:42:14.998Z</time></trkpt><trkpt lat="43.29586277115466" lon="13.318581636606117"><ele>174.0</ele><time>2026-04-20T07:42:15.998Z</time></trkpt><trkpt lat="43.295970435864085" lon="13.318723881005367"><ele>174.0</ele><time>2026-04-20T07:42:16.998Z</time></trkpt><trkpt lat="43.29609308863941" lon="13.318864257704739"><ele>174.0</ele><time>2026-04-20T07:42:17.998Z</time></trkpt><trkpt lat="43.29623023030829" lon="13.318987463101129"><ele>174.0</ele><time>2026-04-20T07:42:18.998Z</time></trkpt><trkpt lat="43.29635976172577" lon="13.319086136137836"><ele>177.39999999999998</ele><time>2026-04-20T07:42:19.998Z</time></trkpt><trkpt lat="43.29646652094772" lon="13.319175111971866"><ele>180.8</ele><time>2026-04-20T07:42:20.998Z</time></trkpt><trkpt lat="43.29655016927111" lon="13.319235947077841"><ele>184.2</ele><time>2026-04-20T07:42:21.998Z</time></trkpt><trkpt lat="43.29664656012004" lon="13.31930007838189"><ele>187.60000000000002</ele><time>2026-04-20T07:42:23.998Z</time></trkpt><trkpt lat="43.296714884179536" lon="13.319323275821572"><ele>191.0</ele><time>2026-04-20T07:42:25.998Z</time></trkpt><trkpt lat="43.29684921786735" lon="13.319310369971411"><ele>191.0</ele><time>2026-04-20T07:42:27.998Z</time></trkpt><trkpt lat="43.296942127963334" lon="13.31926181776036"><ele>191.0</ele><time>2026-04-20T07:42:28.998Z</time></trkpt><trkpt lat="43.29703206576327" lon="13.319213166190762"><ele>191.0</ele><time>2026-04-20T07:42:29.998Z</time></trkpt><trkpt lat="43.29712623843637" lon="13.319174203822897"><ele>191.0</ele><time>2026-04-20T07:42:30.998Z</time></trkpt><trkpt lat="43.2972069446331" lon="13.3191480585206"><ele>191.0</ele><time>2026-04-20T07:42:31.998Z</time></trkpt><trkpt lat="43.29727454398168" lon="13.319115575242764"><ele>191.0</ele><time>2026-04-20T07:42:32.998Z</time></trkpt><trkpt lat="43.29736704680283" lon="13.319129678853228"><ele>193.20000000000002</ele><time>2026-04-20T07:42:34.998Z</time></trkpt><trkpt lat="43.297484870512505" lon="13.31914237796956"><ele>195.4</ele><time>2026-04-20T07:42:36.999Z</time></trkpt><trkpt lat="43.29756574772268" lon="13.319164262797972"><ele>197.6</ele><time>2026-04-20T07:42:40Z</time></trkpt><trkpt lat="43.29767312979839" lon="13.319232459749658"><ele>199.8</ele><time>2026-04-20T07:42:46Z</time></trkpt><trkpt lat="43.29775448491815" lon="13.319225625658564"><ele>202.0</ele><time>2026-04-20T07:42:47Z</time></trkpt><trkpt lat="43.29784236200554" lon="13.319190494872998"><ele>202.0</ele><time>2026-04-20T07:42:48Z</time></trkpt><trkpt lat="43.29793762217258" lon="13.319158252558477"><ele>202.0</ele><time>2026-04-20T07:42:49Z</time></trkpt><trkpt lat="43.298045500494744" lon="13.319131895894818"><ele>202.0</ele><time>2026-04-20T07:42:50Z</time></trkpt><trkpt lat="43.29815570001501" lon="13.319100149936306"><ele>202.0</ele><time>2026-04-20T07:42:51Z</time></trkpt><trkpt lat="43.29827585198414" lon="13.319084753524205"><ele>202.0</ele><time>2026-04-20T07:42:52Z</time></trkpt><trkpt lat="43.29839625680522" lon="13.319034109217656"><ele>202.0</ele><time>2026-04-20T07:42:53Z</time></trkpt><trkpt lat="43.29851944903913" lon="13.319004922567245"><ele>202.0</ele><time>2026-04-20T07:42:54Z</time></trkpt><trkpt lat="43.2986347570079" lon="13.31897402943148"><ele>202.0</ele><time>2026-04-20T07:42:55Z</time></trkpt><trkpt lat="43.29875229649612" lon="13.31894239609581"><ele>202.0</ele><time>2026-04-20T07:42:56Z</time></trkpt><trkpt lat="43.29885575350461" lon="13.318882189759558"><ele>205.25</ele><time>2026-04-20T07:42:57Z</time></trkpt><trkpt lat="43.298932794714204" lon="13.318760361382171"><ele>208.5</ele><time>2026-04-20T07:42:57.999Z</time></trkpt><trkpt lat="43.29897323096072" lon="13.31859801308794"><ele>211.75</ele><time>2026-04-20T07:42:58.999Z</time></trkpt><trkpt lat="43.29897427257569" lon="13.318421509919697"><ele>215.0</ele><time>2026-04-20T07:42:59.999Z</time></trkpt><trkpt lat="43.29894609934909" lon="13.318237728597605"><ele>215.5</ele><time>2026-04-20T07:43:00.999Z</time></trkpt><trkpt lat="43.298912176226736" lon="13.31805449620327"><ele>216.0</ele><time>2026-04-20T07:43:01.999Z</time></trkpt><trkpt lat="43.29888278357106" lon="13.317889915900064"><ele>216.5</ele><time>2026-04-20T07:43:02.999Z</time></trkpt><trkpt lat="43.29887948152791" lon="13.317738561066152"><ele>217.0</ele><time>2026-04-20T07:43:03.999Z</time></trkpt><trkpt lat="43.298918455950165" lon="13.317597499715314"><ele>217.0</ele><time>2026-04-20T07:43:04.999Z</time></trkpt><trkpt lat="43.298999759184824" lon="13.317467563626723"><ele>217.0</ele><time>2026-04-20T07:43:05.999Z</time></trkpt><trkpt lat="43.29909583742238" lon="13.317349343678066"><ele>217.0</ele><time>2026-04-20T07:43:06.999Z</time></trkpt><trkpt lat="43.2992021826062" lon="13.317237919551626"><ele>217.0</ele><time>2026-04-20T07:43:07.999Z</time></trkpt><trkpt lat="43.29930693029976" lon="13.317114487465503"><ele>216.0</ele><time>2026-04-20T07:43:08.999Z</time></trkpt><trkpt lat="43.29941468892321" lon="13.316979818408251"><ele>215.0</ele><time>2026-04-20T07:43:09.999Z</time></trkpt><trkpt lat="43.29952672204374" lon="13.316842375200922"><ele>214.0</ele><time>2026-04-20T07:43:10.999Z</time></trkpt><trkpt lat="43.299640196372025" lon="13.316698145357238"><ele>215.66666666666666</ele><time>2026-04-20T07:43:11.999Z</time></trkpt><trkpt lat="43.29975722092527" lon="13.316553667033238"><ele>217.33333333333331</ele><time>2026-04-20T07:43:12.999Z</time></trkpt><trkpt lat="43.299874556150684" lon="13.316409784260685"><ele>219.0</ele><time>2026-04-20T07:43:13.999Z</time></trkpt><trkpt lat="43.299989920595806" lon="13.316266167301407"><ele>219.0</ele><time>2026-04-20T07:43:14.999Z</time></trkpt><trkpt lat="43.30009810337634" lon="13.316126791441691"><ele>219.0</ele><time>2026-04-20T07:43:15.999Z</time></trkpt><trkpt lat="43.30020805507649" lon="13.31598734424405"><ele>219.0</ele><time>2026-04-20T07:43:16.999Z</time></trkpt><trkpt lat="43.30031282900783" lon="13.31585447589781"><ele>219.0</ele><time>2026-04-20T07:43:17.999Z</time></trkpt><trkpt lat="43.30041599293472" lon="13.315727238780445"><ele>219.0</ele><time>2026-04-20T07:43:18.999Z</time></trkpt><trkpt lat="43.30051787061369" lon="13.315606649615887"><ele>219.0</ele><time>2026-04-20T07:43:19.999Z</time></trkpt><trkpt lat="43.30060714921843" lon="13.315493100740309"><ele>219.0</ele><time>2026-04-20T07:43:20.999Z</time></trkpt><trkpt lat="43.300699767882" lon="13.31536718562825"><ele>219.0</ele><time>2026-04-20T07:43:21.999Z</time></trkpt><trkpt lat="43.30079929796891" lon="13.31524076745672"><ele>220.75</ele><time>2026-04-20T07:43:22.999Z</time></trkpt><trkpt lat="43.30088780865414" lon="13.315135423832782"><ele>222.5</ele><time>2026-04-20T07:43:23.999Z</time></trkpt><trkpt lat="43.30098049911094" lon="13.315026400144237"><ele>224.25</ele><time>2026-04-20T07:43:24.999Z</time></trkpt><trkpt lat="43.30105938061043" lon="13.31491778863691"><ele>226.0</ele><time>2026-04-20T07:43:25.999Z</time></trkpt><trkpt lat="43.30114366069694" lon="13.314814905419553"><ele>226.0</ele><time>2026-04-20T07:43:26.999Z</time></trkpt><trkpt lat="43.30120875246796" lon="13.314729904665873"><ele>226.00000000000003</ele><time>2026-04-20T07:43:27.999Z</time></trkpt><trkpt lat="43.3012796413062" lon="13.314632147026526"><ele>226.00000000000003</ele><time>2026-04-20T07:43:28.999Z</time></trkpt><trkpt lat="43.301361813820144" lon="13.314522914155548"><ele>226.0</ele><time>2026-04-20T07:43:29.999Z</time></trkpt><trkpt lat="43.301450746792334" lon="13.314414022779468"><ele>226.0</ele><time>2026-04-20T07:43:30.999Z</time></trkpt><trkpt lat="43.30153821024989" lon="13.31430848669637"><ele>227.20000000000002</ele><time>2026-04-20T07:43:31.999Z</time></trkpt><trkpt lat="43.30161152811506" lon="13.314220966726394"><ele>228.40000000000003</ele><time>2026-04-20T07:43:32.999Z</time></trkpt><trkpt lat="43.301693009287874" lon="13.314123665363956"><ele>229.6</ele><time>2026-04-20T07:43:33.999Z</time></trkpt><trkpt lat="43.30177988615376" lon="13.314009780554006"><ele>230.8</ele><time>2026-04-20T07:43:34.999Z</time></trkpt><trkpt lat="43.30186541437707" lon="13.313895648464511"><ele>232.0</ele><time>2026-04-20T07:43:35.999Z</time></trkpt><trkpt lat="43.301947676400665" lon="13.313795741024876"><ele>232.0</ele><time>2026-04-20T07:43:36.999Z</time></trkpt><trkpt lat="43.30203535729934" lon="13.313683068193578"><ele>232.0</ele><time>2026-04-20T07:43:37.999Z</time></trkpt><trkpt lat="43.302133128921525" lon="13.313577876792705"><ele>232.0</ele><time>2026-04-20T07:43:38.999Z</time></trkpt><trkpt lat="43.30225568234197" lon="13.313506621465903"><ele>232.0</ele><time>2026-04-20T07:43:39.999Z</time></trkpt><trkpt lat="43.30238754197167" lon="13.313483526136967"><ele>233.75</ele><time>2026-04-20T07:43:40.999Z</time></trkpt><trkpt lat="43.30252224949533" lon="13.31349123066738"><ele>235.5</ele><time>2026-04-20T07:43:41.999Z</time></trkpt><trkpt lat="43.30265899595909" lon="13.31350427366811"><ele>237.25</ele><time>2026-04-20T07:43:42.999Z</time></trkpt><trkpt lat="43.30279504386508" lon="13.313505699766973"><ele>239.0</ele><time>2026-04-20T07:43:43.999Z</time></trkpt><trkpt lat="43.30291772556208" lon="13.313506464546505"><ele>239.0</ele><time>2026-04-20T07:43:44.999Z</time></trkpt><trkpt lat="43.30303071011849" lon="13.31349571976482"><ele>239.0</ele><time>2026-04-20T07:43:45.999Z</time></trkpt><trkpt lat="43.303153090305706" lon="13.313494542111567"><ele>239.0</ele><time>2026-04-20T07:43:46.999Z</time></trkpt><trkpt lat="43.303273418966654" lon="13.31348743279106"><ele>239.0</ele><time>2026-04-20T07:43:47.999Z</time></trkpt><trkpt lat="43.303387651568826" lon="13.31348724052089"><ele>239.75</ele><time>2026-04-20T07:43:48.999Z</time></trkpt><trkpt lat="43.3034957717818" lon="13.313467338310044"><ele>240.5</ele><time>2026-04-20T07:43:49.999Z</time></trkpt><trkpt lat="43.30360091829598" lon="13.31341599970592"><ele>241.25</ele><time>2026-04-20T07:43:50.999Z</time></trkpt><trkpt lat="43.30370994819476" lon="13.313336859309121"><ele>242.0</ele><time>2026-04-20T07:43:51.999Z</time></trkpt><trkpt lat="43.303820825078425" lon="13.313246930350727"><ele>243.0</ele><time>2026-04-20T07:43:52.999Z</time></trkpt><trkpt lat="43.3039371713908" lon="13.313152415627131"><ele>244.0</ele><time>2026-04-20T07:43:53.999Z</time></trkpt><trkpt lat="43.30405836265861" lon="13.313056511046526"><ele>245.0</ele><time>2026-04-20T07:43:54.998Z</time></trkpt><trkpt lat="43.304181067862565" lon="13.312963353058159"><ele>246.0</ele><time>2026-04-20T07:43:55.998Z</time></trkpt><trkpt lat="43.304309233639025" lon="13.312890489215247"><ele>246.0</ele><time>2026-04-20T07:43:56.998Z</time></trkpt><trkpt lat="43.30442578761966" lon="13.312829094398214"><ele>246.0</ele><time>2026-04-20T07:43:57.998Z</time></trkpt><trkpt lat="43.30455766644963" lon="13.31279781580137"><ele>246.0</ele><time>2026-04-20T07:43:58.998Z</time></trkpt><trkpt lat="43.30469910556879" lon="13.31279266931097"><ele>246.0</ele><time>2026-04-20T07:43:59.998Z</time></trkpt><trkpt lat="43.30484185577348" lon="13.312780283191328"><ele>246.75</ele><time>2026-04-20T07:44:00.998Z</time></trkpt><trkpt lat="43.304986762591724" lon="13.312762559005389"><ele>247.5</ele><time>2026-04-20T07:44:01.998Z</time></trkpt><trkpt lat="43.305128905405304" lon="13.312755102762491"><ele>248.25</ele><time>2026-04-20T07:44:02.998Z</time></trkpt><trkpt lat="43.3052573724254" lon="13.312751140281847"><ele>249.0</ele><time>2026-04-20T07:44:03.998Z</time></trkpt><trkpt lat="43.30538685237663" lon="13.312737295889246"><ele>249.0</ele><time>2026-04-20T07:44:04.998Z</time></trkpt><trkpt lat="43.30550675558394" lon="13.31272551584035"><ele>248.99999999999997</ele><time>2026-04-20T07:44:05.998Z</time></trkpt><trkpt lat="43.3056075886314" lon="13.312708355127006"><ele>248.99999999999997</ele><time>2026-04-20T07:44:06.998Z</time></trkpt><trkpt lat="43.305702779565486" lon="13.312667515834526"><ele>249.0</ele><time>2026-04-20T07:44:07.998Z</time></trkpt><trkpt lat="43.30580553420683" lon="13.312572056181114"><ele>249.0</ele><time>2026-04-20T07:44:08.998Z</time></trkpt><trkpt lat="43.305868450291705" lon="13.31242553329138"><ele>251.0</ele><time>2026-04-20T07:44:09.998Z</time></trkpt><trkpt lat="43.30588631560635" lon="13.31225368585212"><ele>253.0</ele><time>2026-04-20T07:44:10.998Z</time></trkpt><trkpt lat="43.30588120333507" lon="13.312048197827558"><ele>255.0</ele><time>2026-04-20T07:44:11.998Z</time></trkpt><trkpt lat="43.30587532700483" lon="13.311842202937656"><ele>257.0</ele><time>2026-04-20T07:44:12.998Z</time></trkpt><trkpt lat="43.305880327412844" lon="13.311674151207798"><ele>257.0</ele><time>2026-04-20T07:44:13.998Z</time></trkpt><trkpt lat="43.30588081139811" lon="13.311518012022086"><ele>257.0</ele><time>2026-04-20T07:44:14.998Z</time></trkpt><trkpt lat="43.305880585118146" lon="13.311383200936879"><ele>257.0</ele><time>2026-04-20T07:44:15.998Z</time></trkpt><trkpt lat="43.30590242769746" lon="13.311244369528788"><ele>257.0</ele><time>2026-04-20T07:44:16.998Z</time></trkpt><trkpt lat="43.305961826564975" lon="13.311121596440554"><ele>257.0</ele><time>2026-04-20T07:44:17.998Z</time></trkpt><trkpt lat="43.3060533435776" lon="13.31103621630416"><ele>257.25</ele><time>2026-04-20T07:44:18.998Z</time></trkpt><trkpt lat="43.30616159595226" lon="13.310973092984389"><ele>257.5</ele><time>2026-04-20T07:44:19.998Z</time></trkpt><trkpt lat="43.30626605651157" lon="13.310910070373497"><ele>257.75</ele><time>2026-04-20T07:44:20.998Z</time></trkpt><trkpt lat="43.30637079503986" lon="13.310836653939178"><ele>258.0</ele><time>2026-04-20T07:44:21.998Z</time></trkpt><trkpt lat="43.30648050378027" lon="13.310766862152896"><ele>258.6</ele><time>2026-04-20T07:44:22.998Z</time></trkpt><trkpt lat="43.30659443739857" lon="13.310689946328763"><ele>259.20000000000005</ele><time>2026-04-20T07:44:23.998Z</time></trkpt><trkpt lat="43.30669668571689" lon="13.310611762269366"><ele>259.8</ele><time>2026-04-20T07:44:24.998Z</time></trkpt><trkpt lat="43.30678720939785" lon="13.310550804844489"><ele>260.40000000000003</ele><time>2026-04-20T07:44:25.998Z</time></trkpt><trkpt lat="43.30688168412176" lon="13.310500422645188"><ele>261.0</ele><time>2026-04-20T07:44:26.998Z</time></trkpt><trkpt lat="43.30698909640041" lon="13.310455701962786"><ele>261.0</ele><time>2026-04-20T07:44:27.998Z</time></trkpt><trkpt lat="43.3071100371546" lon="13.310469252618256"><ele>261.0</ele><time>2026-04-20T07:44:28.998Z</time></trkpt><trkpt lat="43.30722431333729" lon="13.31053447031001"><ele>261.0</ele><time>2026-04-20T07:44:29.998Z</time></trkpt><trkpt lat="43.307341223997724" lon="13.31060820605947"><ele>261.0</ele><time>2026-04-20T07:44:30.998Z</time></trkpt><trkpt lat="43.30746819814238" lon="13.310674086686163"><ele>263.75</ele><time>2026-04-20T07:44:31.998Z</time></trkpt><trkpt lat="43.307581571445525" lon="13.310751361360657"><ele>266.5</ele><time>2026-04-20T07:44:32.998Z</time></trkpt><trkpt lat="43.30769598865817" lon="13.310833001517173"><ele>269.25</ele><time>2026-04-20T07:44:33.998Z</time></trkpt><trkpt lat="43.30781366490258" lon="13.310910479932296"><ele>272.0</ele><time>2026-04-20T07:44:34.998Z</time></trkpt><trkpt lat="43.30793017837145" lon="13.310985797885655"><ele>272.0</ele><time>2026-04-20T07:44:35.998Z</time></trkpt><trkpt lat="43.308044960696996" lon="13.31105688057231"><ele>272.0</ele><time>2026-04-20T07:44:36.998Z</time></trkpt><trkpt lat="43.30813601883591" lon="13.311124802979897"><ele>272.0</ele><time>2026-04-20T07:44:37.998Z</time></trkpt><trkpt lat="43.30822201033718" lon="13.311182407360029"><ele>272.0</ele><time>2026-04-20T07:44:38.998Z</time></trkpt><trkpt lat="43.308316979696265" lon="13.311235328687639"><ele>272.0</ele><time>2026-04-20T07:44:39.998Z</time></trkpt><trkpt lat="43.30841977587499" lon="13.311270979732218"><ele>271.75</ele><time>2026-04-20T07:44:40.998Z</time></trkpt><trkpt lat="43.308534281183775" lon="13.31127582757465"><ele>271.5</ele><time>2026-04-20T07:44:41.999Z</time></trkpt><trkpt lat="43.30864961625777" lon="13.311228073967651"><ele>271.25</ele><time>2026-04-20T07:44:42.999Z</time></trkpt><trkpt lat="43.308757959200584" lon="13.311150638105097"><ele>271.0</ele><time>2026-04-20T07:44:43.999Z</time></trkpt><trkpt lat="43.30885103591793" lon="13.311050358337084"><ele>272.5</ele><time>2026-04-20T07:44:44.999Z</time></trkpt><trkpt lat="43.30895394988317" lon="13.310952646573154"><ele>274.0</ele><time>2026-04-20T07:44:45.999Z</time></trkpt><trkpt lat="43.3090630869623" lon="13.310857410989641"><ele>275.5</ele><time>2026-04-20T07:44:46.999Z</time></trkpt><trkpt lat="43.3091760866635" lon="13.310755478944145"><ele>277.0</ele><time>2026-04-20T07:44:47.999Z</time></trkpt><trkpt lat="43.30928519808827" lon="13.310655497809089"><ele>277.0</ele><time>2026-04-20T07:44:48.999Z</time></trkpt><trkpt lat="43.30939443681146" lon="13.310555494233084"><ele>277.0</ele><time>2026-04-20T07:44:49.999Z</time></trkpt><trkpt lat="43.30950272393105" lon="13.310455789433691"><ele>277.0</ele><time>2026-04-20T07:44:51Z</time></trkpt><trkpt lat="43.30961882797639" lon="13.3103722563213"><ele>277.0</ele><time>2026-04-20T07:44:52Z</time></trkpt><trkpt lat="43.309755984911085" lon="13.310314608512304"><ele>277.0</ele><time>2026-04-20T07:44:53Z</time></trkpt><trkpt lat="43.3098941792382" lon="13.310278283392874"><ele>277.0</ele><time>2026-04-20T07:44:54Z</time></trkpt><trkpt lat="43.3100348408874" lon="13.31026346569331"><ele>277.0</ele><time>2026-04-20T07:44:55Z</time></trkpt><trkpt lat="43.3101700651298" lon="13.310249151829083"><ele>277.0</ele><time>2026-04-20T07:44:56Z</time></trkpt><trkpt lat="43.31029998230274" lon="13.310230172067534"><ele>277.0</ele><time>2026-04-20T07:44:57Z</time></trkpt><trkpt lat="43.31042691842206" lon="13.310221053535582"><ele>277.0</ele><time>2026-04-20T07:44:58Z</time></trkpt><trkpt lat="43.310555724127234" lon="13.310213300076924"><ele>277.0</ele><time>2026-04-20T07:44:59Z</time></trkpt><trkpt lat="43.31068340626816" lon="13.310203159116632"><ele>277.0</ele><time>2026-04-20T07:45:00Z</time></trkpt><trkpt lat="43.310808283002594" lon="13.310187129274615"><ele>278.0</ele><time>2026-04-20T07:45:01Z</time></trkpt><trkpt lat="43.31092906393579" lon="13.310167299945691"><ele>279.0</ele><time>2026-04-20T07:45:02Z</time></trkpt><trkpt lat="43.31105542636997" lon="13.310152245442836"><ele>280.0</ele><time>2026-04-20T07:45:03Z</time></trkpt><trkpt lat="43.31118346751116" lon="13.310138598347763"><ele>281.0</ele><time>2026-04-20T07:45:04Z</time></trkpt><trkpt lat="43.311310991171155" lon="13.310126689156556"><ele>282.2</ele><time>2026-04-20T07:45:05Z</time></trkpt><trkpt lat="43.31143803364616" lon="13.310113442036416"><ele>283.40000000000003</ele><time>2026-04-20T07:45:06Z</time></trkpt><trkpt lat="43.311553948374986" lon="13.310100389641626"><ele>284.6</ele><time>2026-04-20T07:45:07Z</time></trkpt><trkpt lat="43.31165469057456" lon="13.310085082817903"><ele>285.8</ele><time>2026-04-20T07:45:08Z</time></trkpt><trkpt lat="43.31174774365556" lon="13.310080932525914"><ele>287.0</ele><time>2026-04-20T07:45:08.999Z</time></trkpt><trkpt lat="43.311851382155425" lon="13.310069605671844"><ele>287.0</ele><time>2026-04-20T07:45:09.999Z</time></trkpt><trkpt lat="43.31195870715924" lon="13.31004599649784"><ele>287.0</ele><time>2026-04-20T07:45:10.999Z</time></trkpt><trkpt lat="43.31207766135802" lon="13.310028294806326"><ele>287.0</ele><time>2026-04-20T07:45:11.999Z</time></trkpt><trkpt lat="43.312198418136305" lon="13.310010671509431"><ele>287.0</ele><time>2026-04-20T07:45:12.999Z</time></trkpt><trkpt lat="43.312318220156726" lon="13.309985581254548"><ele>288.0</ele><time>2026-04-20T07:45:13.999Z</time></trkpt><trkpt lat="43.31243399618983" lon="13.30995784297353"><ele>289.0</ele><time>2026-04-20T07:45:14.999Z</time></trkpt><trkpt lat="43.312550481854316" lon="13.309923634937489"><ele>290.0</ele><time>2026-04-20T07:45:15.999Z</time></trkpt><trkpt lat="43.31266503365887" lon="13.309887194347324"><ele>291.0</ele><time>2026-04-20T07:45:16.999Z</time></trkpt><trkpt lat="43.3127758079886" lon="13.309863519071074"><ele>291.0</ele><time>2026-04-20T07:45:17.999Z</time></trkpt><trkpt lat="43.31288578278597" lon="13.309831899839647"><ele>291.0</ele><time>2026-04-20T07:45:18.999Z</time></trkpt><trkpt lat="43.31298788162525" lon="13.309803249663446"><ele>291.0</ele><time>2026-04-20T07:45:19.999Z</time></trkpt><trkpt lat="43.313086993731574" lon="13.309777578208601"><ele>291.0</ele><time>2026-04-20T07:45:20.999Z</time></trkpt><trkpt lat="43.31317151340789" lon="13.309756640402401"><ele>291.0</ele><time>2026-04-20T07:45:21.999Z</time></trkpt><trkpt lat="43.313250084308564" lon="13.309733904928482"><ele>290.6</ele><time>2026-04-20T07:45:22.999Z</time></trkpt><trkpt lat="43.31331590806481" lon="13.309723167628203"><ele>290.20000000000005</ele><time>2026-04-20T07:45:23.999Z</time></trkpt><trkpt lat="43.3134815427891" lon="13.30970656420984"><ele>289.79999999999995</ele><time>2026-04-20T07:45:26.999Z</time></trkpt><trkpt lat="43.31353404638527" lon="13.309641273595908"><ele>289.4</ele><time>2026-04-20T07:45:27.999Z</time></trkpt><trkpt lat="43.313559277277776" lon="13.309536431268967"><ele>289.0</ele><time>2026-04-20T07:45:28.999Z</time></trkpt><trkpt lat="43.313575509201804" lon="13.309403920481383"><ele>289.0</ele><time>2026-04-20T07:45:29.999Z</time></trkpt><trkpt lat="43.31359667979545" lon="13.309292018579288"><ele>289.0</ele><time>2026-04-20T07:45:30.999Z</time></trkpt><trkpt lat="43.31358228320919" lon="13.309180849351922"><ele>289.0</ele><time>2026-04-20T07:45:31.999Z</time></trkpt><trkpt lat="43.31359402331349" lon="13.309060535817627"><ele>289.0</ele><time>2026-04-20T07:45:32.999Z</time></trkpt><trkpt lat="43.31358388978183" lon="13.308936476088729"><ele>289.0</ele><time>2026-04-20T07:45:33.999Z</time></trkpt><trkpt lat="43.313563147231996" lon="13.308819676749879"><ele>289.0</ele><time>2026-04-20T07:45:34.999Z</time></trkpt><trkpt lat="43.313535920907896" lon="13.308716994891046"><ele>288.59999999999997</ele><time>2026-04-20T07:45:35.999Z</time></trkpt><trkpt lat="43.313495262680924" lon="13.30861008757742"><ele>288.2</ele><time>2026-04-20T07:45:36.999Z</time></trkpt><trkpt lat="43.31344389965879" lon="13.308510450442581"><ele>287.79999999999995</ele><time>2026-04-20T07:45:37.999Z</time></trkpt><trkpt lat="43.31336814115393" lon="13.308383181115971"><ele>287.4</ele><time>2026-04-20T07:45:38.999Z</time></trkpt><trkpt lat="43.31328161168361" lon="13.308250052144563"><ele>287.0</ele><time>2026-04-20T07:45:39.999Z</time></trkpt><trkpt lat="43.313204887781595" lon="13.308141315596105"><ele>286.25</ele><time>2026-04-20T07:45:40.999Z</time></trkpt><trkpt lat="43.31313212370253" lon="13.308040296574802"><ele>285.5</ele><time>2026-04-20T07:45:41.999Z</time></trkpt><trkpt lat="43.31305191950949" lon="13.30793037421989"><ele>284.75</ele><time>2026-04-20T07:45:42.999Z</time></trkpt><trkpt lat="43.312964686119095" lon="13.30781301209947"><ele>284.0</ele><time>2026-04-20T07:45:43.999Z</time></trkpt><trkpt lat="43.31286819995024" lon="13.307716899455876"><ele>283.59999999999997</ele><time>2026-04-20T07:45:44.999Z</time></trkpt><trkpt lat="43.31279179669502" lon="13.307620030143644"><ele>283.2</ele><time>2026-04-20T07:45:45.999Z</time></trkpt><trkpt lat="43.312714306594884" lon="13.307534527448727"><ele>282.79999999999995</ele><time>2026-04-20T07:45:46.999Z</time></trkpt><trkpt lat="43.31264451532485" lon="13.307448484080599"><ele>282.4</ele><time>2026-04-20T07:45:47.999Z</time></trkpt><trkpt lat="43.31257635058559" lon="13.30737988358026"><ele>282.0</ele><time>2026-04-20T07:45:48.999Z</time></trkpt><trkpt lat="43.31251755532013" lon="13.307321994994215"><ele>282.0</ele><time>2026-04-20T07:45:49.999Z</time></trkpt><trkpt lat="43.312459781506945" lon="13.30725715022352"><ele>282.0</ele><time>2026-04-20T07:45:50.999Z</time></trkpt><trkpt lat="43.3124076092029" lon="13.307173069189178"><ele>282.0</ele><time>2026-04-20T07:45:51.999Z</time></trkpt><trkpt lat="43.31238415633767" lon="13.307073074708269"><ele>282.0</ele><time>2026-04-20T07:45:52.999Z</time></trkpt><trkpt lat="43.3123938938688" lon="13.306962878237007"><ele>282.0</ele><time>2026-04-20T07:45:53.999Z</time></trkpt><trkpt lat="43.31244061102305" lon="13.30686995735129"><ele>282.0</ele><time>2026-04-20T07:45:54.999Z</time></trkpt><trkpt lat="43.312515193159975" lon="13.306777750998753"><ele>281.0</ele><time>2026-04-20T07:45:55.999Z</time></trkpt><trkpt lat="43.31261058228977" lon="13.306699082570859"><ele>280.0</ele><time>2026-04-20T07:45:56.999Z</time></trkpt><trkpt lat="43.31271214014909" lon="13.306598747915949"><ele>279.0</ele><time>2026-04-20T07:45:57.999Z</time></trkpt><trkpt lat="43.31280474905035" lon="13.30649845102752"><ele>278.0</ele><time>2026-04-20T07:45:58.999Z</time></trkpt><trkpt lat="43.312906272732526" lon="13.306426933341834"><ele>278.25</ele><time>2026-04-20T07:45:59.999Z</time></trkpt><trkpt lat="43.31300923984464" lon="13.306358216480907"><ele>278.5</ele><time>2026-04-20T07:46:00.999Z</time></trkpt><trkpt lat="43.31311977722182" lon="13.306312436720642"><ele>278.75</ele><time>2026-04-20T07:46:01.999Z</time></trkpt><trkpt lat="43.31323198725047" lon="13.30630505353404"><ele>279.0</ele><time>2026-04-20T07:46:02.999Z</time></trkpt><trkpt lat="43.31334418726981" lon="13.306338966900372"><ele>278.5</ele><time>2026-04-20T07:46:03.999Z</time></trkpt><trkpt lat="43.31345437781068" lon="13.306420168979944"><ele>278.0</ele><time>2026-04-20T07:46:04.999Z</time></trkpt><trkpt lat="43.3135612252382" lon="13.306530526351292"><ele>277.5</ele><time>2026-04-20T07:46:05.999Z</time></trkpt><trkpt lat="43.31366205406769" lon="13.306662562003435"><ele>277.0</ele><time>2026-04-20T07:46:06.999Z</time></trkpt><trkpt lat="43.31376554266865" lon="13.3067971601066"><ele>277.0</ele><time>2026-04-20T07:46:07.999Z</time></trkpt><trkpt lat="43.31388827877736" lon="13.306914354452434"><ele>277.0</ele><time>2026-04-20T07:46:08.999Z</time></trkpt><trkpt lat="43.31399707723859" lon="13.30702912880028"><ele>277.0</ele><time>2026-04-20T07:46:09.999Z</time></trkpt><trkpt lat="43.31410414669141" lon="13.307131597099549"><ele>277.0</ele><time>2026-04-20T07:46:10.999Z</time></trkpt><trkpt lat="43.31421177450066" lon="13.30722180681441"><ele>275.0</ele><time>2026-04-20T07:46:11.998Z</time></trkpt><trkpt lat="43.31432544376286" lon="13.307312636188165"><ele>273.0</ele><time>2026-04-20T07:46:12.998Z</time></trkpt><trkpt lat="43.31443799299732" lon="13.307399288810528"><ele>271.0</ele><time>2026-04-20T07:46:13.998Z</time></trkpt><trkpt lat="43.31453466428494" lon="13.30748162279816"><ele>269.0</ele><time>2026-04-20T07:46:14.998Z</time></trkpt><trkpt lat="43.3146234929653" lon="13.30755902300153"><ele>269.0</ele><time>2026-04-20T07:46:15.998Z</time></trkpt><trkpt lat="43.31470653983386" lon="13.307660962984999"><ele>269.0</ele><time>2026-04-20T07:46:16.998Z</time></trkpt><trkpt lat="43.31476571167537" lon="13.307774915550596"><ele>269.0</ele><time>2026-04-20T07:46:17.998Z</time></trkpt><trkpt lat="43.31479510675297" lon="13.307900537543789"><ele>269.0</ele><time>2026-04-20T07:46:18.998Z</time></trkpt><trkpt lat="43.31477809199461" lon="13.3080331962376"><ele>269.0</ele><time>2026-04-20T07:46:19.998Z</time></trkpt><trkpt lat="43.314738513659684" lon="13.308153326764295"><ele>270.2</ele><time>2026-04-20T07:46:20.998Z</time></trkpt><trkpt lat="43.314709990080985" lon="13.308287901654214"><ele>271.4</ele><time>2026-04-20T07:46:21.998Z</time></trkpt><trkpt lat="43.31472547400456" lon="13.30842484771533"><ele>272.6</ele><time>2026-04-20T07:46:22.998Z</time></trkpt><trkpt lat="43.31476235309901" lon="13.30856767626969"><ele>273.8</ele><time>2026-04-20T07:46:23.998Z</time></trkpt><trkpt lat="43.31482157198534" lon="13.308679595833716"><ele>275.0</ele><time>2026-04-20T07:46:24.998Z</time></trkpt><trkpt lat="43.31490468170255" lon="13.30876033268394"><ele>270.6</ele><time>2026-04-20T07:46:25.998Z</time></trkpt><trkpt lat="43.31500463781591" lon="13.308802662481968"><ele>266.2</ele><time>2026-04-20T07:46:26.998Z</time></trkpt><trkpt lat="43.31511332674822" lon="13.30883030047917"><ele>261.8</ele><time>2026-04-20T07:46:27.998Z</time></trkpt><trkpt lat="43.31521784854774" lon="13.308847028501607"><ele>257.4</ele><time>2026-04-20T07:46:28.998Z</time></trkpt><trkpt lat="43.315319173409364" lon="13.308828741127755"><ele>253.0</ele><time>2026-04-20T07:46:29.998Z</time></trkpt><trkpt lat="43.31541580486361" lon="13.3087893375108"><ele>253.0</ele><time>2026-04-20T07:46:30.998Z</time></trkpt><trkpt lat="43.31550614853007" lon="13.308731316088217"><ele>253.0</ele><time>2026-04-20T07:46:31.998Z</time></trkpt><trkpt lat="43.31559087161596" lon="13.308665085337164"><ele>253.0</ele><time>2026-04-20T07:46:32.998Z</time></trkpt><trkpt lat="43.31567258128532" lon="13.308597408589009"><ele>253.0</ele><time>2026-04-20T07:46:33.998Z</time></trkpt><trkpt lat="43.315758993231256" lon="13.308527908936298"><ele>253.0</ele><time>2026-04-20T07:46:34.998Z</time></trkpt><trkpt lat="43.315862376087324" lon="13.308449206088264"><ele>250.0</ele><time>2026-04-20T07:46:35.998Z</time></trkpt><trkpt lat="43.31597682418247" lon="13.308367792222725"><ele>247.0</ele><time>2026-04-20T07:46:36.998Z</time></trkpt><trkpt lat="43.316105145517774" lon="13.30830836109675"><ele>244.0</ele><time>2026-04-20T07:46:37.998Z</time></trkpt><trkpt lat="43.31624148352435" lon="13.308279935828976"><ele>241.0</ele><time>2026-04-20T07:46:38.998Z</time></trkpt><trkpt lat="43.31638721491018" lon="13.308297691433882"><ele>240.25</ele><time>2026-04-20T07:46:39.998Z</time></trkpt><trkpt lat="43.31653638100616" lon="13.308329120275884"><ele>239.5</ele><time>2026-04-20T07:46:40.998Z</time></trkpt><trkpt lat="43.31667539989882" lon="13.30835502705121"><ele>238.75</ele><time>2026-04-20T07:46:41.998Z</time></trkpt><trkpt lat="43.316823960346575" lon="13.308366682912716"><ele>238.0</ele><time>2026-04-20T07:46:42.998Z</time></trkpt><trkpt lat="43.316960138523164" lon="13.30834964336503"><ele>238.0</ele><time>2026-04-20T07:46:43.998Z</time></trkpt><trkpt lat="43.31707946648216" lon="13.308340023408595"><ele>238.0</ele><time>2026-04-20T07:46:44.998Z</time></trkpt><trkpt lat="43.317212734915735" lon="13.308373402699052"><ele>238.0</ele><time>2026-04-20T07:46:45.998Z</time></trkpt><trkpt lat="43.31734484795893" lon="13.308419922305532"><ele>238.0</ele><time>2026-04-20T07:46:46.998Z</time></trkpt><trkpt lat="43.317475104171606" lon="13.308474601537798"><ele>235.75</ele><time>2026-04-20T07:46:48Z</time></trkpt><trkpt lat="43.31760378428236" lon="13.308525711756726"><ele>233.5</ele><time>2026-04-20T07:46:49Z</time></trkpt><trkpt lat="43.31772637658751" lon="13.308588846973613"><ele>231.25</ele><time>2026-04-20T07:46:50Z</time></trkpt><trkpt lat="43.31783393211213" lon="13.308677392776811"><ele>229.0</ele><time>2026-04-20T07:46:51Z</time></trkpt><trkpt lat="43.317930135874086" lon="13.308770552759967"><ele>229.0</ele><time>2026-04-20T07:46:52Z</time></trkpt><trkpt lat="43.31801447889585" lon="13.30885776520674"><ele>229.0</ele><time>2026-04-20T07:46:53Z</time></trkpt><trkpt lat="43.318085398002516" lon="13.3089629630914"><ele>229.0</ele><time>2026-04-20T07:46:54Z</time></trkpt><trkpt lat="43.318136130241946" lon="13.309107597762154"><ele>229.0</ele><time>2026-04-20T07:46:55Z</time></trkpt><trkpt lat="43.318157020163866" lon="13.309275300081527"><ele>226.5</ele><time>2026-04-20T07:46:56Z</time></trkpt><trkpt lat="43.318168310440264" lon="13.30945028043693"><ele>224.0</ele><time>2026-04-20T07:46:57Z</time></trkpt><trkpt lat="43.31820035660456" lon="13.309619063551818"><ele>221.5</ele><time>2026-04-20T07:46:58Z</time></trkpt><trkpt lat="43.31825744266368" lon="13.309784038747354"><ele>219.0</ele><time>2026-04-20T07:46:59Z</time></trkpt><trkpt lat="43.3183188360418" lon="13.309948377978312"><ele>219.0</ele><time>2026-04-20T07:47:00Z</time></trkpt><trkpt lat="43.31838073959144" lon="13.310116920431966"><ele>219.0</ele><time>2026-04-20T07:47:01Z</time></trkpt><trkpt lat="43.318442047146625" lon="13.310289942895677"><ele>219.0</ele><time>2026-04-20T07:47:02Z</time></trkpt><trkpt lat="43.31848709032556" lon="13.310462412614159"><ele>219.0</ele><time>2026-04-20T07:47:03Z</time></trkpt><trkpt lat="43.318524360275006" lon="13.310637494013655"><ele>219.75</ele><time>2026-04-20T07:47:04Z</time></trkpt><trkpt lat="43.31857557198279" lon="13.310809095077259"><ele>220.5</ele><time>2026-04-20T07:47:05Z</time></trkpt><trkpt lat="43.31864703453687" lon="13.310970327367789"><ele>221.25</ele><time>2026-04-20T07:47:06Z</time></trkpt><trkpt lat="43.318732234491875" lon="13.311112595279436"><ele>222.0</ele><time>2026-04-20T07:47:07Z</time></trkpt><trkpt lat="43.31882205027095" lon="13.311239532066102"><ele>217.75</ele><time>2026-04-20T07:47:08Z</time></trkpt><trkpt lat="43.318905842474194" lon="13.311367513935048"><ele>213.5</ele><time>2026-04-20T07:47:09Z</time></trkpt><trkpt lat="43.31897465624779" lon="13.311493435435203"><ele>209.25</ele><time>2026-04-20T07:47:10Z</time></trkpt><trkpt lat="43.319027308277235" lon="13.311640022454519"><ele>205.0</ele><time>2026-04-20T07:47:11Z</time></trkpt><trkpt lat="43.3190546689958" lon="13.31181471855563"><ele>205.0</ele><time>2026-04-20T07:47:12Z</time></trkpt><trkpt lat="43.31904855025451" lon="13.311988043728459"><ele>205.0</ele><time>2026-04-20T07:47:13Z</time></trkpt><trkpt lat="43.31904769491638" lon="13.312152653322"><ele>205.0</ele><time>2026-04-20T07:47:14Z</time></trkpt><trkpt lat="43.319076035399085" lon="13.312302853122343"><ele>205.0</ele><time>2026-04-20T07:47:14.999Z</time></trkpt><trkpt lat="43.319139442845675" lon="13.312438924820832"><ele>204.5</ele><time>2026-04-20T07:47:15.999Z</time></trkpt><trkpt lat="43.31922031569305" lon="13.31257565754623"><ele>204.0</ele><time>2026-04-20T07:47:16.999Z</time></trkpt><trkpt lat="43.31930976518271" lon="13.312713143367128"><ele>203.5</ele><time>2026-04-20T07:47:17.999Z</time></trkpt><trkpt lat="43.319404811903304" lon="13.312845813604786"><ele>203.0</ele><time>2026-04-20T07:47:18.999Z</time></trkpt><trkpt lat="43.31950772395715" lon="13.312969311346468"><ele>203.75</ele><time>2026-04-20T07:47:19.999Z</time></trkpt><trkpt lat="43.31961168789894" lon="13.313082578824451"><ele>204.5</ele><time>2026-04-20T07:47:20.999Z</time></trkpt><trkpt lat="43.31972649218579" lon="13.313188495765848"><ele>205.25</ele><time>2026-04-20T07:47:21.999Z</time></trkpt><trkpt lat="43.31985078620403" lon="13.313292133026087"><ele>206.0</ele><time>2026-04-20T07:47:22.999Z</time></trkpt><trkpt lat="43.31997709326335" lon="13.313404419556445"><ele>203.66666666666669</ele><time>2026-04-20T07:47:23.999Z</time></trkpt><trkpt lat="43.32011049366529" lon="13.31351825335336"><ele>201.33333333333331</ele><time>2026-04-20T07:47:24.999Z</time></trkpt><trkpt lat="43.320254293502806" lon="13.313636955469729"><ele>199.0</ele><time>2026-04-20T07:47:25.999Z</time></trkpt><trkpt lat="43.32040328947552" lon="13.313749499104485"><ele>199.0</ele><time>2026-04-20T07:47:26.999Z</time></trkpt><trkpt lat="43.32053675466038" lon="13.313845794351282"><ele>199.0</ele><time>2026-04-20T07:47:27.999Z</time></trkpt><trkpt lat="43.32065650072577" lon="13.313943174005631"><ele>199.0</ele><time>2026-04-20T07:47:28.999Z</time></trkpt><trkpt lat="43.320770501959586" lon="13.314048533605726"><ele>199.0</ele><time>2026-04-20T07:47:29.999Z</time></trkpt><trkpt lat="43.32087671402418" lon="13.314133899136745"><ele>199.0</ele><time>2026-04-20T07:47:30.999Z</time></trkpt><trkpt lat="43.320981932840795" lon="13.314219520179336"><ele>199.0</ele><time>2026-04-20T07:47:31.999Z</time></trkpt><trkpt lat="43.321087366086175" lon="13.314293083063463"><ele>199.0</ele><time>2026-04-20T07:47:32.999Z</time></trkpt><trkpt lat="43.321214142182065" lon="13.314369792676025"><ele>199.0</ele><time>2026-04-20T07:47:33.999Z</time></trkpt><trkpt lat="43.32135280485804" lon="13.314412781617945"><ele>199.33333333333331</ele><time>2026-04-20T07:47:34.999Z</time></trkpt><trkpt lat="43.321506372427585" lon="13.314421170561168"><ele>199.66666666666669</ele><time>2026-04-20T07:47:35.999Z</time></trkpt><trkpt lat="43.3216627080603" lon="13.314409160205532"><ele>200.0</ele><time>2026-04-20T07:47:36.999Z</time></trkpt><trkpt lat="43.32182110579159" lon="13.314385774040524"><ele>200.0</ele><time>2026-04-20T07:47:37.999Z</time></trkpt><trkpt lat="43.3219713005264" lon="13.314379968614304"><ele>200.0</ele><time>2026-04-20T07:47:38.999Z</time></trkpt><trkpt lat="43.322107321871975" lon="13.314391701247239"><ele>200.0</ele><time>2026-04-20T07:47:39.999Z</time></trkpt><trkpt lat="43.32224003759457" lon="13.314405305822994"><ele>200.0</ele><time>2026-04-20T07:47:40.999Z</time></trkpt><trkpt lat="43.32237845511398" lon="13.314433151366265"><ele>202.33333333333334</ele><time>2026-04-20T07:47:41.999Z</time></trkpt><trkpt lat="43.322518672976116" lon="13.314489765773809"><ele>204.66666666666669</ele><time>2026-04-20T07:47:42.999Z</time></trkpt><trkpt lat="43.322659512291196" lon="13.314562600186205"><ele>207.0</ele><time>2026-04-20T07:47:43.999Z</time></trkpt><trkpt lat="43.32279792971547" lon="13.314655162497466"><ele>208.33333333333331</ele><time>2026-04-20T07:47:44.999Z</time></trkpt><trkpt lat="43.322927341391434" lon="13.314766043939363"><ele>209.66666666666666</ele><time>2026-04-20T07:47:45.999Z</time></trkpt><trkpt lat="43.32304886540747" lon="13.314881298649917"><ele>211.0</ele><time>2026-04-20T07:47:46.999Z</time></trkpt><trkpt lat="43.32316967846853" lon="13.315008164566057"><ele>211.0</ele><time>2026-04-20T07:47:47.999Z</time></trkpt><trkpt lat="43.3232876298042" lon="13.315122413081497"><ele>211.0</ele><time>2026-04-20T07:47:48.999Z</time></trkpt><trkpt lat="43.32340732898757" lon="13.315234179252105"><ele>211.0</ele><time>2026-04-20T07:47:49.999Z</time></trkpt><trkpt lat="43.323525617923956" lon="13.315331196482004"><ele>211.0</ele><time>2026-04-20T07:47:50.999Z</time></trkpt><trkpt lat="43.32364243140381" lon="13.315406793403394"><ele>211.0</ele><time>2026-04-20T07:47:51.999Z</time></trkpt><trkpt lat="43.323760804777336" lon="13.315471811195353"><ele>211.0</ele><time>2026-04-20T07:47:52.999Z</time></trkpt><trkpt lat="43.32387610891382" lon="13.315545447103839"><ele>211.0</ele><time>2026-04-20T07:47:53.999Z</time></trkpt><trkpt lat="43.32398844709486" lon="13.315628140179044"><ele>211.0</ele><time>2026-04-20T07:47:54.999Z</time></trkpt><trkpt lat="43.324100230572014" lon="13.31571510811321"><ele>211.25</ele><time>2026-04-20T07:47:55.999Z</time></trkpt><trkpt lat="43.32420677913546" lon="13.31580702334732"><ele>211.5</ele><time>2026-04-20T07:47:56.999Z</time></trkpt><trkpt lat="43.32431279133805" lon="13.31589658502166"><ele>211.75</ele><time>2026-04-20T07:47:57.999Z</time></trkpt><trkpt lat="43.32441925837712" lon="13.315975805427097"><ele>212.0</ele><time>2026-04-20T07:47:58.999Z</time></trkpt><trkpt lat="43.32453332458221" lon="13.316022767372276"><ele>212.0</ele><time>2026-04-20T07:47:59.999Z</time></trkpt><trkpt lat="43.32464851752734" lon="13.316038271853927"><ele>212.0</ele><time>2026-04-20T07:48:00.999Z</time></trkpt><trkpt lat="43.32476447647835" lon="13.316034711868516"><ele>212.0</ele><time>2026-04-20T07:48:01.999Z</time></trkpt><trkpt lat="43.32487925618311" lon="13.316023729535548"><ele>212.0</ele><time>2026-04-20T07:48:02.999Z</time></trkpt><trkpt lat="43.32499739913446" lon="13.31601442762065"><ele>213.25</ele><time>2026-04-20T07:48:03.999Z</time></trkpt><trkpt lat="43.3251179866653" lon="13.31601602287887"><ele>214.5</ele><time>2026-04-20T07:48:04.999Z</time></trkpt><trkpt lat="43.32523085972423" lon="13.316011889160086"><ele>215.75</ele><time>2026-04-20T07:48:05.999Z</time></trkpt><trkpt lat="43.32534659832018" lon="13.316025642663629"><ele>217.0</ele><time>2026-04-20T07:48:06.999Z</time></trkpt><trkpt lat="43.3254706803089" lon="13.31603826562003"><ele>216.2</ele><time>2026-04-20T07:48:07.999Z</time></trkpt><trkpt lat="43.32559796955754" lon="13.316059731724966"><ele>215.39999999999998</ele><time>2026-04-20T07:48:08.999Z</time></trkpt><trkpt lat="43.325715963078274" lon="13.316078465925893"><ele>214.60000000000002</ele><time>2026-04-20T07:48:09.999Z</time></trkpt><trkpt lat="43.325821091569885" lon="13.316092059793078"><ele>213.8</ele><time>2026-04-20T07:48:10.999Z</time></trkpt><trkpt lat="43.32590359141627" lon="13.316106686721573"><ele>213.0</ele><time>2026-04-20T07:48:11.999Z</time></trkpt><trkpt lat="43.32596973714395" lon="13.316101265761564"><ele>213.0</ele><time>2026-04-20T07:48:12.999Z</time></trkpt><trkpt lat="43.32605380647435" lon="13.316135521717744"><ele>213.0</ele><time>2026-04-20T07:48:14.999Z</time></trkpt><trkpt lat="43.32609819461744" lon="13.315945828416822"><ele>213.0</ele><time>2026-04-20T07:48:15.999Z</time></trkpt><trkpt lat="43.32613629568719" lon="13.31587415965581"><ele>213.0</ele><time>2026-04-20T07:48:16.999Z</time></trkpt><trkpt lat="43.32617799853251" lon="13.315806348961129"><ele>213.0</ele><time>2026-04-20T07:48:17.999Z</time></trkpt><trkpt lat="43.32623194130304" lon="13.315708481557891"><ele>213.0</ele><time>2026-04-20T07:48:19.999Z</time></trkpt><trkpt lat="43.32627045909653" lon="13.315614438887316"><ele>213.0</ele><time>2026-04-20T07:48:37.998Z</time></trkpt><trkpt lat="43.32631888734925" lon="13.315474446143842"><ele>213.0</ele><time>2026-04-20T07:48:39.998Z</time></trkpt><trkpt lat="43.326354683575985" lon="13.315377857756188"><ele>213.0</ele><time>2026-04-20T07:48:40.998Z</time></trkpt><trkpt lat="43.32640099364058" lon="13.315289941583593"><ele>213.0</ele><time>2026-04-20T07:48:41.998Z</time></trkpt><trkpt lat="43.32644345940906" lon="13.315193677399249"><ele>213.0</ele><time>2026-04-20T07:48:42.998Z</time></trkpt><trkpt lat="43.32648182966633" lon="13.3151123095402"><ele>213.0</ele><time>2026-04-20T07:48:43.998Z</time></trkpt><trkpt lat="43.32653138922423" lon="13.315018338670633"><ele>213.0</ele><time>2026-04-20T07:48:44.998Z</time></trkpt><trkpt lat="43.32658209035639" lon="13.31490425022628"><ele>213.0</ele><time>2026-04-20T07:48:45.998Z</time></trkpt><trkpt lat="43.326632962265286" lon="13.3147900424596"><ele>213.0</ele><time>2026-04-20T07:48:46.998Z</time></trkpt><trkpt lat="43.326682568860505" lon="13.314680574890485"><ele>213.0</ele><time>2026-04-20T07:48:47.998Z</time></trkpt><trkpt lat="43.326729181020546" lon="13.314568199196525"><ele>213.0</ele><time>2026-04-20T07:48:48.998Z</time></trkpt><trkpt lat="43.32676918403269" lon="13.314454943874683"><ele>213.0</ele><time>2026-04-20T07:48:49.998Z</time></trkpt><trkpt lat="43.326810285469094" lon="13.31432927933536"><ele>213.0</ele><time>2026-04-20T07:48:50.998Z</time></trkpt><trkpt lat="43.326851722061846" lon="13.31420778917516"><ele>213.0</ele><time>2026-04-20T07:48:51.998Z</time></trkpt><trkpt lat="43.326897751160544" lon="13.314085731294432"><ele>213.0</ele><time>2026-04-20T07:48:52.998Z</time></trkpt><trkpt lat="43.326939871203855" lon="13.313952426819137"><ele>214.75</ele><time>2026-04-20T07:48:54Z</time></trkpt><trkpt lat="43.32698189061344" lon="13.313800606658344"><ele>216.5</ele><time>2026-04-20T07:48:55Z</time></trkpt><trkpt lat="43.32702586959313" lon="13.313645932575064"><ele>218.25</ele><time>2026-04-20T07:48:56Z</time></trkpt><trkpt lat="43.32706720763452" lon="13.3135025736871"><ele>220.0</ele><time>2026-04-20T07:48:57Z</time></trkpt><trkpt lat="43.32709997606968" lon="13.313358139820894"><ele>220.0</ele><time>2026-04-20T07:48:58Z</time></trkpt><trkpt lat="43.32713040142383" lon="13.313219054263966"><ele>220.0</ele><time>2026-04-20T07:48:59Z</time></trkpt><trkpt lat="43.327157452824835" lon="13.31308301950194"><ele>220.0</ele><time>2026-04-20T07:49:00Z</time></trkpt><trkpt lat="43.327185803572895" lon="13.312954465351359"><ele>220.0</ele><time>2026-04-20T07:49:01Z</time></trkpt><trkpt lat="43.327222309569734" lon="13.312841944332467"><ele>220.0</ele><time>2026-04-20T07:49:02Z</time></trkpt><trkpt lat="43.327275605985406" lon="13.312749665848203"><ele>219.83333333333331</ele><time>2026-04-20T07:49:03Z</time></trkpt><trkpt lat="43.32732404095867" lon="13.312676862086702"><ele>219.66666666666666</ele><time>2026-04-20T07:49:04Z</time></trkpt><trkpt lat="43.327353290687384" lon="13.312578539474151"><ele>219.5</ele><time>2026-04-20T07:49:05Z</time></trkpt><trkpt lat="43.32737339136581" lon="13.312450191282911"><ele>219.33333333333331</ele><time>2026-04-20T07:49:06Z</time></trkpt><trkpt lat="43.32737885241315" lon="13.312310950166738"><ele>219.16666666666666</ele><time>2026-04-20T07:49:07Z</time></trkpt><trkpt lat="43.32738023136506" lon="13.312200205983526"><ele>219.0</ele><time>2026-04-20T07:49:08Z</time></trkpt><trkpt lat="43.327375757703784" lon="13.312070586396636"><ele>219.0</ele><time>2026-04-20T07:49:09Z</time></trkpt><trkpt lat="43.32735997670936" lon="13.311948013898784"><ele>218.99999999999997</ele><time>2026-04-20T07:49:10Z</time></trkpt><trkpt lat="43.32735927176157" lon="13.311818138686895"><ele>218.99999999999997</ele><time>2026-04-20T07:49:11Z</time></trkpt><trkpt lat="43.32733973982553" lon="13.31168694594405"><ele>219.0</ele><time>2026-04-20T07:49:12Z</time></trkpt><trkpt lat="43.327318006598055" lon="13.3115637590023"><ele>219.0</ele><time>2026-04-20T07:49:13Z</time></trkpt><trkpt lat="43.32729529511641" lon="13.311441197626559"><ele>220.2</ele><time>2026-04-20T07:49:14Z</time></trkpt><trkpt lat="43.32727328592837" lon="13.311323001406603"><ele>221.39999999999998</ele><time>2026-04-20T07:49:15Z</time></trkpt><trkpt lat="43.32724849388157" lon="13.311197497364207"><ele>222.6</ele><time>2026-04-20T07:49:16Z</time></trkpt><trkpt lat="43.327221375158246" lon="13.311074734087887"><ele>223.8</ele><time>2026-04-20T07:49:17Z</time></trkpt><trkpt lat="43.327184802063115" lon="13.31096194121486"><ele>225.0</ele><time>2026-04-20T07:49:18Z</time></trkpt><trkpt lat="43.327173770625734" lon="13.310841682388432"><ele>225.66666666666666</ele><time>2026-04-20T07:49:19Z</time></trkpt><trkpt lat="43.3271545807597" lon="13.31072875957402"><ele>226.33333333333331</ele><time>2026-04-20T07:49:20Z</time></trkpt><trkpt lat="43.327135217069475" lon="13.310621535436097"><ele>227.0</ele><time>2026-04-20T07:49:21Z</time></trkpt><trkpt lat="43.327106465550976" lon="13.3105273637295"><ele>227.66666666666666</ele><time>2026-04-20T07:49:22Z</time></trkpt><trkpt lat="43.327069360976544" lon="13.310439583205113"><ele>228.33333333333331</ele><time>2026-04-20T07:49:23Z</time></trkpt><trkpt lat="43.327024262689065" lon="13.310363191606733"><ele>229.0</ele><time>2026-04-20T07:49:24Z</time></trkpt><trkpt lat="43.32695639426774" lon="13.31030334758901"><ele>229.6</ele><time>2026-04-20T07:49:25Z</time></trkpt><trkpt lat="43.326870191984554" lon="13.310238232717515"><ele>230.2</ele><time>2026-04-20T07:49:26Z</time></trkpt><trkpt lat="43.32677186460891" lon="13.310168349046787"><ele>230.79999999999998</ele><time>2026-04-20T07:49:27Z</time></trkpt><trkpt lat="43.3266818599877" lon="13.31007035551925"><ele>231.39999999999998</ele><time>2026-04-20T07:49:28Z</time></trkpt><trkpt lat="43.326581396859545" lon="13.309996794293074"><ele>232.0</ele><time>2026-04-20T07:49:29Z</time></trkpt><trkpt lat="43.32649724550301" lon="13.30988896146559"><ele>232.0</ele><time>2026-04-20T07:49:30Z</time></trkpt><trkpt lat="43.32642542771778" lon="13.309788054411337"><ele>232.0</ele><time>2026-04-20T07:49:30.999Z</time></trkpt><trkpt lat="43.32635958652136" lon="13.309672932067015"><ele>232.0</ele><time>2026-04-20T07:49:31.999Z</time></trkpt><trkpt lat="43.3263039210251" lon="13.309565063673373"><ele>232.0</ele><time>2026-04-20T07:49:32.999Z</time></trkpt><trkpt lat="43.32625350481706" lon="13.30946124346653"><ele>232.0</ele><time>2026-04-20T07:49:33.999Z</time></trkpt><trkpt lat="43.326207802030694" lon="13.309372877710738"><ele>232.39999999999998</ele><time>2026-04-20T07:49:34.999Z</time></trkpt><trkpt lat="43.32616803769143" lon="13.309291617786947"><ele>232.79999999999998</ele><time>2026-04-20T07:49:35.999Z</time></trkpt><trkpt lat="43.326118040368456" lon="13.309198973094906"><ele>233.2</ele><time>2026-04-20T07:49:36.999Z</time></trkpt><trkpt lat="43.32606104568621" lon="13.30909444439478"><ele>233.6</ele><time>2026-04-20T07:49:37.999Z</time></trkpt><trkpt lat="43.32600543756635" lon="13.308983810544717"><ele>234.0</ele><time>2026-04-20T07:49:38.999Z</time></trkpt><trkpt lat="43.32595021315406" lon="13.308852987052147"><ele>234.0</ele><time>2026-04-20T07:49:39.999Z</time></trkpt><trkpt lat="43.3258968419448" lon="13.308717090777202"><ele>233.99999999999997</ele><time>2026-04-20T07:49:40.999Z</time></trkpt><trkpt lat="43.32584725452472" lon="13.308590626666033"><ele>233.99999999999997</ele><time>2026-04-20T07:49:41.999Z</time></trkpt><trkpt lat="43.32579971016026" lon="13.308468058095782"><ele>234.0</ele><time>2026-04-20T07:49:42.999Z</time></trkpt><trkpt lat="43.32574591617441" lon="13.3083407086417"><ele>234.0</ele><time>2026-04-20T07:49:43.999Z</time></trkpt><trkpt lat="43.32569466108864" lon="13.308217403495275"><ele>234.0</ele><time>2026-04-20T07:49:44.999Z</time></trkpt><trkpt lat="43.325646404749186" lon="13.308096311577238"><ele>233.99999999999997</ele><time>2026-04-20T07:49:45.999Z</time></trkpt><trkpt lat="43.325597239789964" lon="13.307979379485264"><ele>233.99999999999997</ele><time>2026-04-20T07:49:46.999Z</time></trkpt><trkpt lat="43.32554920480405" lon="13.307856789115808"><ele>234.0</ele><time>2026-04-20T07:49:47.999Z</time></trkpt><trkpt lat="43.32549268733413" lon="13.307733010980584"><ele>234.0</ele><time>2026-04-20T07:49:48.999Z</time></trkpt><trkpt lat="43.32543632005482" lon="13.30760383062574"><ele>233.2</ele><time>2026-04-20T07:49:49.999Z</time></trkpt><trkpt lat="43.32538709631108" lon="13.307463770055826"><ele>232.39999999999998</ele><time>2026-04-20T07:49:50.999Z</time></trkpt><trkpt lat="43.32533195546376" lon="13.307332248814973"><ele>231.6</ele><time>2026-04-20T07:49:51.999Z</time></trkpt><trkpt lat="43.32528393992139" lon="13.307214021849013"><ele>230.8</ele><time>2026-04-20T07:49:52.999Z</time></trkpt><trkpt lat="43.32523076763387" lon="13.307083045937384"><ele>230.0</ele><time>2026-04-20T07:49:53.999Z</time></trkpt><trkpt lat="43.32517788231277" lon="13.306946620949077"><ele>229.8</ele><time>2026-04-20T07:49:54.999Z</time></trkpt><trkpt lat="43.325117929370634" lon="13.306801675154027"><ele>229.6</ele><time>2026-04-20T07:49:55.999Z</time></trkpt><trkpt lat="43.32505869637257" lon="13.306668488444538"><ele>229.39999999999998</ele><time>2026-04-20T07:49:56.999Z</time></trkpt><trkpt lat="43.325012441416646" lon="13.306544096858714"><ele>229.2</ele><time>2026-04-20T07:49:57.999Z</time></trkpt><trkpt lat="43.32497208033389" lon="13.306427744163484"><ele>229.0</ele><time>2026-04-20T07:49:58.999Z</time></trkpt><trkpt lat="43.32492855905806" lon="13.306325945508705"><ele>229.0</ele><time>2026-04-20T07:49:59.999Z</time></trkpt><trkpt lat="43.324877586097394" lon="13.30621420698819"><ele>228.99999999999997</ele><time>2026-04-20T07:50:00.999Z</time></trkpt><trkpt lat="43.32482968430433" lon="13.30610623079863"><ele>228.99999999999997</ele><time>2026-04-20T07:50:01.999Z</time></trkpt><trkpt lat="43.32478381360633" lon="13.30598187283201"><ele>229.0</ele><time>2026-04-20T07:50:02.999Z</time></trkpt><trkpt lat="43.324741404081536" lon="13.305841321015137"><ele>229.0</ele><time>2026-04-20T07:50:03.999Z</time></trkpt><trkpt lat="43.32467299897972" lon="13.305722127510588"><ele>228.6</ele><time>2026-04-20T07:50:04.999Z</time></trkpt><trkpt lat="43.32462356308172" lon="13.30559860108149"><ele>228.2</ele><time>2026-04-20T07:50:05.999Z</time></trkpt><trkpt lat="43.324573867803295" lon="13.305478494127323"><ele>227.79999999999998</ele><time>2026-04-20T07:50:06.999Z</time></trkpt><trkpt lat="43.32452797413285" lon="13.305368375235718"><ele>227.39999999999998</ele><time>2026-04-20T07:50:07.999Z</time></trkpt><trkpt lat="43.32448028136182" lon="13.305262239358493"><ele>227.0</ele><time>2026-04-20T07:50:08.999Z</time></trkpt><trkpt lat="43.3244388819877" lon="13.305162553161365"><ele>227.00000000000003</ele><time>2026-04-20T07:50:09.999Z</time></trkpt><trkpt lat="43.32439452750792" lon="13.305060462724121"><ele>227.0</ele><time>2026-04-20T07:50:10.999Z</time></trkpt><trkpt lat="43.32435353825593" lon="13.304958320273647"><ele>227.0</ele><time>2026-04-20T07:50:11.999Z</time></trkpt><trkpt lat="43.32431840513847" lon="13.30486175620923"><ele>227.0</ele><time>2026-04-20T07:50:12.999Z</time></trkpt><trkpt lat="43.32427918698403" lon="13.304765575011903"><ele>227.00000000000003</ele><time>2026-04-20T07:50:13.999Z</time></trkpt><trkpt lat="43.324235574958614" lon="13.30466214494759"><ele>227.0</ele><time>2026-04-20T07:50:14.999Z</time></trkpt><trkpt lat="43.3242042822258" lon="13.304577126278232"><ele>227.16666666666669</ele><time>2026-04-20T07:50:15.999Z</time></trkpt><trkpt lat="43.32416790162641" lon="13.304494333233494"><ele>227.33333333333334</ele><time>2026-04-20T07:50:16.999Z</time></trkpt><trkpt lat="43.324140160173194" lon="13.304414475868048"><ele>227.5</ele><time>2026-04-20T07:50:17.999Z</time></trkpt><trkpt lat="43.324109432982226" lon="13.304333248108192"><ele>227.66666666666669</ele><time>2026-04-20T07:50:18.999Z</time></trkpt><trkpt lat="43.32407229706595" lon="13.304234184247427"><ele>227.83333333333334</ele><time>2026-04-20T07:50:20.999Z</time></trkpt><trkpt lat="43.32403179498163" lon="13.304157544836912"><ele>228.0</ele><time>2026-04-20T07:50:57.998Z</time></trkpt><trkpt lat="43.32395464556667" lon="13.30404444353158"><ele>228.0</ele><time>2026-04-20T07:51:00Z</time></trkpt><trkpt lat="43.32390196772561" lon="13.303971344611577"><ele>227.99999999999997</ele><time>2026-04-20T07:51:01Z</time></trkpt><trkpt lat="43.323857914230445" lon="13.30390086420576"><ele>228.0</ele><time>2026-04-20T07:51:02Z</time></trkpt><trkpt lat="43.32381246353032" lon="13.303830748465051"><ele>228.0</ele><time>2026-04-20T07:51:03Z</time></trkpt><trkpt lat="43.32377160628097" lon="13.303763356827124"><ele>227.99999999999997</ele><time>2026-04-20T07:51:04Z</time></trkpt><trkpt lat="43.32372451782862" lon="13.303700262762504"><ele>228.0</ele><time>2026-04-20T07:51:05Z</time></trkpt><trkpt lat="43.323678787451975" lon="13.303628081578088"><ele>228.0</ele><time>2026-04-20T07:51:06Z</time></trkpt><trkpt lat="43.32363789680722" lon="13.303553699146605"><ele>227.5</ele><time>2026-04-20T07:51:07Z</time></trkpt><trkpt lat="43.32359324617939" lon="13.303471700601317"><ele>227.0</ele><time>2026-04-20T07:51:08Z</time></trkpt><trkpt lat="43.32354314365129" lon="13.303395117640134"><ele>226.5</ele><time>2026-04-20T07:51:09Z</time></trkpt><trkpt lat="43.32349561617738" lon="13.303321591464647"><ele>226.0</ele><time>2026-04-20T07:51:10Z</time></trkpt><trkpt lat="43.3234489731379" lon="13.303239111056971"><ele>225.5</ele><time>2026-04-20T07:51:11Z</time></trkpt><trkpt lat="43.32340406336081" lon="13.303151319189103"><ele>225.0</ele><time>2026-04-20T07:51:12Z</time></trkpt><trkpt lat="43.32335786820913" lon="13.303053649055533"><ele>224.66666666666666</ele><time>2026-04-20T07:51:13Z</time></trkpt><trkpt lat="43.32330614625153" lon="13.302955666931695"><ele>224.33333333333331</ele><time>2026-04-20T07:51:14Z</time></trkpt><trkpt lat="43.32325426716505" lon="13.302871129565778"><ele>224.0</ele><time>2026-04-20T07:51:15Z</time></trkpt><trkpt lat="43.32321061947554" lon="13.302786998154314"><ele>223.66666666666666</ele><time>2026-04-20T07:51:16Z</time></trkpt><trkpt lat="43.323166337869566" lon="13.302702980839879"><ele>223.33333333333331</ele><time>2026-04-20T07:51:17Z</time></trkpt><trkpt lat="43.32311924551255" lon="13.302623968061887"><ele>223.0</ele><time>2026-04-20T07:51:18Z</time></trkpt><trkpt lat="43.323073198720046" lon="13.302549734722403"><ele>221.99999999999997</ele><time>2026-04-20T07:51:19Z</time></trkpt><trkpt lat="43.32302277471169" lon="13.302476910882337"><ele>221.0</ele><time>2026-04-20T07:51:20Z</time></trkpt><trkpt lat="43.32297729226395" lon="13.302402585740593"><ele>220.0</ele><time>2026-04-20T07:51:21Z</time></trkpt><trkpt lat="43.322902207511405" lon="13.302274427078661"><ele>219.0</ele><time>2026-04-20T07:51:23Z</time></trkpt><trkpt lat="43.322856267846056" lon="13.302203788400385"><ele>217.99999999999997</ele><time>2026-04-20T07:51:24Z</time></trkpt><trkpt lat="43.32280388113038" lon="13.302134433551522"><ele>217.0</ele><time>2026-04-20T07:51:25Z</time></trkpt><trkpt lat="43.32276869067036" lon="13.30206050725076"><ele>217.0</ele><time>2026-04-20T07:51:26Z</time></trkpt><trkpt lat="43.32270677703567" lon="13.301933804293851"><ele>217.0</ele><time>2026-04-20T07:51:28Z</time></trkpt><trkpt lat="43.32263476566459" lon="13.301845169258758"><ele>217.0</ele><time>2026-04-20T07:51:32Z</time></trkpt><trkpt lat="43.322710182308334" lon="13.3016861064381"><ele>217.0</ele><time>2026-04-20T07:51:33Z</time></trkpt><trkpt lat="43.32274640856293" lon="13.301560508524547"><ele>217.0</ele><time>2026-04-20T07:51:34Z</time></trkpt><trkpt lat="43.32277313827254" lon="13.301415838320105"><ele>217.0</ele><time>2026-04-20T07:51:35Z</time></trkpt><trkpt lat="43.322805809283956" lon="13.301268398363405"><ele>217.0</ele><time>2026-04-20T07:51:36Z</time></trkpt><trkpt lat="43.32283558349631" lon="13.301094510746742"><ele>217.0</ele><time>2026-04-20T07:51:37Z</time></trkpt><trkpt lat="43.32288110530275" lon="13.300896158737972"><ele>217.0</ele><time>2026-04-20T07:51:38Z</time></trkpt><trkpt lat="43.32292416244173" lon="13.300718876336086"><ele>216.5</ele><time>2026-04-20T07:51:39Z</time></trkpt><trkpt lat="43.322961705786355" lon="13.300554188541433"><ele>216.0</ele><time>2026-04-20T07:51:40Z</time></trkpt><trkpt lat="43.32302097579772" lon="13.300401236615116"><ele>215.5</ele><time>2026-04-20T07:51:41Z</time></trkpt><trkpt lat="43.32306255563896" lon="13.30023964263998"><ele>215.0</ele><time>2026-04-20T07:51:42Z</time></trkpt><trkpt lat="43.32313409403747" lon="13.300099417527456"><ele>216.0</ele><time>2026-04-20T07:51:43Z</time></trkpt><trkpt lat="43.323176134129845" lon="13.299945381001812"><ele>217.0</ele><time>2026-04-20T07:51:44Z</time></trkpt><trkpt lat="43.32323821562053" lon="13.299799765487046"><ele>218.0</ele><time>2026-04-20T07:51:45Z</time></trkpt><trkpt lat="43.32330572494315" lon="13.29966281060474"><ele>219.0</ele><time>2026-04-20T07:51:46Z</time></trkpt><trkpt lat="43.323370573752456" lon="13.299515855567044"><ele>219.25</ele><time>2026-04-20T07:51:47Z</time></trkpt><trkpt lat="43.32343560472065" lon="13.299370649204425"><ele>219.5</ele><time>2026-04-20T07:51:48Z</time></trkpt><trkpt lat="43.32350046077333" lon="13.299229087180668"><ele>219.75</ele><time>2026-04-20T07:51:49Z</time></trkpt><trkpt lat="43.323562854944974" lon="13.299084495275428"><ele>220.0</ele><time>2026-04-20T07:51:50Z</time></trkpt><trkpt lat="43.32362924805009" lon="13.298942766438891"><ele>220.0</ele><time>2026-04-20T07:51:51Z</time></trkpt><trkpt lat="43.32370134460564" lon="13.298802149225754"><ele>220.0</ele><time>2026-04-20T07:51:51.999Z</time></trkpt><trkpt lat="43.32377959232163" lon="13.298654981875952"><ele>220.0</ele><time>2026-04-20T07:51:52.999Z</time></trkpt><trkpt lat="43.32386343567395" lon="13.298500680961698"><ele>220.0</ele><time>2026-04-20T07:51:53.999Z</time></trkpt><trkpt lat="43.323943472621636" lon="13.298357144615363"><ele>222.5</ele><time>2026-04-20T07:51:54.999Z</time></trkpt><trkpt lat="43.32402468736276" lon="13.298217095149345"><ele>225.0</ele><time>2026-04-20T07:51:55.999Z</time></trkpt><trkpt lat="43.3240991964217" lon="13.298074492683813"><ele>227.5</ele><time>2026-04-20T07:51:56.999Z</time></trkpt><trkpt lat="43.324187251048464" lon="13.297936784094714"><ele>230.0</ele><time>2026-04-20T07:51:57.999Z</time></trkpt><trkpt lat="43.324250354073435" lon="13.297767337660446"><ele>231.25</ele><time>2026-04-20T07:51:58.999Z</time></trkpt><trkpt lat="43.32431494268072" lon="13.29763110220604"><ele>232.5</ele><time>2026-04-20T07:51:59.999Z</time></trkpt><trkpt lat="43.32435645469046" lon="13.297479708880976"><ele>233.75</ele><time>2026-04-20T07:52:00.999Z</time></trkpt><trkpt lat="43.32437583360401" lon="13.297318016342054"><ele>235.0</ele><time>2026-04-20T07:52:01.999Z</time></trkpt><trkpt lat="43.32435199200281" lon="13.297151327174063"><ele>236.5</ele><time>2026-04-20T07:52:02.999Z</time></trkpt><trkpt lat="43.32432107406703" lon="13.296991399718541"><ele>238.0</ele><time>2026-04-20T07:52:03.999Z</time></trkpt><trkpt lat="43.32431567335104" lon="13.296823150955328"><ele>239.5</ele><time>2026-04-20T07:52:04.999Z</time></trkpt><trkpt lat="43.32430046056911" lon="13.296647810018634"><ele>241.0</ele><time>2026-04-20T07:52:05.999Z</time></trkpt><trkpt lat="43.32429683590311" lon="13.296436658203783"><ele>242.33333333333331</ele><time>2026-04-20T07:52:06.999Z</time></trkpt><trkpt lat="43.32432767034479" lon="13.296199302624505"><ele>243.66666666666669</ele><time>2026-04-20T07:52:07.999Z</time></trkpt><trkpt lat="43.32435302924016" lon="13.295937229689903"><ele>245.0</ele><time>2026-04-20T07:52:08.999Z</time></trkpt><trkpt lat="43.32438045971041" lon="13.295685286041284"><ele>246.0</ele><time>2026-04-20T07:52:09.999Z</time></trkpt><trkpt lat="43.32442456585556" lon="13.295469544396772"><ele>247.0</ele><time>2026-04-20T07:52:10.999Z</time></trkpt><trkpt lat="43.32446959192918" lon="13.295243741578878"><ele>248.0</ele><time>2026-04-20T07:52:11.999Z</time></trkpt><trkpt lat="43.3245234065518" lon="13.29503347758341"><ele>248.0</ele><time>2026-04-20T07:52:12.999Z</time></trkpt><trkpt lat="43.324589573922395" lon="13.294829020480691"><ele>248.0</ele><time>2026-04-20T07:52:13.999Z</time></trkpt><trkpt lat="43.32465510289184" lon="13.294643228689045"><ele>248.0</ele><time>2026-04-20T07:52:14.999Z</time></trkpt><trkpt lat="43.32471194979923" lon="13.294472133535706"><ele>249.75</ele><time>2026-04-20T07:52:15.999Z</time></trkpt><trkpt lat="43.324799167271074" lon="13.29429803101054"><ele>251.5</ele><time>2026-04-20T07:52:16.999Z</time></trkpt><trkpt lat="43.32487720703483" lon="13.294155801978087"><ele>253.25</ele><time>2026-04-20T07:52:17.999Z</time></trkpt><trkpt lat="43.32497262469212" lon="13.294013826535133"><ele>255.0</ele><time>2026-04-20T07:52:18.999Z</time></trkpt><trkpt lat="43.32508191146161" lon="13.29388487623175"><ele>255.0</ele><time>2026-04-20T07:52:19.999Z</time></trkpt><trkpt lat="43.32520122476639" lon="13.293773615007034"><ele>255.0</ele><time>2026-04-20T07:52:20.999Z</time></trkpt><trkpt lat="43.32533389873687" lon="13.293688016108261"><ele>255.0</ele><time>2026-04-20T07:52:21.999Z</time></trkpt><trkpt lat="43.32546570707545" lon="13.293629808582685"><ele>255.0</ele><time>2026-04-20T07:52:22.999Z</time></trkpt><trkpt lat="43.32560430785244" lon="13.293565222354207"><ele>258.0</ele><time>2026-04-20T07:52:23.999Z</time></trkpt><trkpt lat="43.32573954270151" lon="13.29349225890202"><ele>261.0</ele><time>2026-04-20T07:52:24.999Z</time></trkpt><trkpt lat="43.32588001686667" lon="13.293396093184992"><ele>264.0</ele><time>2026-04-20T07:52:25.999Z</time></trkpt><trkpt lat="43.326021063420306" lon="13.293304124778505"><ele>264.0</ele><time>2026-04-20T07:52:26.999Z</time></trkpt><trkpt lat="43.32615994684331" lon="13.293201001804357"><ele>264.0</ele><time>2026-04-20T07:52:27.999Z</time></trkpt><trkpt lat="43.32630517683541" lon="13.293090483829785"><ele>264.0</ele><time>2026-04-20T07:52:28.999Z</time></trkpt><trkpt lat="43.32643210537238" lon="13.292999696193926"><ele>263.75</ele><time>2026-04-20T07:52:29.999Z</time></trkpt><trkpt lat="43.32655951771366" lon="13.29290246977188"><ele>263.5</ele><time>2026-04-20T07:52:30.999Z</time></trkpt><trkpt lat="43.32668958096548" lon="13.29282650789011"><ele>263.25</ele><time>2026-04-20T07:52:31.999Z</time></trkpt><trkpt lat="43.32681818443655" lon="13.292773963962926"><ele>263.0</ele><time>2026-04-20T07:52:32.999Z</time></trkpt><trkpt lat="43.32695872640938" lon="13.29272790020539"><ele>263.0</ele><time>2026-04-20T07:52:33.999Z</time></trkpt><trkpt lat="43.327112246458356" lon="13.2926600105874"><ele>263.0</ele><time>2026-04-20T07:52:34.999Z</time></trkpt><trkpt lat="43.32727263694405" lon="13.29262495198422"><ele>263.0</ele><time>2026-04-20T07:52:35.999Z</time></trkpt><trkpt lat="43.32742629524811" lon="13.292593081343677"><ele>263.33333333333337</ele><time>2026-04-20T07:52:36.999Z</time></trkpt><trkpt lat="43.3275771697767" lon="13.292554722279238"><ele>263.6666666666667</ele><time>2026-04-20T07:52:37.999Z</time></trkpt><trkpt lat="43.327731114654384" lon="13.292516744794328"><ele>264.0</ele><time>2026-04-20T07:52:38.999Z</time></trkpt><trkpt lat="43.32788202000775" lon="13.292486710908122"><ele>264.0</ele><time>2026-04-20T07:52:39.999Z</time></trkpt><trkpt lat="43.32802660535189" lon="13.292459319378539"><ele>264.0</ele><time>2026-04-20T07:52:40.999Z</time></trkpt><trkpt lat="43.328170260077265" lon="13.292434479385644"><ele>264.0</ele><time>2026-04-20T07:52:41.999Z</time></trkpt><trkpt lat="43.328308302319826" lon="13.292408193670575"><ele>264.0</ele><time>2026-04-20T07:52:42.999Z</time></trkpt><trkpt lat="43.328444935638295" lon="13.292412165903107"><ele>263.25</ele><time>2026-04-20T07:52:43.999Z</time></trkpt><trkpt lat="43.32857686279194" lon="13.292402094392637"><ele>262.5</ele><time>2026-04-20T07:52:44.999Z</time></trkpt><trkpt lat="43.32871270740054" lon="13.29237583423843"><ele>261.75</ele><time>2026-04-20T07:52:45.999Z</time></trkpt><trkpt lat="43.32884240627384" lon="13.292380048539629"><ele>261.0</ele><time>2026-04-20T07:52:46.999Z</time></trkpt><trkpt lat="43.328974877000185" lon="13.292384968798661"><ele>260.25</ele><time>2026-04-20T07:52:47.999Z</time></trkpt><trkpt lat="43.32909014975651" lon="13.292374326440013"><ele>259.5</ele><time>2026-04-20T07:52:48.999Z</time></trkpt><trkpt lat="43.3291880601418" lon="13.292365702879797"><ele>258.75</ele><time>2026-04-20T07:52:49.999Z</time></trkpt><trkpt lat="43.32930533696052" lon="13.292367844527549"><ele>258.0</ele><time>2026-04-20T07:52:50.999Z</time></trkpt><trkpt lat="43.32943102441719" lon="13.292363197733442"><ele>258.0</ele><time>2026-04-20T07:52:51.999Z</time></trkpt><trkpt lat="43.32955423989065" lon="13.292359411523483"><ele>258.0</ele><time>2026-04-20T07:52:52.999Z</time></trkpt><trkpt lat="43.32968531059111" lon="13.29235988085446"><ele>258.0</ele><time>2026-04-20T07:52:53.999Z</time></trkpt><trkpt lat="43.32981511212538" lon="13.292358700414496"><ele>258.0</ele><time>2026-04-20T07:52:54.999Z</time></trkpt><trkpt lat="43.32993866696445" lon="13.29238356280527"><ele>258.0</ele><time>2026-04-20T07:52:55.999Z</time></trkpt><trkpt lat="43.330049438132875" lon="13.292386999839751"><ele>258.0</ele><time>2026-04-20T07:52:56.998Z</time></trkpt><trkpt lat="43.33015077271043" lon="13.292367600137167"><ele>258.0</ele><time>2026-04-20T07:52:57.998Z</time></trkpt><trkpt lat="43.33024884724356" lon="13.29237630943397"><ele>258.0</ele><time>2026-04-20T07:52:58.998Z</time></trkpt><trkpt lat="43.33033967654788" lon="13.292380360272116"><ele>258.0</ele><time>2026-04-20T07:52:59.998Z</time></trkpt><trkpt lat="43.33042705506209" lon="13.292384402325998"><ele>258.0</ele><time>2026-04-20T07:53:00.998Z</time></trkpt><trkpt lat="43.33052032036066" lon="13.292378641729012"><ele>258.0</ele><time>2026-04-20T07:53:01.998Z</time></trkpt><trkpt lat="43.33060809973164" lon="13.292378775114882"><ele>258.0</ele><time>2026-04-20T07:53:02.998Z</time></trkpt><trkpt lat="43.330689117424654" lon="13.292381361111575"><ele>258.0</ele><time>2026-04-20T07:53:03.998Z</time></trkpt><trkpt lat="43.330774062198785" lon="13.292379672868456"><ele>258.0</ele><time>2026-04-20T07:53:04.998Z</time></trkpt><trkpt lat="43.33086695532776" lon="13.292384653889613"><ele>258.0</ele><time>2026-04-20T07:53:06Z</time></trkpt><trkpt lat="43.33096016836178" lon="13.292392772978424"><ele>258.3333333333333</ele><time>2026-04-20T07:53:07Z</time></trkpt><trkpt lat="43.331050681849234" lon="13.292389457562434"><ele>258.6666666666667</ele><time>2026-04-20T07:53:08Z</time></trkpt><trkpt lat="43.33113789063911" lon="13.292378442688827"><ele>259.0</ele><time>2026-04-20T07:53:09Z</time></trkpt><trkpt lat="43.33122653988112" lon="13.2923730706508"><ele>259.33333333333337</ele><time>2026-04-20T07:53:10Z</time></trkpt><trkpt lat="43.33130654266874" lon="13.292369196515887"><ele>259.6666666666667</ele><time>2026-04-20T07:53:11Z</time></trkpt><trkpt lat="43.331387703725916" lon="13.292365033491937"><ele>260.0</ele><time>2026-04-20T07:53:12Z</time></trkpt><trkpt lat="43.33147714145737" lon="13.292359212251496"><ele>258.5</ele><time>2026-04-20T07:53:13Z</time></trkpt><trkpt lat="43.331559266282085" lon="13.292358086165898"><ele>257.0</ele><time>2026-04-20T07:53:14Z</time></trkpt><trkpt lat="43.33163963469652" lon="13.29235711595127"><ele>255.5</ele><time>2026-04-20T07:53:15Z</time></trkpt><trkpt lat="43.33172011064036" lon="13.292353285264408"><ele>254.0</ele><time>2026-04-20T07:53:16Z</time></trkpt><trkpt lat="43.331793607108594" lon="13.292348379524869"><ele>252.50000000000003</ele><time>2026-04-20T07:53:17Z</time></trkpt><trkpt lat="43.331873995591785" lon="13.29235951692894"><ele>251.0</ele><time>2026-04-20T07:53:18Z</time></trkpt><trkpt lat="43.33195328958642" lon="13.292359142653536"><ele>250.99999999999997</ele><time>2026-04-20T07:53:19Z</time></trkpt><trkpt lat="43.33203273717952" lon="13.292339331281777"><ele>251.0</ele><time>2026-04-20T07:53:20Z</time></trkpt><trkpt lat="43.332109312010644" lon="13.292359612309264"><ele>250.99999999999997</ele><time>2026-04-20T07:53:21Z</time></trkpt><trkpt lat="43.332187340545595" lon="13.292340519339099"><ele>250.99999999999997</ele><time>2026-04-20T07:53:22Z</time></trkpt><trkpt lat="43.3322603362639" lon="13.292349262791408"><ele>251.0</ele><time>2026-04-20T07:53:23Z</time></trkpt><trkpt lat="43.33233300076977" lon="13.292356657522246"><ele>250.99999999999997</ele><time>2026-04-20T07:53:24Z</time></trkpt><trkpt lat="43.33239594962991" lon="13.292354003921263"><ele>250.99999999999997</ele><time>2026-04-20T07:53:25Z</time></trkpt><trkpt lat="43.33246049913999" lon="13.292356233509327"><ele>249.33333333333334</ele><time>2026-04-20T07:53:26Z</time></trkpt><trkpt lat="43.33252632693376" lon="13.292328751747535"><ele>247.66666666666669</ele><time>2026-04-20T07:53:27Z</time></trkpt><trkpt lat="43.33258405663879" lon="13.29225746150215"><ele>246.0</ele><time>2026-04-20T07:53:28Z</time></trkpt><trkpt lat="43.33263271585063" lon="13.292164534990066"><ele>244.33333333333331</ele><time>2026-04-20T07:53:29Z</time></trkpt><trkpt lat="43.332680737154575" lon="13.292083936398079"><ele>242.66666666666666</ele><time>2026-04-20T07:53:30Z</time></trkpt><trkpt lat="43.33269166716988" lon="13.291976146675324"><ele>241.0</ele><time>2026-04-20T07:53:31Z</time></trkpt><trkpt lat="43.3327197470571" lon="13.291882093638934"><ele>241.0</ele><time>2026-04-20T07:53:32Z</time></trkpt><trkpt lat="43.332721779559265" lon="13.291767217869996"><ele>241.00000000000003</ele><time>2026-04-20T07:53:33Z</time></trkpt><trkpt lat="43.33270646773063" lon="13.291662145871957"><ele>241.00000000000003</ele><time>2026-04-20T07:53:34Z</time></trkpt><trkpt lat="43.332691305479294" lon="13.29154940450555"><ele>241.0</ele><time>2026-04-20T07:53:36Z</time></trkpt><trkpt lat="43.332685995135535" lon="13.291412349094946"><ele>241.0</ele><time>2026-04-20T07:53:38Z</time></trkpt><trkpt lat="43.33279984263688" lon="13.291356094539177"><ele>241.0</ele><time>2026-04-20T07:53:40Z</time></trkpt><trkpt lat="43.33286352424927" lon="13.291370760669396"><ele>241.00000000000003</ele><time>2026-04-20T07:53:41Z</time></trkpt><trkpt lat="43.332938718271656" lon="13.29142023898922"><ele>241.00000000000003</ele><time>2026-04-20T07:53:42Z</time></trkpt><trkpt lat="43.33303680008993" lon="13.291510673044723"><ele>241.0</ele><time>2026-04-20T07:53:43Z</time></trkpt><trkpt lat="43.33314083849095" lon="13.29159321373496"><ele>241.0</ele><time>2026-04-20T07:53:44Z</time></trkpt><trkpt lat="43.333228307066086" lon="13.291659431373448"><ele>240.83333333333331</ele><time>2026-04-20T07:53:45Z</time></trkpt><trkpt lat="43.333310889671196" lon="13.291720920377546"><ele>240.66666666666666</ele><time>2026-04-20T07:53:46Z</time></trkpt><trkpt lat="43.33338191937077" lon="13.291775801174056"><ele>240.5</ele><time>2026-04-20T07:53:47Z</time></trkpt><trkpt lat="43.333464552029746" lon="13.291832859291622"><ele>240.33333333333331</ele><time>2026-04-20T07:53:48Z</time></trkpt><trkpt lat="43.33354982605059" lon="13.291869652625529"><ele>240.16666666666666</ele><time>2026-04-20T07:53:49Z</time></trkpt><trkpt lat="43.33364020213462" lon="13.291892623999113"><ele>240.0</ele><time>2026-04-20T07:53:50Z</time></trkpt><trkpt lat="43.333737789137004" lon="13.291901805153845"><ele>240.0</ele><time>2026-04-20T07:53:51Z</time></trkpt><trkpt lat="43.333831397989584" lon="13.29190998386538"><ele>240.0</ele><time>2026-04-20T07:53:52Z</time></trkpt><trkpt lat="43.333916983600155" lon="13.291942243275232"><ele>240.0</ele><time>2026-04-20T07:53:52.999Z</time></trkpt><trkpt lat="43.33402929097174" lon="13.291965656107466"><ele>240.0</ele><time>2026-04-20T07:53:53.999Z</time></trkpt><trkpt lat="43.33413222385903" lon="13.291983858962947"><ele>240.0</ele><time>2026-04-20T07:53:54.999Z</time></trkpt><trkpt lat="43.334240414436984" lon="13.291994662370767"><ele>241.4</ele><time>2026-04-20T07:53:55.999Z</time></trkpt><trkpt lat="43.33434742209624" lon="13.292004468576057"><ele>242.8</ele><time>2026-04-20T07:53:56.999Z</time></trkpt><trkpt lat="43.3344515471402" lon="13.292004141798676"><ele>244.2</ele><time>2026-04-20T07:53:57.999Z</time></trkpt><trkpt lat="43.33454730658937" lon="13.291996059028694"><ele>245.6</ele><time>2026-04-20T07:53:58.999Z</time></trkpt><trkpt lat="43.3346471075723" lon="13.29198069794866"><ele>247.0</ele><time>2026-04-20T07:53:59.999Z</time></trkpt><trkpt lat="43.33474649210794" lon="13.291964312540646"><ele>247.2</ele><time>2026-04-20T07:54:00.999Z</time></trkpt><trkpt lat="43.334846512467735" lon="13.291931024098382"><ele>247.39999999999998</ele><time>2026-04-20T07:54:01.999Z</time></trkpt><trkpt lat="43.33494419806898" lon="13.291930848848187"><ele>247.60000000000002</ele><time>2026-04-20T07:54:02.999Z</time></trkpt><trkpt lat="43.33504014884685" lon="13.291934379289968"><ele>247.8</ele><time>2026-04-20T07:54:03.999Z</time></trkpt><trkpt lat="43.33512963635877" lon="13.291950101276003"><ele>248.0</ele><time>2026-04-20T07:54:04.999Z</time></trkpt><trkpt lat="43.335221578221834" lon="13.291984664313862"><ele>248.0</ele><time>2026-04-20T07:54:05.999Z</time></trkpt><trkpt lat="43.33532327052628" lon="13.292014444403979"><ele>248.0</ele><time>2026-04-20T07:54:06.999Z</time></trkpt><trkpt lat="43.33541668592474" lon="13.29207330805351"><ele>248.0</ele><time>2026-04-20T07:54:07.999Z</time></trkpt><trkpt lat="43.335511993401795" lon="13.292132941104187"><ele>248.0</ele><time>2026-04-20T07:54:08.999Z</time></trkpt><trkpt lat="43.3356051796391" lon="13.292193948348604"><ele>248.0</ele><time>2026-04-20T07:54:09.999Z</time></trkpt><trkpt lat="43.33569531149019" lon="13.292246276130543"><ele>248.4</ele><time>2026-04-20T07:54:10.999Z</time></trkpt><trkpt lat="43.335780963198715" lon="13.292322216468405"><ele>248.8</ele><time>2026-04-20T07:54:11.999Z</time></trkpt><trkpt lat="43.33587444233592" lon="13.292376489703221"><ele>249.2</ele><time>2026-04-20T07:54:12.999Z</time></trkpt><trkpt lat="43.335960750326805" lon="13.292428877044294"><ele>249.6</ele><time>2026-04-20T07:54:13.999Z</time></trkpt><trkpt lat="43.3360374869609" lon="13.292453629364893"><ele>250.0</ele><time>2026-04-20T07:54:14.999Z</time></trkpt><trkpt lat="43.33609836764513" lon="13.292537205268939"><ele>250.0</ele><time>2026-04-20T07:54:15.999Z</time></trkpt><trkpt lat="43.33617437002958" lon="13.292604852827377"><ele>250.0</ele><time>2026-04-20T07:54:16.999Z</time></trkpt><trkpt lat="43.33624035584586" lon="13.292721223004007"><ele>250.0</ele><time>2026-04-20T07:54:17.999Z</time></trkpt><trkpt lat="43.336306651482936" lon="13.292839981077968"><ele>250.0</ele><time>2026-04-20T07:54:18.999Z</time></trkpt><trkpt lat="43.336372103522805" lon="13.29295343381717"><ele>250.0</ele><time>2026-04-20T07:54:19.999Z</time></trkpt><trkpt lat="43.33643867338561" lon="13.293067621456329"><ele>249.0</ele><time>2026-04-20T07:54:20.999Z</time></trkpt><trkpt lat="43.336493627738605" lon="13.293183245200858"><ele>248.0</ele><time>2026-04-20T07:54:21.999Z</time></trkpt><trkpt lat="43.336565120127375" lon="13.293282875164177"><ele>247.0</ele><time>2026-04-20T07:54:22.999Z</time></trkpt><trkpt lat="43.33661932665335" lon="13.293400609634901"><ele>246.0</ele><time>2026-04-20T07:54:23.999Z</time></trkpt><trkpt lat="43.3366767189995" lon="13.2935153136453"><ele>245.0</ele><time>2026-04-20T07:54:24.999Z</time></trkpt><trkpt lat="43.33673207253125" lon="13.293605901699296"><ele>245.0</ele><time>2026-04-20T07:54:25.999Z</time></trkpt><trkpt lat="43.336791550967526" lon="13.293670830971587"><ele>245.0</ele><time>2026-04-20T07:54:26.999Z</time></trkpt><trkpt lat="43.336832624145764" lon="13.293755125696423"><ele>245.0</ele><time>2026-04-20T07:54:27.999Z</time></trkpt><trkpt lat="43.33687579011966" lon="13.293831186657254"><ele>245.0</ele><time>2026-04-20T07:54:28.999Z</time></trkpt><trkpt lat="43.33691313696127" lon="13.293901907685"><ele>245.0</ele><time>2026-04-20T07:54:29.999Z</time></trkpt><trkpt lat="43.33694029540754" lon="13.293980645839374"><ele>245.0</ele><time>2026-04-20T07:54:30.999Z</time></trkpt><trkpt lat="43.33695485890297" lon="13.294076162478353"><ele>245.0</ele><time>2026-04-20T07:54:31.999Z</time></trkpt><trkpt lat="43.33695629913939" lon="13.294164490200522"><ele>244.33333333333334</ele><time>2026-04-20T07:54:32.999Z</time></trkpt><trkpt lat="43.33694879458201" lon="13.294265386863696"><ele>243.66666666666669</ele><time>2026-04-20T07:54:33.999Z</time></trkpt><trkpt lat="43.3369351688499" lon="13.294357011406138"><ele>243.0</ele><time>2026-04-20T07:54:34.999Z</time></trkpt><trkpt lat="43.33690570613164" lon="13.29445540407832"><ele>242.33333333333331</ele><time>2026-04-20T07:54:35.999Z</time></trkpt><trkpt lat="43.33687515965352" lon="13.294564872618645"><ele>241.66666666666666</ele><time>2026-04-20T07:54:36.999Z</time></trkpt><trkpt lat="43.33683461305932" lon="13.294661078443761"><ele>241.0</ele><time>2026-04-20T07:54:37.999Z</time></trkpt><trkpt lat="43.336800303253156" lon="13.294769246306174"><ele>239.99999999999997</ele><time>2026-04-20T07:54:38.999Z</time></trkpt><trkpt lat="43.336759124555236" lon="13.294875764508133"><ele>239.0</ele><time>2026-04-20T07:54:39.999Z</time></trkpt><trkpt lat="43.33672000404504" lon="13.294978266243938"><ele>238.0</ele><time>2026-04-20T07:54:40.999Z</time></trkpt><trkpt lat="43.33667962395262" lon="13.295087750839565"><ele>237.0</ele><time>2026-04-20T07:54:41.999Z</time></trkpt><trkpt lat="43.33664601922073" lon="13.295193956583832"><ele>235.99999999999997</ele><time>2026-04-20T07:54:42.999Z</time></trkpt><trkpt lat="43.33660700053583" lon="13.295295786813908"><ele>235.0</ele><time>2026-04-20T07:54:43.999Z</time></trkpt><trkpt lat="43.33656287635868" lon="13.295393671848247"><ele>234.99999999999997</ele><time>2026-04-20T07:54:44.999Z</time></trkpt><trkpt lat="43.33652105292022" lon="13.29548811295462"><ele>235.0</ele><time>2026-04-20T07:54:45.999Z</time></trkpt><trkpt lat="43.336497327988724" lon="13.295576412541392"><ele>235.0</ele><time>2026-04-20T07:54:46.999Z</time></trkpt><trkpt lat="43.33651873694345" lon="13.29570627136529"><ele>235.0</ele><time>2026-04-20T07:54:47.999Z</time></trkpt><trkpt lat="43.33654474769178" lon="13.295804353465599"><ele>234.99999999999997</ele><time>2026-04-20T07:54:48.999Z</time></trkpt><trkpt lat="43.33659638417305" lon="13.295893591268282"><ele>235.0</ele><time>2026-04-20T07:54:49.999Z</time></trkpt><trkpt lat="43.336629251422934" lon="13.295977498094476"><ele>235.2</ele><time>2026-04-20T07:54:50.999Z</time></trkpt><trkpt lat="43.33665941274921" lon="13.296064061091663"><ele>235.4</ele><time>2026-04-20T07:54:51.999Z</time></trkpt><trkpt lat="43.336748161257134" lon="13.296244455251598"><ele>235.60000000000002</ele><time>2026-04-20T07:54:52.999Z</time></trkpt><trkpt lat="43.33678447771943" lon="13.296356265540442"><ele>235.8</ele><time>2026-04-20T07:54:53.999Z</time></trkpt><trkpt lat="43.33683653183581" lon="13.296428749143727"><ele>236.0</ele><time>2026-04-20T07:54:54.999Z</time></trkpt><trkpt lat="43.33689386403472" lon="13.296490801454231"><ele>236.0</ele><time>2026-04-20T07:54:55.998Z</time></trkpt><trkpt lat="43.33699018387253" lon="13.296573058753546"><ele>236.00000000000003</ele><time>2026-04-20T07:54:56.998Z</time></trkpt><trkpt lat="43.33707435262345" lon="13.296625231830772"><ele>236.00000000000003</ele><time>2026-04-20T07:54:57.998Z</time></trkpt><trkpt lat="43.33716383949695" lon="13.296673531057703"><ele>236.0</ele><time>2026-04-20T07:54:58.998Z</time></trkpt><trkpt lat="43.33729640013326" lon="13.296692796478434"><ele>236.0</ele><time>2026-04-20T07:54:59.998Z</time></trkpt><trkpt lat="43.337409608750626" lon="13.296693274138857"><ele>236.8</ele><time>2026-04-20T07:55:00.998Z</time></trkpt><trkpt lat="43.337516300496354" lon="13.296719557548018"><ele>237.60000000000002</ele><time>2026-04-20T07:55:01.998Z</time></trkpt><trkpt lat="43.3376067424446" lon="13.296745257454242"><ele>238.4</ele><time>2026-04-20T07:55:02.998Z</time></trkpt><trkpt lat="43.33770080484442" lon="13.29676657027913"><ele>239.2</ele><time>2026-04-20T07:55:03.998Z</time></trkpt><trkpt lat="43.33781617790395" lon="13.296816752368459"><ele>240.0</ele><time>2026-04-20T07:55:04.998Z</time></trkpt><trkpt lat="43.337923812080064" lon="13.296856112399613"><ele>240.0</ele><time>2026-04-20T07:55:05.998Z</time></trkpt><trkpt lat="43.3380342304987" lon="13.296889987897224"><ele>240.0</ele><time>2026-04-20T07:55:06.998Z</time></trkpt><trkpt lat="43.33813289794306" lon="13.296925622469853"><ele>240.0</ele><time>2026-04-20T07:55:07.998Z</time></trkpt><trkpt lat="43.338236769428505" lon="13.296959826964887"><ele>240.0</ele><time>2026-04-20T07:55:08.998Z</time></trkpt><trkpt lat="43.33834223998801" lon="13.296987081055814"><ele>240.0</ele><time>2026-04-20T07:55:09.998Z</time></trkpt><trkpt lat="43.338446057746246" lon="13.297025607458563"><ele>241.0</ele><time>2026-04-20T07:55:10.998Z</time></trkpt><trkpt lat="43.338559624102885" lon="13.297061908632323"><ele>242.0</ele><time>2026-04-20T07:55:12Z</time></trkpt><trkpt lat="43.33867413968628" lon="13.297091578528157"><ele>243.0</ele><time>2026-04-20T07:55:13Z</time></trkpt><trkpt lat="43.3387936257717" lon="13.297116542511498"><ele>244.0</ele><time>2026-04-20T07:55:14Z</time></trkpt><trkpt lat="43.338917190664795" lon="13.2971418092816"><ele>244.25</ele><time>2026-04-20T07:55:15Z</time></trkpt><trkpt lat="43.339047715074095" lon="13.297151762920501"><ele>244.5</ele><time>2026-04-20T07:55:16Z</time></trkpt><trkpt lat="43.339174260993126" lon="13.297167541268283"><ele>244.75</ele><time>2026-04-20T07:55:17Z</time></trkpt><trkpt lat="43.33929301389193" lon="13.297186477721091"><ele>245.0</ele><time>2026-04-20T07:55:18Z</time></trkpt><trkpt lat="43.33940865099899" lon="13.297200809977841"><ele>245.00000000000003</ele><time>2026-04-20T07:55:19Z</time></trkpt><trkpt lat="43.339508986563025" lon="13.297223018562127"><ele>245.0</ele><time>2026-04-20T07:55:20Z</time></trkpt><trkpt lat="43.33959281531025" lon="13.297254020969788"><ele>245.0</ele><time>2026-04-20T07:55:21Z</time></trkpt><trkpt lat="43.33968254690664" lon="13.297253417672357"><ele>245.0</ele><time>2026-04-20T07:55:22Z</time></trkpt><trkpt lat="43.33975543121003" lon="13.297269055805659"><ele>245.00000000000003</ele><time>2026-04-20T07:55:23Z</time></trkpt><trkpt lat="43.33984855273007" lon="13.29729573953755"><ele>245.0</ele><time>2026-04-20T07:55:25Z</time></trkpt><trkpt lat="43.339923356145064" lon="13.297324865056684"><ele>244.6</ele><time>2026-04-20T07:55:29Z</time></trkpt><trkpt lat="43.33994194539185" lon="13.297179562181281"><ele>244.2</ele><time>2026-04-20T07:55:30Z</time></trkpt><trkpt lat="43.33994142396967" lon="13.297063395492806"><ele>243.8</ele><time>2026-04-20T07:55:31Z</time></trkpt><trkpt lat="43.33994419755532" lon="13.296920569062799"><ele>243.4</ele><time>2026-04-20T07:55:32Z</time></trkpt><trkpt lat="43.33996417025454" lon="13.29676345962946"><ele>243.0</ele><time>2026-04-20T07:55:33Z</time></trkpt><trkpt lat="43.33997565366034" lon="13.29659750359791"><ele>243.5</ele><time>2026-04-20T07:55:34Z</time></trkpt><trkpt lat="43.33998098694833" lon="13.296400026085596"><ele>244.0</ele><time>2026-04-20T07:55:35Z</time></trkpt><trkpt lat="43.33998843350569" lon="13.29621107797455"><ele>244.5</ele><time>2026-04-20T07:55:36Z</time></trkpt><trkpt lat="43.33999317722361" lon="13.296019783132028"><ele>245.0</ele><time>2026-04-20T07:55:37Z</time></trkpt><trkpt lat="43.3400045069859" lon="13.295827066311395"><ele>245.0</ele><time>2026-04-20T07:55:38Z</time></trkpt><trkpt lat="43.34001212688248" lon="13.295629379197242"><ele>245.0</ele><time>2026-04-20T07:55:39Z</time></trkpt><trkpt lat="43.34002008662401" lon="13.295423694426727"><ele>245.0</ele><time>2026-04-20T07:55:40Z</time></trkpt><trkpt lat="43.34001540397043" lon="13.29521101080638"><ele>245.0</ele><time>2026-04-20T07:55:41Z</time></trkpt><trkpt lat="43.34001732593282" lon="13.295007491909965"><ele>245.25</ele><time>2026-04-20T07:55:42Z</time></trkpt><trkpt lat="43.340022789045264" lon="13.294812104920101"><ele>245.5</ele><time>2026-04-20T07:55:43Z</time></trkpt><trkpt lat="43.340036721268625" lon="13.29464565262868"><ele>245.75</ele><time>2026-04-20T07:55:44Z</time></trkpt><trkpt lat="43.340047454310564" lon="13.294459139853606"><ele>246.0</ele><time>2026-04-20T07:55:45Z</time></trkpt><trkpt lat="43.34005690102513" lon="13.294274318120369"><ele>246.5</ele><time>2026-04-20T07:55:46Z</time></trkpt><trkpt lat="43.34006697456664" lon="13.29408534836506"><ele>247.0</ele><time>2026-04-20T07:55:47Z</time></trkpt><trkpt lat="43.3400901558182" lon="13.293896626932339"><ele>247.5</ele><time>2026-04-20T07:55:48Z</time></trkpt><trkpt lat="43.34011810694133" lon="13.29371833945553"><ele>248.0</ele><time>2026-04-20T07:55:49Z</time></trkpt><trkpt lat="43.34014092936492" lon="13.293572052016016"><ele>248.00000000000003</ele><time>2026-04-20T07:55:49.999Z</time></trkpt><trkpt lat="43.340150621518646" lon="13.293434481024216"><ele>248.0</ele><time>2026-04-20T07:55:50.999Z</time></trkpt><trkpt lat="43.340162483096925" lon="13.29329715583725"><ele>248.0</ele><time>2026-04-20T07:55:51.999Z</time></trkpt><trkpt lat="43.340173419469224" lon="13.293181962117512"><ele>248.0</ele><time>2026-04-20T07:55:52.999Z</time></trkpt><trkpt lat="43.34017858240371" lon="13.293078509353446"><ele>248.00000000000003</ele><time>2026-04-20T07:55:53.999Z</time></trkpt><trkpt lat="43.34018822126681" lon="13.29298915476291"><ele>248.0</ele><time>2026-04-20T07:55:54.999Z</time></trkpt><trkpt lat="43.34027329532259" lon="13.292871671018425"><ele>248.4</ele><time>2026-04-20T07:55:56.999Z</time></trkpt><trkpt lat="43.34035366216817" lon="13.292895314546358"><ele>248.8</ele><time>2026-04-20T07:55:57.999Z</time></trkpt><trkpt lat="43.34044653542442" lon="13.29289401924144"><ele>249.2</ele><time>2026-04-20T07:55:58.999Z</time></trkpt><trkpt lat="43.34055459023375" lon="13.292888418123928"><ele>249.6</ele><time>2026-04-20T07:55:59.999Z</time></trkpt><trkpt lat="43.3406709298111" lon="13.292866883517195"><ele>250.0</ele><time>2026-04-20T07:56:00.999Z</time></trkpt><trkpt lat="43.340797711631225" lon="13.292862215735285"><ele>250.5</ele><time>2026-04-20T07:56:01.999Z</time></trkpt><trkpt lat="43.34091266284492" lon="13.292859677159607"><ele>251.0</ele><time>2026-04-20T07:56:02.999Z</time></trkpt><trkpt lat="43.341036315964594" lon="13.292853204711905"><ele>251.5</ele><time>2026-04-20T07:56:03.999Z</time></trkpt><trkpt lat="43.34115980948566" lon="13.29284887980281"><ele>252.0</ele><time>2026-04-20T07:56:04.999Z</time></trkpt><trkpt lat="43.34128760619926" lon="13.29284184047321"><ele>252.25</ele><time>2026-04-20T07:56:05.999Z</time></trkpt><trkpt lat="43.34141610115808" lon="13.292835432488163"><ele>252.5</ele><time>2026-04-20T07:56:06.999Z</time></trkpt><trkpt lat="43.34154704302852" lon="13.2928263906317"><ele>252.75</ele><time>2026-04-20T07:56:07.999Z</time></trkpt><trkpt lat="43.341681529114204" lon="13.292810552573066"><ele>253.0</ele><time>2026-04-20T07:56:08.999Z</time></trkpt><trkpt lat="43.341841341538945" lon="13.292803736234843"><ele>253.0</ele><time>2026-04-20T07:56:09.999Z</time></trkpt><trkpt lat="43.34198036034958" lon="13.29278800634195"><ele>253.0</ele><time>2026-04-20T07:56:10.999Z</time></trkpt><trkpt lat="43.342117579966214" lon="13.292765188360134"><ele>253.0</ele><time>2026-04-20T07:56:11.999Z</time></trkpt><trkpt lat="43.34225237887229" lon="13.292733960166151"><ele>253.0</ele><time>2026-04-20T07:56:12.999Z</time></trkpt><trkpt lat="43.34239754176858" lon="13.292717554853002"><ele>253.75</ele><time>2026-04-20T07:56:13.999Z</time></trkpt><trkpt lat="43.342537931331705" lon="13.292684383567265"><ele>254.5</ele><time>2026-04-20T07:56:14.999Z</time></trkpt><trkpt lat="43.34268660229761" lon="13.292642137521083"><ele>255.25</ele><time>2026-04-20T07:56:15.999Z</time></trkpt><trkpt lat="43.34283241694682" lon="13.292588452173783"><ele>256.0</ele><time>2026-04-20T07:56:16.999Z</time></trkpt><trkpt lat="43.342976388867655" lon="13.292529541196082"><ele>258.5</ele><time>2026-04-20T07:56:17.999Z</time></trkpt><trkpt lat="43.343116532038614" lon="13.29247462160217"><ele>261.0</ele><time>2026-04-20T07:56:18.999Z</time></trkpt><trkpt lat="43.343239258845784" lon="13.292427788594322"><ele>263.5</ele><time>2026-04-20T07:56:19.999Z</time></trkpt><trkpt lat="43.343366903808494" lon="13.292379797839402"><ele>266.0</ele><time>2026-04-20T07:56:20.999Z</time></trkpt><trkpt lat="43.34349197988624" lon="13.292341847540708"><ele>266.0</ele><time>2026-04-20T07:56:21.999Z</time></trkpt><trkpt lat="43.34362906150867" lon="13.292288676519771"><ele>266.0</ele><time>2026-04-20T07:56:22.999Z</time></trkpt><trkpt lat="43.343760352706326" lon="13.292243495605618"><ele>266.0</ele><time>2026-04-20T07:56:23.999Z</time></trkpt><trkpt lat="43.34387219384165" lon="13.292207957949703"><ele>266.0</ele><time>2026-04-20T07:56:24.999Z</time></trkpt><trkpt lat="43.343957812769034" lon="13.292166313311004"><ele>268.5</ele><time>2026-04-20T07:56:25.999Z</time></trkpt><trkpt lat="43.34402680347577" lon="13.292129811838018"><ele>271.0</ele><time>2026-04-20T07:56:26.999Z</time></trkpt><trkpt lat="43.344106516817696" lon="13.292094818105488"><ele>273.5</ele><time>2026-04-20T07:56:27.999Z</time></trkpt><trkpt lat="43.34417431150994" lon="13.292064023699007"><ele>276.0</ele><time>2026-04-20T07:56:28.999Z</time></trkpt><trkpt lat="43.3442448928251" lon="13.29203572692318"><ele>278.5</ele><time>2026-04-20T07:56:29.999Z</time></trkpt><trkpt lat="43.34434518725134" lon="13.291980435581799"><ele>281.0</ele><time>2026-04-20T07:56:31.999Z</time></trkpt><trkpt lat="43.34442269626681" lon="13.291974938107218"><ele>281.0</ele><time>2026-04-20T07:56:33.999Z</time></trkpt><trkpt lat="43.3445100427119" lon="13.291999461123048"><ele>281.0</ele><time>2026-04-20T07:56:36.999Z</time></trkpt><trkpt lat="43.34461187814663" lon="13.29207946185346"><ele>281.0</ele><time>2026-04-20T07:56:38.999Z</time></trkpt><trkpt lat="43.34467880700056" lon="13.292066078363858"><ele>281.0</ele><time>2026-04-20T07:56:39.999Z</time></trkpt><trkpt lat="43.34475359938035" lon="13.292044108234101"><ele>281.0</ele><time>2026-04-20T07:56:40.999Z</time></trkpt><trkpt lat="43.34483111095903" lon="13.292004175191378"><ele>281.0</ele><time>2026-04-20T07:56:41.999Z</time></trkpt><trkpt lat="43.34491477632165" lon="13.29196417268854"><ele>281.1666666666667</ele><time>2026-04-20T07:56:42.999Z</time></trkpt><trkpt lat="43.344983079186214" lon="13.291954843179196"><ele>281.33333333333337</ele><time>2026-04-20T07:56:43.999Z</time></trkpt><trkpt lat="43.345047052053715" lon="13.291906831744319"><ele>281.5</ele><time>2026-04-20T07:56:44.999Z</time></trkpt><trkpt lat="43.34513141693312" lon="13.291884623425204"><ele>281.6666666666667</ele><time>2026-04-20T07:56:45.999Z</time></trkpt><trkpt lat="43.345216230644425" lon="13.291846533448874"><ele>281.8333333333333</ele><time>2026-04-20T07:56:46.999Z</time></trkpt><trkpt lat="43.345296029624706" lon="13.291797990316944"><ele>282.0</ele><time>2026-04-20T07:56:47.999Z</time></trkpt><trkpt lat="43.34538285407126" lon="13.291760206093983"><ele>282.0</ele><time>2026-04-20T07:56:48.999Z</time></trkpt><trkpt lat="43.345468988067836" lon="13.291711839123046"><ele>282.0</ele><time>2026-04-20T07:56:49.999Z</time></trkpt><trkpt lat="43.345555740547695" lon="13.29167119046689"><ele>282.0</ele><time>2026-04-20T07:56:50.999Z</time></trkpt><trkpt lat="43.34564707060504" lon="13.291617999106913"><ele>282.0</ele><time>2026-04-20T07:56:51.999Z</time></trkpt><trkpt lat="43.34574133936838" lon="13.291570455193408"><ele>282.0</ele><time>2026-04-20T07:56:52.999Z</time></trkpt><trkpt lat="43.34583533470531" lon="13.291519585300264"><ele>281.8</ele><time>2026-04-20T07:56:53.999Z</time></trkpt><trkpt lat="43.34592995325065" lon="13.291468239637663"><ele>281.6</ele><time>2026-04-20T07:56:54.999Z</time></trkpt><trkpt lat="43.34603337256294" lon="13.291426169789949"><ele>281.40000000000003</ele><time>2026-04-20T07:56:55.999Z</time></trkpt><trkpt lat="43.346126707028105" lon="13.291391654123624"><ele>281.2</ele><time>2026-04-20T07:56:56.999Z</time></trkpt><trkpt lat="43.34621896712485" lon="13.29135184200592"><ele>281.0</ele><time>2026-04-20T07:56:57.999Z</time></trkpt><trkpt lat="43.34631219433463" lon="13.291312534174557"><ele>281.33333333333337</ele><time>2026-04-20T07:56:58.998Z</time></trkpt><trkpt lat="43.34639223760151" lon="13.291278783327432"><ele>281.6666666666667</ele><time>2026-04-20T07:56:59.998Z</time></trkpt><trkpt lat="43.346460551142336" lon="13.291248587546919"><ele>282.0</ele><time>2026-04-20T07:57:00.998Z</time></trkpt><trkpt lat="43.34653045690435" lon="13.291216639165716"><ele>282.3333333333333</ele><time>2026-04-20T07:57:01.998Z</time></trkpt><trkpt lat="43.34659756956799" lon="13.29115724533158"><ele>282.66666666666663</ele><time>2026-04-20T07:57:02.998Z</time></trkpt><trkpt lat="43.34666458469639" lon="13.2910858745424"><ele>283.0</ele><time>2026-04-20T07:57:03.998Z</time></trkpt><trkpt lat="43.346732426473736" lon="13.29100555247729"><ele>283.0</ele><time>2026-04-20T07:57:04.998Z</time></trkpt><trkpt lat="43.346783863681914" lon="13.29094298068714"><ele>283.0</ele><time>2026-04-20T07:57:05.998Z</time></trkpt><trkpt lat="43.34683028316536" lon="13.29086879099279"><ele>283.0</ele><time>2026-04-20T07:57:06.998Z</time></trkpt><trkpt lat="43.34687396012813" lon="13.290760207228574"><ele>283.0</ele><time>2026-04-20T07:57:08.998Z</time></trkpt><trkpt lat="43.34694783206856" lon="13.290675595075477"><ele>283.0</ele><time>2026-04-20T07:57:10.998Z</time></trkpt><trkpt lat="43.3469849402648" lon="13.290595465528114"><ele>283.0</ele><time>2026-04-20T07:57:12.998Z</time></trkpt><trkpt lat="43.34698580208887" lon="13.290467910188864"><ele>282.8333333333333</ele><time>2026-04-20T07:57:14.998Z</time></trkpt><trkpt lat="43.346931398227575" lon="13.29030197900463"><ele>282.66666666666663</ele><time>2026-04-20T07:57:16.998Z</time></trkpt><trkpt lat="43.346899879777524" lon="13.290203068987369"><ele>282.5</ele><time>2026-04-20T07:57:18Z</time></trkpt><trkpt lat="43.346868529871784" lon="13.29009570046282"><ele>282.3333333333333</ele><time>2026-04-20T07:57:19Z</time></trkpt><trkpt lat="43.34684432086605" lon="13.290004946764965"><ele>282.1666666666667</ele><time>2026-04-20T07:57:20Z</time></trkpt><trkpt lat="43.34681851513" lon="13.289905788433579"><ele>282.0</ele><time>2026-04-20T07:57:21Z</time></trkpt><trkpt lat="43.34679395668771" lon="13.28980781211921"><ele>282.3333333333333</ele><time>2026-04-20T07:57:22Z</time></trkpt><trkpt lat="43.34676642621235" lon="13.289698297164461"><ele>282.6666666666667</ele><time>2026-04-20T07:57:23Z</time></trkpt><trkpt lat="43.34673889132798" lon="13.289588764887572"><ele>283.0</ele><time>2026-04-20T07:57:24Z</time></trkpt><trkpt lat="43.346711704055295" lon="13.289477425701941"><ele>283.33333333333337</ele><time>2026-04-20T07:57:25Z</time></trkpt><trkpt lat="43.34668480460179" lon="13.289365725379758"><ele>283.6666666666667</ele><time>2026-04-20T07:57:26Z</time></trkpt><trkpt lat="43.346658692300345" lon="13.289257294093874"><ele>284.0</ele><time>2026-04-20T07:57:27Z</time></trkpt><trkpt lat="43.34663308782673" lon="13.289149227703378"><ele>284.0</ele><time>2026-04-20T07:57:28Z</time></trkpt><trkpt lat="43.34660815234186" lon="13.289041749418207"><ele>284.0</ele><time>2026-04-20T07:57:29Z</time></trkpt><trkpt lat="43.34658400935448" lon="13.288937686965548"><ele>284.0</ele><time>2026-04-20T07:57:30Z</time></trkpt><trkpt lat="43.346558892293466" lon="13.288829426025394"><ele>284.0</ele><time>2026-04-20T07:57:31Z</time></trkpt><trkpt lat="43.34653263788066" lon="13.288716262669437"><ele>284.0</ele><time>2026-04-20T07:57:32Z</time></trkpt><trkpt lat="43.346493967185005" lon="13.288603482391656"><ele>284.0</ele><time>2026-04-20T07:57:33Z</time></trkpt><trkpt lat="43.34647277297305" lon="13.288484895192855"><ele>284.33333333333337</ele><time>2026-04-20T07:57:34Z</time></trkpt><trkpt lat="43.34644665260839" lon="13.288361527654317"><ele>284.6666666666667</ele><time>2026-04-20T07:57:35Z</time></trkpt><trkpt lat="43.34642321903182" lon="13.288235994815038"><ele>285.0</ele><time>2026-04-20T07:57:36Z</time></trkpt><trkpt lat="43.34640969258303" lon="13.288105011949197"><ele>285.3333333333333</ele><time>2026-04-20T07:57:37Z</time></trkpt><trkpt lat="43.346383606533124" lon="13.288012135094226"><ele>285.66666666666663</ele><time>2026-04-20T07:57:38Z</time></trkpt><trkpt lat="43.34637372710219" lon="13.287924823773723"><ele>286.0</ele><time>2026-04-20T07:57:39Z</time></trkpt><trkpt lat="43.34637211637458" lon="13.287814632052864"><ele>286.0</ele><time>2026-04-20T07:57:40Z</time></trkpt><trkpt lat="43.34636483486352" lon="13.287717969982923"><ele>286.0</ele><time>2026-04-20T07:57:41Z</time></trkpt><trkpt lat="43.346367979905075" lon="13.287546535687868"><ele>286.0</ele><time>2026-04-20T07:57:43Z</time></trkpt><trkpt lat="43.34637376392374" lon="13.287370160749068"><ele>286.0</ele><time>2026-04-20T07:57:45Z</time></trkpt><trkpt lat="43.34641208993484" lon="13.28725157164871"><ele>286.0</ele><time>2026-04-20T07:57:47Z</time></trkpt><trkpt lat="43.34654522019308" lon="13.287218941602426"><ele>286.0</ele><time>2026-04-20T07:57:49.999Z</time></trkpt><trkpt lat="43.34667946140993" lon="13.287190137511113"><ele>286.0</ele><time>2026-04-20T07:57:51.999Z</time></trkpt><trkpt lat="43.34676258331793" lon="13.287167966648346"><ele>286.0</ele><time>2026-04-20T07:57:52.999Z</time></trkpt><trkpt lat="43.34684448169265" lon="13.287144142182962"><ele>286.0</ele><time>2026-04-20T07:57:53.999Z</time></trkpt><trkpt lat="43.34694465405423" lon="13.287112258793346"><ele>286.0</ele><time>2026-04-20T07:57:54.999Z</time></trkpt><trkpt lat="43.347047211846416" lon="13.287050079565553"><ele>286.0</ele><time>2026-04-20T07:57:55.999Z</time></trkpt><trkpt lat="43.34715015732843" lon="13.287000774452729"><ele>286.0</ele><time>2026-04-20T07:57:56.999Z</time></trkpt><trkpt lat="43.34724608507317" lon="13.286943529011932"><ele>286.0</ele><time>2026-04-20T07:57:57.999Z</time></trkpt><trkpt lat="43.34734468991493" lon="13.286892827311545"><ele>286.0</ele><time>2026-04-20T07:57:58.999Z</time></trkpt><trkpt lat="43.34745604454528" lon="13.286850530106486"><ele>286.0</ele><time>2026-04-20T07:57:59.999Z</time></trkpt><trkpt lat="43.3475685107338" lon="13.28682269586783"><ele>286.40000000000003</ele><time>2026-04-20T07:58:00.999Z</time></trkpt><trkpt lat="43.34767202332297" lon="13.286787449177512"><ele>286.8</ele><time>2026-04-20T07:58:01.999Z</time></trkpt><trkpt lat="43.34775943276226" lon="13.286740825649801"><ele>287.20000000000005</ele><time>2026-04-20T07:58:02.999Z</time></trkpt><trkpt lat="43.34783849190795" lon="13.286710988535894"><ele>287.6</ele><time>2026-04-20T07:58:03.999Z</time></trkpt><trkpt lat="43.347924790545996" lon="13.286702931009762"><ele>288.0</ele><time>2026-04-20T07:58:04.999Z</time></trkpt><trkpt lat="43.34801572811" lon="13.28673248569702"><ele>287.8</ele><time>2026-04-20T07:58:05.999Z</time></trkpt><trkpt lat="43.348102500555235" lon="13.286784970113418"><ele>287.6</ele><time>2026-04-20T07:58:06.999Z</time></trkpt><trkpt lat="43.3481891034146" lon="13.286824103723719"><ele>287.4</ele><time>2026-04-20T07:58:07.999Z</time></trkpt><trkpt lat="43.348274536717724" lon="13.286833175299014"><ele>287.2</ele><time>2026-04-20T07:58:08.999Z</time></trkpt><trkpt lat="43.34836155886579" lon="13.286809504794991"><ele>287.0</ele><time>2026-04-20T07:58:09.999Z</time></trkpt><trkpt lat="43.34845184934996" lon="13.286763061467692"><ele>287.0</ele><time>2026-04-20T07:58:10.999Z</time></trkpt><trkpt lat="43.34854014554293" lon="13.286702597650821"><ele>287.0</ele><time>2026-04-20T07:58:11.999Z</time></trkpt><trkpt lat="43.34862094316214" lon="13.286633164946991"><ele>287.0</ele><time>2026-04-20T07:58:12.999Z</time></trkpt><trkpt lat="43.348707040197446" lon="13.286576314247629"><ele>287.0</ele><time>2026-04-20T07:58:13.999Z</time></trkpt><trkpt lat="43.348792833571636" lon="13.286495795290747"><ele>287.0</ele><time>2026-04-20T07:58:14.999Z</time></trkpt><trkpt lat="43.348877370771035" lon="13.286430186709874"><ele>286.7142857142857</ele><time>2026-04-20T07:58:15.999Z</time></trkpt><trkpt lat="43.34895169513662" lon="13.28636110316986"><ele>286.42857142857144</ele><time>2026-04-20T07:58:16.999Z</time></trkpt><trkpt lat="43.34902701575991" lon="13.286318186855393"><ele>286.1428571428571</ele><time>2026-04-20T07:58:17.999Z</time></trkpt><trkpt lat="43.34909278963036" lon="13.286284073336745"><ele>285.8571428571429</ele><time>2026-04-20T07:58:18.999Z</time></trkpt><trkpt lat="43.34915343526698" lon="13.286251865102145"><ele>285.57142857142856</ele><time>2026-04-20T07:58:19.999Z</time></trkpt><trkpt lat="43.349222980520345" lon="13.286222383347624"><ele>285.2857142857143</ele><time>2026-04-20T07:58:21.999Z</time></trkpt><trkpt lat="43.34928777356462" lon="13.286185362460445"><ele>285.0</ele><time>2026-04-20T08:01:07.999Z</time></trkpt><trkpt lat="43.349362927951724" lon="13.286139625184719"><ele>285.0</ele><time>2026-04-20T08:01:09.999Z</time></trkpt><trkpt lat="43.34945675833427" lon="13.286076737593893"><ele>285.0</ele><time>2026-04-20T08:01:11.999Z</time></trkpt><trkpt lat="43.34955823498504" lon="13.28600872526991"><ele>285.0</ele><time>2026-04-20T08:01:13.999Z</time></trkpt><trkpt lat="43.349658963412686" lon="13.285944126162267"><ele>285.0</ele><time>2026-04-20T08:01:15.999Z</time></trkpt><trkpt lat="43.3497367810764" lon="13.285896363740843"><ele>285.0</ele><time>2026-04-20T08:01:17.999Z</time></trkpt><trkpt lat="43.34983378272283" lon="13.28612542680475"><ele>284.75</ele><time>2026-04-20T08:01:20.999Z</time></trkpt><trkpt lat="43.34987322226094" lon="13.286274939952015"><ele>284.5</ele><time>2026-04-20T08:01:21.999Z</time></trkpt><trkpt lat="43.3499114403293" lon="13.28642305937818"><ele>284.25</ele><time>2026-04-20T08:01:22.999Z</time></trkpt><trkpt lat="43.34995131158577" lon="13.286577641466693"><ele>284.0</ele><time>2026-04-20T08:01:23.999Z</time></trkpt><trkpt lat="43.34998893714511" lon="13.286735589044252"><ele>283.4</ele><time>2026-04-20T08:01:24.999Z</time></trkpt><trkpt lat="43.35002560982222" lon="13.286879172182074"><ele>282.79999999999995</ele><time>2026-04-20T08:01:25.999Z</time></trkpt><trkpt lat="43.35005983665253" lon="13.287022407244324"><ele>282.20000000000005</ele><time>2026-04-20T08:01:26.998Z</time></trkpt><trkpt lat="43.35009535065759" lon="13.287166873754195"><ele>281.6</ele><time>2026-04-20T08:01:27.998Z</time></trkpt><trkpt lat="43.350136131337244" lon="13.287306400270735"><ele>281.0</ele><time>2026-04-20T08:01:28.998Z</time></trkpt><trkpt lat="43.35017095710699" lon="13.287447405377298"><ele>280.8</ele><time>2026-04-20T08:01:30Z</time></trkpt><trkpt lat="43.35020428446735" lon="13.287596864707215"><ele>280.6</ele><time>2026-04-20T08:01:31Z</time></trkpt><trkpt lat="43.350238519485956" lon="13.287743693267654"><ele>280.4</ele><time>2026-04-20T08:01:32Z</time></trkpt><trkpt lat="43.35027000890622" lon="13.287879203699442"><ele>280.2</ele><time>2026-04-20T08:01:33Z</time></trkpt><trkpt lat="43.350301056293965" lon="13.288012701353777"><ele>280.0</ele><time>2026-04-20T08:01:34Z</time></trkpt><trkpt lat="43.35033751053034" lon="13.288144365042807"><ele>280.0</ele><time>2026-04-20T08:01:35Z</time></trkpt><trkpt lat="43.350371551700775" lon="13.28827420287472"><ele>280.0</ele><time>2026-04-20T08:01:36Z</time></trkpt><trkpt lat="43.350406967282886" lon="13.288411754748493"><ele>280.0</ele><time>2026-04-20T08:01:37Z</time></trkpt><trkpt lat="43.35044532395271" lon="13.288546051558365"><ele>280.0</ele><time>2026-04-20T08:01:38Z</time></trkpt><trkpt lat="43.35047753064544" lon="13.28868255021558"><ele>280.0</ele><time>2026-04-20T08:01:39Z</time></trkpt><trkpt lat="43.35051254466877" lon="13.288824723178463"><ele>279.2</ele><time>2026-04-20T08:01:40Z</time></trkpt><trkpt lat="43.350549167788216" lon="13.288966769008791"><ele>278.4</ele><time>2026-04-20T08:01:41Z</time></trkpt><trkpt lat="43.350586541211584" lon="13.289108896291946"><ele>277.6</ele><time>2026-04-20T08:01:42Z</time></trkpt><trkpt lat="43.35062173621725" lon="13.289256775275721"><ele>276.8</ele><time>2026-04-20T08:01:43Z</time></trkpt><trkpt lat="43.350648216289464" lon="13.28939224684841"><ele>276.0</ele><time>2026-04-20T08:01:44Z</time></trkpt><trkpt lat="43.350665846767775" lon="13.28953321306065"><ele>276.0</ele><time>2026-04-20T08:01:45Z</time></trkpt><trkpt lat="43.35066255182585" lon="13.289687490617554"><ele>276.0</ele><time>2026-04-20T08:01:46Z</time></trkpt><trkpt lat="43.35064095660765" lon="13.289831710345444"><ele>276.0</ele><time>2026-04-20T08:01:47Z</time></trkpt><trkpt lat="43.35059588703986" lon="13.289980027379311"><ele>276.0</ele><time>2026-04-20T08:01:48Z</time></trkpt><trkpt lat="43.35059961326104" lon="13.290235665220775"><ele>276.0</ele><time>2026-04-20T08:01:50Z</time></trkpt><trkpt lat="43.35059407630709" lon="13.290359365248966"><ele>276.0</ele><time>2026-04-20T08:01:51Z</time></trkpt><trkpt lat="43.35058687401079" lon="13.290486108210326"><ele>276.0</ele><time>2026-04-20T08:01:52Z</time></trkpt><trkpt lat="43.3505740663251" lon="13.290606794535714"><ele>276.0</ele><time>2026-04-20T08:01:53Z</time></trkpt><trkpt lat="43.350565155250244" lon="13.290733876200592"><ele>276.0</ele><time>2026-04-20T08:01:54Z</time></trkpt><trkpt lat="43.35056030820263" lon="13.290861963091386"><ele>275.8</ele><time>2026-04-20T08:01:55Z</time></trkpt><trkpt lat="43.35054817695679" lon="13.290994497498291"><ele>275.6</ele><time>2026-04-20T08:01:56Z</time></trkpt><trkpt lat="43.350537768439914" lon="13.291128933390771"><ele>275.4</ele><time>2026-04-20T08:01:57Z</time></trkpt><trkpt lat="43.35052805676064" lon="13.291266197034414"><ele>275.2</ele><time>2026-04-20T08:01:58Z</time></trkpt><trkpt lat="43.35051627031308" lon="13.291405070232006"><ele>275.0</ele><time>2026-04-20T08:01:59Z</time></trkpt><trkpt lat="43.35049771900661" lon="13.291543478814397"><ele>275.0</ele><time>2026-04-20T08:02:00Z</time></trkpt><trkpt lat="43.35048985249811" lon="13.291673128942305"><ele>275.0</ele><time>2026-04-20T08:02:01Z</time></trkpt><trkpt lat="43.350477685933576" lon="13.291813003450963"><ele>275.0</ele><time>2026-04-20T08:02:02Z</time></trkpt><trkpt lat="43.35046492960522" lon="13.291951243234562"><ele>275.0</ele><time>2026-04-20T08:02:03Z</time></trkpt><trkpt lat="43.350454643804404" lon="13.292092010173711"><ele>275.0</ele><time>2026-04-20T08:02:04Z</time></trkpt><trkpt lat="43.35044385665045" lon="13.292226695668676"><ele>275.0</ele><time>2026-04-20T08:02:05Z</time></trkpt><trkpt lat="43.350431432345545" lon="13.292351782595995"><ele>275.0</ele><time>2026-04-20T08:02:06Z</time></trkpt><trkpt lat="43.350420280017225" lon="13.292474112775812"><ele>275.0</ele><time>2026-04-20T08:02:07Z</time></trkpt><trkpt lat="43.35040498028874" lon="13.292595976479458"><ele>275.0</ele><time>2026-04-20T08:02:07.999Z</time></trkpt><trkpt lat="43.35038924605536" lon="13.292718825068901"><ele>275.0</ele><time>2026-04-20T08:02:08.999Z</time></trkpt><trkpt lat="43.35037977500376" lon="13.292841433662984"><ele>275.0</ele><time>2026-04-20T08:02:09.999Z</time></trkpt><trkpt lat="43.35036795349599" lon="13.292961715067866"><ele>275.0</ele><time>2026-04-20T08:02:10.999Z</time></trkpt><trkpt lat="43.350351731239584" lon="13.293082572389817"><ele>275.0</ele><time>2026-04-20T08:02:11.999Z</time></trkpt><trkpt lat="43.350319473690256" lon="13.29321052069292"><ele>275.0</ele><time>2026-04-20T08:02:12.999Z</time></trkpt><trkpt lat="43.35032657970739" lon="13.293312477992188"><ele>275.0</ele><time>2026-04-20T08:02:13.999Z</time></trkpt><trkpt lat="43.350318761416496" lon="13.293426447058257"><ele>275.0</ele><time>2026-04-20T08:02:14.999Z</time></trkpt><trkpt lat="43.35030461601664" lon="13.293544739051088"><ele>274.4</ele><time>2026-04-20T08:02:15.999Z</time></trkpt><trkpt lat="43.35028752804592" lon="13.29366136579989"><ele>273.8</ele><time>2026-04-20T08:02:16.999Z</time></trkpt><trkpt lat="43.35026471050621" lon="13.293790284697494"><ele>273.2</ele><time>2026-04-20T08:02:17.999Z</time></trkpt><trkpt lat="43.35025227791696" lon="13.293926302733066"><ele>272.6</ele><time>2026-04-20T08:02:18.999Z</time></trkpt><trkpt lat="43.35024120650686" lon="13.294053757430282"><ele>272.0</ele><time>2026-04-20T08:02:19.999Z</time></trkpt><trkpt lat="43.35022930714969" lon="13.294189374990552"><ele>271.8</ele><time>2026-04-20T08:02:20.999Z</time></trkpt><trkpt lat="43.35022475903545" lon="13.294324016283968"><ele>271.6</ele><time>2026-04-20T08:02:21.999Z</time></trkpt><trkpt lat="43.350219565508944" lon="13.294456406105521"><ele>271.40000000000003</ele><time>2026-04-20T08:02:22.999Z</time></trkpt><trkpt lat="43.35021196337126" lon="13.294588973688406"><ele>271.2</ele><time>2026-04-20T08:02:23.999Z</time></trkpt><trkpt lat="43.350199761538335" lon="13.294723273842264"><ele>271.0</ele><time>2026-04-20T08:02:24.999Z</time></trkpt><trkpt lat="43.350183344655456" lon="13.294870105024128"><ele>271.0</ele><time>2026-04-20T08:02:25.999Z</time></trkpt><trkpt lat="43.35016602581515" lon="13.295022229464243"><ele>271.0</ele><time>2026-04-20T08:02:26.999Z</time></trkpt><trkpt lat="43.35013939133793" lon="13.295172756261339"><ele>271.0</ele><time>2026-04-20T08:02:27.999Z</time></trkpt><trkpt lat="43.35013247761857" lon="13.295312262641819"><ele>271.0</ele><time>2026-04-20T08:02:28.999Z</time></trkpt><trkpt lat="43.350144231535154" lon="13.29546887630861"><ele>271.0</ele><time>2026-04-20T08:02:29.999Z</time></trkpt><trkpt lat="43.350182548912144" lon="13.295633600821233"><ele>271.0</ele><time>2026-04-20T08:02:30.999Z</time></trkpt><trkpt lat="43.35023436095254" lon="13.295782882672464"><ele>271.0</ele><time>2026-04-20T08:02:31.999Z</time></trkpt><trkpt lat="43.350296474465324" lon="13.295931072017748"><ele>271.0</ele><time>2026-04-20T08:02:32.999Z</time></trkpt><trkpt lat="43.35035106561313" lon="13.296070824680573"><ele>271.0</ele><time>2026-04-20T08:02:33.999Z</time></trkpt><trkpt lat="43.350395514263155" lon="13.296207075993996"><ele>271.0</ele><time>2026-04-20T08:02:34.999Z</time></trkpt><trkpt lat="43.35044258850316" lon="13.296343446985485"><ele>271.0</ele><time>2026-04-20T08:02:35.999Z</time></trkpt><trkpt lat="43.35049041019828" lon="13.29648452664578"><ele>271.0</ele><time>2026-04-20T08:02:36.999Z</time></trkpt><trkpt lat="43.35052860383513" lon="13.296631204272161"><ele>271.0</ele><time>2026-04-20T08:02:37.999Z</time></trkpt><trkpt lat="43.35056076250362" lon="13.296783385631977"><ele>270.0</ele><time>2026-04-20T08:02:38.999Z</time></trkpt><trkpt lat="43.35059910759961" lon="13.296926769052378"><ele>269.0</ele><time>2026-04-20T08:02:39.999Z</time></trkpt><trkpt lat="43.35063629872656" lon="13.297079644535854"><ele>268.0</ele><time>2026-04-20T08:02:40.999Z</time></trkpt><trkpt lat="43.350670090022916" lon="13.297229527385435"><ele>267.0</ele><time>2026-04-20T08:02:41.999Z</time></trkpt><trkpt lat="43.350708094626945" lon="13.297380773749596"><ele>267.0</ele><time>2026-04-20T08:02:42.999Z</time></trkpt><trkpt lat="43.35074161638205" lon="13.29753394765663"><ele>267.0</ele><time>2026-04-20T08:02:43.999Z</time></trkpt><trkpt lat="43.350766428812754" lon="13.29768630898213"><ele>267.0</ele><time>2026-04-20T08:02:44.999Z</time></trkpt><trkpt lat="43.3507886128633" lon="13.2978395059193"><ele>267.0</ele><time>2026-04-20T08:02:45.999Z</time></trkpt><trkpt lat="43.35079577364407" lon="13.297999055508033"><ele>267.0</ele><time>2026-04-20T08:02:46.999Z</time></trkpt><trkpt lat="43.35079459359448" lon="13.298149807567102"><ele>267.0</ele><time>2026-04-20T08:02:47.999Z</time></trkpt><trkpt lat="43.350795919252676" lon="13.298302378196167"><ele>267.0</ele><time>2026-04-20T08:02:48.999Z</time></trkpt><trkpt lat="43.35081981433082" lon="13.298453643124985"><ele>267.0</ele><time>2026-04-20T08:02:49.999Z</time></trkpt><trkpt lat="43.35081647928564" lon="13.298617623050287"><ele>267.0</ele><time>2026-04-20T08:02:50.999Z</time></trkpt><trkpt lat="43.35081406793919" lon="13.298769843822646"><ele>267.0</ele><time>2026-04-20T08:02:51.999Z</time></trkpt><trkpt lat="43.3508112171389" lon="13.298933561964557"><ele>267.0</ele><time>2026-04-20T08:02:52.999Z</time></trkpt><trkpt lat="43.350817418138" lon="13.299090245059476"><ele>267.0</ele><time>2026-04-20T08:02:53.999Z</time></trkpt><trkpt lat="43.35080277105138" lon="13.299265714005923"><ele>266.75</ele><time>2026-04-20T08:02:54.999Z</time></trkpt><trkpt lat="43.35078622760312" lon="13.299437684657674"><ele>266.5</ele><time>2026-04-20T08:02:55.999Z</time></trkpt><trkpt lat="43.35077308679928" lon="13.299612327593032"><ele>266.25</ele><time>2026-04-20T08:02:56.999Z</time></trkpt><trkpt lat="43.35075539616961" lon="13.299782452563381"><ele>266.0</ele><time>2026-04-20T08:02:57.999Z</time></trkpt><trkpt lat="43.35073555114963" lon="13.299945067454694"><ele>265.5</ele><time>2026-04-20T08:02:58.999Z</time></trkpt><trkpt lat="43.35071864678936" lon="13.300117991192293"><ele>265.0</ele><time>2026-04-20T08:02:59.999Z</time></trkpt><trkpt lat="43.35070123544738" lon="13.300292124040707"><ele>264.5</ele><time>2026-04-20T08:03:00.999Z</time></trkpt><trkpt lat="43.35068525660222" lon="13.300460218073905"><ele>264.0</ele><time>2026-04-20T08:03:01.999Z</time></trkpt><trkpt lat="43.35066536564722" lon="13.300634300576576"><ele>263.5</ele><time>2026-04-20T08:03:02.999Z</time></trkpt><trkpt lat="43.350651897342736" lon="13.300789651909913"><ele>263.0</ele><time>2026-04-20T08:03:03.999Z</time></trkpt><trkpt lat="43.35063486007749" lon="13.300941492969812"><ele>262.5</ele><time>2026-04-20T08:03:04.999Z</time></trkpt><trkpt lat="43.35062054022146" lon="13.301092093784499"><ele>262.0</ele><time>2026-04-20T08:03:05.999Z</time></trkpt><trkpt lat="43.35059240699157" lon="13.301247776280265"><ele>262.0</ele><time>2026-04-20T08:03:06.999Z</time></trkpt><trkpt lat="43.35057179857946" lon="13.301390530457853"><ele>262.0</ele><time>2026-04-20T08:03:07.999Z</time></trkpt><trkpt lat="43.35056416967096" lon="13.301556027993056"><ele>262.0</ele><time>2026-04-20T08:03:08.999Z</time></trkpt><trkpt lat="43.350554265823426" lon="13.301704122811548"><ele>262.0</ele><time>2026-04-20T08:03:09.999Z</time></trkpt><trkpt lat="43.35053796449965" lon="13.301855336875999"><ele>262.0</ele><time>2026-04-20T08:03:10.999Z</time></trkpt><trkpt lat="43.35052174937746" lon="13.302004603734689"><ele>262.0</ele><time>2026-04-20T08:03:11.999Z</time></trkpt><trkpt lat="43.35051152316974" lon="13.302146049306865"><ele>262.0</ele><time>2026-04-20T08:03:12.999Z</time></trkpt><trkpt lat="43.35049221645637" lon="13.302288933923814"><ele>262.0</ele><time>2026-04-20T08:03:13.999Z</time></trkpt><trkpt lat="43.35048370949348" lon="13.302403766920635"><ele>262.0</ele><time>2026-04-20T08:03:14.999Z</time></trkpt><trkpt lat="43.35046801752586" lon="13.302521848028606"><ele>262.0</ele><time>2026-04-20T08:03:15.999Z</time></trkpt><trkpt lat="43.35046208245996" lon="13.302645104483418"><ele>261.2</ele><time>2026-04-20T08:03:16.999Z</time></trkpt><trkpt lat="43.35044527375879" lon="13.302783413573854"><ele>260.4</ele><time>2026-04-20T08:03:17.999Z</time></trkpt><trkpt lat="43.350428179248055" lon="13.302909223094748"><ele>259.6</ele><time>2026-04-20T08:03:18.999Z</time></trkpt><trkpt lat="43.35040991104686" lon="13.303032729813477"><ele>258.8</ele><time>2026-04-20T08:03:19.999Z</time></trkpt><trkpt lat="43.35040102765847" lon="13.303153172114715"><ele>258.0</ele><time>2026-04-20T08:03:20.999Z</time></trkpt><trkpt lat="43.350370790064375" lon="13.30326668875091"><ele>257.8333333333333</ele><time>2026-04-20T08:03:21.998Z</time></trkpt><trkpt lat="43.35035507939994" lon="13.303386055506634"><ele>257.6666666666667</ele><time>2026-04-20T08:03:22.998Z</time></trkpt><trkpt lat="43.35033894488322" lon="13.303503733882907"><ele>257.5</ele><time>2026-04-20T08:03:23.998Z</time></trkpt><trkpt lat="43.35033307554526" lon="13.303625212705787"><ele>257.33333333333337</ele><time>2026-04-20T08:03:24.998Z</time></trkpt><trkpt lat="43.350318728192455" lon="13.303748174986682"><ele>257.1666666666667</ele><time>2026-04-20T08:03:25.998Z</time></trkpt><trkpt lat="43.35029977373504" lon="13.303872438212666"><ele>257.0</ele><time>2026-04-20T08:03:26.998Z</time></trkpt><trkpt lat="43.350273225154844" lon="13.303987580781023"><ele>256.5</ele><time>2026-04-20T08:03:27.998Z</time></trkpt><trkpt lat="43.35025212473918" lon="13.304102709553725"><ele>256.0</ele><time>2026-04-20T08:03:28.998Z</time></trkpt><trkpt lat="43.3502259711573" lon="13.30421605874519"><ele>255.5</ele><time>2026-04-20T08:03:29.998Z</time></trkpt><trkpt lat="43.35019405435044" lon="13.304338812257914"><ele>255.0</ele><time>2026-04-20T08:03:30.998Z</time></trkpt><trkpt lat="43.350171520705246" lon="13.304443445758473"><ele>254.50000000000003</ele><time>2026-04-20T08:03:31.998Z</time></trkpt><trkpt lat="43.35014513909574" lon="13.304561278879534"><ele>254.0</ele><time>2026-04-20T08:03:32.998Z</time></trkpt><trkpt lat="43.35011057294105" lon="13.304671000701322"><ele>254.16666666666669</ele><time>2026-04-20T08:03:33.998Z</time></trkpt><trkpt lat="43.35008156791906" lon="13.304781087483732"><ele>254.33333333333334</ele><time>2026-04-20T08:03:34.998Z</time></trkpt><trkpt lat="43.35005987442056" lon="13.304899200108062"><ele>254.5</ele><time>2026-04-20T08:03:35.999Z</time></trkpt><trkpt lat="43.35003833847307" lon="13.305018556053216"><ele>254.66666666666669</ele><time>2026-04-20T08:03:36.999Z</time></trkpt><trkpt lat="43.35001241713304" lon="13.30513559982349"><ele>254.83333333333334</ele><time>2026-04-20T08:03:37.999Z</time></trkpt><trkpt lat="43.34998419736482" lon="13.30525412045252"><ele>255.0</ele><time>2026-04-20T08:03:38.999Z</time></trkpt><trkpt lat="43.34996062262615" lon="13.305383048777015"><ele>255.0</ele><time>2026-04-20T08:03:39.999Z</time></trkpt><trkpt lat="43.34993291550052" lon="13.305512173646564"><ele>255.0</ele><time>2026-04-20T08:03:40.999Z</time></trkpt><trkpt lat="43.34990063108686" lon="13.305652331556065"><ele>255.0</ele><time>2026-04-20T08:03:41.999Z</time></trkpt><trkpt lat="43.34987229125934" lon="13.30579324776244"><ele>255.0</ele><time>2026-04-20T08:03:42.999Z</time></trkpt><trkpt lat="43.34983944238621" lon="13.305935640591503"><ele>255.0</ele><time>2026-04-20T08:03:43.999Z</time></trkpt><trkpt lat="43.34980514156762" lon="13.306082824651684"><ele>255.2</ele><time>2026-04-20T08:03:44.999Z</time></trkpt><trkpt lat="43.349765398057215" lon="13.306216823593235"><ele>255.4</ele><time>2026-04-20T08:03:45.999Z</time></trkpt><trkpt lat="43.349736495781976" lon="13.306359061096389"><ele>255.60000000000002</ele><time>2026-04-20T08:03:46.999Z</time></trkpt><trkpt lat="43.349726388804996" lon="13.306499359360041"><ele>255.8</ele><time>2026-04-20T08:03:47.999Z</time></trkpt><trkpt lat="43.34969284062048" lon="13.306642300555819"><ele>256.0</ele><time>2026-04-20T08:03:48.999Z</time></trkpt><trkpt lat="43.34970767262732" lon="13.306795547001837"><ele>256.0</ele><time>2026-04-20T08:03:49.999Z</time></trkpt><trkpt lat="43.34971845299824" lon="13.306934437027797"><ele>256.0</ele><time>2026-04-20T08:03:50.999Z</time></trkpt><trkpt lat="43.349738876409035" lon="13.307094694724329"><ele>256.0</ele><time>2026-04-20T08:03:51.999Z</time></trkpt><trkpt lat="43.34976141579792" lon="13.307264146912875"><ele>256.0</ele><time>2026-04-20T08:03:52.999Z</time></trkpt><trkpt lat="43.349778351313134" lon="13.307435659274311"><ele>255.5</ele><time>2026-04-20T08:03:53.999Z</time></trkpt><trkpt lat="43.349799759630535" lon="13.307611628666095"><ele>255.0</ele><time>2026-04-20T08:03:54.999Z</time></trkpt><trkpt lat="43.349825567759346" lon="13.30779252632307"><ele>254.5</ele><time>2026-04-20T08:03:55.999Z</time></trkpt><trkpt lat="43.34984650612304" lon="13.30798729500079"><ele>254.0</ele><time>2026-04-20T08:03:56.999Z</time></trkpt><trkpt lat="43.34986080133583" lon="13.308148097955108"><ele>254.0</ele><time>2026-04-20T08:03:57.999Z</time></trkpt><trkpt lat="43.349882172124744" lon="13.308326470417352"><ele>254.0</ele><time>2026-04-20T08:03:58.999Z</time></trkpt><trkpt lat="43.3499070130021" lon="13.30849942388963"><ele>254.0</ele><time>2026-04-20T08:03:59.999Z</time></trkpt><trkpt lat="43.34992452587313" lon="13.308656736001337"><ele>254.0</ele><time>2026-04-20T08:04:00.999Z</time></trkpt><trkpt lat="43.349947167682295" lon="13.30883244536654"><ele>253.75</ele><time>2026-04-20T08:04:01.999Z</time></trkpt><trkpt lat="43.349968438444925" lon="13.309001124100863"><ele>253.5</ele><time>2026-04-20T08:04:02.999Z</time></trkpt><trkpt lat="43.3499872461283" lon="13.309159004705908"><ele>253.25</ele><time>2026-04-20T08:04:03.999Z</time></trkpt><trkpt lat="43.350010487321704" lon="13.309321238201997"><ele>253.0</ele><time>2026-04-20T08:04:04.999Z</time></trkpt><trkpt lat="43.350031135194584" lon="13.309482244871939"><ele>253.0</ele><time>2026-04-20T08:04:05.999Z</time></trkpt><trkpt lat="43.3500516435282" lon="13.309642415457265"><ele>253.0</ele><time>2026-04-20T08:04:06.999Z</time></trkpt><trkpt lat="43.35007098850719" lon="13.309804203826042"><ele>253.0</ele><time>2026-04-20T08:04:07.999Z</time></trkpt><trkpt lat="43.35009121403599" lon="13.309975251297653"><ele>253.0</ele><time>2026-04-20T08:04:08.999Z</time></trkpt><trkpt lat="43.350114826405154" lon="13.310149040855656"><ele>252.25</ele><time>2026-04-20T08:04:09.999Z</time></trkpt><trkpt lat="43.35014079602018" lon="13.310332670618049"><ele>251.5</ele><time>2026-04-20T08:04:10.999Z</time></trkpt><trkpt lat="43.350166441562905" lon="13.310519335744404"><ele>250.75</ele><time>2026-04-20T08:04:11.999Z</time></trkpt><trkpt lat="43.35019444034897" lon="13.31071007682168"><ele>250.0</ele><time>2026-04-20T08:04:12.999Z</time></trkpt><trkpt lat="43.35022498295057" lon="13.310895827869523"><ele>249.5</ele><time>2026-04-20T08:04:13.999Z</time></trkpt><trkpt lat="43.35025709623835" lon="13.311087335496742"><ele>249.0</ele><time>2026-04-20T08:04:14.999Z</time></trkpt><trkpt lat="43.35028695276252" lon="13.311276043454475"><ele>248.5</ele><time>2026-04-20T08:04:15.999Z</time></trkpt><trkpt lat="43.35031978586726" lon="13.31146348271199"><ele>248.0</ele><time>2026-04-20T08:04:16.999Z</time></trkpt><trkpt lat="43.35034345370278" lon="13.311633900357354"><ele>247.2</ele><time>2026-04-20T08:04:17.999Z</time></trkpt><trkpt lat="43.35037176461759" lon="13.311795559182857"><ele>246.4</ele><time>2026-04-20T08:04:18.999Z</time></trkpt><trkpt lat="43.350399752546636" lon="13.31194513204919"><ele>245.59999999999997</ele><time>2026-04-20T08:04:19.999Z</time></trkpt><trkpt lat="43.35041793556884" lon="13.312067474469265"><ele>244.79999999999998</ele><time>2026-04-20T08:04:20.999Z</time></trkpt><trkpt lat="43.35043672158617" lon="13.312175260389665"><ele>244.0</ele><time>2026-04-20T08:04:21.999Z</time></trkpt><trkpt lat="43.350460381761906" lon="13.312274394009126"><ele>243.6</ele><time>2026-04-20T08:04:22.999Z</time></trkpt><trkpt lat="43.350462065458764" lon="13.312368618781163"><ele>243.2</ele><time>2026-04-20T08:04:23.999Z</time></trkpt><trkpt lat="43.35051106317042" lon="13.312461589148144"><ele>242.79999999999998</ele><time>2026-04-20T08:04:24.999Z</time></trkpt><trkpt lat="43.350347600456836" lon="13.31252258562036"><ele>242.39999999999998</ele><time>2026-04-20T08:04:25.999Z</time></trkpt><trkpt lat="43.35022613314537" lon="13.312535759352077"><ele>242.0</ele><time>2026-04-20T08:04:26.999Z</time></trkpt><trkpt lat="43.35015138812652" lon="13.312558993549308"><ele>242.00000000000003</ele><time>2026-04-20T08:04:27.999Z</time></trkpt><trkpt lat="43.35007850249795" lon="13.312589278061607"><ele>242.0</ele><time>2026-04-20T08:04:28.999Z</time></trkpt><trkpt lat="43.349987515833895" lon="13.312623131713378"><ele>242.0</ele><time>2026-04-20T08:04:29.999Z</time></trkpt><trkpt lat="43.34991601583479" lon="13.312659318850423"><ele>242.0</ele><time>2026-04-20T08:04:30.999Z</time></trkpt><trkpt lat="43.34985672526719" lon="13.312695776920387"><ele>242.00000000000003</ele><time>2026-04-20T08:04:31.999Z</time></trkpt><trkpt lat="43.34980561457944" lon="13.312752742186884"><ele>242.0</ele><time>2026-04-20T08:04:32.999Z</time></trkpt><trkpt lat="43.34977839540881" lon="13.312846085808493"><ele>242.00000000000003</ele><time>2026-04-20T08:04:33.999Z</time></trkpt><trkpt lat="43.34979336456221" lon="13.312946387580526"><ele>242.0</ele><time>2026-04-20T08:04:34.999Z</time></trkpt><trkpt lat="43.34983854597705" lon="13.313033758388483"><ele>242.0</ele><time>2026-04-20T08:04:35.999Z</time></trkpt><trkpt lat="43.34989138583857" lon="13.313117656098365"><ele>242.0</ele><time>2026-04-20T08:04:36.999Z</time></trkpt><trkpt lat="43.349942841750135" lon="13.313223585898251"><ele>242.00000000000003</ele><time>2026-04-20T08:04:37.999Z</time></trkpt><trkpt lat="43.34999843015359" lon="13.313343945848562"><ele>242.0</ele><time>2026-04-20T08:04:38.999Z</time></trkpt><trkpt lat="43.35005430162937" lon="13.313484689272014"><ele>241.39999999999998</ele><time>2026-04-20T08:04:39.999Z</time></trkpt><trkpt lat="43.35011068583904" lon="13.313614738069509"><ele>240.79999999999998</ele><time>2026-04-20T08:04:40.999Z</time></trkpt><trkpt lat="43.35014894704979" lon="13.313743689359276"><ele>240.2</ele><time>2026-04-20T08:04:41.999Z</time></trkpt><trkpt lat="43.35016855372635" lon="13.31386005608015"><ele>239.6</ele><time>2026-04-20T08:04:42.999Z</time></trkpt><trkpt lat="43.350184254092376" lon="13.31397321874476"><ele>239.0</ele><time>2026-04-20T08:04:43.999Z</time></trkpt><trkpt lat="43.35020187321246" lon="13.314076804708924"><ele>238.50000000000003</ele><time>2026-04-20T08:04:44.999Z</time></trkpt><trkpt lat="43.35022511922837" lon="13.314186118389335"><ele>238.0</ele><time>2026-04-20T08:04:45.999Z</time></trkpt><trkpt lat="43.35024807183022" lon="13.314299687397769"><ele>237.5</ele><time>2026-04-20T08:04:46.999Z</time></trkpt><trkpt lat="43.3502580811678" lon="13.314404340023996"><ele>237.0</ele><time>2026-04-20T08:04:47.999Z</time></trkpt><trkpt lat="43.35027073353832" lon="13.314523196262648"><ele>236.50000000000003</ele><time>2026-04-20T08:04:48.999Z</time></trkpt><trkpt lat="43.35029825606647" lon="13.314638957474742"><ele>236.0</ele><time>2026-04-20T08:04:49.999Z</time></trkpt><trkpt lat="43.35032536992389" lon="13.314758984019342"><ele>235.00000000000003</ele><time>2026-04-20T08:04:50.999Z</time></trkpt><trkpt lat="43.35033319657479" lon="13.314875350330372"><ele>234.0</ele><time>2026-04-20T08:04:51.999Z</time></trkpt><trkpt lat="43.350351270675745" lon="13.314975224133006"><ele>233.0</ele><time>2026-04-20T08:04:52.999Z</time></trkpt><trkpt lat="43.350369487398005" lon="13.315080171488525"><ele>232.0</ele><time>2026-04-20T08:04:53.999Z</time></trkpt><trkpt lat="43.35038980346102" lon="13.315173356092782"><ele>231.00000000000003</ele><time>2026-04-20T08:04:54.999Z</time></trkpt><trkpt lat="43.350408041303815" lon="13.3152703644698"><ele>230.0</ele><time>2026-04-20T08:04:55.999Z</time></trkpt><trkpt lat="43.350424011756864" lon="13.315363233488153"><ele>230.0</ele><time>2026-04-20T08:04:56.999Z</time></trkpt><trkpt lat="43.35043869084066" lon="13.315464837317164"><ele>230.0</ele><time>2026-04-20T08:04:57.999Z</time></trkpt><trkpt lat="43.35046096664984" lon="13.315578853003938"><ele>230.0</ele><time>2026-04-20T08:04:58.999Z</time></trkpt><trkpt lat="43.35047981306766" lon="13.31570860573384"><ele>230.0</ele><time>2026-04-20T08:04:59.999Z</time></trkpt><trkpt lat="43.350504309451644" lon="13.315851744404545"><ele>230.0</ele><time>2026-04-20T08:05:00.999Z</time></trkpt><trkpt lat="43.350533087965744" lon="13.315999929648719"><ele>232.0</ele><time>2026-04-20T08:05:01.999Z</time></trkpt><trkpt lat="43.35055114833035" lon="13.31614231911934"><ele>234.0</ele><time>2026-04-20T08:05:02.999Z</time></trkpt><trkpt lat="43.35058073583835" lon="13.316300634181038"><ele>236.0</ele><time>2026-04-20T08:05:03.999Z</time></trkpt><trkpt lat="43.350625785405796" lon="13.316475099387999"><ele>238.0</ele><time>2026-04-20T08:05:04.999Z</time></trkpt><trkpt lat="43.3506553754793" lon="13.316650486368479"><ele>238.5</ele><time>2026-04-20T08:05:05.999Z</time></trkpt><trkpt lat="43.35069066019983" lon="13.316837946203556"><ele>239.0</ele><time>2026-04-20T08:05:06.999Z</time></trkpt><trkpt lat="43.35071807112095" lon="13.31699645633013"><ele>239.5</ele><time>2026-04-20T08:05:07.999Z</time></trkpt><trkpt lat="43.35075188274178" lon="13.317169554737053"><ele>240.0</ele><time>2026-04-20T08:05:08.999Z</time></trkpt><trkpt lat="43.35077453452697" lon="13.31731660355342"><ele>240.0</ele><time>2026-04-20T08:05:09.999Z</time></trkpt><trkpt lat="43.35079786898787" lon="13.317452680807637"><ele>240.0</ele><time>2026-04-20T08:05:10.999Z</time></trkpt><trkpt lat="43.35083457133131" lon="13.317600356432456"><ele>240.0</ele><time>2026-04-20T08:05:11.999Z</time></trkpt><trkpt lat="43.35085810618374" lon="13.317741360772063"><ele>240.0</ele><time>2026-04-20T08:05:12.999Z</time></trkpt><trkpt lat="43.35088278977065" lon="13.317875339553284"><ele>240.0</ele><time>2026-04-20T08:05:13.999Z</time></trkpt><trkpt lat="43.350898759288036" lon="13.318014718710188"><ele>239.4</ele><time>2026-04-20T08:05:14.999Z</time></trkpt><trkpt lat="43.350924262125616" lon="13.318151756479153"><ele>238.8</ele><time>2026-04-20T08:05:15.999Z</time></trkpt><trkpt lat="43.35095839106463" lon="13.318292876445573"><ele>238.2</ele><time>2026-04-20T08:05:16.999Z</time></trkpt><trkpt lat="43.35098963242712" lon="13.31842555029628"><ele>237.6</ele><time>2026-04-20T08:05:17.999Z</time></trkpt><trkpt lat="43.351005328509686" lon="13.318580047317544"><ele>237.0</ele><time>2026-04-20T08:05:18.999Z</time></trkpt><trkpt lat="43.35104833521738" lon="13.318742612610137"><ele>235.5</ele><time>2026-04-20T08:05:19.999Z</time></trkpt><trkpt lat="43.35107585885173" lon="13.318912662352945"><ele>234.0</ele><time>2026-04-20T08:05:20.999Z</time></trkpt><trkpt lat="43.35110536622068" lon="13.3190605328943"><ele>232.5</ele><time>2026-04-20T08:05:21.999Z</time></trkpt><trkpt lat="43.35113057679051" lon="13.319262990251213"><ele>231.0</ele><time>2026-04-20T08:05:22.999Z</time></trkpt><trkpt lat="43.35115975449451" lon="13.319420171421642"><ele>231.0</ele><time>2026-04-20T08:05:23.999Z</time></trkpt><trkpt lat="43.351205121220566" lon="13.319597673192694"><ele>231.0</ele><time>2026-04-20T08:05:24.999Z</time></trkpt><trkpt lat="43.351237644385414" lon="13.319776364169876"><ele>231.0</ele><time>2026-04-20T08:05:25.999Z</time></trkpt><trkpt lat="43.35127051111719" lon="13.319959365501607"><ele>231.0</ele><time>2026-04-20T08:05:26.999Z</time></trkpt><trkpt lat="43.35129901843293" lon="13.320130631078175"><ele>230.5</ele><time>2026-04-20T08:05:27.999Z</time></trkpt><trkpt lat="43.35132140683041" lon="13.320319708692733"><ele>230.0</ele><time>2026-04-20T08:05:28.999Z</time></trkpt><trkpt lat="43.35136005362403" lon="13.320489328194153"><ele>229.5</ele><time>2026-04-20T08:05:29.998Z</time></trkpt><trkpt lat="43.35139248053862" lon="13.320659926418408"><ele>229.0</ele><time>2026-04-20T08:05:30.998Z</time></trkpt><trkpt lat="43.351411964340954" lon="13.320837068154706"><ele>230.5</ele><time>2026-04-20T08:05:31.998Z</time></trkpt><trkpt lat="43.3514178684664" lon="13.321021418877962"><ele>232.0</ele><time>2026-04-20T08:05:32.998Z</time></trkpt><trkpt lat="43.35142589157261" lon="13.321192730065073"><ele>233.5</ele><time>2026-04-20T08:05:33.998Z</time></trkpt><trkpt lat="43.351421224767286" lon="13.3214117062647"><ele>235.0</ele><time>2026-04-20T08:05:34.998Z</time></trkpt><trkpt lat="43.35141577027839" lon="13.321630492522024"><ele>235.33333333333331</ele><time>2026-04-20T08:05:35.998Z</time></trkpt><trkpt lat="43.35140901207552" lon="13.321847557772562"><ele>235.66666666666669</ele><time>2026-04-20T08:05:36.998Z</time></trkpt><trkpt lat="43.351414533160025" lon="13.322063622964926"><ele>236.0</ele><time>2026-04-20T08:05:37.998Z</time></trkpt><trkpt lat="43.35141305369313" lon="13.322279645865544"><ele>236.25</ele><time>2026-04-20T08:05:38.998Z</time></trkpt><trkpt lat="43.35141267210196" lon="13.32246402330156"><ele>236.5</ele><time>2026-04-20T08:05:39.998Z</time></trkpt><trkpt lat="43.35140325636109" lon="13.322666704802295"><ele>236.75</ele><time>2026-04-20T08:05:40.998Z</time></trkpt><trkpt lat="43.351400505206925" lon="13.322846079310114"><ele>237.0</ele><time>2026-04-20T08:05:42Z</time></trkpt><trkpt lat="43.35140946179551" lon="13.323026460558996"><ele>237.0</ele><time>2026-04-20T08:05:43Z</time></trkpt><trkpt lat="43.35141178745779" lon="13.323201446586243"><ele>237.0</ele><time>2026-04-20T08:05:44Z</time></trkpt><trkpt lat="43.351410784487015" lon="13.323396213197109"><ele>237.0</ele><time>2026-04-20T08:05:45Z</time></trkpt><trkpt lat="43.351410524169935" lon="13.323562030016765"><ele>237.0</ele><time>2026-04-20T08:05:46Z</time></trkpt><trkpt lat="43.35140678991929" lon="13.323740674250455"><ele>237.25</ele><time>2026-04-20T08:05:47Z</time></trkpt><trkpt lat="43.35140873334407" lon="13.323906864317674"><ele>237.5</ele><time>2026-04-20T08:05:48Z</time></trkpt><trkpt lat="43.351402690594284" lon="13.324068634278476"><ele>237.75</ele><time>2026-04-20T08:05:49Z</time></trkpt><trkpt lat="43.351403875937116" lon="13.324232630428536"><ele>238.0</ele><time>2026-04-20T08:05:50Z</time></trkpt><trkpt lat="43.35141008989401" lon="13.324396294398952"><ele>238.0</ele><time>2026-04-20T08:05:51Z</time></trkpt><trkpt lat="43.35143577461516" lon="13.324577751813948"><ele>238.0</ele><time>2026-04-20T08:05:52Z</time></trkpt><trkpt lat="43.35146621457126" lon="13.3247558206178"><ele>238.0</ele><time>2026-04-20T08:05:53Z</time></trkpt><trkpt lat="43.35149867093781" lon="13.324940272411922"><ele>238.0</ele><time>2026-04-20T08:05:54Z</time></trkpt><trkpt lat="43.35153316678555" lon="13.325125929378858"><ele>238.0</ele><time>2026-04-20T08:05:55Z</time></trkpt><trkpt lat="43.35156644213093" lon="13.325308518911"><ele>238.0</ele><time>2026-04-20T08:05:56Z</time></trkpt><trkpt lat="43.35159733214371" lon="13.325493864844718"><ele>238.0</ele><time>2026-04-20T08:05:57Z</time></trkpt><trkpt lat="43.35162509803115" lon="13.325675633784517"><ele>238.0</ele><time>2026-04-20T08:05:58Z</time></trkpt><trkpt lat="43.351659454719666" lon="13.325856362084826"><ele>238.0</ele><time>2026-04-20T08:05:59Z</time></trkpt><trkpt lat="43.35168923970269" lon="13.326030554640075"><ele>238.0</ele><time>2026-04-20T08:06:00Z</time></trkpt><trkpt lat="43.351716508797644" lon="13.32620324303949"><ele>238.0</ele><time>2026-04-20T08:06:01Z</time></trkpt><trkpt lat="43.3517432731216" lon="13.326371490160774"><ele>238.0</ele><time>2026-04-20T08:06:02Z</time></trkpt><trkpt lat="43.3517685061194" lon="13.326542137328074"><ele>238.0</ele><time>2026-04-20T08:06:03Z</time></trkpt><trkpt lat="43.35180062983709" lon="13.326708877285869"><ele>238.0</ele><time>2026-04-20T08:06:04Z</time></trkpt><trkpt lat="43.35183031963091" lon="13.326874416974508"><ele>238.0</ele><time>2026-04-20T08:06:05Z</time></trkpt><trkpt lat="43.35185837353328" lon="13.327036026063322"><ele>238.0</ele><time>2026-04-20T08:06:06Z</time></trkpt><trkpt lat="43.3518823866064" lon="13.327204431594406"><ele>237.5</ele><time>2026-04-20T08:06:07Z</time></trkpt><trkpt lat="43.3519133740079" lon="13.327368559669862"><ele>237.0</ele><time>2026-04-20T08:06:08Z</time></trkpt><trkpt lat="43.35194390179168" lon="13.327533815884472"><ele>236.5</ele><time>2026-04-20T08:06:09Z</time></trkpt><trkpt lat="43.351967672016556" lon="13.32768401029516"><ele>236.0</ele><time>2026-04-20T08:06:10Z</time></trkpt><trkpt lat="43.3519735828098" lon="13.327821489645453"><ele>236.00000000000003</ele><time>2026-04-20T08:06:11Z</time></trkpt><trkpt lat="43.35200958050918" lon="13.327943622702962"><ele>236.0</ele><time>2026-04-20T08:06:12Z</time></trkpt><trkpt lat="43.352028718612154" lon="13.32806685298126"><ele>236.0</ele><time>2026-04-20T08:06:13Z</time></trkpt><trkpt lat="43.3520516313208" lon="13.3281907973902"><ele>236.0</ele><time>2026-04-20T08:06:14Z</time></trkpt><trkpt lat="43.352066302958946" lon="13.328297783882078"><ele>236.00000000000003</ele><time>2026-04-20T08:06:15Z</time></trkpt><trkpt lat="43.352077572848344" lon="13.328392426042578"><ele>236.0</ele><time>2026-04-20T08:06:16Z</time></trkpt><trkpt lat="43.352083229756914" lon="13.328533810053706"><ele>237.4</ele><time>2026-04-20T08:06:18Z</time></trkpt><trkpt lat="43.352245337240966" lon="13.328540902846429"><ele>238.8</ele><time>2026-04-20T08:06:20Z</time></trkpt><trkpt lat="43.35231253125339" lon="13.328497222268203"><ele>240.20000000000002</ele><time>2026-04-20T08:06:21Z</time></trkpt><trkpt lat="43.35239514549335" lon="13.328450686458723"><ele>241.60000000000002</ele><time>2026-04-20T08:06:22Z</time></trkpt><trkpt lat="43.35248497889349" lon="13.328398044588482"><ele>243.0</ele><time>2026-04-20T08:06:23Z</time></trkpt><trkpt lat="43.352579176818125" lon="13.328319999138243"><ele>243.0</ele><time>2026-04-20T08:06:24Z</time></trkpt><trkpt lat="43.35268122654379" lon="13.328272826494608"><ele>243.0</ele><time>2026-04-20T08:06:25Z</time></trkpt><trkpt lat="43.352776520637235" lon="13.328204385040907"><ele>243.0</ele><time>2026-04-20T08:06:26Z</time></trkpt><trkpt lat="43.35286419994544" lon="13.328159404640866"><ele>243.0</ele><time>2026-04-20T08:06:27Z</time></trkpt><trkpt lat="43.352956509284326" lon="13.328106815820664"><ele>243.0</ele><time>2026-04-20T08:06:28Z</time></trkpt><trkpt lat="43.353044675541746" lon="13.328048257799358"><ele>241.8</ele><time>2026-04-20T08:06:29Z</time></trkpt><trkpt lat="43.353135447596486" lon="13.327986531299457"><ele>240.60000000000002</ele><time>2026-04-20T08:06:30Z</time></trkpt><trkpt lat="43.3532407738733" lon="13.327938660878269"><ele>239.39999999999998</ele><time>2026-04-20T08:06:31Z</time></trkpt><trkpt lat="43.3533286219426" lon="13.327885997806868"><ele>238.2</ele><time>2026-04-20T08:06:32Z</time></trkpt><trkpt lat="43.35342073926693" lon="13.327825347379168"><ele>237.0</ele><time>2026-04-20T08:06:33Z</time></trkpt><trkpt lat="43.3535156878948" lon="13.327752030772139"><ele>237.0</ele><time>2026-04-20T08:06:34Z</time></trkpt><trkpt lat="43.353612677704405" lon="13.327676025101665"><ele>237.0</ele><time>2026-04-20T08:06:35Z</time></trkpt><trkpt lat="43.3537119137042" lon="13.32760347146651"><ele>237.0</ele><time>2026-04-20T08:06:36Z</time></trkpt><trkpt lat="43.35381665865067" lon="13.32752478562055"><ele>237.0</ele><time>2026-04-20T08:06:37Z</time></trkpt><trkpt lat="43.35392153646947" lon="13.3274390373491"><ele>235.75</ele><time>2026-04-20T08:06:38Z</time></trkpt><trkpt lat="43.35403068414647" lon="13.32734955184859"><ele>234.5</ele><time>2026-04-20T08:06:39Z</time></trkpt><trkpt lat="43.35414477696071" lon="13.327260354717595"><ele>233.25</ele><time>2026-04-20T08:06:39.999Z</time></trkpt><trkpt lat="43.35425640990374" lon="13.327169638597324"><ele>232.0</ele><time>2026-04-20T08:06:40.999Z</time></trkpt><trkpt lat="43.35436458778079" lon="13.327083879194838"><ele>231.25</ele><time>2026-04-20T08:06:41.999Z</time></trkpt><trkpt lat="43.354471480086325" lon="13.327000782431742"><ele>230.5</ele><time>2026-04-20T08:06:42.999Z</time></trkpt><trkpt lat="43.354573698202444" lon="13.326913301255345"><ele>229.75</ele><time>2026-04-20T08:06:43.999Z</time></trkpt><trkpt lat="43.35467988095172" lon="13.326826717594148"><ele>229.0</ele><time>2026-04-20T08:06:44.999Z</time></trkpt><trkpt lat="43.35479148867759" lon="13.326746948224887"><ele>227.5</ele><time>2026-04-20T08:06:45.999Z</time></trkpt><trkpt lat="43.354902107597205" lon="13.32666210725303"><ele>226.0</ele><time>2026-04-20T08:06:46.999Z</time></trkpt><trkpt lat="43.355013047483865" lon="13.326574744943409"><ele>224.5</ele><time>2026-04-20T08:06:47.999Z</time></trkpt><trkpt lat="43.35512646829564" lon="13.32648668578142"><ele>223.0</ele><time>2026-04-20T08:06:48.999Z</time></trkpt><trkpt lat="43.35524750454684" lon="13.326393779797428"><ele>222.75</ele><time>2026-04-20T08:06:49.999Z</time></trkpt><trkpt lat="43.35536759696042" lon="13.326298964634097"><ele>222.5</ele><time>2026-04-20T08:06:50.999Z</time></trkpt><trkpt lat="43.35548444212641" lon="13.326192830201231"><ele>222.25</ele><time>2026-04-20T08:06:51.999Z</time></trkpt><trkpt lat="43.355593659589246" lon="13.32607209698839"><ele>222.0</ele><time>2026-04-20T08:06:52.999Z</time></trkpt><trkpt lat="43.35566904445905" lon="13.325944276668475"><ele>222.39999999999998</ele><time>2026-04-20T08:06:53.999Z</time></trkpt><trkpt lat="43.355733134267446" lon="13.32580589430977"><ele>222.79999999999998</ele><time>2026-04-20T08:06:54.999Z</time></trkpt><trkpt lat="43.355795331993136" lon="13.325673326084845"><ele>223.2</ele><time>2026-04-20T08:06:55.999Z</time></trkpt><trkpt lat="43.35586539499148" lon="13.32556831848247"><ele>223.6</ele><time>2026-04-20T08:06:56.999Z</time></trkpt><trkpt lat="43.35593646482948" lon="13.325482141686523"><ele>224.0</ele><time>2026-04-20T08:06:57.999Z</time></trkpt><trkpt lat="43.35602295368796" lon="13.325387546182956"><ele>223.75</ele><time>2026-04-20T08:06:58.999Z</time></trkpt><trkpt lat="43.356116552391626" lon="13.325288994326458"><ele>223.5</ele><time>2026-04-20T08:06:59.999Z</time></trkpt><trkpt lat="43.35621467315425" lon="13.325187643448459"><ele>223.25</ele><time>2026-04-20T08:07:00.999Z</time></trkpt><trkpt lat="43.35631472683798" lon="13.325072017565292"><ele>223.0</ele><time>2026-04-20T08:07:01.999Z</time></trkpt><trkpt lat="43.35641577864713" lon="13.324956452473671"><ele>223.0</ele><time>2026-04-20T08:07:02.999Z</time></trkpt><trkpt lat="43.35652138551587" lon="13.324848475958264"><ele>223.0</ele><time>2026-04-20T08:07:03.999Z</time></trkpt><trkpt lat="43.35662458029796" lon="13.324743462848895"><ele>223.0</ele><time>2026-04-20T08:07:04.999Z</time></trkpt><trkpt lat="43.35672309927062" lon="13.324631361759232"><ele>223.0</ele><time>2026-04-20T08:07:05.999Z</time></trkpt><trkpt lat="43.356819330935025" lon="13.324526874861395"><ele>222.75</ele><time>2026-04-20T08:07:06.999Z</time></trkpt><trkpt lat="43.35691506686938" lon="13.324427570830224"><ele>222.5</ele><time>2026-04-20T08:07:07.999Z</time></trkpt><trkpt lat="43.35701778167954" lon="13.32433861469935"><ele>222.25</ele><time>2026-04-20T08:07:08.999Z</time></trkpt><trkpt lat="43.35713061599085" lon="13.324260174022058"><ele>222.0</ele><time>2026-04-20T08:07:09.999Z</time></trkpt><trkpt lat="43.357253757738064" lon="13.324190473008745"><ele>222.0</ele><time>2026-04-20T08:07:10.999Z</time></trkpt><trkpt lat="43.357373926778834" lon="13.324116148639025"><ele>222.0</ele><time>2026-04-20T08:07:11.999Z</time></trkpt><trkpt lat="43.35748480309331" lon="13.324048339324964"><ele>222.0</ele><time>2026-04-20T08:07:12.999Z</time></trkpt><trkpt lat="43.35759567607431" lon="13.323985759806039"><ele>222.0</ele><time>2026-04-20T08:07:13.999Z</time></trkpt><trkpt lat="43.35769592366536" lon="13.323927356086422"><ele>222.16666666666666</ele><time>2026-04-20T08:07:14.999Z</time></trkpt><trkpt lat="43.3577920268877" lon="13.323871551552676"><ele>222.33333333333331</ele><time>2026-04-20T08:07:15.999Z</time></trkpt><trkpt lat="43.35787878818972" lon="13.323816980504331"><ele>222.5</ele><time>2026-04-20T08:07:16.999Z</time></trkpt><trkpt lat="43.35795488515845" lon="13.3237776139857"><ele>222.66666666666666</ele><time>2026-04-20T08:07:17.999Z</time></trkpt><trkpt lat="43.35802644387088" lon="13.32375612859736"><ele>222.83333333333331</ele><time>2026-04-20T08:07:18.999Z</time></trkpt><trkpt lat="43.35809630712276" lon="13.32376125584517"><ele>223.0</ele><time>2026-04-20T08:07:19.999Z</time></trkpt><trkpt lat="43.3581668317065" lon="13.323798291825113"><ele>222.99999999999997</ele><time>2026-04-20T08:07:20.999Z</time></trkpt><trkpt lat="43.358223833380094" lon="13.323864622447175"><ele>223.0</ele><time>2026-04-20T08:07:21.999Z</time></trkpt><trkpt lat="43.35824395973882" lon="13.3239635781087"><ele>223.0</ele><time>2026-04-20T08:07:22.999Z</time></trkpt><trkpt lat="43.35829360601604" lon="13.324043168184001"><ele>223.0</ele><time>2026-04-20T08:07:23.999Z</time></trkpt><trkpt lat="43.358338101226764" lon="13.324131385379182"><ele>222.99999999999997</ele><time>2026-04-20T08:07:24.999Z</time></trkpt><trkpt lat="43.35838406983552" lon="13.324223395144225"><ele>223.0</ele><time>2026-04-20T08:07:25.999Z</time></trkpt><trkpt lat="43.35842845867916" lon="13.324317053378294"><ele>222.99999999999997</ele><time>2026-04-20T08:07:26.999Z</time></trkpt><trkpt lat="43.35847112856317" lon="13.32441444941851"><ele>223.0</ele><time>2026-04-20T08:07:27.999Z</time></trkpt><trkpt lat="43.358512649571814" lon="13.32449722071879"><ele>223.0</ele><time>2026-04-20T08:07:28.999Z</time></trkpt><trkpt lat="43.358557739704395" lon="13.324582117240396"><ele>223.0</ele><time>2026-04-20T08:07:29.999Z</time></trkpt><trkpt lat="43.358612970685975" lon="13.324653160654844"><ele>222.99999999999997</ele><time>2026-04-20T08:07:30.999Z</time></trkpt><trkpt lat="43.358640277939905" lon="13.324778348034549"><ele>223.0</ele><time>2026-04-20T08:07:31.999Z</time></trkpt><trkpt lat="43.3586838298312" lon="13.324879362281136"><ele>222.66666666666666</ele><time>2026-04-20T08:07:32.999Z</time></trkpt><trkpt lat="43.35872508677203" lon="13.324977044561306"><ele>222.33333333333331</ele><time>2026-04-20T08:07:33.999Z</time></trkpt><trkpt lat="43.35876711227384" lon="13.325063006203628"><ele>222.0</ele><time>2026-04-20T08:07:34.999Z</time></trkpt><trkpt lat="43.35880396982675" lon="13.32513869397397"><ele>221.66666666666669</ele><time>2026-04-20T08:07:35.999Z</time></trkpt><trkpt lat="43.358839916116786" lon="13.325211152603433"><ele>221.33333333333334</ele><time>2026-04-20T08:07:36.999Z</time></trkpt><trkpt lat="43.3589082797998" lon="13.325355886482402"><ele>221.0</ele><time>2026-04-20T08:07:38.999Z</time></trkpt><trkpt lat="43.358951282321364" lon="13.325436397163537"><ele>220.83333333333334</ele><time>2026-04-20T08:07:39.999Z</time></trkpt><trkpt lat="43.35899950030914" lon="13.325521683975975"><ele>220.66666666666669</ele><time>2026-04-20T08:07:40.999Z</time></trkpt><trkpt lat="43.35904789883687" lon="13.3256220301442"><ele>220.5</ele><time>2026-04-20T08:07:41.999Z</time></trkpt><trkpt lat="43.35908723393888" lon="13.325701400223032"><ele>220.33333333333331</ele><time>2026-04-20T08:07:42.999Z</time></trkpt><trkpt lat="43.35913432083202" lon="13.325788674839057"><ele>220.16666666666666</ele><time>2026-04-20T08:07:43.999Z</time></trkpt><trkpt lat="43.35918353096526" lon="13.325880591439782"><ele>220.0</ele><time>2026-04-20T08:07:44.999Z</time></trkpt><trkpt lat="43.35922966994096" lon="13.325967515634515"><ele>219.83333333333331</ele><time>2026-04-20T08:07:45.999Z</time></trkpt><trkpt lat="43.35927740889099" lon="13.326044470599221"><ele>219.66666666666666</ele><time>2026-04-20T08:07:46.999Z</time></trkpt><trkpt lat="43.35932150622318" lon="13.326129389256312"><ele>219.5</ele><time>2026-04-20T08:07:48Z</time></trkpt><trkpt lat="43.35935667364614" lon="13.326226090151943"><ele>219.33333333333331</ele><time>2026-04-20T08:07:49Z</time></trkpt><trkpt lat="43.35938086186553" lon="13.326334784502306"><ele>219.16666666666666</ele><time>2026-04-20T08:07:50Z</time></trkpt><trkpt lat="43.35939324307624" lon="13.326456376711603"><ele>219.0</ele><time>2026-04-20T08:07:51Z</time></trkpt><trkpt lat="43.359406203808284" lon="13.326574078741682"><ele>218.66666666666666</ele><time>2026-04-20T08:07:52Z</time></trkpt><trkpt lat="43.35942348616411" lon="13.326687334773272"><ele>218.33333333333331</ele><time>2026-04-20T08:07:53Z</time></trkpt><trkpt lat="43.35943053585515" lon="13.32679856994265"><ele>218.0</ele><time>2026-04-20T08:07:54Z</time></trkpt><trkpt lat="43.359454330315565" lon="13.32691123592441"><ele>217.66666666666666</ele><time>2026-04-20T08:07:55Z</time></trkpt><trkpt lat="43.35947472487663" lon="13.327019565126383"><ele>217.33333333333331</ele><time>2026-04-20T08:07:56Z</time></trkpt><trkpt lat="43.359500009628555" lon="13.327116935101259"><ele>217.0</ele><time>2026-04-20T08:07:57Z</time></trkpt><trkpt lat="43.35952886163706" lon="13.327204010185795"><ele>216.99999999999997</ele><time>2026-04-20T08:07:58Z</time></trkpt><trkpt lat="43.359580857396274" lon="13.327354804470627"><ele>217.0</ele><time>2026-04-20T08:08:00Z</time></trkpt><trkpt lat="43.35963470572015" lon="13.327514957090889"><ele>217.0</ele><time>2026-04-20T08:08:02Z</time></trkpt><trkpt lat="43.35967280461753" lon="13.327595157623707"><ele>217.0</ele><time>2026-04-20T08:08:03Z</time></trkpt><trkpt lat="43.3597154724632" lon="13.32766311225379"><ele>216.99999999999997</ele><time>2026-04-20T08:08:04Z</time></trkpt><trkpt lat="43.35975907031492" lon="13.327725673869788"><ele>217.0</ele><time>2026-04-20T08:08:05Z</time></trkpt><trkpt lat="43.359812581650175" lon="13.327793781278253"><ele>217.14285714285714</ele><time>2026-04-20T08:08:06Z</time></trkpt><trkpt lat="43.359862547090984" lon="13.327869342124716"><ele>217.28571428571428</ele><time>2026-04-20T08:08:07Z</time></trkpt><trkpt lat="43.35991353934438" lon="13.327937280862756"><ele>217.42857142857144</ele><time>2026-04-20T08:08:08Z</time></trkpt><trkpt lat="43.35996805349872" lon="13.328004333997127"><ele>217.57142857142856</ele><time>2026-04-20T08:08:09Z</time></trkpt><trkpt lat="43.36001626349789" lon="13.328082541518437"><ele>217.71428571428572</ele><time>2026-04-20T08:08:10Z</time></trkpt><trkpt lat="43.36005509726489" lon="13.328172139126641"><ele>217.85714285714286</ele><time>2026-04-20T08:08:11Z</time></trkpt><trkpt lat="43.36008739437893" lon="13.328268366948038"><ele>218.0</ele><time>2026-04-20T08:08:12Z</time></trkpt><trkpt lat="43.36011890708755" lon="13.328366038153902"><ele>217.50000000000003</ele><time>2026-04-20T08:08:13Z</time></trkpt><trkpt lat="43.36015264896801" lon="13.328464729492156"><ele>217.0</ele><time>2026-04-20T08:08:14Z</time></trkpt><trkpt lat="43.360189084551806" lon="13.328556837030114"><ele>216.5</ele><time>2026-04-20T08:08:15Z</time></trkpt><trkpt lat="43.36022390353993" lon="13.328648319998706"><ele>216.0</ele><time>2026-04-20T08:08:16Z</time></trkpt><trkpt lat="43.36022100822749" lon="13.328747320087993"><ele>215.50000000000003</ele><time>2026-04-20T08:08:17Z</time></trkpt><trkpt lat="43.36029313048303" lon="13.328833513025508"><ele>215.0</ele><time>2026-04-20T08:08:18Z</time></trkpt><trkpt lat="43.360335895651765" lon="13.328919702185626"><ele>214.50000000000003</ele><time>2026-04-20T08:08:19Z</time></trkpt><trkpt lat="43.36038252516952" lon="13.329021970098703"><ele>214.0</ele><time>2026-04-20T08:08:20Z</time></trkpt><trkpt lat="43.36042019177497" lon="13.329118145311242"><ele>213.5</ele><time>2026-04-20T08:08:21Z</time></trkpt><trkpt lat="43.360450993248676" lon="13.329209276168502"><ele>213.0</ele><time>2026-04-20T08:08:22Z</time></trkpt><trkpt lat="43.360486811060994" lon="13.329303808762278"><ele>212.50000000000003</ele><time>2026-04-20T08:08:23Z</time></trkpt><trkpt lat="43.360524390296376" lon="13.329396576188172"><ele>212.0</ele><time>2026-04-20T08:08:24Z</time></trkpt><trkpt lat="43.36056340892059" lon="13.329510272105384"><ele>212.00000000000003</ele><time>2026-04-20T08:08:25Z</time></trkpt><trkpt lat="43.360597486477175" lon="13.329597638096702"><ele>212.0</ele><time>2026-04-20T08:08:26Z</time></trkpt><trkpt lat="43.360635729975584" lon="13.329695809751573"><ele>212.0</ele><time>2026-04-20T08:08:27Z</time></trkpt><trkpt lat="43.360673217635544" lon="13.329793455765088"><ele>212.0</ele><time>2026-04-20T08:08:28Z</time></trkpt><trkpt lat="43.36071028362566" lon="13.329895909418457"><ele>212.00000000000003</ele><time>2026-04-20T08:08:29Z</time></trkpt><trkpt lat="43.360751331139944" lon="13.329998038075468"><ele>212.0</ele><time>2026-04-20T08:08:30Z</time></trkpt><trkpt lat="43.36078874320878" lon="13.33010049781574"><ele>211.50000000000003</ele><time>2026-04-20T08:08:31Z</time></trkpt><trkpt lat="43.36082971786374" lon="13.33020449131065"><ele>211.0</ele><time>2026-04-20T08:08:32Z</time></trkpt><trkpt lat="43.36087082078663" lon="13.330300923333372"><ele>210.5</ele><time>2026-04-20T08:08:33Z</time></trkpt><trkpt lat="43.36090712287484" lon="13.3304032393012"><ele>210.0</ele><time>2026-04-20T08:08:34Z</time></trkpt><trkpt lat="43.360940955247635" lon="13.33050060344242"><ele>209.50000000000003</ele><time>2026-04-20T08:08:35Z</time></trkpt><trkpt lat="43.36097831587685" lon="13.330594188270195"><ele>209.0</ele><time>2026-04-20T08:08:36Z</time></trkpt><trkpt lat="43.361021345191084" lon="13.330690991976905"><ele>208.28571428571428</ele><time>2026-04-20T08:08:37Z</time></trkpt><trkpt lat="43.3610620394238" lon="13.330788582320631"><ele>207.57142857142856</ele><time>2026-04-20T08:08:38Z</time></trkpt><trkpt lat="43.361102428906406" lon="13.33088080434815"><ele>206.85714285714286</ele><time>2026-04-20T08:08:39Z</time></trkpt><trkpt lat="43.36114286830722" lon="13.330965665195624"><ele>206.14285714285714</ele><time>2026-04-20T08:08:40Z</time></trkpt><trkpt lat="43.361179555696715" lon="13.331044639130242"><ele>205.42857142857144</ele><time>2026-04-20T08:08:41Z</time></trkpt><trkpt lat="43.36121672818539" lon="13.33112286246284"><ele>204.71428571428572</ele><time>2026-04-20T08:08:42Z</time></trkpt><trkpt lat="43.36125320256444" lon="13.331205247889482"><ele>204.0</ele><time>2026-04-20T08:08:43Z</time></trkpt><trkpt lat="43.36129353756602" lon="13.331297823363546"><ele>204.0</ele><time>2026-04-20T08:08:44Z</time></trkpt><trkpt lat="43.36133037578896" lon="13.331384685510168"><ele>204.0</ele><time>2026-04-20T08:08:45Z</time></trkpt><trkpt lat="43.36136881770075" lon="13.331471281114556"><ele>204.0</ele><time>2026-04-20T08:08:46Z</time></trkpt><trkpt lat="43.361410302397054" lon="13.331560636219209"><ele>204.0</ele><time>2026-04-20T08:08:47Z</time></trkpt><trkpt lat="43.36145469218088" lon="13.331647120323264"><ele>204.0</ele><time>2026-04-20T08:08:48Z</time></trkpt><trkpt lat="43.3614909025903" lon="13.331726339122762"><ele>204.0</ele><time>2026-04-20T08:08:49Z</time></trkpt><trkpt lat="43.36151774893398" lon="13.331821951665805"><ele>204.0</ele><time>2026-04-20T08:08:50Z</time></trkpt><trkpt lat="43.361566945076646" lon="13.331892250064168"><ele>204.5</ele><time>2026-04-20T08:08:51Z</time></trkpt><trkpt lat="43.36159922763775" lon="13.33197984946099"><ele>205.0</ele><time>2026-04-20T08:08:52Z</time></trkpt><trkpt lat="43.36163598937437" lon="13.332071136082288"><ele>205.5</ele><time>2026-04-20T08:08:53Z</time></trkpt><trkpt lat="43.36167918573895" lon="13.33217143267718"><ele>206.0</ele><time>2026-04-20T08:08:54Z</time></trkpt><trkpt lat="43.36170461297981" lon="13.332276831557525"><ele>206.5</ele><time>2026-04-20T08:08:55Z</time></trkpt><trkpt lat="43.36174038322647" lon="13.332359069432044"><ele>207.0</ele><time>2026-04-20T08:08:56Z</time></trkpt><trkpt lat="43.36179306588487" lon="13.332429304472772"><ele>206.33333333333334</ele><time>2026-04-20T08:08:57Z</time></trkpt><trkpt lat="43.36183314735617" lon="13.332502296128029"><ele>205.66666666666669</ele><time>2026-04-20T08:08:58Z</time></trkpt><trkpt lat="43.361870654804385" lon="13.332574199712344"><ele>205.0</ele><time>2026-04-20T08:08:58.999Z</time></trkpt><trkpt lat="43.36195360772091" lon="13.332686953531407"><ele>204.33333333333334</ele><time>2026-04-20T08:09:00.999Z</time></trkpt><trkpt lat="43.36200044333183" lon="13.332797379916597"><ele>203.66666666666669</ele><time>2026-04-20T08:09:02.999Z</time></trkpt><trkpt lat="43.362046313694826" lon="13.332880829792408"><ele>203.0</ele><time>2026-04-20T08:09:05.999Z</time></trkpt><trkpt lat="43.36226800088516" lon="13.332707954370788"><ele>203.0</ele><time>2026-04-20T08:09:06.999Z</time></trkpt><trkpt lat="43.362384951511835" lon="13.332667781805236"><ele>203.0</ele><time>2026-04-20T08:09:08.999Z</time></trkpt><trkpt lat="43.362480519246276" lon="13.332633979496542"><ele>203.0</ele><time>2026-04-20T08:09:10.999Z</time></trkpt><trkpt lat="43.36258188226939" lon="13.332588769096652"><ele>203.0</ele><time>2026-04-20T08:09:12.999Z</time></trkpt><trkpt lat="43.36266839111423" lon="13.33255269884475"><ele>203.0</ele><time>2026-04-20T08:09:14.999Z</time></trkpt><trkpt lat="43.36275148699243" lon="13.332525085864203"><ele>203.0</ele><time>2026-04-20T08:09:16.999Z</time></trkpt><trkpt lat="43.36283541273044" lon="13.332525413663511"><ele>203.0</ele><time>2026-04-20T08:09:18.999Z</time></trkpt><trkpt lat="43.36291339152694" lon="13.3325854557603"><ele>203.0</ele><time>2026-04-20T08:09:20.999Z</time></trkpt><trkpt lat="43.36296961569114" lon="13.332683844152438"><ele>203.0</ele><time>2026-04-20T08:09:22.999Z</time></trkpt><trkpt lat="43.36299921123972" lon="13.332804186832147"><ele>203.0</ele><time>2026-04-20T08:09:24.999Z</time></trkpt><trkpt lat="43.36307461526067" lon="13.332902150322962"><ele>201.0</ele><time>2026-04-20T08:09:26.999Z</time></trkpt><trkpt lat="43.36313892289277" lon="13.332996792585806"><ele>199.0</ele><time>2026-04-20T08:09:28.999Z</time></trkpt><trkpt lat="43.36321443042075" lon="13.333093956146367"><ele>197.0</ele><time>2026-04-20T08:09:30.999Z</time></trkpt><trkpt lat="43.363285917707636" lon="13.333213715832525"><ele>195.0</ele><time>2026-04-20T08:09:32.999Z</time></trkpt><trkpt lat="43.36331340467258" lon="13.333363836331593"><ele>193.0</ele><time>2026-04-20T08:09:34.999Z</time></trkpt><trkpt lat="43.36334728049264" lon="13.333518220869204"><ele>192.99999999999997</ele><time>2026-04-20T08:09:36.999Z</time></trkpt><trkpt lat="43.36338696853714" lon="13.333610822822273"><ele>193.0</ele><time>2026-04-20T08:09:38.999Z</time></trkpt><trkpt lat="43.36346157074033" lon="13.333638306025456"><ele>193.0</ele><time>2026-04-20T08:09:40.999Z</time></trkpt><trkpt lat="43.36354025252038" lon="13.333646239699856"><ele>193.0</ele><time>2026-04-20T08:20:19.998Z</time></trkpt><trkpt lat="43.36359329331589" lon="13.333569348740992"><ele>192.99999999999997</ele><time>2026-04-20T08:20:21.998Z</time></trkpt><trkpt lat="43.36361750180933" lon="13.333438810416766"><ele>193.0</ele><time>2026-04-20T08:20:24Z</time></trkpt><trkpt lat="43.363587405109016" lon="13.333360821345137"><ele>192.99999999999997</ele><time>2026-04-20T08:20:26Z</time></trkpt><trkpt lat="43.363579745627376" lon="13.333272581463353"><ele>193.0</ele><time>2026-04-20T08:20:28Z</time></trkpt><trkpt lat="43.36355274120399" lon="13.333168476118322"><ele>193.0</ele><time>2026-04-20T08:20:30Z</time></trkpt><trkpt lat="43.363575542640824" lon="13.333070442541263"><ele>193.0</ele><time>2026-04-20T08:20:32Z</time></trkpt><trkpt lat="43.36356514442376" lon="13.332971227984135"><ele>192.99999999999997</ele><time>2026-04-20T08:20:34Z</time></trkpt><trkpt lat="43.36355318288981" lon="13.332858048522901"><ele>193.0</ele><time>2026-04-20T08:20:36Z</time></trkpt><trkpt lat="43.363534483051865" lon="13.332690828666616"><ele>192.99999999999997</ele><time>2026-04-20T08:20:38Z</time></trkpt><trkpt lat="43.36352407502207" lon="13.332597757145855"><ele>193.0</ele><time>2026-04-20T08:20:39Z</time></trkpt><trkpt lat="43.36351399029438" lon="13.332511602329276"><ele>193.0</ele><time>2026-04-20T08:20:40Z</time></trkpt><trkpt lat="43.363503148390556" lon="13.332421374174661"><ele>193.0</ele><time>2026-04-20T08:20:41Z</time></trkpt><trkpt lat="43.363491275075226" lon="13.332322561637588"><ele>192.99999999999997</ele><time>2026-04-20T08:20:42Z</time></trkpt><trkpt lat="43.36345644328688" lon="13.33213621420546"><ele>193.0</ele><time>2026-04-20T08:20:44Z</time></trkpt><trkpt lat="43.363456156031994" lon="13.33203009431913"><ele>192.99999999999997</ele><time>2026-04-20T08:20:45Z</time></trkpt><trkpt lat="43.363447248319645" lon="13.3319358093674"><ele>193.0</ele><time>2026-04-20T08:20:46Z</time></trkpt><trkpt lat="43.36341803404043" lon="13.331825334666323"><ele>193.0</ele><time>2026-04-20T08:20:47Z</time></trkpt><trkpt lat="43.363419297877016" lon="13.331717459440728"><ele>193.0</ele><time>2026-04-20T08:20:48Z</time></trkpt><trkpt lat="43.36340126604233" lon="13.331614790594031"><ele>192.99999999999997</ele><time>2026-04-20T08:20:49Z</time></trkpt><trkpt lat="43.36337631450129" lon="13.331498915911277"><ele>193.0</ele><time>2026-04-20T08:20:50Z</time></trkpt><trkpt lat="43.36334847912359" lon="13.331395282158057"><ele>193.16666666666666</ele><time>2026-04-20T08:20:51Z</time></trkpt><trkpt lat="43.36334432549591" lon="13.33128453525284"><ele>193.33333333333331</ele><time>2026-04-20T08:20:52Z</time></trkpt><trkpt lat="43.36331403619416" lon="13.331161140565055"><ele>193.5</ele><time>2026-04-20T08:20:53Z</time></trkpt><trkpt lat="43.3632799463072" lon="13.331050804565548"><ele>193.66666666666669</ele><time>2026-04-20T08:20:54Z</time></trkpt><trkpt lat="43.36324742135492" lon="13.330940547705966"><ele>193.83333333333334</ele><time>2026-04-20T08:20:55Z</time></trkpt><trkpt lat="43.36321434145744" lon="13.330822040035217"><ele>194.0</ele><time>2026-04-20T08:20:56Z</time></trkpt><trkpt lat="43.36318075306505" lon="13.33069191774471"><ele>194.0</ele><time>2026-04-20T08:20:57Z</time></trkpt><trkpt lat="43.36314764603992" lon="13.330561377596316"><ele>194.0</ele><time>2026-04-20T08:20:58Z</time></trkpt><trkpt lat="43.36311557855781" lon="13.330431177795177"><ele>194.0</ele><time>2026-04-20T08:20:59Z</time></trkpt><trkpt lat="43.363093086031334" lon="13.330286976087285"><ele>194.0</ele><time>2026-04-20T08:21:00Z</time></trkpt><trkpt lat="43.36306335562676" lon="13.330149565480031"><ele>194.0</ele><time>2026-04-20T08:21:01Z</time></trkpt><trkpt lat="43.363038315311094" lon="13.330031459564008"><ele>195.0</ele><time>2026-04-20T08:21:02Z</time></trkpt><trkpt lat="43.36301377785027" lon="13.329929884926976"><ele>196.0</ele><time>2026-04-20T08:21:03Z</time></trkpt><trkpt lat="43.36298862782289" lon="13.329839688072248"><ele>197.0</ele><time>2026-04-20T08:21:03.999Z</time></trkpt><trkpt lat="43.362965711368936" lon="13.329745503430706"><ele>198.0</ele><time>2026-04-20T08:21:04.999Z</time></trkpt><trkpt lat="43.362942244468414" lon="13.329647881480849"><ele>199.0</ele><time>2026-04-20T08:21:05.999Z</time></trkpt><trkpt lat="43.36291361889132" lon="13.32955024137135"><ele>200.0</ele><time>2026-04-20T08:21:06.999Z</time></trkpt><trkpt lat="43.36288623071307" lon="13.329452945167079"><ele>201.0</ele><time>2026-04-20T08:21:07.999Z</time></trkpt><trkpt lat="43.36286091040692" lon="13.329354563520104"><ele>201.20000000000002</ele><time>2026-04-20T08:21:08.999Z</time></trkpt><trkpt lat="43.36283430949833" lon="13.329261847744476"><ele>201.4</ele><time>2026-04-20T08:21:09.999Z</time></trkpt><trkpt lat="43.36280790405372" lon="13.329173391427114"><ele>201.6</ele><time>2026-04-20T08:21:10.999Z</time></trkpt><trkpt lat="43.36275787191172" lon="13.32901152807513"><ele>201.8</ele><time>2026-04-20T08:21:12.999Z</time></trkpt><trkpt lat="43.36271116659157" lon="13.328865370249476"><ele>202.0</ele><time>2026-04-20T08:21:14.999Z</time></trkpt><trkpt lat="43.36267366261421" lon="13.328754303495035"><ele>202.8</ele><time>2026-04-20T08:21:16.999Z</time></trkpt><trkpt lat="43.36264089993536" lon="13.328614463250391"><ele>203.6</ele><time>2026-04-20T08:21:20.999Z</time></trkpt><trkpt lat="43.36260383301457" lon="13.328480903965529"><ele>204.4</ele><time>2026-04-20T08:21:22.999Z</time></trkpt><trkpt lat="43.36258321044723" lon="13.328381953007176"><ele>205.20000000000002</ele><time>2026-04-20T08:21:24.999Z</time></trkpt><trkpt lat="43.36258577532612" lon="13.32824917587262"><ele>206.0</ele><time>2026-04-20T08:21:26.999Z</time></trkpt><trkpt lat="43.36257614915013" lon="13.32813345690922"><ele>206.8</ele><time>2026-04-20T08:21:28.999Z</time></trkpt><trkpt lat="43.36256825130375" lon="13.328013070966781"><ele>207.60000000000002</ele><time>2026-04-20T08:21:30.999Z</time></trkpt><trkpt lat="43.36256087668907" lon="13.32789832795604"><ele>208.4</ele><time>2026-04-20T08:21:32.999Z</time></trkpt><trkpt lat="43.3625525015313" lon="13.327768017525377"><ele>209.2</ele><time>2026-04-20T08:21:34.999Z</time></trkpt><trkpt lat="43.362544149578135" lon="13.327638068020748"><ele>210.0</ele><time>2026-04-20T08:21:36.999Z</time></trkpt><trkpt lat="43.36253437373241" lon="13.32748596380705"><ele>210.0</ele><time>2026-04-20T08:21:38.999Z</time></trkpt><trkpt lat="43.362524707146754" lon="13.327335559516825"><ele>210.0</ele><time>2026-04-20T08:21:40.999Z</time></trkpt><trkpt lat="43.3625148473431" lon="13.327182148875115"><ele>210.0</ele><time>2026-04-20T08:21:42.999Z</time></trkpt><trkpt lat="43.36250506470328" lon="13.327029938835189"><ele>210.0</ele><time>2026-04-20T08:21:44.999Z</time></trkpt><trkpt lat="43.36249592733812" lon="13.326887769091838"><ele>210.0</ele><time>2026-04-20T08:21:46.999Z</time></trkpt><trkpt lat="43.36248706680073" lon="13.32674990643747"><ele>210.75</ele><time>2026-04-20T08:21:48.999Z</time></trkpt><trkpt lat="43.36247684946704" lon="13.326600897676732"><ele>211.5</ele><time>2026-04-20T08:21:50.999Z</time></trkpt><trkpt lat="43.362465996066376" lon="13.326446779135166"><ele>212.25</ele><time>2026-04-20T08:21:52.999Z</time></trkpt><trkpt lat="43.36245466595507" lon="13.326289949490542"><ele>213.0</ele><time>2026-04-20T08:21:54.999Z</time></trkpt><trkpt lat="43.362443160607135" lon="13.32613175756765"><ele>213.5</ele><time>2026-04-20T08:21:56.999Z</time></trkpt><trkpt lat="43.36243170165169" lon="13.325974203423387"><ele>214.0</ele><time>2026-04-20T08:21:58.999Z</time></trkpt><trkpt lat="43.362419685421855" lon="13.325808987402223"><ele>214.5</ele><time>2026-04-20T08:22:00.998Z</time></trkpt><trkpt lat="43.3624075073297" lon="13.325654495563432"><ele>215.0</ele><time>2026-04-20T08:22:02.998Z</time></trkpt><trkpt lat="43.36239574667872" lon="13.32550148189933"><ele>215.0</ele><time>2026-04-20T08:22:04.998Z</time></trkpt><trkpt lat="43.362387362827285" lon="13.325344668908478"><ele>215.0</ele><time>2026-04-20T08:22:06.998Z</time></trkpt><trkpt lat="43.362388905514806" lon="13.32519043364979"><ele>215.0</ele><time>2026-04-20T08:22:08.998Z</time></trkpt><trkpt lat="43.36239255112353" lon="13.325022724665804"><ele>215.0</ele><time>2026-04-20T08:22:10.998Z</time></trkpt><trkpt lat="43.36236685265841" lon="13.324852102900179"><ele>214.4</ele><time>2026-04-20T08:22:12.998Z</time></trkpt><trkpt lat="43.36233971209612" lon="13.324680349354553"><ele>213.8</ele><time>2026-04-20T08:22:14.998Z</time></trkpt><trkpt lat="43.362306178076174" lon="13.32451695734264"><ele>213.2</ele><time>2026-04-20T08:22:16.998Z</time></trkpt><trkpt lat="43.36230061652659" lon="13.324427685800746"><ele>212.6</ele><time>2026-04-20T08:22:17.998Z</time></trkpt><trkpt lat="43.36226355902637" lon="13.324355065079725"><ele>212.0</ele><time>2026-04-20T08:22:18.998Z</time></trkpt><trkpt lat="43.362226393542" lon="13.324246724101062"><ele>213.16666666666669</ele><time>2026-04-20T08:22:20.998Z</time></trkpt><trkpt lat="43.362176780127385" lon="13.324121541021498"><ele>214.33333333333334</ele><time>2026-04-20T08:22:22.998Z</time></trkpt><trkpt lat="43.36211067576114" lon="13.323989613379254"><ele>215.5</ele><time>2026-04-20T08:22:24.998Z</time></trkpt><trkpt lat="43.36206672729181" lon="13.323916717148384"><ele>216.66666666666669</ele><time>2026-04-20T08:22:25.998Z</time></trkpt><trkpt lat="43.362017273001086" lon="13.323839630644297"><ele>217.83333333333334</ele><time>2026-04-20T08:22:26.998Z</time></trkpt><trkpt lat="43.361967297810494" lon="13.323759900330295"><ele>219.0</ele><time>2026-04-20T08:22:27.998Z</time></trkpt><trkpt lat="43.36191784072365" lon="13.323681689788158"><ele>219.16666666666666</ele><time>2026-04-20T08:22:28.998Z</time></trkpt><trkpt lat="43.36187641261921" lon="13.32359519471033"><ele>219.33333333333331</ele><time>2026-04-20T08:22:29.999Z</time></trkpt><trkpt lat="43.361832179957005" lon="13.323517993460648"><ele>219.5</ele><time>2026-04-20T08:22:30.999Z</time></trkpt><trkpt lat="43.361790234232075" lon="13.323442993599121"><ele>219.66666666666666</ele><time>2026-04-20T08:22:31.999Z</time></trkpt><trkpt lat="43.3617474685572" lon="13.323359879447736"><ele>219.83333333333331</ele><time>2026-04-20T08:22:32.999Z</time></trkpt><trkpt lat="43.36166817324918" lon="13.323210564705704"><ele>220.0</ele><time>2026-04-20T08:22:34.999Z</time></trkpt><trkpt lat="43.36163547849963" lon="13.32312048047924"><ele>219.99999999999997</ele><time>2026-04-20T08:22:35.999Z</time></trkpt><trkpt lat="43.36160650806484" lon="13.323016896390781"><ele>220.0</ele><time>2026-04-20T08:22:36.999Z</time></trkpt><trkpt lat="43.361578593923205" lon="13.322920427791239"><ele>220.0</ele><time>2026-04-20T08:22:37.999Z</time></trkpt><trkpt lat="43.36155329170982" lon="13.322827721708176"><ele>220.0</ele><time>2026-04-20T08:22:38.999Z</time></trkpt><trkpt lat="43.36152731596987" lon="13.322737452124287"><ele>220.0</ele><time>2026-04-20T08:22:39.999Z</time></trkpt><trkpt lat="43.36150331605251" lon="13.322642674861122"><ele>219.99999999999997</ele><time>2026-04-20T08:22:40.999Z</time></trkpt><trkpt lat="43.36148876436936" lon="13.322549313108837"><ele>220.0</ele><time>2026-04-20T08:22:41.999Z</time></trkpt><trkpt lat="43.3614699467391" lon="13.322451312285562"><ele>219.99999999999997</ele><time>2026-04-20T08:22:42.999Z</time></trkpt><trkpt lat="43.36145173996666" lon="13.322353119896396"><ele>220.0</ele><time>2026-04-20T08:22:43.999Z</time></trkpt><trkpt lat="43.36143623948235" lon="13.322258127021154"><ele>220.0</ele><time>2026-04-20T08:22:44.999Z</time></trkpt><trkpt lat="43.3614115543457" lon="13.322114393992194"><ele>220.0</ele><time>2026-04-20T08:22:46.999Z</time></trkpt><trkpt lat="43.36140650236652" lon="13.321993247816303"><ele>219.99999999999997</ele><time>2026-04-20T08:22:48.999Z</time></trkpt><trkpt lat="43.36139216070188" lon="13.321891074511065"><ele>220.0</ele><time>2026-04-20T08:22:51.999Z</time></trkpt><trkpt lat="43.361211161416506" lon="13.321945321578154"><ele>220.28571428571428</ele><time>2026-04-20T08:23:16.999Z</time></trkpt><trkpt lat="43.36115632074034" lon="13.322001875078668"><ele>220.57142857142856</ele><time>2026-04-20T08:23:17.999Z</time></trkpt><trkpt lat="43.36109667522196" lon="13.322040105897582"><ele>220.85714285714283</ele><time>2026-04-20T08:23:18.999Z</time></trkpt><trkpt lat="43.361036482313345" lon="13.322076571129273"><ele>221.14285714285714</ele><time>2026-04-20T08:23:19.999Z</time></trkpt><trkpt lat="43.36097712999824" lon="13.32211575862282"><ele>221.42857142857144</ele><time>2026-04-20T08:23:20.999Z</time></trkpt><trkpt lat="43.360910269631134" lon="13.32216194453182"><ele>221.7142857142857</ele><time>2026-04-20T08:23:21.999Z</time></trkpt><trkpt lat="43.36084224335618" lon="13.322220386993942"><ele>222.0</ele><time>2026-04-20T08:23:22.999Z</time></trkpt><trkpt lat="43.360769939769476" lon="13.322275641529227"><ele>222.0</ele><time>2026-04-20T08:23:23.999Z</time></trkpt><trkpt lat="43.36070122686786" lon="13.32233226655668"><ele>222.0</ele><time>2026-04-20T08:23:24.999Z</time></trkpt><trkpt lat="43.36063175705558" lon="13.322391769736468"><ele>222.0</ele><time>2026-04-20T08:23:25.999Z</time></trkpt><trkpt lat="43.360553494115024" lon="13.322450222226783"><ele>222.0</ele><time>2026-04-20T08:23:26.999Z</time></trkpt><trkpt lat="43.360479364371685" lon="13.322511908738424"><ele>222.0</ele><time>2026-04-20T08:23:27.999Z</time></trkpt><trkpt lat="43.36040541552978" lon="13.322569766391602"><ele>222.0</ele><time>2026-04-20T08:23:28.999Z</time></trkpt><trkpt lat="43.36033901473511" lon="13.322633670036991"><ele>221.66666666666666</ele><time>2026-04-20T08:23:29.999Z</time></trkpt><trkpt lat="43.360267302606104" lon="13.322698156333043"><ele>221.33333333333331</ele><time>2026-04-20T08:23:30.999Z</time></trkpt><trkpt lat="43.360194347082775" lon="13.32275760619992"><ele>221.0</ele><time>2026-04-20T08:23:31.999Z</time></trkpt><trkpt lat="43.36013321717989" lon="13.322820037139596"><ele>220.66666666666666</ele><time>2026-04-20T08:23:32.999Z</time></trkpt><trkpt lat="43.36006560336634" lon="13.32289155803188"><ele>220.33333333333331</ele><time>2026-04-20T08:23:33.999Z</time></trkpt><trkpt lat="43.359989374331604" lon="13.32295804265424"><ele>220.0</ele><time>2026-04-20T08:23:34.999Z</time></trkpt><trkpt lat="43.35990884224935" lon="13.323020862028374"><ele>219.2</ele><time>2026-04-20T08:23:35.999Z</time></trkpt><trkpt lat="43.359832919167" lon="13.323087626369693"><ele>218.4</ele><time>2026-04-20T08:23:36.999Z</time></trkpt><trkpt lat="43.359752961119874" lon="13.323157351277802"><ele>217.60000000000002</ele><time>2026-04-20T08:23:37.999Z</time></trkpt><trkpt lat="43.35966676159105" lon="13.32322751811002"><ele>216.8</ele><time>2026-04-20T08:23:38.999Z</time></trkpt><trkpt lat="43.35958021680245" lon="13.32329582175184"><ele>216.0</ele><time>2026-04-20T08:23:39.999Z</time></trkpt><trkpt lat="43.359492932145194" lon="13.323361505789876"><ele>216.0</ele><time>2026-04-20T08:23:40.999Z</time></trkpt><trkpt lat="43.359409070386185" lon="13.323450992910505"><ele>216.0</ele><time>2026-04-20T08:23:41.999Z</time></trkpt><trkpt lat="43.35932537337302" lon="13.32358088158628"><ele>216.0</ele><time>2026-04-20T08:23:42.999Z</time></trkpt><trkpt lat="43.35925228209022" lon="13.323734513598234"><ele>216.0</ele><time>2026-04-20T08:23:43.999Z</time></trkpt><trkpt lat="43.359171296152375" lon="13.323889459161679"><ele>216.25</ele><time>2026-04-20T08:23:44.999Z</time></trkpt><trkpt lat="43.359080474041626" lon="13.32404787742015"><ele>216.5</ele><time>2026-04-20T08:23:45.999Z</time></trkpt><trkpt lat="43.359008104590245" lon="13.324171004284295"><ele>216.75</ele><time>2026-04-20T08:23:46.999Z</time></trkpt><trkpt lat="43.35894556145936" lon="13.324282207016157"><ele>217.0</ele><time>2026-04-20T08:23:47.999Z</time></trkpt><trkpt lat="43.3588680285289" lon="13.324366710954573"><ele>218.2</ele><time>2026-04-20T08:23:48.999Z</time></trkpt><trkpt lat="43.358798180972805" lon="13.324457642603686"><ele>219.39999999999998</ele><time>2026-04-20T08:23:49.999Z</time></trkpt><trkpt lat="43.3587439379286" lon="13.324534017799605"><ele>220.60000000000002</ele><time>2026-04-20T08:23:50.999Z</time></trkpt><trkpt lat="43.358596318762764" lon="13.324563055215267"><ele>221.8</ele><time>2026-04-20T08:23:53.999Z</time></trkpt><trkpt lat="43.35866285400593" lon="13.32457835025923"><ele>223.0</ele><time>2026-04-20T08:24:32.998Z</time></trkpt><trkpt lat="43.35874017259752" lon="13.324551278946721"><ele>223.0</ele><time>2026-04-20T08:24:35.999Z</time></trkpt><trkpt lat="43.35882362188649" lon="13.324447079668113"><ele>223.0</ele><time>2026-04-20T08:24:37.999Z</time></trkpt><trkpt lat="43.358873161752484" lon="13.324377710804232"><ele>223.0</ele><time>2026-04-20T08:24:38.999Z</time></trkpt><trkpt lat="43.3589221578327" lon="13.324299795566"><ele>223.0</ele><time>2026-04-20T08:24:39.999Z</time></trkpt><trkpt lat="43.35890828199007" lon="13.324643655597676"><ele>217.0</ele><time>2026-04-20T08:24:40.999Z</time></trkpt><trkpt lat="43.35907912978643" lon="13.324051293134124"><ele>217.0</ele><time>2026-04-20T08:24:41.999Z</time></trkpt><trkpt lat="43.359147956220816" lon="13.323940476879805"><ele>217.0</ele><time>2026-04-20T08:24:42.999Z</time></trkpt><trkpt lat="43.35920980734155" lon="13.323832224536245"><ele>217.0</ele><time>2026-04-20T08:24:43.999Z</time></trkpt><trkpt lat="43.359274334282375" lon="13.323729224453933"><ele>217.0</ele><time>2026-04-20T08:24:44.999Z</time></trkpt><trkpt lat="43.3593420369146" lon="13.323621526435545"><ele>217.0</ele><time>2026-04-20T08:24:45.999Z</time></trkpt><trkpt lat="43.35940553678559" lon="13.323508484770523"><ele>216.8</ele><time>2026-04-20T08:24:46.999Z</time></trkpt><trkpt lat="43.359475979076485" lon="13.323410930746615"><ele>216.6</ele><time>2026-04-20T08:24:47.999Z</time></trkpt><trkpt lat="43.35956180578512" lon="13.323321308886989"><ele>216.40000000000003</ele><time>2026-04-20T08:24:48.999Z</time></trkpt><trkpt lat="43.35967065981355" lon="13.323241508560253"><ele>216.20000000000002</ele><time>2026-04-20T08:24:49.999Z</time></trkpt><trkpt lat="43.35977508976836" lon="13.32316631415222"><ele>216.0</ele><time>2026-04-20T08:24:50.999Z</time></trkpt><trkpt lat="43.35988399484189" lon="13.323094714208743"><ele>216.8</ele><time>2026-04-20T08:24:51.999Z</time></trkpt><trkpt lat="43.359987510252694" lon="13.323008081376313"><ele>217.60000000000002</ele><time>2026-04-20T08:24:52.999Z</time></trkpt><trkpt lat="43.360060525217136" lon="13.322939021752672"><ele>218.4</ele><time>2026-04-20T08:24:53.999Z</time></trkpt><trkpt lat="43.36013021292488" lon="13.322848829288867"><ele>219.2</ele><time>2026-04-20T08:24:54.999Z</time></trkpt><trkpt lat="43.360220843463374" lon="13.322766597871967"><ele>220.0</ele><time>2026-04-20T08:24:55.999Z</time></trkpt><trkpt lat="43.36033416675876" lon="13.322681788798183"><ele>220.0</ele><time>2026-04-20T08:24:56.999Z</time></trkpt><trkpt lat="43.36043948528183" lon="13.322594655852452"><ele>220.0</ele><time>2026-04-20T08:24:57.999Z</time></trkpt><trkpt lat="43.360525455737694" lon="13.322512069652205"><ele>220.0</ele><time>2026-04-20T08:24:58.999Z</time></trkpt><trkpt lat="43.36061112327839" lon="13.322440758877805"><ele>220.0</ele><time>2026-04-20T08:24:59.999Z</time></trkpt><trkpt lat="43.360697744943415" lon="13.322366093173178"><ele>220.0</ele><time>2026-04-20T08:25:00.999Z</time></trkpt><trkpt lat="43.360792226435564" lon="13.32228349459196"><ele>220.66666666666666</ele><time>2026-04-20T08:25:01.999Z</time></trkpt><trkpt lat="43.36088202586969" lon="13.322212359987482"><ele>221.33333333333331</ele><time>2026-04-20T08:25:02.999Z</time></trkpt><trkpt lat="43.36096075140987" lon="13.322151128377385"><ele>222.0</ele><time>2026-04-20T08:25:03.999Z</time></trkpt><trkpt lat="43.36104113600645" lon="13.322092180375577"><ele>222.66666666666669</ele><time>2026-04-20T08:25:04.999Z</time></trkpt><trkpt lat="43.361117809572065" lon="13.32204101063892"><ele>223.33333333333334</ele><time>2026-04-20T08:25:05.999Z</time></trkpt><trkpt lat="43.36117503721925" lon="13.322003463407317"><ele>224.0</ele><time>2026-04-20T08:25:06.999Z</time></trkpt><trkpt lat="43.36128313827246" lon="13.321930762455345"><ele>224.0</ele><time>2026-04-20T08:25:08.999Z</time></trkpt><trkpt lat="43.36138091010482" lon="13.321852470318724"><ele>224.0</ele><time>2026-04-20T08:25:10.999Z</time></trkpt><trkpt lat="43.36134637311085" lon="13.32167423457727"><ele>224.0</ele><time>2026-04-20T08:25:11.999Z</time></trkpt><trkpt lat="43.361320829706656" lon="13.32149054010611"><ele>224.0</ele><time>2026-04-20T08:25:13.999Z</time></trkpt><trkpt lat="43.36132417965321" lon="13.321392595844321"><ele>223.85714285714286</ele><time>2026-04-20T08:25:14.999Z</time></trkpt><trkpt lat="43.36131145612333" lon="13.321304696493703"><ele>223.71428571428572</ele><time>2026-04-20T08:25:15.999Z</time></trkpt><trkpt lat="43.36129738899191" lon="13.32121006308708"><ele>223.57142857142856</ele><time>2026-04-20T08:25:16.999Z</time></trkpt><trkpt lat="43.36128303565619" lon="13.321113505430375"><ele>223.42857142857144</ele><time>2026-04-20T08:25:17.999Z</time></trkpt><trkpt lat="43.36125584886705" lon="13.32101460250336"><ele>223.28571428571428</ele><time>2026-04-20T08:25:18.999Z</time></trkpt><trkpt lat="43.361245361422114" lon="13.320908677190877"><ele>223.14285714285714</ele><time>2026-04-20T08:25:19.999Z</time></trkpt><trkpt lat="43.361235449505315" lon="13.320808062587686"><ele>223.0</ele><time>2026-04-20T08:25:20.999Z</time></trkpt><trkpt lat="43.36122734822093" lon="13.320709866161193"><ele>223.0</ele><time>2026-04-20T08:25:21.999Z</time></trkpt><trkpt lat="43.361217340522" lon="13.320606674819246"><ele>223.0</ele><time>2026-04-20T08:25:22.999Z</time></trkpt><trkpt lat="43.36121437921825" lon="13.320506252309603"><ele>223.0</ele><time>2026-04-20T08:25:23.999Z</time></trkpt><trkpt lat="43.361206084168145" lon="13.320416885589966"><ele>223.0</ele><time>2026-04-20T08:25:24.999Z</time></trkpt><trkpt lat="43.361201268540576" lon="13.320327300501345"><ele>223.0</ele><time>2026-04-20T08:25:25.999Z</time></trkpt><trkpt lat="43.36119554466122" lon="13.320234912383494"><ele>223.0</ele><time>2026-04-20T08:25:26.999Z</time></trkpt><trkpt lat="43.36119073049463" lon="13.320134004540108"><ele>223.0</ele><time>2026-04-20T08:25:27.999Z</time></trkpt><trkpt lat="43.361183140518364" lon="13.320034468039326"><ele>223.42857142857142</ele><time>2026-04-20T08:25:28.999Z</time></trkpt><trkpt lat="43.361180152366366" lon="13.319937971084165"><ele>223.85714285714283</ele><time>2026-04-20T08:25:29.999Z</time></trkpt><trkpt lat="43.36117403278014" lon="13.319849687007936"><ele>224.28571428571428</ele><time>2026-04-20T08:25:30.999Z</time></trkpt><trkpt lat="43.36117064118485" lon="13.3197555134976"><ele>224.71428571428572</ele><time>2026-04-20T08:25:31.999Z</time></trkpt><trkpt lat="43.36116181809727" lon="13.319661496311957"><ele>225.14285714285714</ele><time>2026-04-20T08:25:32.999Z</time></trkpt><trkpt lat="43.36115585154443" lon="13.319563591884245"><ele>225.57142857142858</ele><time>2026-04-20T08:25:33.999Z</time></trkpt><trkpt lat="43.36114874231641" lon="13.31945750819913"><ele>226.0</ele><time>2026-04-20T08:25:34.999Z</time></trkpt><trkpt lat="43.36113670059855" lon="13.319343210659394"><ele>226.0</ele><time>2026-04-20T08:25:35.999Z</time></trkpt><trkpt lat="43.36112604651139" lon="13.319222564678082"><ele>226.00000000000003</ele><time>2026-04-20T08:25:36.999Z</time></trkpt><trkpt lat="43.361120635860935" lon="13.31909631716061"><ele>226.00000000000003</ele><time>2026-04-20T08:25:37.999Z</time></trkpt><trkpt lat="43.361107147342146" lon="13.318965736766165"><ele>226.0</ele><time>2026-04-20T08:25:38.999Z</time></trkpt><trkpt lat="43.3610888638924" lon="13.318835352554535"><ele>226.0</ele><time>2026-04-20T08:25:39.999Z</time></trkpt><trkpt lat="43.361072964264324" lon="13.318700247385957"><ele>226.20000000000002</ele><time>2026-04-20T08:25:40.999Z</time></trkpt><trkpt lat="43.36106900227437" lon="13.318553343357422"><ele>226.40000000000003</ele><time>2026-04-20T08:25:41.999Z</time></trkpt><trkpt lat="43.361054181303395" lon="13.318406858724426"><ele>226.6</ele><time>2026-04-20T08:25:42.999Z</time></trkpt><trkpt lat="43.36104160344018" lon="13.318274806147661"><ele>226.8</ele><time>2026-04-20T08:25:43.999Z</time></trkpt><trkpt lat="43.36102776058746" lon="13.318141126897077"><ele>227.0</ele><time>2026-04-20T08:25:44.999Z</time></trkpt><trkpt lat="43.36102893160118" lon="13.317999138517104"><ele>227.25</ele><time>2026-04-20T08:25:45.999Z</time></trkpt><trkpt lat="43.36102172921648" lon="13.317854487348457"><ele>227.5</ele><time>2026-04-20T08:25:46.999Z</time></trkpt><trkpt lat="43.36102977136161" lon="13.31770608178214"><ele>227.75</ele><time>2026-04-20T08:25:47.999Z</time></trkpt><trkpt lat="43.3610037940132" lon="13.317544648718652"><ele>228.0</ele><time>2026-04-20T08:25:48.999Z</time></trkpt><trkpt lat="43.360993263962094" lon="13.317384005991919"><ele>228.0</ele><time>2026-04-20T08:25:49.999Z</time></trkpt><trkpt lat="43.36096386632424" lon="13.317204435890664"><ele>228.0</ele><time>2026-04-20T08:25:50.999Z</time></trkpt><trkpt lat="43.36091410077136" lon="13.317023987625666"><ele>228.0</ele><time>2026-04-20T08:25:51.999Z</time></trkpt><trkpt lat="43.36087206028795" lon="13.316880577788861"><ele>228.0</ele><time>2026-04-20T08:25:52.999Z</time></trkpt><trkpt lat="43.360838472971594" lon="13.316750561227465"><ele>228.0</ele><time>2026-04-20T08:25:53.999Z</time></trkpt><trkpt lat="43.36080583497051" lon="13.316632565094606"><ele>228.0</ele><time>2026-04-20T08:25:54.999Z</time></trkpt><trkpt lat="43.36077855446791" lon="13.31652483043605"><ele>228.0</ele><time>2026-04-20T08:25:55.999Z</time></trkpt><trkpt lat="43.3607496407153" lon="13.316418346299919"><ele>228.0</ele><time>2026-04-20T08:25:56.999Z</time></trkpt><trkpt lat="43.36072116717998" lon="13.316299662642638"><ele>228.0</ele><time>2026-04-20T08:25:57.999Z</time></trkpt><trkpt lat="43.36069278130261" lon="13.31619263713389"><ele>228.0</ele><time>2026-04-20T08:25:58.999Z</time></trkpt><trkpt lat="43.36067262127897" lon="13.31609114519106"><ele>228.14285714285714</ele><time>2026-04-20T08:25:59.999Z</time></trkpt><trkpt lat="43.36064472524177" lon="13.315991042205066"><ele>228.28571428571428</ele><time>2026-04-20T08:26:00.999Z</time></trkpt><trkpt lat="43.36062311139328" lon="13.315895356254579"><ele>228.42857142857142</ele><time>2026-04-20T08:26:01.999Z</time></trkpt><trkpt lat="43.360598040188556" lon="13.31579987152987"><ele>228.57142857142856</ele><time>2026-04-20T08:26:02.999Z</time></trkpt><trkpt lat="43.3605696034749" lon="13.315718797049662"><ele>228.71428571428572</ele><time>2026-04-20T08:26:03.999Z</time></trkpt><trkpt lat="43.36054923920068" lon="13.315631796102615"><ele>228.85714285714283</ele><time>2026-04-20T08:26:04.999Z</time></trkpt><trkpt lat="43.360526260749324" lon="13.315550419592451"><ele>229.0</ele><time>2026-04-20T08:26:05.999Z</time></trkpt><trkpt lat="43.36050785441997" lon="13.315448392118382"><ele>229.16666666666666</ele><time>2026-04-20T08:26:06.999Z</time></trkpt><trkpt lat="43.36047191533435" lon="13.315363009350484"><ele>229.33333333333331</ele><time>2026-04-20T08:26:07.999Z</time></trkpt><trkpt lat="43.36045630824944" lon="13.315262460967613"><ele>229.5</ele><time>2026-04-20T08:26:08.999Z</time></trkpt><trkpt lat="43.360432232855096" lon="13.315172395731123"><ele>229.66666666666669</ele><time>2026-04-20T08:26:09.999Z</time></trkpt><trkpt lat="43.36041280509044" lon="13.315068005980166"><ele>229.83333333333334</ele><time>2026-04-20T08:26:10.999Z</time></trkpt><trkpt lat="43.360403594180895" lon="13.314962967901115"><ele>230.0</ele><time>2026-04-20T08:26:11.998Z</time></trkpt><trkpt lat="43.36036581293931" lon="13.314853752451492"><ele>230.00000000000003</ele><time>2026-04-20T08:26:12.998Z</time></trkpt><trkpt lat="43.360342729804536" lon="13.314744931723967"><ele>230.0</ele><time>2026-04-20T08:26:13.998Z</time></trkpt><trkpt lat="43.36032096287315" lon="13.314639671595625"><ele>230.0</ele><time>2026-04-20T08:26:14.998Z</time></trkpt><trkpt lat="43.360297369809466" lon="13.314536712449375"><ele>230.0</ele><time>2026-04-20T08:26:15.998Z</time></trkpt><trkpt lat="43.36027271268787" lon="13.314427400868901"><ele>230.00000000000003</ele><time>2026-04-20T08:26:16.998Z</time></trkpt><trkpt lat="43.36023917207154" lon="13.314285482718239"><ele>230.0</ele><time>2026-04-20T08:26:18.998Z</time></trkpt><trkpt lat="43.36020760299505" lon="13.314148703253384"><ele>230.2</ele><time>2026-04-20T08:26:20.998Z</time></trkpt><trkpt lat="43.36017904141948" lon="13.31401534026145"><ele>230.4</ele><time>2026-04-20T08:26:22.998Z</time></trkpt><trkpt lat="43.36015262565137" lon="13.31382513159474"><ele>230.60000000000002</ele><time>2026-04-20T08:26:24.998Z</time></trkpt><trkpt lat="43.36012651132401" lon="13.313707192075722"><ele>230.8</ele><time>2026-04-20T08:26:25.998Z</time></trkpt><trkpt lat="43.36009738185116" lon="13.313578744961934"><ele>231.0</ele><time>2026-04-20T08:26:26.998Z</time></trkpt><trkpt lat="43.36007327545311" lon="13.313472447945731"><ele>231.33333333333334</ele><time>2026-04-20T08:26:27.998Z</time></trkpt><trkpt lat="43.360049055391684" lon="13.313365649564705"><ele>231.66666666666669</ele><time>2026-04-20T08:26:28.998Z</time></trkpt><trkpt lat="43.36002498973122" lon="13.313259532016588"><ele>232.0</ele><time>2026-04-20T08:26:29.998Z</time></trkpt><trkpt lat="43.3600060994263" lon="13.313176029224962"><ele>232.33333333333334</ele><time>2026-04-20T08:26:30.998Z</time></trkpt><trkpt lat="43.35996984521968" lon="13.313021066958333"><ele>232.66666666666669</ele><time>2026-04-20T08:26:32.998Z</time></trkpt><trkpt lat="43.35994192554572" lon="13.312896191615295"><ele>233.0</ele><time>2026-04-20T08:26:34.998Z</time></trkpt><trkpt lat="43.35992355184115" lon="13.312793633315376"><ele>233.4</ele><time>2026-04-20T08:26:36.998Z</time></trkpt><trkpt lat="43.35991093449301" lon="13.31269644232769"><ele>233.8</ele><time>2026-04-20T08:26:39.998Z</time></trkpt><trkpt lat="43.35993432377232" lon="13.312607208025506"><ele>234.2</ele><time>2026-04-20T08:26:59.999Z</time></trkpt><trkpt lat="43.35984702253164" lon="13.312482139973477"><ele>234.6</ele><time>2026-04-20T08:27:01.999Z</time></trkpt><trkpt lat="43.3598086259087" lon="13.312363083597768"><ele>235.0</ele><time>2026-04-20T08:27:03.999Z</time></trkpt><trkpt lat="43.35978173437546" lon="13.312217729161361"><ele>235.0</ele><time>2026-04-20T08:27:05.999Z</time></trkpt><trkpt lat="43.35975388580331" lon="13.312098390805941"><ele>235.0</ele><time>2026-04-20T08:27:07.999Z</time></trkpt><trkpt lat="43.35970174771699" lon="13.311969163943452"><ele>235.0</ele><time>2026-04-20T08:27:09.999Z</time></trkpt><trkpt lat="43.35966250767003" lon="13.31182825924909"><ele>235.0</ele><time>2026-04-20T08:27:11.999Z</time></trkpt><trkpt lat="43.35962168926682" lon="13.31166891624618"><ele>235.0</ele><time>2026-04-20T08:27:13.999Z</time></trkpt><trkpt lat="43.35958021459885" lon="13.31150465079002"><ele>235.14285714285714</ele><time>2026-04-20T08:27:15.999Z</time></trkpt><trkpt lat="43.35955869257108" lon="13.311419410392748"><ele>235.28571428571428</ele><time>2026-04-20T08:27:16.999Z</time></trkpt><trkpt lat="43.359537682651315" lon="13.311336197900356"><ele>235.42857142857142</ele><time>2026-04-20T08:27:17.999Z</time></trkpt><trkpt lat="43.35951340643192" lon="13.311249151647889"><ele>235.57142857142856</ele><time>2026-04-20T08:27:18.999Z</time></trkpt><trkpt lat="43.35948618675335" lon="13.311156356237401"><ele>235.71428571428572</ele><time>2026-04-20T08:27:19.999Z</time></trkpt><trkpt lat="43.35945745042252" lon="13.311061600975227"><ele>235.85714285714283</ele><time>2026-04-20T08:27:20.999Z</time></trkpt><trkpt lat="43.35942872362247" lon="13.310973169474646"><ele>236.0</ele><time>2026-04-20T08:27:21.999Z</time></trkpt><trkpt lat="43.359397263012056" lon="13.310877455136907"><ele>236.16666666666669</ele><time>2026-04-20T08:27:22.999Z</time></trkpt><trkpt lat="43.35936383631151" lon="13.310778060053444"><ele>236.33333333333334</ele><time>2026-04-20T08:27:23.999Z</time></trkpt><trkpt lat="43.35932869071588" lon="13.310673553265632"><ele>236.5</ele><time>2026-04-20T08:27:24.999Z</time></trkpt><trkpt lat="43.35929570753519" lon="13.310575476629575"><ele>236.66666666666669</ele><time>2026-04-20T08:27:25.999Z</time></trkpt><trkpt lat="43.35926208236026" lon="13.31047870392198"><ele>236.83333333333334</ele><time>2026-04-20T08:27:26.999Z</time></trkpt><trkpt lat="43.359231230746936" lon="13.310390933418088"><ele>237.0</ele><time>2026-04-20T08:27:27.999Z</time></trkpt><trkpt lat="43.359199428060535" lon="13.31030045739647"><ele>237.1428571428571</ele><time>2026-04-20T08:27:28.999Z</time></trkpt><trkpt lat="43.3591670689961" lon="13.310208398414172"><ele>237.28571428571428</ele><time>2026-04-20T08:27:29.999Z</time></trkpt><trkpt lat="43.35913515319977" lon="13.310117600415234"><ele>237.42857142857142</ele><time>2026-04-20T08:27:30.999Z</time></trkpt><trkpt lat="43.35910540719296" lon="13.310032975227855"><ele>237.57142857142856</ele><time>2026-04-20T08:27:31.999Z</time></trkpt><trkpt lat="43.35907653553459" lon="13.309949867119327"><ele>237.71428571428572</ele><time>2026-04-20T08:27:32.999Z</time></trkpt><trkpt lat="43.35904642521734" lon="13.309857528328862"><ele>237.85714285714286</ele><time>2026-04-20T08:27:33.999Z</time></trkpt><trkpt lat="43.359015544611175" lon="13.309756241512467"><ele>238.0</ele><time>2026-04-20T08:27:34.999Z</time></trkpt><trkpt lat="43.35898781965837" lon="13.309662976829877"><ele>238.2</ele><time>2026-04-20T08:27:35.999Z</time></trkpt><trkpt lat="43.35893965993708" lon="13.3095009710823"><ele>238.4</ele><time>2026-04-20T08:27:37.999Z</time></trkpt><trkpt lat="43.358910236952994" lon="13.309406831120159"><ele>238.59999999999997</ele><time>2026-04-20T08:27:38.999Z</time></trkpt><trkpt lat="43.35887835545526" lon="13.309309881909936"><ele>238.79999999999998</ele><time>2026-04-20T08:27:39.999Z</time></trkpt><trkpt lat="43.358851684732876" lon="13.309229674310389"><ele>239.0</ele><time>2026-04-20T08:27:40.999Z</time></trkpt><trkpt lat="43.35880256595507" lon="13.309081958152131"><ele>239.2</ele><time>2026-04-20T08:27:42.999Z</time></trkpt><trkpt lat="43.358774643488594" lon="13.308997986326299"><ele>239.39999999999998</ele><time>2026-04-20T08:27:43.999Z</time></trkpt><trkpt lat="43.35874747332192" lon="13.308910855209728"><ele>239.6</ele><time>2026-04-20T08:27:44.999Z</time></trkpt><trkpt lat="43.35869694675255" lon="13.308742891295822"><ele>239.8</ele><time>2026-04-20T08:27:46.999Z</time></trkpt><trkpt lat="43.35867076587205" lon="13.30865585922058"><ele>240.0</ele><time>2026-04-20T08:27:47.999Z</time></trkpt><trkpt lat="43.358616512823964" lon="13.308498247015946"><ele>240.66666666666666</ele><time>2026-04-20T08:27:49.999Z</time></trkpt><trkpt lat="43.358565523867675" lon="13.308361191464707"><ele>241.33333333333331</ele><time>2026-04-20T08:27:51.999Z</time></trkpt><trkpt lat="43.358523536725826" lon="13.308258527310144"><ele>242.0</ele><time>2026-04-20T08:27:52.999Z</time></trkpt><trkpt lat="43.35848205770974" lon="13.308171496074385"><ele>242.66666666666666</ele><time>2026-04-20T08:27:53.999Z</time></trkpt><trkpt lat="43.35844851900283" lon="13.30808098085395"><ele>243.33333333333331</ele><time>2026-04-20T08:27:54.999Z</time></trkpt><trkpt lat="43.3584164605021" lon="13.307983280458197"><ele>244.0</ele><time>2026-04-20T08:27:55.999Z</time></trkpt><trkpt lat="43.358377816926385" lon="13.307875405343646"><ele>244.2</ele><time>2026-04-20T08:27:56.999Z</time></trkpt><trkpt lat="43.35834479724969" lon="13.307764541317736"><ele>244.39999999999998</ele><time>2026-04-20T08:27:57.999Z</time></trkpt><trkpt lat="43.35830533614348" lon="13.30764905851246"><ele>244.6</ele><time>2026-04-20T08:27:58.999Z</time></trkpt><trkpt lat="43.358264328001994" lon="13.307533509722694"><ele>244.8</ele><time>2026-04-20T08:27:59.999Z</time></trkpt><trkpt lat="43.3582365225959" lon="13.307404612826376"><ele>245.0</ele><time>2026-04-20T08:28:00.999Z</time></trkpt><trkpt lat="43.35819832709377" lon="13.307289916204338"><ele>245.00000000000003</ele><time>2026-04-20T08:28:01.999Z</time></trkpt><trkpt lat="43.358148592605396" lon="13.307194797700644"><ele>245.0</ele><time>2026-04-20T08:28:02.999Z</time></trkpt><trkpt lat="43.358127225388536" lon="13.307098294710357"><ele>245.0</ele><time>2026-04-20T08:28:03.999Z</time></trkpt><trkpt lat="43.35808800914038" lon="13.307012965231982"><ele>245.0</ele><time>2026-04-20T08:28:04.999Z</time></trkpt><trkpt lat="43.35804499055012" lon="13.306829464691944"><ele>245.00000000000003</ele><time>2026-04-20T08:28:06.999Z</time></trkpt><trkpt lat="43.35801398279451" lon="13.306736352057253"><ele>245.0</ele><time>2026-04-20T08:28:07.999Z</time></trkpt><trkpt lat="43.35798181121231" lon="13.306639744702052"><ele>245.00000000000003</ele><time>2026-04-20T08:28:08.999Z</time></trkpt><trkpt lat="43.357948251156024" lon="13.306538967846885"><ele>245.0</ele><time>2026-04-20T08:28:09.999Z</time></trkpt><trkpt lat="43.3579142167774" lon="13.306436766435716"><ele>245.0</ele><time>2026-04-20T08:28:10.999Z</time></trkpt><trkpt lat="43.35787891285498" lon="13.30633075307442"><ele>245.0</ele><time>2026-04-20T08:28:11.999Z</time></trkpt><trkpt lat="43.357844138007046" lon="13.306226328271961"><ele>245.00000000000003</ele><time>2026-04-20T08:28:12.999Z</time></trkpt><trkpt lat="43.35780884085404" lon="13.306120335062337"><ele>245.0</ele><time>2026-04-20T08:28:13.999Z</time></trkpt><trkpt lat="43.35777139305985" lon="13.306006507451624"><ele>245.16666666666669</ele><time>2026-04-20T08:28:14.999Z</time></trkpt><trkpt lat="43.35773724098634" lon="13.305902183724342"><ele>245.33333333333334</ele><time>2026-04-20T08:28:15.999Z</time></trkpt><trkpt lat="43.35770894708454" lon="13.305815755131334"><ele>245.5</ele><time>2026-04-20T08:28:16.999Z</time></trkpt><trkpt lat="43.35767734734967" lon="13.30571922826766"><ele>245.66666666666669</ele><time>2026-04-20T08:28:17.999Z</time></trkpt><trkpt lat="43.357642216853144" lon="13.305611916246605"><ele>245.83333333333334</ele><time>2026-04-20T08:28:18.999Z</time></trkpt><trkpt lat="43.357606600119624" lon="13.305503118432279"><ele>246.0</ele><time>2026-04-20T08:28:19.999Z</time></trkpt><trkpt lat="43.35757399501765" lon="13.305403520465898"><ele>246.0</ele><time>2026-04-20T08:28:20.999Z</time></trkpt><trkpt lat="43.35754314270381" lon="13.305309276650128"><ele>246.0</ele><time>2026-04-20T08:28:21.999Z</time></trkpt><trkpt lat="43.35751636738737" lon="13.305227486936229"><ele>246.0</ele><time>2026-04-20T08:28:22.999Z</time></trkpt><trkpt lat="43.3574870305078" lon="13.305137872287226"><ele>246.0</ele><time>2026-04-20T08:28:23.999Z</time></trkpt><trkpt lat="43.35745998497804" lon="13.305055256982882"><ele>246.0</ele><time>2026-04-20T08:28:24.999Z</time></trkpt><trkpt lat="43.35741265271755" lon="13.304913736591502"><ele>246.0</ele><time>2026-04-20T08:28:26.999Z</time></trkpt><trkpt lat="43.357383597032744" lon="13.304827737496367"><ele>245.8</ele><time>2026-04-20T08:28:27.999Z</time></trkpt><trkpt lat="43.35735293587601" lon="13.304736986595131"><ele>245.60000000000002</ele><time>2026-04-20T08:28:28.999Z</time></trkpt><trkpt lat="43.35730435435506" lon="13.304596872136226"><ele>245.4</ele><time>2026-04-20T08:28:30.999Z</time></trkpt><trkpt lat="43.357271112451286" lon="13.304520355979164"><ele>245.2</ele><time>2026-04-20T08:28:32.999Z</time></trkpt><trkpt lat="43.3572245036016" lon="13.304431709399083"><ele>245.0</ele><time>2026-04-20T08:28:54Z</time></trkpt><trkpt lat="43.35708396378072" lon="13.304457759460389"><ele>245.83333333333334</ele><time>2026-04-20T08:28:57Z</time></trkpt><trkpt lat="43.35699337676514" lon="13.304491987747605"><ele>246.66666666666669</ele><time>2026-04-20T08:28:58Z</time></trkpt><trkpt lat="43.35691184986311" lon="13.304507422723372"><ele>247.5</ele><time>2026-04-20T08:28:59Z</time></trkpt><trkpt lat="43.35684376724272" lon="13.304523323026185"><ele>248.33333333333331</ele><time>2026-04-20T08:29:00Z</time></trkpt><trkpt lat="43.35677292498808" lon="13.304539854929217"><ele>249.16666666666666</ele><time>2026-04-20T08:29:01Z</time></trkpt><trkpt lat="43.35670508996766" lon="13.304556864737071"><ele>250.0</ele><time>2026-04-20T08:29:02Z</time></trkpt><trkpt lat="43.35663957276358" lon="13.304567754105701"><ele>250.0</ele><time>2026-04-20T08:29:03Z</time></trkpt><trkpt lat="43.356573632462805" lon="13.304576863293798"><ele>250.0</ele><time>2026-04-20T08:29:04Z</time></trkpt><trkpt lat="43.356505946602574" lon="13.304589964859506"><ele>250.0</ele><time>2026-04-20T08:29:05Z</time></trkpt><trkpt lat="43.35643671548758" lon="13.30460539679731"><ele>250.0</ele><time>2026-04-20T08:29:06Z</time></trkpt><trkpt lat="43.35636503432545" lon="13.304624471629975"><ele>250.0</ele><time>2026-04-20T08:29:07Z</time></trkpt><trkpt lat="43.35629064391276" lon="13.30464355906696"><ele>250.0</ele><time>2026-04-20T08:29:08Z</time></trkpt><trkpt lat="43.356215470795554" lon="13.304665041305118"><ele>250.0</ele><time>2026-04-20T08:29:09Z</time></trkpt><trkpt lat="43.35613501107512" lon="13.30469529742968"><ele>250.0</ele><time>2026-04-20T08:29:10Z</time></trkpt><trkpt lat="43.356051550002256" lon="13.304718253643625"><ele>250.0</ele><time>2026-04-20T08:29:11Z</time></trkpt><trkpt lat="43.35596168733336" lon="13.304738383229523"><ele>250.0</ele><time>2026-04-20T08:29:12Z</time></trkpt><trkpt lat="43.35586406561249" lon="13.304766871309756"><ele>250.0</ele><time>2026-04-20T08:29:13Z</time></trkpt><trkpt lat="43.355760644205134" lon="13.304774294330295"><ele>250.0</ele><time>2026-04-20T08:29:14Z</time></trkpt><trkpt lat="43.355666830563926" lon="13.304791590988737"><ele>250.0</ele><time>2026-04-20T08:29:15Z</time></trkpt><trkpt lat="43.35556792306742" lon="13.304808494903895"><ele>250.0</ele><time>2026-04-20T08:29:16Z</time></trkpt><trkpt lat="43.355469306343956" lon="13.304845784046568"><ele>250.0</ele><time>2026-04-20T08:29:17Z</time></trkpt><trkpt lat="43.35536239511015" lon="13.304868007303295"><ele>250.0</ele><time>2026-04-20T08:29:18Z</time></trkpt><trkpt lat="43.355249774028955" lon="13.304885192971076"><ele>250.0</ele><time>2026-04-20T08:29:19Z</time></trkpt><trkpt lat="43.35513853902729" lon="13.30490378563038"><ele>250.2</ele><time>2026-04-20T08:29:20Z</time></trkpt><trkpt lat="43.3550348421303" lon="13.30492881175936"><ele>250.4</ele><time>2026-04-20T08:29:21Z</time></trkpt><trkpt lat="43.35492647987032" lon="13.304951243343986"><ele>250.60000000000002</ele><time>2026-04-20T08:29:22Z</time></trkpt><trkpt lat="43.35482917446645" lon="13.304975830460053"><ele>250.8</ele><time>2026-04-20T08:29:23Z</time></trkpt><trkpt lat="43.354744977115" lon="13.305024533893356"><ele>251.0</ele><time>2026-04-20T08:29:24Z</time></trkpt><trkpt lat="43.35466061564381" lon="13.30507186194013"><ele>251.50000000000003</ele><time>2026-04-20T08:29:25Z</time></trkpt><trkpt lat="43.35457406940087" lon="13.305115809908303"><ele>252.0</ele><time>2026-04-20T08:29:26Z</time></trkpt><trkpt lat="43.35448977689276" lon="13.305187037145071"><ele>252.5</ele><time>2026-04-20T08:29:27Z</time></trkpt><trkpt lat="43.354414560100636" lon="13.305251838732765"><ele>253.0</ele><time>2026-04-20T08:29:28Z</time></trkpt><trkpt lat="43.35434790235643" lon="13.305280879072008"><ele>253.50000000000003</ele><time>2026-04-20T08:29:29Z</time></trkpt><trkpt lat="43.35425104226621" lon="13.305284091114732"><ele>254.0</ele><time>2026-04-20T08:29:30Z</time></trkpt><trkpt lat="43.35414424786747" lon="13.305290353462514"><ele>254.0</ele><time>2026-04-20T08:29:31Z</time></trkpt><trkpt lat="43.35404713153073" lon="13.305285891117787"><ele>253.99999999999997</ele><time>2026-04-20T08:29:32Z</time></trkpt><trkpt lat="43.35395648736312" lon="13.305289100775703"><ele>253.99999999999997</ele><time>2026-04-20T08:29:33Z</time></trkpt><trkpt lat="43.35386561935815" lon="13.305308519974187"><ele>254.0</ele><time>2026-04-20T08:29:34Z</time></trkpt><trkpt lat="43.353781262327026" lon="13.305328522971339"><ele>254.0</ele><time>2026-04-20T08:29:35Z</time></trkpt><trkpt lat="43.35369353616342" lon="13.305349500614073"><ele>254.00000000000003</ele><time>2026-04-20T08:29:36Z</time></trkpt><trkpt lat="43.35360648653784" lon="13.305378942191828"><ele>254.0</ele><time>2026-04-20T08:29:37Z</time></trkpt><trkpt lat="43.353518165699946" lon="13.305404063143886"><ele>254.0</ele><time>2026-04-20T08:29:37.999Z</time></trkpt><trkpt lat="43.353436647693755" lon="13.305423226696698"><ele>254.0</ele><time>2026-04-20T08:29:38.999Z</time></trkpt><trkpt lat="43.35335094540916" lon="13.305447407925442"><ele>254.00000000000003</ele><time>2026-04-20T08:29:39.999Z</time></trkpt><trkpt lat="43.35326013449504" lon="13.305474344893215"><ele>254.0</ele><time>2026-04-20T08:29:40.999Z</time></trkpt><trkpt lat="43.35317196565818" lon="13.305500844584433"><ele>254.0</ele><time>2026-04-20T08:29:41.999Z</time></trkpt><trkpt lat="43.35308223202246" lon="13.305530468580852"><ele>253.99999999999997</ele><time>2026-04-20T08:29:42.999Z</time></trkpt><trkpt lat="43.352992957344476" lon="13.305552221482904"><ele>253.99999999999997</ele><time>2026-04-20T08:29:43.999Z</time></trkpt><trkpt lat="43.352898765602774" lon="13.305584891177807"><ele>254.0</ele><time>2026-04-20T08:29:44.999Z</time></trkpt><trkpt lat="43.35280911655532" lon="13.305604610312997"><ele>254.0</ele><time>2026-04-20T08:29:45.999Z</time></trkpt><trkpt lat="43.35270489368673" lon="13.305647474539601"><ele>254.2</ele><time>2026-04-20T08:29:46.999Z</time></trkpt><trkpt lat="43.352601996209174" lon="13.30568060010576"><ele>254.39999999999998</ele><time>2026-04-20T08:29:47.999Z</time></trkpt><trkpt lat="43.35249657243328" lon="13.305704810871337"><ele>254.6</ele><time>2026-04-20T08:29:48.999Z</time></trkpt><trkpt lat="43.352385189523076" lon="13.305744237826206"><ele>254.8</ele><time>2026-04-20T08:29:49.999Z</time></trkpt><trkpt lat="43.35228653004514" lon="13.305768928753741"><ele>255.0</ele><time>2026-04-20T08:29:50.999Z</time></trkpt><trkpt lat="43.35216765789484" lon="13.30581639251245"><ele>255.0</ele><time>2026-04-20T08:29:51.999Z</time></trkpt><trkpt lat="43.35205553628629" lon="13.305854552429395"><ele>255.0</ele><time>2026-04-20T08:29:52.999Z</time></trkpt><trkpt lat="43.35194475510466" lon="13.30588884467541"><ele>255.0</ele><time>2026-04-20T08:29:53.999Z</time></trkpt><trkpt lat="43.35183553955212" lon="13.305925587566131"><ele>255.0</ele><time>2026-04-20T08:29:54.999Z</time></trkpt><trkpt lat="43.35173119472498" lon="13.305960869310626"><ele>255.0</ele><time>2026-04-20T08:29:55.999Z</time></trkpt><trkpt lat="43.3516398187959" lon="13.30599420028169"><ele>255.0</ele><time>2026-04-20T08:29:56.999Z</time></trkpt><trkpt lat="43.35155230822542" lon="13.306022394512004"><ele>255.0</ele><time>2026-04-20T08:29:57.999Z</time></trkpt><trkpt lat="43.35146025619878" lon="13.306048840554366"><ele>255.0</ele><time>2026-04-20T08:29:58.999Z</time></trkpt><trkpt lat="43.35136519691852" lon="13.306086212330541"><ele>255.0</ele><time>2026-04-20T08:29:59.999Z</time></trkpt><trkpt lat="43.35127242570962" lon="13.306117624123459"><ele>255.0</ele><time>2026-04-20T08:30:00.999Z</time></trkpt><trkpt lat="43.35118026625225" lon="13.306144103184316"><ele>255.4</ele><time>2026-04-20T08:30:01.999Z</time></trkpt><trkpt lat="43.351090002734225" lon="13.306175393865994"><ele>255.8</ele><time>2026-04-20T08:30:02.999Z</time></trkpt><trkpt lat="43.350999044199426" lon="13.30621109024124"><ele>256.2</ele><time>2026-04-20T08:30:03.999Z</time></trkpt><trkpt lat="43.35091028515048" lon="13.306234112410452"><ele>256.6</ele><time>2026-04-20T08:30:04.999Z</time></trkpt><trkpt lat="43.35081694846124" lon="13.306262422468087"><ele>257.0</ele><time>2026-04-20T08:30:05.999Z</time></trkpt><trkpt lat="43.35072854677348" lon="13.306293250769023"><ele>257.0</ele><time>2026-04-20T08:30:06.999Z</time></trkpt><trkpt lat="43.35063283101275" lon="13.306324900177481"><ele>257.0</ele><time>2026-04-20T08:30:07.999Z</time></trkpt><trkpt lat="43.350543771593216" lon="13.3063498526488"><ele>257.0</ele><time>2026-04-20T08:30:08.999Z</time></trkpt><trkpt lat="43.35045812117383" lon="13.306377202566345"><ele>257.0</ele><time>2026-04-20T08:30:09.999Z</time></trkpt><trkpt lat="43.35037309949678" lon="13.306406630017175"><ele>257.0</ele><time>2026-04-20T08:30:10.999Z</time></trkpt><trkpt lat="43.350284102466276" lon="13.306431670780233"><ele>256.8</ele><time>2026-04-20T08:30:11.999Z</time></trkpt><trkpt lat="43.35019566815307" lon="13.30645989293377"><ele>256.6</ele><time>2026-04-20T08:30:12.999Z</time></trkpt><trkpt lat="43.350107995948676" lon="13.306481351015247"><ele>256.40000000000003</ele><time>2026-04-20T08:30:13.999Z</time></trkpt><trkpt lat="43.35001776662999" lon="13.306511682254547"><ele>256.2</ele><time>2026-04-20T08:30:14.999Z</time></trkpt><trkpt lat="43.34993939978386" lon="13.306533392470781"><ele>256.0</ele><time>2026-04-20T08:30:15.999Z</time></trkpt><trkpt lat="43.34983372256691" lon="13.306555731831804"><ele>256.0</ele><time>2026-04-20T08:30:17.999Z</time></trkpt><trkpt lat="43.349768672643954" lon="13.306560592648282"><ele>255.99999999999997</ele><time>2026-04-20T08:30:20.999Z</time></trkpt><trkpt lat="43.34967327139437" lon="13.306599624755949"><ele>256.0</ele><time>2026-04-20T08:30:24.999Z</time></trkpt><trkpt lat="43.34960534085732" lon="13.306628333498677"><ele>256.0</ele><time>2026-04-20T08:30:26.999Z</time></trkpt><trkpt lat="43.349539539107035" lon="13.306637936041085"><ele>255.99999999999997</ele><time>2026-04-20T08:30:28.999Z</time></trkpt><trkpt lat="43.349471597325795" lon="13.306646622736292"><ele>256.0</ele><time>2026-04-20T08:30:30.999Z</time></trkpt><trkpt lat="43.34939915539896" lon="13.306673171041504"><ele>256.0</ele><time>2026-04-20T08:30:32.999Z</time></trkpt><trkpt lat="43.34932885812654" lon="13.306693195968494"><ele>254.99999999999997</ele><time>2026-04-20T08:30:35.999Z</time></trkpt><trkpt lat="43.3492475494148" lon="13.306719744123836"><ele>254.0</ele><time>2026-04-20T08:31:49Z</time></trkpt><trkpt lat="43.34917974016997" lon="13.306735617979278"><ele>253.0</ele><time>2026-04-20T08:31:51Z</time></trkpt><trkpt lat="43.34911579295998" lon="13.306732915499262"><ele>252.0</ele><time>2026-04-20T08:31:54.999Z</time></trkpt><trkpt lat="43.349212093713604" lon="13.306705176188688"><ele>250.99999999999997</ele><time>2026-04-20T08:32:10.999Z</time></trkpt><trkpt lat="43.34932354047436" lon="13.306673074083141"><ele>250.0</ele><time>2026-04-20T08:32:12.999Z</time></trkpt><trkpt lat="43.34938987043217" lon="13.306660966276814"><ele>250.0</ele><time>2026-04-20T08:32:13.999Z</time></trkpt><trkpt lat="43.34945621061138" lon="13.306643809336602"><ele>250.0</ele><time>2026-04-20T08:32:14.999Z</time></trkpt><trkpt lat="43.349601638160706" lon="13.306606198761845"><ele>250.0</ele><time>2026-04-20T08:32:17.999Z</time></trkpt><trkpt lat="43.34968358792635" lon="13.30659177652459"><ele>250.0</ele><time>2026-04-20T08:32:21.999Z</time></trkpt><trkpt lat="43.34974026416043" lon="13.306519854293173"><ele>250.0</ele><time>2026-04-20T08:32:24.999Z</time></trkpt><trkpt lat="43.34978433723654" lon="13.30629061237511"><ele>251.16666666666666</ele><time>2026-04-20T08:32:25.999Z</time></trkpt><trkpt lat="43.34981005862208" lon="13.306171891544052"><ele>252.33333333333331</ele><time>2026-04-20T08:32:26.999Z</time></trkpt><trkpt lat="43.34983538493684" lon="13.306062195874611"><ele>253.5</ele><time>2026-04-20T08:32:27.999Z</time></trkpt><trkpt lat="43.349860321804826" lon="13.30595767058252"><ele>254.66666666666669</ele><time>2026-04-20T08:32:28.999Z</time></trkpt><trkpt lat="43.34987539766258" lon="13.305834370963627"><ele>255.83333333333334</ele><time>2026-04-20T08:32:29.999Z</time></trkpt><trkpt lat="43.34991745662222" lon="13.305707804096425"><ele>257.0</ele><time>2026-04-20T08:32:30.999Z</time></trkpt><trkpt lat="43.34994592752036" lon="13.305580684731643"><ele>256.6</ele><time>2026-04-20T08:32:31.999Z</time></trkpt><trkpt lat="43.34997416924446" lon="13.305452207520016"><ele>256.2</ele><time>2026-04-20T08:32:32.999Z</time></trkpt><trkpt lat="43.35000364333068" lon="13.3053176144518"><ele>255.8</ele><time>2026-04-20T08:32:33.999Z</time></trkpt><trkpt lat="43.350033018040655" lon="13.3051834751819"><ele>255.4</ele><time>2026-04-20T08:32:34.999Z</time></trkpt><trkpt lat="43.35006313565189" lon="13.305045943466473"><ele>255.0</ele><time>2026-04-20T08:32:35.999Z</time></trkpt><trkpt lat="43.3500944375258" lon="13.304903003826567"><ele>255.0</ele><time>2026-04-20T08:32:36.999Z</time></trkpt><trkpt lat="43.3501286774953" lon="13.304746647411248"><ele>255.0</ele><time>2026-04-20T08:32:37.999Z</time></trkpt><trkpt lat="43.35016210801543" lon="13.304593987331968"><ele>255.0</ele><time>2026-04-20T08:32:38.999Z</time></trkpt><trkpt lat="43.350182992934116" lon="13.304422820793981"><ele>255.0</ele><time>2026-04-20T08:32:39.999Z</time></trkpt><trkpt lat="43.350236015147864" lon="13.304258730905527"><ele>254.75</ele><time>2026-04-20T08:32:40.999Z</time></trkpt><trkpt lat="43.350273179382" lon="13.304092591221606"><ele>254.5</ele><time>2026-04-20T08:32:41.999Z</time></trkpt><trkpt lat="43.35030282675138" lon="13.303947821297898"><ele>254.25</ele><time>2026-04-20T08:32:42.999Z</time></trkpt><trkpt lat="43.3503299532256" lon="13.303795625160348"><ele>254.0</ele><time>2026-04-20T08:32:43.999Z</time></trkpt><trkpt lat="43.35034444084652" lon="13.303640417798224"><ele>254.6</ele><time>2026-04-20T08:32:44.999Z</time></trkpt><trkpt lat="43.350367968367614" lon="13.303492681614452"><ele>255.2</ele><time>2026-04-20T08:32:45.999Z</time></trkpt><trkpt lat="43.350385009381824" lon="13.303337642210895"><ele>255.79999999999998</ele><time>2026-04-20T08:32:46.999Z</time></trkpt><trkpt lat="43.350399276016006" lon="13.303183768663686"><ele>256.4</ele><time>2026-04-20T08:32:47.999Z</time></trkpt><trkpt lat="43.35043449564121" lon="13.303039773063192"><ele>257.0</ele><time>2026-04-20T08:32:48.999Z</time></trkpt><trkpt lat="43.35045363559256" lon="13.302894352655509"><ele>257.2</ele><time>2026-04-20T08:32:49.999Z</time></trkpt><trkpt lat="43.35047195190778" lon="13.302755190108257"><ele>257.4</ele><time>2026-04-20T08:32:50.999Z</time></trkpt><trkpt lat="43.35049207003361" lon="13.302602337628702"><ele>257.6</ele><time>2026-04-20T08:32:51.999Z</time></trkpt><trkpt lat="43.35050938867246" lon="13.302470572634554"><ele>257.8</ele><time>2026-04-20T08:32:52.999Z</time></trkpt><trkpt lat="43.350522704785725" lon="13.302360769107885"><ele>258.0</ele><time>2026-04-20T08:32:53.999Z</time></trkpt><trkpt lat="43.35053733760538" lon="13.30224010844023"><ele>259.0</ele><time>2026-04-20T08:32:54.999Z</time></trkpt><trkpt lat="43.350552099279966" lon="13.302118385116641"><ele>260.0</ele><time>2026-04-20T08:32:55.999Z</time></trkpt><trkpt lat="43.350567451918685" lon="13.301987568142579"><ele>261.0</ele><time>2026-04-20T08:32:56.999Z</time></trkpt><trkpt lat="43.350581715191765" lon="13.30186362760939"><ele>262.0</ele><time>2026-04-20T08:32:57.999Z</time></trkpt><trkpt lat="43.350594456096054" lon="13.301752915693244"><ele>263.0</ele><time>2026-04-20T08:32:58.999Z</time></trkpt><trkpt lat="43.35060842317265" lon="13.301627157868086"><ele>263.0</ele><time>2026-04-20T08:33:00Z</time></trkpt><trkpt lat="43.350620072465865" lon="13.30152058395488"><ele>263.0</ele><time>2026-04-20T08:33:01Z</time></trkpt><trkpt lat="43.35063282627896" lon="13.301403905219132"><ele>263.0</ele><time>2026-04-20T08:33:02Z</time></trkpt><trkpt lat="43.350645070484916" lon="13.301291888683693"><ele>263.0</ele><time>2026-04-20T08:33:03Z</time></trkpt><trkpt lat="43.350658118828626" lon="13.301167992996989"><ele>263.0</ele><time>2026-04-20T08:33:04Z</time></trkpt><trkpt lat="43.35067014442032" lon="13.301053224132565"><ele>263.0</ele><time>2026-04-20T08:33:05Z</time></trkpt><trkpt lat="43.35066694314904" lon="13.300924740674645"><ele>262.8</ele><time>2026-04-20T08:33:06Z</time></trkpt><trkpt lat="43.35069549370917" lon="13.300811297589275"><ele>262.6</ele><time>2026-04-20T08:33:07Z</time></trkpt><trkpt lat="43.35070727697282" lon="13.30069884140601"><ele>262.4</ele><time>2026-04-20T08:33:08Z</time></trkpt><trkpt lat="43.350720175311906" lon="13.300575743321739"><ele>262.2</ele><time>2026-04-20T08:33:09Z</time></trkpt><trkpt lat="43.35073428814941" lon="13.300441054400146"><ele>262.0</ele><time>2026-04-20T08:33:10Z</time></trkpt><trkpt lat="43.350747748495806" lon="13.300310445238619"><ele>262.3333333333333</ele><time>2026-04-20T08:33:11Z</time></trkpt><trkpt lat="43.35075857221278" lon="13.30019210593794"><ele>262.66666666666663</ele><time>2026-04-20T08:33:12Z</time></trkpt><trkpt lat="43.350769473500506" lon="13.300070139492101"><ele>263.0</ele><time>2026-04-20T08:33:13Z</time></trkpt><trkpt lat="43.35077960764423" lon="13.299951816552054"><ele>263.3333333333333</ele><time>2026-04-20T08:33:14Z</time></trkpt><trkpt lat="43.35077333210479" lon="13.299826617747001"><ele>263.6666666666667</ele><time>2026-04-20T08:33:15Z</time></trkpt><trkpt lat="43.35079779381708" lon="13.299711182045282"><ele>264.0</ele><time>2026-04-20T08:33:16Z</time></trkpt><trkpt lat="43.35080449269214" lon="13.299578087221509"><ele>264.4</ele><time>2026-04-20T08:33:17Z</time></trkpt><trkpt lat="43.35081493659791" lon="13.299446024947384"><ele>264.79999999999995</ele><time>2026-04-20T08:33:18Z</time></trkpt><trkpt lat="43.3508187698127" lon="13.299322134488348"><ele>265.20000000000005</ele><time>2026-04-20T08:33:19Z</time></trkpt><trkpt lat="43.35082684330586" lon="13.299186642598693"><ele>265.6</ele><time>2026-04-20T08:33:20Z</time></trkpt><trkpt lat="43.35083401466669" lon="13.29904430090704"><ele>266.0</ele><time>2026-04-20T08:33:21Z</time></trkpt><trkpt lat="43.35083568374973" lon="13.298876617235532"><ele>266.2</ele><time>2026-04-20T08:33:22Z</time></trkpt><trkpt lat="43.35084355272823" lon="13.298719349419512"><ele>266.40000000000003</ele><time>2026-04-20T08:33:23Z</time></trkpt><trkpt lat="43.35085795906057" lon="13.298567721768222"><ele>266.6</ele><time>2026-04-20T08:33:24Z</time></trkpt><trkpt lat="43.350858551028224" lon="13.298433076018545"><ele>266.8</ele><time>2026-04-20T08:33:25Z</time></trkpt><trkpt lat="43.35085757292973" lon="13.298305119403498"><ele>267.0</ele><time>2026-04-20T08:33:26Z</time></trkpt><trkpt lat="43.35085484920751" lon="13.298178446430473"><ele>267.0</ele><time>2026-04-20T08:33:27Z</time></trkpt><trkpt lat="43.350850910282865" lon="13.298071290897372"><ele>267.0</ele><time>2026-04-20T08:33:28Z</time></trkpt><trkpt lat="43.350843412143945" lon="13.297958545159021"><ele>267.0</ele><time>2026-04-20T08:33:29Z</time></trkpt><trkpt lat="43.35083240471662" lon="13.29784030237891"><ele>267.0</ele><time>2026-04-20T08:33:30Z</time></trkpt><trkpt lat="43.350804874579254" lon="13.297711365803329"><ele>267.0</ele><time>2026-04-20T08:33:31Z</time></trkpt><trkpt lat="43.35078463374677" lon="13.297584945040043"><ele>267.0</ele><time>2026-04-20T08:33:32Z</time></trkpt><trkpt lat="43.35076638792903" lon="13.29745481854795"><ele>267.0</ele><time>2026-04-20T08:33:33Z</time></trkpt><trkpt lat="43.3507369986145" lon="13.297331386894543"><ele>267.0</ele><time>2026-04-20T08:33:34Z</time></trkpt><trkpt lat="43.35070870765246" lon="13.297222608344955"><ele>267.0</ele><time>2026-04-20T08:33:35Z</time></trkpt><trkpt lat="43.350681753189285" lon="13.297118968699282"><ele>267.0</ele><time>2026-04-20T08:33:36Z</time></trkpt><trkpt lat="43.350655669402364" lon="13.297018676947424"><ele>267.0</ele><time>2026-04-20T08:33:37Z</time></trkpt><trkpt lat="43.35063047593864" lon="13.296918499856039"><ele>267.0</ele><time>2026-04-20T08:33:38Z</time></trkpt><trkpt lat="43.35060813951967" lon="13.296829154234668"><ele>267.0</ele><time>2026-04-20T08:33:39Z</time></trkpt><trkpt lat="43.350567830774125" lon="13.296735646592234"><ele>267.0</ele><time>2026-04-20T08:33:40Z</time></trkpt><trkpt lat="43.350550065141505" lon="13.296625002159026"><ele>267.0</ele><time>2026-04-20T08:33:41Z</time></trkpt><trkpt lat="43.35051633034042" lon="13.296511666449971"><ele>267.0</ele><time>2026-04-20T08:33:42Z</time></trkpt><trkpt lat="43.350481958354806" lon="13.296397916795605"><ele>267.0</ele><time>2026-04-20T08:33:43Z</time></trkpt><trkpt lat="43.35044837166733" lon="13.296302801881225"><ele>267.0</ele><time>2026-04-20T08:33:44Z</time></trkpt><trkpt lat="43.3504132075718" lon="13.296203661430322"><ele>267.6666666666667</ele><time>2026-04-20T08:33:45Z</time></trkpt><trkpt lat="43.3503770582337" lon="13.296097448415178"><ele>268.3333333333333</ele><time>2026-04-20T08:33:46Z</time></trkpt><trkpt lat="43.350338162080206" lon="13.295984363028166"><ele>269.0</ele><time>2026-04-20T08:33:47Z</time></trkpt><trkpt lat="43.35029529294007" lon="13.295876653879699"><ele>269.66666666666663</ele><time>2026-04-20T08:33:48Z</time></trkpt><trkpt lat="43.350253985834854" lon="13.295769389388992"><ele>270.3333333333333</ele><time>2026-04-20T08:33:49Z</time></trkpt><trkpt lat="43.350215658072116" lon="13.295652929842719"><ele>271.0</ele><time>2026-04-20T08:33:50Z</time></trkpt><trkpt lat="43.35020015995828" lon="13.295528234488675"><ele>271.40000000000003</ele><time>2026-04-20T08:33:51Z</time></trkpt><trkpt lat="43.350178845893105" lon="13.295410521416208"><ele>271.8</ele><time>2026-04-20T08:33:52Z</time></trkpt><trkpt lat="43.35017037449984" lon="13.295294205649778"><ele>272.20000000000005</ele><time>2026-04-20T08:33:53Z</time></trkpt><trkpt lat="43.35015608901114" lon="13.295162479520082"><ele>272.6</ele><time>2026-04-20T08:33:54Z</time></trkpt><trkpt lat="43.350172502939444" lon="13.2950252169025"><ele>273.0</ele><time>2026-04-20T08:33:55Z</time></trkpt><trkpt lat="43.35019606663786" lon="13.294882404421456"><ele>272.6</ele><time>2026-04-20T08:33:56Z</time></trkpt><trkpt lat="43.35021382753031" lon="13.29474521112266"><ele>272.20000000000005</ele><time>2026-04-20T08:33:57Z</time></trkpt><trkpt lat="43.35023129848293" lon="13.294613300698929"><ele>271.8</ele><time>2026-04-20T08:33:58Z</time></trkpt><trkpt lat="43.350234805535955" lon="13.294464199203945"><ele>271.40000000000003</ele><time>2026-04-20T08:33:59Z</time></trkpt><trkpt lat="43.35024614946388" lon="13.294302025912433"><ele>271.0</ele><time>2026-04-20T08:34:00Z</time></trkpt><trkpt lat="43.35026337024228" lon="13.294146899219326"><ele>271.0</ele><time>2026-04-20T08:34:01Z</time></trkpt><trkpt lat="43.350267551918215" lon="13.29400951484804"><ele>271.0</ele><time>2026-04-20T08:34:02Z</time></trkpt><trkpt lat="43.35027728101239" lon="13.29387874817751"><ele>271.0</ele><time>2026-04-20T08:34:03Z</time></trkpt><trkpt lat="43.350294818503045" lon="13.293735474448757"><ele>271.0</ele><time>2026-04-20T08:34:04Z</time></trkpt><trkpt lat="43.35031967775018" lon="13.29359886355231"><ele>271.0</ele><time>2026-04-20T08:34:05Z</time></trkpt><trkpt lat="43.35032691195081" lon="13.29347964520592"><ele>271.2</ele><time>2026-04-20T08:34:06Z</time></trkpt><trkpt lat="43.350336511093815" lon="13.293357499117993"><ele>271.40000000000003</ele><time>2026-04-20T08:34:06.999Z</time></trkpt><trkpt lat="43.3503513156271" lon="13.293221592031971"><ele>271.6</ele><time>2026-04-20T08:34:07.999Z</time></trkpt><trkpt lat="43.350361930056266" lon="13.293094947497062"><ele>271.8</ele><time>2026-04-20T08:34:08.999Z</time></trkpt><trkpt lat="43.350380934823974" lon="13.292973165039893"><ele>272.0</ele><time>2026-04-20T08:34:09.999Z</time></trkpt><trkpt lat="43.35038903009426" lon="13.292852387677579"><ele>272.6</ele><time>2026-04-20T08:34:10.999Z</time></trkpt><trkpt lat="43.35040591735885" lon="13.29271791489346"><ele>273.2</ele><time>2026-04-20T08:34:11.999Z</time></trkpt><trkpt lat="43.35041831084543" lon="13.292575121566133"><ele>273.8</ele><time>2026-04-20T08:34:12.999Z</time></trkpt><trkpt lat="43.35043153601076" lon="13.292431231577758"><ele>274.4</ele><time>2026-04-20T08:34:13.999Z</time></trkpt><trkpt lat="43.35044794177497" lon="13.292298287928931"><ele>275.0</ele><time>2026-04-20T08:34:14.999Z</time></trkpt><trkpt lat="43.35046073267449" lon="13.292183706937697"><ele>275.0</ele><time>2026-04-20T08:34:15.999Z</time></trkpt><trkpt lat="43.35046397712876" lon="13.292063854596474"><ele>275.0</ele><time>2026-04-20T08:34:16.999Z</time></trkpt><trkpt lat="43.350482117286504" lon="13.291941688726894"><ele>275.0</ele><time>2026-04-20T08:34:17.999Z</time></trkpt><trkpt lat="43.35048996992793" lon="13.29181075121967"><ele>275.0</ele><time>2026-04-20T08:34:18.999Z</time></trkpt><trkpt lat="43.35049882360478" lon="13.291676694756772"><ele>275.0</ele><time>2026-04-20T08:34:19.999Z</time></trkpt><trkpt lat="43.350512062729045" lon="13.291539982313692"><ele>275.0</ele><time>2026-04-20T08:34:20.999Z</time></trkpt><trkpt lat="43.350520941079594" lon="13.291422665537132"><ele>275.0</ele><time>2026-04-20T08:34:21.999Z</time></trkpt><trkpt lat="43.350525500772264" lon="13.291317912897654"><ele>275.0</ele><time>2026-04-20T08:34:22.999Z</time></trkpt><trkpt lat="43.350539670859455" lon="13.291198634005127"><ele>275.0</ele><time>2026-04-20T08:34:23.999Z</time></trkpt><trkpt lat="43.35054917617796" lon="13.291079975241637"><ele>275.0</ele><time>2026-04-20T08:34:24.999Z</time></trkpt><trkpt lat="43.35056189265784" lon="13.290953386293932"><ele>275.0</ele><time>2026-04-20T08:34:25.999Z</time></trkpt><trkpt lat="43.350566214097675" lon="13.290827490275857"><ele>275.0</ele><time>2026-04-20T08:34:26.999Z</time></trkpt><trkpt lat="43.35058193867214" lon="13.290699161059377"><ele>275.0</ele><time>2026-04-20T08:34:27.999Z</time></trkpt><trkpt lat="43.35058586851244" lon="13.290570024831409"><ele>275.0</ele><time>2026-04-20T08:34:28.999Z</time></trkpt><trkpt lat="43.35060932712856" lon="13.290449351541996"><ele>275.0</ele><time>2026-04-20T08:34:29.999Z</time></trkpt><trkpt lat="43.35061174852482" lon="13.290324729199549"><ele>275.0</ele><time>2026-04-20T08:34:30.999Z</time></trkpt><trkpt lat="43.350611012472534" lon="13.290217591137068"><ele>275.0</ele><time>2026-04-20T08:34:31.999Z</time></trkpt><trkpt lat="43.35063218505701" lon="13.290130034843136"><ele>275.1666666666667</ele><time>2026-04-20T08:34:32.999Z</time></trkpt><trkpt lat="43.35062277543339" lon="13.29004183852722"><ele>275.33333333333337</ele><time>2026-04-20T08:34:33.999Z</time></trkpt><trkpt lat="43.350629337203394" lon="13.289871268709732"><ele>275.5</ele><time>2026-04-20T08:34:35.999Z</time></trkpt><trkpt lat="43.350624066282265" lon="13.28978039388044"><ele>275.6666666666667</ele><time>2026-04-20T08:34:36.999Z</time></trkpt><trkpt lat="43.35059103753472" lon="13.2896998490766"><ele>275.8333333333333</ele><time>2026-04-20T08:34:37.999Z</time></trkpt><trkpt lat="43.35052749091624" lon="13.289553818287796"><ele>276.0</ele><time>2026-04-20T08:34:39.999Z</time></trkpt><trkpt lat="43.35049101543578" lon="13.289465208966117"><ele>276.6</ele><time>2026-04-20T08:34:40.999Z</time></trkpt><trkpt lat="43.35044411113179" lon="13.28934032138989"><ele>277.20000000000005</ele><time>2026-04-20T08:34:41.999Z</time></trkpt><trkpt lat="43.350394598950714" lon="13.289208147205255"><ele>277.79999999999995</ele><time>2026-04-20T08:34:42.999Z</time></trkpt><trkpt lat="43.35034681907048" lon="13.289080597353777"><ele>278.4</ele><time>2026-04-20T08:34:43.999Z</time></trkpt><trkpt lat="43.35030441647004" lon="13.288967402320209"><ele>279.0</ele><time>2026-04-20T08:34:44.999Z</time></trkpt><trkpt lat="43.3502613170795" lon="13.288852347121413"><ele>279.1666666666667</ele><time>2026-04-20T08:34:45.999Z</time></trkpt><trkpt lat="43.35022242317367" lon="13.288748518836506"><ele>279.3333333333333</ele><time>2026-04-20T08:34:46.999Z</time></trkpt><trkpt lat="43.350183612473145" lon="13.28864491239741"><ele>279.5</ele><time>2026-04-20T08:34:47.999Z</time></trkpt><trkpt lat="43.3501427905381" lon="13.288535937005879"><ele>279.66666666666663</ele><time>2026-04-20T08:34:48.999Z</time></trkpt><trkpt lat="43.35010426524689" lon="13.288433092406398"><ele>279.8333333333333</ele><time>2026-04-20T08:34:49.999Z</time></trkpt><trkpt lat="43.350066642366464" lon="13.2883337178743"><ele>280.0</ele><time>2026-04-20T08:34:50.999Z</time></trkpt><trkpt lat="43.35002941782168" lon="13.288235354335336"><ele>280.0</ele><time>2026-04-20T08:34:51.999Z</time></trkpt><trkpt lat="43.34999270705723" lon="13.288138348431817"><ele>280.0</ele><time>2026-04-20T08:34:52.999Z</time></trkpt><trkpt lat="43.349953073370145" lon="13.28803361890117"><ele>280.0</ele><time>2026-04-20T08:34:53.999Z</time></trkpt><trkpt lat="43.349914452781924" lon="13.287931566438543"><ele>280.0</ele><time>2026-04-20T08:34:54.999Z</time></trkpt><trkpt lat="43.349875165926036" lon="13.287827753314023"><ele>280.0</ele><time>2026-04-20T08:34:55.999Z</time></trkpt><trkpt lat="43.349837348567945" lon="13.287727823256738"><ele>280.0</ele><time>2026-04-20T08:34:56.999Z</time></trkpt><trkpt lat="43.34980303085929" lon="13.287637140828647"><ele>279.8333333333333</ele><time>2026-04-20T08:34:57.999Z</time></trkpt><trkpt lat="43.34975973297732" lon="13.28752272898741"><ele>279.66666666666663</ele><time>2026-04-20T08:34:58.999Z</time></trkpt><trkpt lat="43.3497235719817" lon="13.287427175667966"><ele>279.5</ele><time>2026-04-20T08:34:59.999Z</time></trkpt><trkpt lat="43.34968529022725" lon="13.28732601782389"><ele>279.3333333333333</ele><time>2026-04-20T08:35:00.999Z</time></trkpt><trkpt lat="43.34964742169368" lon="13.2872246141577"><ele>279.1666666666667</ele><time>2026-04-20T08:35:01.999Z</time></trkpt><trkpt lat="43.34960815562867" lon="13.28711979929753"><ele>279.0</ele><time>2026-04-20T08:35:02.999Z</time></trkpt><trkpt lat="43.349573074203875" lon="13.287029360841954"><ele>280.0</ele><time>2026-04-20T08:35:03.999Z</time></trkpt><trkpt lat="43.34954304668678" lon="13.286953137118187"><ele>281.0</ele><time>2026-04-20T08:35:04.999Z</time></trkpt><trkpt lat="43.34951261137729" lon="13.28687587805388"><ele>282.0</ele><time>2026-04-20T08:35:06Z</time></trkpt><trkpt lat="43.34946658456309" lon="13.286766805593931"><ele>283.0</ele><time>2026-04-20T08:35:08Z</time></trkpt><trkpt lat="43.349427854318016" lon="13.286674646103597"><ele>284.0</ele><time>2026-04-20T08:35:10Z</time></trkpt><trkpt lat="43.34978195672288" lon="13.285913550957517"><ele>284.1666666666667</ele><time>2026-04-20T08:36:16.999Z</time></trkpt><trkpt lat="43.34968209549464" lon="13.285886225208813"><ele>284.33333333333337</ele><time>2026-04-20T08:36:20.999Z</time></trkpt><trkpt lat="43.34961952460285" lon="13.285911569133942"><ele>284.5</ele><time>2026-04-20T08:36:21.999Z</time></trkpt><trkpt lat="43.34953823086676" lon="13.285962650541169"><ele>284.6666666666667</ele><time>2026-04-20T08:36:22.999Z</time></trkpt><trkpt lat="43.34946325139665" lon="13.28601539060509"><ele>284.8333333333333</ele><time>2026-04-20T08:36:23.999Z</time></trkpt><trkpt lat="43.3493864944861" lon="13.286073429300123"><ele>285.0</ele><time>2026-04-20T08:36:24.999Z</time></trkpt><trkpt lat="43.34932972040137" lon="13.286113081883608"><ele>285.0</ele><time>2026-04-20T08:36:25.999Z</time></trkpt><trkpt lat="43.349217963312704" lon="13.286178809759944"><ele>285.0</ele><time>2026-04-20T08:36:27.999Z</time></trkpt><trkpt lat="43.34914985360378" lon="13.286221368920092"><ele>285.0</ele><time>2026-04-20T08:36:28.999Z</time></trkpt><trkpt lat="43.349073170066006" lon="13.286265261057839"><ele>285.0</ele><time>2026-04-20T08:36:29.999Z</time></trkpt><trkpt lat="43.34899604542259" lon="13.286310366305969"><ele>285.0</ele><time>2026-04-20T08:36:30.999Z</time></trkpt><trkpt lat="43.348914954445895" lon="13.286353021215513"><ele>285.2</ele><time>2026-04-20T08:36:31.999Z</time></trkpt><trkpt lat="43.34883793722482" lon="13.28640871985745"><ele>285.4</ele><time>2026-04-20T08:36:32.999Z</time></trkpt><trkpt lat="43.34875490683751" lon="13.286468233409227"><ele>285.6</ele><time>2026-04-20T08:36:33.999Z</time></trkpt><trkpt lat="43.34867659984359" lon="13.286537357539109"><ele>285.8</ele><time>2026-04-20T08:36:34.999Z</time></trkpt><trkpt lat="43.34860212293004" lon="13.286618904677939"><ele>286.0</ele><time>2026-04-20T08:36:35.999Z</time></trkpt><trkpt lat="43.34852342843108" lon="13.286690439124621"><ele>286.16666666666663</ele><time>2026-04-20T08:36:36.999Z</time></trkpt><trkpt lat="43.348444859919645" lon="13.286734176651908"><ele>286.3333333333333</ele><time>2026-04-20T08:36:37.999Z</time></trkpt><trkpt lat="43.34836392664543" lon="13.286768809612397"><ele>286.5</ele><time>2026-04-20T08:36:38.999Z</time></trkpt><trkpt lat="43.34828294480317" lon="13.286799660048667"><ele>286.6666666666667</ele><time>2026-04-20T08:36:39.999Z</time></trkpt><trkpt lat="43.348203141176114" lon="13.286802146885892"><ele>286.83333333333337</ele><time>2026-04-20T08:36:40.999Z</time></trkpt><trkpt lat="43.348124421536276" lon="13.286754000360075"><ele>287.0</ele><time>2026-04-20T08:36:41.999Z</time></trkpt><trkpt lat="43.34804312821231" lon="13.286711868399316"><ele>287.1666666666667</ele><time>2026-04-20T08:36:42.999Z</time></trkpt><trkpt lat="43.3479681083885" lon="13.286682444822432"><ele>287.33333333333337</ele><time>2026-04-20T08:36:43.999Z</time></trkpt><trkpt lat="43.3478876961251" lon="13.286664313826476"><ele>287.5</ele><time>2026-04-20T08:36:44.999Z</time></trkpt><trkpt lat="43.347794391545236" lon="13.286695480413972"><ele>287.6666666666667</ele><time>2026-04-20T08:36:45.999Z</time></trkpt><trkpt lat="43.347702496552884" lon="13.286728315902026"><ele>287.8333333333333</ele><time>2026-04-20T08:36:46.999Z</time></trkpt><trkpt lat="43.34762026046151" lon="13.286767054258892"><ele>288.0</ele><time>2026-04-20T08:36:47.999Z</time></trkpt><trkpt lat="43.34754414257547" lon="13.286777469443237"><ele>288.0</ele><time>2026-04-20T08:36:48.999Z</time></trkpt><trkpt lat="43.34746918375075" lon="13.286807174995431"><ele>288.0</ele><time>2026-04-20T08:36:49.999Z</time></trkpt><trkpt lat="43.34739301793528" lon="13.286850146712942"><ele>288.0</ele><time>2026-04-20T08:36:50.999Z</time></trkpt><trkpt lat="43.34730922427717" lon="13.286878689290345"><ele>288.0</ele><time>2026-04-20T08:36:51.999Z</time></trkpt><trkpt lat="43.34722965630465" lon="13.286915484801538"><ele>288.0</ele><time>2026-04-20T08:36:52.999Z</time></trkpt><trkpt lat="43.34715500882887" lon="13.2869528249244"><ele>288.0</ele><time>2026-04-20T08:36:53.999Z</time></trkpt><trkpt lat="43.347077651355185" lon="13.286999667557863"><ele>287.6666666666667</ele><time>2026-04-20T08:36:54.999Z</time></trkpt><trkpt lat="43.347001516614185" lon="13.287035793350057"><ele>287.3333333333333</ele><time>2026-04-20T08:36:55.999Z</time></trkpt><trkpt lat="43.34692605280478" lon="13.287069756243978"><ele>287.0</ele><time>2026-04-20T08:36:56.999Z</time></trkpt><trkpt lat="43.346859065406505" lon="13.287087145944756"><ele>286.66666666666663</ele><time>2026-04-20T08:36:57.999Z</time></trkpt><trkpt lat="43.34679528371766" lon="13.28710499808273"><ele>286.3333333333333</ele><time>2026-04-20T08:36:58.999Z</time></trkpt><trkpt lat="43.346687006610146" lon="13.28713768563434"><ele>286.0</ele><time>2026-04-20T08:37:00.999Z</time></trkpt><trkpt lat="43.34658396611214" lon="13.287169106491206"><ele>286.0</ele><time>2026-04-20T08:37:02.999Z</time></trkpt><trkpt lat="43.346515198041146" lon="13.287180794002643"><ele>286.0</ele><time>2026-04-20T08:37:04.999Z</time></trkpt><trkpt lat="43.34644705691919" lon="13.28717907190562"><ele>286.0</ele><time>2026-04-20T08:37:17Z</time></trkpt><trkpt lat="43.346388622174906" lon="13.287216581343472"><ele>286.0</ele><time>2026-04-20T08:37:19Z</time></trkpt><trkpt lat="43.34636195429011" lon="13.287303861279756"><ele>286.0</ele><time>2026-04-20T08:37:21Z</time></trkpt><trkpt lat="43.346351154587026" lon="13.287446272120112"><ele>286.0</ele><time>2026-04-20T08:37:23Z</time></trkpt><trkpt lat="43.34631598056571" lon="13.287597508791084"><ele>285.99999999999994</ele><time>2026-04-20T08:37:25Z</time></trkpt><trkpt lat="43.346310708261164" lon="13.287686117854077"><ele>286.0</ele><time>2026-04-20T08:37:26Z</time></trkpt><trkpt lat="43.34631691825602" lon="13.287781415029317"><ele>286.0</ele><time>2026-04-20T08:37:27Z</time></trkpt><trkpt lat="43.34632946996996" lon="13.287875822274675"><ele>286.0</ele><time>2026-04-20T08:37:28Z</time></trkpt><trkpt lat="43.34634901889611" lon="13.287973455285982"><ele>286.0</ele><time>2026-04-20T08:37:29Z</time></trkpt><trkpt lat="43.346365691272496" lon="13.288076168560275"><ele>285.99999999999994</ele><time>2026-04-20T08:37:30Z</time></trkpt><trkpt lat="43.34638131050959" lon="13.288175604139424"><ele>286.0</ele><time>2026-04-20T08:37:31Z</time></trkpt><trkpt lat="43.346399373463015" lon="13.288268821224655"><ele>286.0</ele><time>2026-04-20T08:37:32Z</time></trkpt><trkpt lat="43.34641371112332" lon="13.288360261915626"><ele>286.0</ele><time>2026-04-20T08:37:33Z</time></trkpt><trkpt lat="43.34642912848221" lon="13.288453441958898"><ele>286.0</ele><time>2026-04-20T08:37:34Z</time></trkpt><trkpt lat="43.34644840752799" lon="13.288549118401818"><ele>286.0</ele><time>2026-04-20T08:37:35Z</time></trkpt><trkpt lat="43.346471313508225" lon="13.288651882047795"><ele>286.0</ele><time>2026-04-20T08:37:36Z</time></trkpt><trkpt lat="43.346490470750744" lon="13.288763455361378"><ele>286.0</ele><time>2026-04-20T08:37:37Z</time></trkpt><trkpt lat="43.34651107930218" lon="13.288873100510042"><ele>285.66666666666663</ele><time>2026-04-20T08:37:38Z</time></trkpt><trkpt lat="43.34654214791961" lon="13.288990204816688"><ele>285.3333333333333</ele><time>2026-04-20T08:37:39Z</time></trkpt><trkpt lat="43.34656932577902" lon="13.289101908892272"><ele>285.0</ele><time>2026-04-20T08:37:40Z</time></trkpt><trkpt lat="43.3465944581965" lon="13.289202958995217"><ele>284.6666666666667</ele><time>2026-04-20T08:37:41Z</time></trkpt><trkpt lat="43.346616194015795" lon="13.289295695586537"><ele>284.33333333333337</ele><time>2026-04-20T08:37:42Z</time></trkpt><trkpt lat="43.346638244244026" lon="13.289386971779445"><ele>284.0</ele><time>2026-04-20T08:37:43Z</time></trkpt><trkpt lat="43.346662635221584" lon="13.289483914605686"><ele>284.0</ele><time>2026-04-20T08:37:44Z</time></trkpt><trkpt lat="43.346691583904246" lon="13.289584153102922"><ele>284.0</ele><time>2026-04-20T08:37:45Z</time></trkpt><trkpt lat="43.34671563844774" lon="13.289690876167985"><ele>284.0</ele><time>2026-04-20T08:37:46Z</time></trkpt><trkpt lat="43.34674756331418" lon="13.289796034216856"><ele>284.0</ele><time>2026-04-20T08:37:47Z</time></trkpt><trkpt lat="43.34677320212394" lon="13.289909674642125"><ele>284.0</ele><time>2026-04-20T08:37:48Z</time></trkpt><trkpt lat="43.346795509662655" lon="13.29001382568227"><ele>284.0</ele><time>2026-04-20T08:37:49Z</time></trkpt><trkpt lat="43.346825344693954" lon="13.290105984445965"><ele>283.83333333333337</ele><time>2026-04-20T08:37:50Z</time></trkpt><trkpt lat="43.34685049393548" lon="13.290194568852806"><ele>283.6666666666667</ele><time>2026-04-20T08:37:51Z</time></trkpt><trkpt lat="43.34689764859147" lon="13.290340131821818"><ele>283.5</ele><time>2026-04-20T08:37:53Z</time></trkpt><trkpt lat="43.34693228712968" lon="13.29045308637494"><ele>283.3333333333333</ele><time>2026-04-20T08:37:55Z</time></trkpt><trkpt lat="43.34697153377259" lon="13.29054839896678"><ele>283.16666666666663</ele><time>2026-04-20T08:37:58Z</time></trkpt><trkpt lat="43.34701241385586" lon="13.290645737479055"><ele>283.0</ele><time>2026-04-20T08:38:00Z</time></trkpt><trkpt lat="43.347045488606554" lon="13.290724622599914"><ele>283.0</ele><time>2026-04-20T08:38:01Z</time></trkpt><trkpt lat="43.347082368894085" lon="13.290804480697712"><ele>283.0</ele><time>2026-04-20T08:38:02Z</time></trkpt><trkpt lat="43.34711819868102" lon="13.290882443017306"><ele>283.0</ele><time>2026-04-20T08:38:03Z</time></trkpt><trkpt lat="43.34715971282731" lon="13.290953295895212"><ele>283.0</ele><time>2026-04-20T08:38:04Z</time></trkpt><trkpt lat="43.34720260432231" lon="13.291019164177722"><ele>283.0</ele><time>2026-04-20T08:38:05Z</time></trkpt><trkpt lat="43.3472515867146" lon="13.291079366598874"><ele>283.0</ele><time>2026-04-20T08:38:06Z</time></trkpt><trkpt lat="43.34730417869771" lon="13.291139732321543"><ele>283.0</ele><time>2026-04-20T08:38:07Z</time></trkpt><trkpt lat="43.34738926448511" lon="13.291230655025492"><ele>282.8333333333333</ele><time>2026-04-20T08:38:08.999Z</time></trkpt><trkpt lat="43.34748249914079" lon="13.291273495229015"><ele>282.66666666666663</ele><time>2026-04-20T08:38:09.999Z</time></trkpt><trkpt lat="43.34754704070375" lon="13.291332919352339"><ele>282.5</ele><time>2026-04-20T08:38:10.999Z</time></trkpt><trkpt lat="43.347595601190164" lon="13.29140031132179"><ele>282.3333333333333</ele><time>2026-04-20T08:38:11.999Z</time></trkpt><trkpt lat="43.3476496846264" lon="13.291456950095776"><ele>282.1666666666667</ele><time>2026-04-20T08:38:12.999Z</time></trkpt><trkpt lat="43.34775111934402" lon="13.29156391270528"><ele>282.0</ele><time>2026-04-20T08:38:14.999Z</time></trkpt><trkpt lat="43.34784593347247" lon="13.291673711007354"><ele>281.8</ele><time>2026-04-20T08:38:16.999Z</time></trkpt><trkpt lat="43.347929545568164" lon="13.291772469906391"><ele>281.6</ele><time>2026-04-20T08:38:18.999Z</time></trkpt><trkpt lat="43.348015021750484" lon="13.29186924862429"><ele>281.40000000000003</ele><time>2026-04-20T08:38:20.999Z</time></trkpt><trkpt lat="43.348076621704124" lon="13.29194628279128"><ele>281.2</ele><time>2026-04-20T08:38:22.999Z</time></trkpt><trkpt lat="43.34811826397672" lon="13.292046455683963"><ele>281.0</ele><time>2026-04-20T08:38:25.999Z</time></trkpt><trkpt lat="43.34812818979694" lon="13.292188679814473"><ele>280.28571428571433</ele><time>2026-04-20T08:38:27.999Z</time></trkpt><trkpt lat="43.348147190003324" lon="13.292272500899852"><ele>279.57142857142856</ele><time>2026-04-20T08:38:28.999Z</time></trkpt><trkpt lat="43.34816243895737" lon="13.292377992106834"><ele>278.8571428571429</ele><time>2026-04-20T08:38:29.999Z</time></trkpt><trkpt lat="43.34817603057293" lon="13.29246573166208"><ele>278.14285714285717</ele><time>2026-04-20T08:38:30.999Z</time></trkpt><trkpt lat="43.34818689622976" lon="13.292557639125192"><ele>277.42857142857144</ele><time>2026-04-20T08:38:31.999Z</time></trkpt><trkpt lat="43.34819629778757" lon="13.292647931963943"><ele>276.7142857142857</ele><time>2026-04-20T08:38:32.999Z</time></trkpt><trkpt lat="43.348210260877146" lon="13.29273908184891"><ele>276.0</ele><time>2026-04-20T08:38:33.999Z</time></trkpt><trkpt lat="43.3482403816058" lon="13.29288786992867"><ele>276.0</ele><time>2026-04-20T08:38:35.999Z</time></trkpt><trkpt lat="43.34827336200469" lon="13.293020099897847"><ele>276.0</ele><time>2026-04-20T08:38:37.999Z</time></trkpt><trkpt lat="43.348315689659124" lon="13.293139700093766"><ele>276.0</ele><time>2026-04-20T08:38:39.999Z</time></trkpt><trkpt lat="43.348367270246996" lon="13.293272568483875"><ele>276.0</ele><time>2026-04-20T08:38:41.999Z</time></trkpt><trkpt lat="43.348374486204136" lon="13.293359854269921"><ele>276.0</ele><time>2026-04-20T08:38:42.999Z</time></trkpt><trkpt lat="43.3483981718952" lon="13.293511036780925"><ele>276.0</ele><time>2026-04-20T08:38:44.999Z</time></trkpt><trkpt lat="43.34842786866725" lon="13.293594887666421"><ele>276.0</ele><time>2026-04-20T08:38:45.999Z</time></trkpt><trkpt lat="43.34846898794931" lon="13.293741165751566"><ele>276.0</ele><time>2026-04-20T08:38:47.999Z</time></trkpt><trkpt lat="43.34849799693477" lon="13.293883604782316"><ele>276.0</ele><time>2026-04-20T08:38:49.999Z</time></trkpt><trkpt lat="43.34853525986425" lon="13.294019080356588"><ele>276.0</ele><time>2026-04-20T08:38:51.999Z</time></trkpt><trkpt lat="43.34856891617372" lon="13.2941680044283"><ele>275.6666666666667</ele><time>2026-04-20T08:38:53.999Z</time></trkpt><trkpt lat="43.348609542634094" lon="13.294295728912504"><ele>275.3333333333333</ele><time>2026-04-20T08:38:55.999Z</time></trkpt><trkpt lat="43.348649249224394" lon="13.294429107602483"><ele>275.0</ele><time>2026-04-20T08:38:57.999Z</time></trkpt><trkpt lat="43.348692847873295" lon="13.294541485440604"><ele>274.66666666666663</ele><time>2026-04-20T08:38:59.999Z</time></trkpt><trkpt lat="43.34873534133722" lon="13.29461162536429"><ele>274.3333333333333</ele><time>2026-04-20T08:39:01.999Z</time></trkpt><trkpt lat="43.34875317657523" lon="13.294710569151796"><ele>274.0</ele><time>2026-04-20T08:39:04.999Z</time></trkpt><trkpt lat="43.348712767862345" lon="13.294836662426604"><ele>274.0</ele><time>2026-04-20T08:39:07.999Z</time></trkpt><trkpt lat="43.34869470543242" lon="13.294959291501149"><ele>274.0</ele><time>2026-04-20T08:39:09.999Z</time></trkpt><trkpt lat="43.348693384068575" lon="13.295071463224591"><ele>274.0</ele><time>2026-04-20T08:39:11.999Z</time></trkpt><trkpt lat="43.348688974229184" lon="13.295202799075435"><ele>274.0</ele><time>2026-04-20T08:39:13.999Z</time></trkpt><trkpt lat="43.348690840867754" lon="13.295336015851726"><ele>274.0</ele><time>2026-04-20T08:39:15.999Z</time></trkpt><trkpt lat="43.348692325268" lon="13.29547361416794"><ele>273.8</ele><time>2026-04-20T08:39:18Z</time></trkpt><trkpt lat="43.348696019060924" lon="13.29565169220072"><ele>273.59999999999997</ele><time>2026-04-20T08:39:20Z</time></trkpt><trkpt lat="43.34870335079043" lon="13.295795945592541"><ele>273.4</ele><time>2026-04-20T08:39:22Z</time></trkpt><trkpt lat="43.34871097237005" lon="13.295907572016462"><ele>273.2</ele><time>2026-04-20T08:39:24Z</time></trkpt><trkpt lat="43.34871063683664" lon="13.296003420638682"><ele>273.0</ele><time>2026-04-20T08:39:26Z</time></trkpt><trkpt lat="43.34872417863587" lon="13.296089090307309"><ele>273.0</ele><time>2026-04-20T08:41:28Z</time></trkpt><trkpt lat="43.34882275342067" lon="13.296127361758545"><ele>273.0</ele><time>2026-04-20T08:41:31Z</time></trkpt><trkpt lat="43.348959806060336" lon="13.296153104612202"><ele>273.0</ele><time>2026-04-20T08:41:33Z</time></trkpt><trkpt lat="43.34905623583845" lon="13.296145892853605"><ele>273.0</ele><time>2026-04-20T08:41:34Z</time></trkpt><trkpt lat="43.34912930136491" lon="13.296159570575758"><ele>273.0</ele><time>2026-04-20T08:41:35Z</time></trkpt><trkpt lat="43.34920155591429" lon="13.296170859698531"><ele>272.8333333333333</ele><time>2026-04-20T08:41:36Z</time></trkpt><trkpt lat="43.34927194743708" lon="13.296184662042892"><ele>272.6666666666667</ele><time>2026-04-20T08:41:37Z</time></trkpt><trkpt lat="43.34933788066614" lon="13.296189980628748"><ele>272.5</ele><time>2026-04-20T08:41:38Z</time></trkpt><trkpt lat="43.3494672927563" lon="13.296203874039046"><ele>272.33333333333337</ele><time>2026-04-20T08:41:40Z</time></trkpt><trkpt lat="43.34954446398805" lon="13.296215094916482"><ele>272.1666666666667</ele><time>2026-04-20T08:41:41Z</time></trkpt><trkpt lat="43.34962413199703" lon="13.296228126602834"><ele>272.0</ele><time>2026-04-20T08:41:42Z</time></trkpt><trkpt lat="43.349703704033644" lon="13.296234906807674"><ele>271.83333333333337</ele><time>2026-04-20T08:41:43Z</time></trkpt><trkpt lat="43.34978567700933" lon="13.296236107211156"><ele>271.6666666666667</ele><time>2026-04-20T08:41:44Z</time></trkpt><trkpt lat="43.34986713757169" lon="13.296241360199398"><ele>271.5</ele><time>2026-04-20T08:41:45Z</time></trkpt><trkpt lat="43.34994915218777" lon="13.296257685067287"><ele>271.3333333333333</ele><time>2026-04-20T08:41:46Z</time></trkpt><trkpt lat="43.35003100031105" lon="13.296267510989077"><ele>271.16666666666663</ele><time>2026-04-20T08:41:47Z</time></trkpt><trkpt lat="43.35010803043861" lon="13.29626997529184"><ele>271.0</ele><time>2026-04-20T08:41:48Z</time></trkpt><trkpt lat="43.35017204334657" lon="13.296280828577494"><ele>271.0</ele><time>2026-04-20T08:41:49Z</time></trkpt><trkpt lat="43.3502895444845" lon="13.296288347719242"><ele>271.0</ele><time>2026-04-20T08:41:51Z</time></trkpt><trkpt lat="43.350379126277495" lon="13.296311583003115"><ele>271.0</ele><time>2026-04-20T08:41:53Z</time></trkpt><trkpt lat="43.350443904426186" lon="13.296291663210425"><ele>271.0</ele><time>2026-04-20T08:41:55Z</time></trkpt><trkpt lat="43.350489088424986" lon="13.296489774381167"><ele>271.0</ele><time>2026-04-20T08:41:56Z</time></trkpt><trkpt lat="43.35053157384131" lon="13.29665378646177"><ele>270.3333333333333</ele><time>2026-04-20T08:41:58Z</time></trkpt><trkpt lat="43.350552095681934" lon="13.296749259875682"><ele>269.66666666666663</ele><time>2026-04-20T08:41:59Z</time></trkpt><trkpt lat="43.350570913557924" lon="13.296850596658494"><ele>269.0</ele><time>2026-04-20T08:42:00Z</time></trkpt><trkpt lat="43.3505974581629" lon="13.296942916123909"><ele>268.3333333333333</ele><time>2026-04-20T08:42:01Z</time></trkpt><trkpt lat="43.35062734044999" lon="13.297066814031217"><ele>267.6666666666667</ele><time>2026-04-20T08:42:02Z</time></trkpt><trkpt lat="43.35065750701892" lon="13.297180267548478"><ele>267.0</ele><time>2026-04-20T08:42:03Z</time></trkpt><trkpt lat="43.35068170435054" lon="13.297293355673101"><ele>267.0</ele><time>2026-04-20T08:42:04Z</time></trkpt><trkpt lat="43.350706183411454" lon="13.29740068593156"><ele>267.0</ele><time>2026-04-20T08:42:05Z</time></trkpt><trkpt lat="43.350731289730824" lon="13.297519278958793"><ele>267.0</ele><time>2026-04-20T08:42:06Z</time></trkpt><trkpt lat="43.35075462995972" lon="13.297639486956744"><ele>267.0</ele><time>2026-04-20T08:42:07Z</time></trkpt><trkpt lat="43.35076999311533" lon="13.297764006765659"><ele>267.0</ele><time>2026-04-20T08:42:08Z</time></trkpt><trkpt lat="43.350784137561845" lon="13.297894485295897"><ele>267.0</ele><time>2026-04-20T08:42:09Z</time></trkpt><trkpt lat="43.350790454063215" lon="13.29803403081637"><ele>267.0</ele><time>2026-04-20T08:42:10Z</time></trkpt><trkpt lat="43.35080492155526" lon="13.298180783327707"><ele>267.0</ele><time>2026-04-20T08:42:11Z</time></trkpt><trkpt lat="43.350807603684835" lon="13.29830454719489"><ele>267.0</ele><time>2026-04-20T08:42:12Z</time></trkpt><trkpt lat="43.3507971558528" lon="13.298466343656665"><ele>267.0</ele><time>2026-04-20T08:42:13Z</time></trkpt><trkpt lat="43.350803598119086" lon="13.298620738466601"><ele>267.0</ele><time>2026-04-20T08:42:14Z</time></trkpt><trkpt lat="43.35081161576908" lon="13.29876103603307"><ele>267.0</ele><time>2026-04-20T08:42:15Z</time></trkpt><trkpt lat="43.35080621162328" lon="13.298905199469537"><ele>267.0</ele><time>2026-04-20T08:42:16Z</time></trkpt><trkpt lat="43.350804823095984" lon="13.299057888388013"><ele>267.0</ele><time>2026-04-20T08:42:17Z</time></trkpt><trkpt lat="43.35080497808618" lon="13.299172713981184"><ele>267.0</ele><time>2026-04-20T08:42:18Z</time></trkpt><trkpt lat="43.3507984022802" lon="13.299286871656557"><ele>266.8333333333333</ele><time>2026-04-20T08:42:19Z</time></trkpt><trkpt lat="43.350787043426905" lon="13.299399922962854"><ele>266.6666666666667</ele><time>2026-04-20T08:42:20Z</time></trkpt><trkpt lat="43.35077350426278" lon="13.299503717359613"><ele>266.5</ele><time>2026-04-20T08:42:21Z</time></trkpt><trkpt lat="43.35076625885601" lon="13.299606361963008"><ele>266.33333333333337</ele><time>2026-04-20T08:42:22Z</time></trkpt><trkpt lat="43.35075472775474" lon="13.299721224882655"><ele>266.1666666666667</ele><time>2026-04-20T08:42:23Z</time></trkpt><trkpt lat="43.350745107179826" lon="13.299844193826825"><ele>266.0</ele><time>2026-04-20T08:42:24Z</time></trkpt><trkpt lat="43.35073330334943" lon="13.29995645358257"><ele>265.6</ele><time>2026-04-20T08:42:25Z</time></trkpt><trkpt lat="43.3507192654647" lon="13.300092260527508"><ele>265.20000000000005</ele><time>2026-04-20T08:42:26Z</time></trkpt><trkpt lat="43.3507057646661" lon="13.300216707423584"><ele>264.79999999999995</ele><time>2026-04-20T08:42:27Z</time></trkpt><trkpt lat="43.350690172291486" lon="13.300354522214768"><ele>264.4</ele><time>2026-04-20T08:42:28Z</time></trkpt><trkpt lat="43.35068220670278" lon="13.300489599145784"><ele>264.0</ele><time>2026-04-20T08:42:29Z</time></trkpt><trkpt lat="43.35067409651696" lon="13.300608916936325"><ele>263.6666666666667</ele><time>2026-04-20T08:42:30Z</time></trkpt><trkpt lat="43.35065485274671" lon="13.300727373676198"><ele>263.3333333333333</ele><time>2026-04-20T08:42:31Z</time></trkpt><trkpt lat="43.350659946436224" lon="13.300839479577261"><ele>263.0</ele><time>2026-04-20T08:42:32Z</time></trkpt><trkpt lat="43.35063997184371" lon="13.300963783733666"><ele>262.66666666666663</ele><time>2026-04-20T08:42:33Z</time></trkpt><trkpt lat="43.35061986656328" lon="13.301085555970648"><ele>262.3333333333333</ele><time>2026-04-20T08:42:34Z</time></trkpt><trkpt lat="43.350604370359434" lon="13.30120507334406"><ele>262.0</ele><time>2026-04-20T08:42:34.999Z</time></trkpt><trkpt lat="43.35058161006371" lon="13.301326463945408"><ele>262.0</ele><time>2026-04-20T08:42:35.999Z</time></trkpt><trkpt lat="43.35057301032294" lon="13.301470173986633"><ele>262.0</ele><time>2026-04-20T08:42:36.999Z</time></trkpt><trkpt lat="43.35057840874161" lon="13.301612986993668"><ele>262.0</ele><time>2026-04-20T08:42:37.999Z</time></trkpt><trkpt lat="43.35054871436695" lon="13.301742908860588"><ele>262.0</ele><time>2026-04-20T08:42:38.999Z</time></trkpt><trkpt lat="43.35053119691324" lon="13.301863174662826"><ele>262.0</ele><time>2026-04-20T08:42:39.999Z</time></trkpt><trkpt lat="43.350516944128714" lon="13.301987023860688"><ele>262.0</ele><time>2026-04-20T08:42:40.999Z</time></trkpt><trkpt lat="43.35049951512685" lon="13.302130183192462"><ele>262.0</ele><time>2026-04-20T08:42:41.999Z</time></trkpt><trkpt lat="43.350488082397504" lon="13.302249598754099"><ele>262.0</ele><time>2026-04-20T08:42:42.999Z</time></trkpt><trkpt lat="43.350479787599596" lon="13.302372450893886"><ele>262.0</ele><time>2026-04-20T08:42:43.999Z</time></trkpt><trkpt lat="43.35046348553233" lon="13.302510126596106"><ele>262.0</ele><time>2026-04-20T08:42:44.999Z</time></trkpt><trkpt lat="43.35046133620818" lon="13.302644216960445"><ele>261.2</ele><time>2026-04-20T08:42:45.999Z</time></trkpt><trkpt lat="43.350443391641974" lon="13.302777955100252"><ele>260.4</ele><time>2026-04-20T08:42:46.999Z</time></trkpt><trkpt lat="43.350405135806234" lon="13.302907500425782"><ele>259.6</ele><time>2026-04-20T08:42:47.999Z</time></trkpt><trkpt lat="43.35040208492984" lon="13.303049665230175"><ele>258.8</ele><time>2026-04-20T08:42:48.999Z</time></trkpt><trkpt lat="43.35039371986968" lon="13.30318644886823"><ele>258.0</ele><time>2026-04-20T08:42:49.999Z</time></trkpt><trkpt lat="43.35036578211669" lon="13.303304737949706"><ele>257.8</ele><time>2026-04-20T08:42:50.999Z</time></trkpt><trkpt lat="43.35035014369717" lon="13.303423556595565"><ele>257.6</ele><time>2026-04-20T08:42:51.999Z</time></trkpt><trkpt lat="43.350333550644386" lon="13.303543530031888"><ele>257.4</ele><time>2026-04-20T08:42:52.999Z</time></trkpt><trkpt lat="43.35031631849569" lon="13.303665632295584"><ele>257.2</ele><time>2026-04-20T08:42:53.999Z</time></trkpt><trkpt lat="43.35031261921499" lon="13.303797345828333"><ele>257.0</ele><time>2026-04-20T08:42:54.999Z</time></trkpt><trkpt lat="43.350286659947905" lon="13.303921084655036"><ele>256.4</ele><time>2026-04-20T08:42:55.999Z</time></trkpt><trkpt lat="43.3502520137452" lon="13.304029013352158"><ele>255.79999999999998</ele><time>2026-04-20T08:42:56.999Z</time></trkpt><trkpt lat="43.35022089293265" lon="13.304170622021042"><ele>255.2</ele><time>2026-04-20T08:42:57.999Z</time></trkpt><trkpt lat="43.35019008292993" lon="13.304308355620734"><ele>254.6</ele><time>2026-04-20T08:42:58.999Z</time></trkpt><trkpt lat="43.35016123809103" lon="13.304439186720346"><ele>254.0</ele><time>2026-04-20T08:42:59.999Z</time></trkpt><trkpt lat="43.35014729014643" lon="13.304578591220379"><ele>254.0</ele><time>2026-04-20T08:43:00.999Z</time></trkpt><trkpt lat="43.35011206428751" lon="13.304714295127624"><ele>253.99999999999997</ele><time>2026-04-20T08:43:01.999Z</time></trkpt><trkpt lat="43.350085598523094" lon="13.304840969152087"><ele>253.99999999999997</ele><time>2026-04-20T08:43:02.999Z</time></trkpt><trkpt lat="43.35005751223387" lon="13.304969151289733"><ele>254.0</ele><time>2026-04-20T08:43:03.999Z</time></trkpt><trkpt lat="43.35002832027862" lon="13.305099636585863"><ele>254.0</ele><time>2026-04-20T08:43:04.999Z</time></trkpt><trkpt lat="43.349994478308055" lon="13.305237597078518"><ele>254.2</ele><time>2026-04-20T08:43:05.999Z</time></trkpt><trkpt lat="43.34996893344277" lon="13.305366484218741"><ele>254.39999999999998</ele><time>2026-04-20T08:43:06.999Z</time></trkpt><trkpt lat="43.34993692671127" lon="13.305489940512858"><ele>254.6</ele><time>2026-04-20T08:43:07.999Z</time></trkpt><trkpt lat="43.34991382989267" lon="13.305601753571493"><ele>254.8</ele><time>2026-04-20T08:43:08.999Z</time></trkpt><trkpt lat="43.34988694451949" lon="13.30573544321895"><ele>255.0</ele><time>2026-04-20T08:43:09.999Z</time></trkpt><trkpt lat="43.3498654875107" lon="13.305851151184234"><ele>255.16666666666666</ele><time>2026-04-20T08:43:10.999Z</time></trkpt><trkpt lat="43.34984113381554" lon="13.305962581751325"><ele>255.33333333333331</ele><time>2026-04-20T08:43:11.999Z</time></trkpt><trkpt lat="43.34980303061287" lon="13.30606731607248"><ele>255.5</ele><time>2026-04-20T08:43:12.999Z</time></trkpt><trkpt lat="43.349784593483356" lon="13.306173190592263"><ele>255.66666666666666</ele><time>2026-04-20T08:43:13.999Z</time></trkpt><trkpt lat="43.34975935671701" lon="13.306277101238754"><ele>255.83333333333331</ele><time>2026-04-20T08:43:14.999Z</time></trkpt><trkpt lat="43.34973072057592" lon="13.306426334441035"><ele>256.0</ele><time>2026-04-20T08:43:16.999Z</time></trkpt><trkpt lat="43.34970709642324" lon="13.306522221357941"><ele>256.0</ele><time>2026-04-20T08:43:18.999Z</time></trkpt><trkpt lat="43.34989493428001" lon="13.306575271721105"><ele>256.0</ele><time>2026-04-20T08:43:22.999Z</time></trkpt><trkpt lat="43.34998685984415" lon="13.306539538049368"><ele>256.0</ele><time>2026-04-20T08:43:24.999Z</time></trkpt><trkpt lat="43.350109346330576" lon="13.30650370959475"><ele>256.0</ele><time>2026-04-20T08:43:26.999Z</time></trkpt><trkpt lat="43.3501816824399" lon="13.30647984225755"><ele>255.99999999999997</ele><time>2026-04-20T08:43:27.999Z</time></trkpt><trkpt lat="43.3502634252871" lon="13.306460973151456"><ele>256.0</ele><time>2026-04-20T08:43:28.999Z</time></trkpt><trkpt lat="43.350352156404256" lon="13.306437992910961"><ele>256.0</ele><time>2026-04-20T08:43:30Z</time></trkpt><trkpt lat="43.35044058559314" lon="13.306407508827604"><ele>256.0</ele><time>2026-04-20T08:43:31Z</time></trkpt><trkpt lat="43.35052663922934" lon="13.306373584166156"><ele>255.99999999999997</ele><time>2026-04-20T08:43:32Z</time></trkpt><trkpt lat="43.35061655954139" lon="13.306351156699764"><ele>256.0</ele><time>2026-04-20T08:43:33Z</time></trkpt><trkpt lat="43.350711039371" lon="13.306325516376825"><ele>256.2</ele><time>2026-04-20T08:43:34Z</time></trkpt><trkpt lat="43.350801625209435" lon="13.306293216915874"><ele>256.40000000000003</ele><time>2026-04-20T08:43:35Z</time></trkpt><trkpt lat="43.3508959764935" lon="13.306255810895506"><ele>256.6</ele><time>2026-04-20T08:43:36Z</time></trkpt><trkpt lat="43.35099780432736" lon="13.306222145563089"><ele>256.8</ele><time>2026-04-20T08:43:37Z</time></trkpt><trkpt lat="43.35110450322154" lon="13.306197153792056"><ele>257.0</ele><time>2026-04-20T08:43:38Z</time></trkpt><trkpt lat="43.35120406711891" lon="13.306167454631627"><ele>257.0</ele><time>2026-04-20T08:43:39Z</time></trkpt><trkpt lat="43.351298281686994" lon="13.306136090886676"><ele>257.0</ele><time>2026-04-20T08:43:40Z</time></trkpt><trkpt lat="43.35139516810205" lon="13.306113004233861"><ele>257.0</ele><time>2026-04-20T08:43:41Z</time></trkpt><trkpt lat="43.35148880479053" lon="13.306090446394723"><ele>257.0</ele><time>2026-04-20T08:43:42Z</time></trkpt><trkpt lat="43.35160397959695" lon="13.306054448363064"><ele>257.0</ele><time>2026-04-20T08:43:43Z</time></trkpt><trkpt lat="43.35169785155174" lon="13.306023350787278"><ele>256.6</ele><time>2026-04-20T08:43:44Z</time></trkpt><trkpt lat="43.3517910901274" lon="13.305989712567339"><ele>256.2</ele><time>2026-04-20T08:43:45Z</time></trkpt><trkpt lat="43.35188747624375" lon="13.30595477978253"><ele>255.8</ele><time>2026-04-20T08:43:46Z</time></trkpt><trkpt lat="43.35199136679562" lon="13.30591973854335"><ele>255.4</ele><time>2026-04-20T08:43:47Z</time></trkpt><trkpt lat="43.352097781083124" lon="13.30590009298643"><ele>255.0</ele><time>2026-04-20T08:43:48Z</time></trkpt><trkpt lat="43.352195206083316" lon="13.30584448558829"><ele>255.2</ele><time>2026-04-20T08:43:49Z</time></trkpt><trkpt lat="43.35229106514201" lon="13.30581941557099"><ele>255.4</ele><time>2026-04-20T08:43:50Z</time></trkpt><trkpt lat="43.35238333098933" lon="13.305796988786135"><ele>255.60000000000002</ele><time>2026-04-20T08:43:51Z</time></trkpt><trkpt lat="43.352475901150626" lon="13.3057638431357"><ele>255.8</ele><time>2026-04-20T08:43:52Z</time></trkpt><trkpt lat="43.35256955877898" lon="13.305734530925182"><ele>256.0</ele><time>2026-04-20T08:43:53Z</time></trkpt><trkpt lat="43.35266813528675" lon="13.305690717102555"><ele>256.0</ele><time>2026-04-20T08:43:54Z</time></trkpt><trkpt lat="43.35276608043176" lon="13.305652337100733"><ele>256.0</ele><time>2026-04-20T08:43:55Z</time></trkpt><trkpt lat="43.35286298303585" lon="13.305627985140342"><ele>256.0</ele><time>2026-04-20T08:43:56Z</time></trkpt><trkpt lat="43.35295053008576" lon="13.305608637730078"><ele>256.0</ele><time>2026-04-20T08:43:57Z</time></trkpt><trkpt lat="43.353028422739236" lon="13.305580191536544"><ele>256.0</ele><time>2026-04-20T08:43:58Z</time></trkpt><trkpt lat="43.35311327117731" lon="13.305556152919708"><ele>255.60000000000002</ele><time>2026-04-20T08:43:59Z</time></trkpt><trkpt lat="43.353199768958746" lon="13.305524853021392"><ele>255.20000000000002</ele><time>2026-04-20T08:44:00Z</time></trkpt><trkpt lat="43.35328943567017" lon="13.305496276746636"><ele>254.79999999999998</ele><time>2026-04-20T08:44:01Z</time></trkpt><trkpt lat="43.35338251957359" lon="13.305476282496421"><ele>254.39999999999998</ele><time>2026-04-20T08:44:02Z</time></trkpt><trkpt lat="43.35347753994954" lon="13.30545395060208"><ele>254.0</ele><time>2026-04-20T08:44:03Z</time></trkpt><trkpt lat="43.35357014593217" lon="13.30542322629149"><ele>254.0</ele><time>2026-04-20T08:44:04Z</time></trkpt><trkpt lat="43.353665672769" lon="13.305398428749637"><ele>253.99999999999997</ele><time>2026-04-20T08:44:05Z</time></trkpt><trkpt lat="43.35376322155026" lon="13.305375464151311"><ele>253.99999999999997</ele><time>2026-04-20T08:44:06Z</time></trkpt><trkpt lat="43.35385079083651" lon="13.305353535511852"><ele>254.0</ele><time>2026-04-20T08:44:07Z</time></trkpt><trkpt lat="43.35393445720342" lon="13.30533072077972"><ele>254.0</ele><time>2026-04-20T08:44:08Z</time></trkpt><trkpt lat="43.35401613421139" lon="13.305318464022358"><ele>254.0</ele><time>2026-04-20T08:44:09Z</time></trkpt><trkpt lat="43.35410866397716" lon="13.305318367558677"><ele>253.99999999999997</ele><time>2026-04-20T08:44:10Z</time></trkpt><trkpt lat="43.354199429364115" lon="13.305330086251677"><ele>253.99999999999997</ele><time>2026-04-20T08:44:11Z</time></trkpt><trkpt lat="43.35428663368511" lon="13.30533261401852"><ele>254.0</ele><time>2026-04-20T08:44:12Z</time></trkpt><trkpt lat="43.35437585951619" lon="13.3053147264085"><ele>254.0</ele><time>2026-04-20T08:44:13Z</time></trkpt><trkpt lat="43.354460234668785" lon="13.305269450889135"><ele>254.0</ele><time>2026-04-20T08:44:14Z</time></trkpt><trkpt lat="43.35453979255638" lon="13.305214867360714"><ele>253.99999999999997</ele><time>2026-04-20T08:44:15Z</time></trkpt><trkpt lat="43.35463380021285" lon="13.305165768600613"><ele>253.99999999999997</ele><time>2026-04-20T08:44:16Z</time></trkpt><trkpt lat="43.35472207541616" lon="13.30511221701613"><ele>254.0</ele><time>2026-04-20T08:44:17Z</time></trkpt><trkpt lat="43.35481073473425" lon="13.305066050236181"><ele>254.0</ele><time>2026-04-20T08:44:18Z</time></trkpt><trkpt lat="43.35489352437479" lon="13.305016163821675"><ele>253.39999999999998</ele><time>2026-04-20T08:44:19Z</time></trkpt><trkpt lat="43.35498713814168" lon="13.304984939997837"><ele>252.79999999999998</ele><time>2026-04-20T08:44:20Z</time></trkpt><trkpt lat="43.35507722872292" lon="13.304962595508576"><ele>252.20000000000002</ele><time>2026-04-20T08:44:21Z</time></trkpt><trkpt lat="43.35517456755757" lon="13.304938375504792"><ele>251.60000000000002</ele><time>2026-04-20T08:44:22Z</time></trkpt><trkpt lat="43.35526738166254" lon="13.304903827421088"><ele>251.0</ele><time>2026-04-20T08:44:22.999Z</time></trkpt><trkpt lat="43.35536594987982" lon="13.304890750073"><ele>251.0</ele><time>2026-04-20T08:44:23.999Z</time></trkpt><trkpt lat="43.35546218851925" lon="13.304872731144043"><ele>251.00000000000003</ele><time>2026-04-20T08:44:24.999Z</time></trkpt><trkpt lat="43.35555436886931" lon="13.304852070291082"><ele>251.00000000000003</ele><time>2026-04-20T08:44:25.999Z</time></trkpt><trkpt lat="43.35565286732145" lon="13.304836353989538"><ele>251.0</ele><time>2026-04-20T08:44:26.999Z</time></trkpt><trkpt lat="43.35575099961404" lon="13.304828108643669"><ele>251.0</ele><time>2026-04-20T08:44:27.999Z</time></trkpt><trkpt lat="43.35585273701691" lon="13.304817418439864"><ele>250.8</ele><time>2026-04-20T08:44:28.999Z</time></trkpt><trkpt lat="43.35595355904728" lon="13.304791201696606"><ele>250.60000000000002</ele><time>2026-04-20T08:44:29.999Z</time></trkpt><trkpt lat="43.356039943151536" lon="13.304769205648695"><ele>250.4</ele><time>2026-04-20T08:44:30.999Z</time></trkpt><trkpt lat="43.3561275151308" lon="13.304735362957482"><ele>250.2</ele><time>2026-04-20T08:44:31.999Z</time></trkpt><trkpt lat="43.35622448259137" lon="13.304707946240278"><ele>250.0</ele><time>2026-04-20T08:44:32.999Z</time></trkpt><trkpt lat="43.35630620476495" lon="13.304681334882796"><ele>250.0</ele><time>2026-04-20T08:44:33.999Z</time></trkpt><trkpt lat="43.35640850974939" lon="13.304653149652571"><ele>250.0</ele><time>2026-04-20T08:44:34.999Z</time></trkpt><trkpt lat="43.35651061065291" lon="13.304626566073019"><ele>250.0</ele><time>2026-04-20T08:44:35.999Z</time></trkpt><trkpt lat="43.35661214570737" lon="13.304613638750313"><ele>250.0</ele><time>2026-04-20T08:44:36.999Z</time></trkpt><trkpt lat="43.35670800255503" lon="13.304602782167072"><ele>250.0</ele><time>2026-04-20T08:44:37.999Z</time></trkpt><trkpt lat="43.35679959880697" lon="13.304582263732696"><ele>250.0</ele><time>2026-04-20T08:44:38.999Z</time></trkpt><trkpt lat="43.356881396448806" lon="13.304560040324265"><ele>250.0</ele><time>2026-04-20T08:44:39.999Z</time></trkpt><trkpt lat="43.3569543535088" lon="13.304545295558478"><ele>250.0</ele><time>2026-04-20T08:44:40.999Z</time></trkpt><trkpt lat="43.35706026494223" lon="13.304512336444853"><ele>250.0</ele><time>2026-04-20T08:44:42.999Z</time></trkpt><trkpt lat="43.357140281405314" lon="13.30447361834834"><ele>250.0</ele><time>2026-04-20T08:44:44.999Z</time></trkpt><trkpt lat="43.357185730821335" lon="13.304297433006484"><ele>249.99999999999997</ele><time>2026-04-20T08:44:47.999Z</time></trkpt><trkpt lat="43.3571886328146" lon="13.304203369211661"><ele>250.0</ele><time>2026-04-20T08:45:01.999Z</time></trkpt><trkpt lat="43.357155741151395" lon="13.304110186971318"><ele>250.0</ele><time>2026-04-20T08:45:03.999Z</time></trkpt><trkpt lat="43.35712722599509" lon="13.30399711829944"><ele>250.0</ele><time>2026-04-20T08:45:05.999Z</time></trkpt><trkpt lat="43.35706149895889" lon="13.303887351093849"><ele>249.99999999999997</ele><time>2026-04-20T08:45:07.999Z</time></trkpt><trkpt lat="43.357012326038785" lon="13.30377788038462"><ele>250.0</ele><time>2026-04-20T08:45:09.999Z</time></trkpt><trkpt lat="43.35695541541632" lon="13.303701867067725"><ele>249.99999999999997</ele><time>2026-04-20T08:45:11.999Z</time></trkpt><trkpt lat="43.3569051769933" lon="13.30363188248502"><ele>250.0</ele><time>2026-04-20T08:45:14.999Z</time></trkpt><trkpt lat="43.35695490584427" lon="13.303701180634569"><ele>250.0</ele><time>2026-04-20T08:45:24.999Z</time></trkpt><trkpt lat="43.356997417145216" lon="13.303766330602727"><ele>250.0</ele><time>2026-04-20T08:45:25.999Z</time></trkpt><trkpt lat="43.35703471596889" lon="13.30387336270366"><ele>249.99999999999997</ele><time>2026-04-20T08:45:28.999Z</time></trkpt><trkpt lat="43.35707994560278" lon="13.303937127893185"><ele>250.0</ele><time>2026-04-20T08:45:53Z</time></trkpt><trkpt lat="43.357125627611296" lon="13.304049572035463"><ele>249.99999999999997</ele><time>2026-04-20T08:45:55Z</time></trkpt><trkpt lat="43.35715584708611" lon="13.304172444299667"><ele>250.0</ele><time>2026-04-20T08:45:57Z</time></trkpt><trkpt lat="43.35717479248161" lon="13.304271049367303"><ele>250.0</ele><time>2026-04-20T08:45:59Z</time></trkpt><trkpt lat="43.357177743431556" lon="13.304378918724735"><ele>250.0</ele><time>2026-04-20T08:46:01Z</time></trkpt><trkpt lat="43.35720908049165" lon="13.304462404164674"><ele>249.99999999999997</ele><time>2026-04-20T08:46:03Z</time></trkpt><trkpt lat="43.35730171946468" lon="13.30447842756719"><ele>250.0</ele><time>2026-04-20T08:46:06Z</time></trkpt><trkpt lat="43.35740047659464" lon="13.304478114791864"><ele>249.16666666666666</ele><time>2026-04-20T08:46:08Z</time></trkpt><trkpt lat="43.357510202259064" lon="13.304506550214683"><ele>248.33333333333331</ele><time>2026-04-20T08:46:10Z</time></trkpt><trkpt lat="43.357571115428335" lon="13.304533985879297"><ele>247.5</ele><time>2026-04-20T08:46:11Z</time></trkpt><trkpt lat="43.35763157649926" lon="13.304566589732373"><ele>246.66666666666669</ele><time>2026-04-20T08:46:12Z</time></trkpt><trkpt lat="43.35769614111402" lon="13.304595692356768"><ele>245.83333333333334</ele><time>2026-04-20T08:46:13Z</time></trkpt><trkpt lat="43.35776685377172" lon="13.304637840732802"><ele>245.0</ele><time>2026-04-20T08:46:14Z</time></trkpt><trkpt lat="43.35785133180052" lon="13.30467689126637"><ele>245.00000000000003</ele><time>2026-04-20T08:46:15Z</time></trkpt><trkpt lat="43.357944490905524" lon="13.304719464620936"><ele>245.0</ele><time>2026-04-20T08:46:16Z</time></trkpt><trkpt lat="43.3580293232996" lon="13.30477064049739"><ele>245.0</ele><time>2026-04-20T08:46:17Z</time></trkpt><trkpt lat="43.358104501717726" lon="13.304812517580626"><ele>245.0</ele><time>2026-04-20T08:46:18Z</time></trkpt><trkpt lat="43.35817289763886" lon="13.304846960317521"><ele>245.00000000000003</ele><time>2026-04-20T08:46:19Z</time></trkpt><trkpt lat="43.358236005027784" lon="13.304883792673198"><ele>245.0</ele><time>2026-04-20T08:46:20Z</time></trkpt><trkpt lat="43.35830161591955" lon="13.30492018636343"><ele>244.71428571428572</ele><time>2026-04-20T08:46:21Z</time></trkpt><trkpt lat="43.358370480281145" lon="13.30496284039882"><ele>244.42857142857144</ele><time>2026-04-20T08:46:22Z</time></trkpt><trkpt lat="43.35844126749506" lon="13.305002094913398"><ele>244.14285714285714</ele><time>2026-04-20T08:46:23Z</time></trkpt><trkpt lat="43.35850902041099" lon="13.305045234993242"><ele>243.85714285714286</ele><time>2026-04-20T08:46:23.999Z</time></trkpt><trkpt lat="43.358576180578815" lon="13.305091366427444"><ele>243.57142857142858</ele><time>2026-04-20T08:46:24.999Z</time></trkpt><trkpt lat="43.35863843494717" lon="13.30513765174243"><ele>243.28571428571428</ele><time>2026-04-20T08:46:25.999Z</time></trkpt><trkpt lat="43.358700343923076" lon="13.305184033721298"><ele>243.0</ele><time>2026-04-20T08:46:26.999Z</time></trkpt><trkpt lat="43.35876538376952" lon="13.305221900788503"><ele>243.0</ele><time>2026-04-20T08:46:27.999Z</time></trkpt><trkpt lat="43.35882390320471" lon="13.305256729564315"><ele>243.0</ele><time>2026-04-20T08:46:28.999Z</time></trkpt><trkpt lat="43.35890231756141" lon="13.305238938117594"><ele>243.0</ele><time>2026-04-20T08:46:29.999Z</time></trkpt><trkpt lat="43.35897556775276" lon="13.305242853141529"><ele>243.0</ele><time>2026-04-20T08:46:30.999Z</time></trkpt><trkpt lat="43.35904655705613" lon="13.305222556003695"><ele>243.0</ele><time>2026-04-20T08:46:31.999Z</time></trkpt><trkpt lat="43.35911588940874" lon="13.305202177638526"><ele>243.0</ele><time>2026-04-20T08:46:32.999Z</time></trkpt><trkpt lat="43.35918554389661" lon="13.305181704593288"><ele>243.0</ele><time>2026-04-20T08:46:33.999Z</time></trkpt><trkpt lat="43.35926481376126" lon="13.305141994793834"><ele>242.66666666666666</ele><time>2026-04-20T08:46:34.999Z</time></trkpt><trkpt lat="43.35934115639852" lon="13.305119850490476"><ele>242.33333333333331</ele><time>2026-04-20T08:46:35.999Z</time></trkpt><trkpt lat="43.35941753750726" lon="13.305126392754945"><ele>242.0</ele><time>2026-04-20T08:46:36.999Z</time></trkpt><trkpt lat="43.35950516418585" lon="13.305125122288088"><ele>241.66666666666666</ele><time>2026-04-20T08:46:37.999Z</time></trkpt><trkpt lat="43.3596051334319" lon="13.305123139845092"><ele>241.33333333333331</ele><time>2026-04-20T08:46:38.999Z</time></trkpt><trkpt lat="43.35970703388586" lon="13.305115527508786"><ele>241.0</ele><time>2026-04-20T08:46:39.999Z</time></trkpt><trkpt lat="43.35979925882241" lon="13.305081407182831"><ele>240.16666666666666</ele><time>2026-04-20T08:46:40.999Z</time></trkpt><trkpt lat="43.35988314587383" lon="13.305050217226219"><ele>239.33333333333331</ele><time>2026-04-20T08:46:41.999Z</time></trkpt><trkpt lat="43.35996353443274" lon="13.30503513946116"><ele>238.5</ele><time>2026-04-20T08:46:42.999Z</time></trkpt><trkpt lat="43.36002977090959" lon="13.305001094768818"><ele>237.66666666666669</ele><time>2026-04-20T08:46:43.999Z</time></trkpt><trkpt lat="43.360129807351875" lon="13.304930947659546"><ele>236.83333333333334</ele><time>2026-04-20T08:46:45.999Z</time></trkpt><trkpt lat="43.360185395820174" lon="13.304884244540574"><ele>236.0</ele><time>2026-04-20T08:46:46.999Z</time></trkpt><trkpt lat="43.360249274035944" lon="13.304816870761146"><ele>236.00000000000003</ele><time>2026-04-20T08:46:47.999Z</time></trkpt><trkpt lat="43.360337655734774" lon="13.304746759191458"><ele>236.0</ele><time>2026-04-20T08:46:48.999Z</time></trkpt><trkpt lat="43.360395624712446" lon="13.304695045767065"><ele>236.0</ele><time>2026-04-20T08:46:49.999Z</time></trkpt><trkpt lat="43.36050638144847" lon="13.304657605808266"><ele>236.0</ele><time>2026-04-20T08:46:51.999Z</time></trkpt><trkpt lat="43.360563219727915" lon="13.304709455393377"><ele>236.00000000000003</ele><time>2026-04-20T08:46:52.999Z</time></trkpt><trkpt lat="43.36063939455084" lon="13.304740618818164"><ele>236.0</ele><time>2026-04-20T08:46:53.999Z</time></trkpt><trkpt lat="43.36071731968102" lon="13.304810963490047"><ele>235.85714285714283</ele><time>2026-04-20T08:46:54.999Z</time></trkpt><trkpt lat="43.36077903627396" lon="13.304861936697312"><ele>235.71428571428572</ele><time>2026-04-20T08:46:55.999Z</time></trkpt><trkpt lat="43.36083884610787" lon="13.304901360855599"><ele>235.57142857142856</ele><time>2026-04-20T08:46:56.999Z</time></trkpt><trkpt lat="43.36090157710948" lon="13.304923201578417"><ele>235.42857142857142</ele><time>2026-04-20T08:46:57.999Z</time></trkpt><trkpt lat="43.36097222849684" lon="13.304924677609712"><ele>235.28571428571428</ele><time>2026-04-20T08:46:58.999Z</time></trkpt><trkpt lat="43.36104776384488" lon="13.304909858367923"><ele>235.14285714285714</ele><time>2026-04-20T08:46:59.999Z</time></trkpt><trkpt lat="43.36112026724911" lon="13.304870951164421"><ele>235.0</ele><time>2026-04-20T08:47:00.999Z</time></trkpt><trkpt lat="43.361181043155" lon="13.304819105467857"><ele>234.99999999999997</ele><time>2026-04-20T08:47:01.999Z</time></trkpt><trkpt lat="43.36123920755268" lon="13.304751377539091"><ele>235.0</ele><time>2026-04-20T08:47:02.999Z</time></trkpt><trkpt lat="43.36128635052439" lon="13.30468569664733"><ele>235.0</ele><time>2026-04-20T08:47:03.999Z</time></trkpt><trkpt lat="43.361387781472374" lon="13.304576089139486"><ele>235.0</ele><time>2026-04-20T08:47:05.999Z</time></trkpt><trkpt lat="43.361437747013575" lon="13.304505133498594"><ele>234.99999999999997</ele><time>2026-04-20T08:47:06.999Z</time></trkpt><trkpt lat="43.36149451754542" lon="13.304447480199151"><ele>235.0</ele><time>2026-04-20T08:47:07.999Z</time></trkpt><trkpt lat="43.36154669418235" lon="13.304389957864863"><ele>235.7142857142857</ele><time>2026-04-20T08:47:08.999Z</time></trkpt><trkpt lat="43.36160414264417" lon="13.304329752690423"><ele>236.4285714285714</ele><time>2026-04-20T08:47:09.999Z</time></trkpt><trkpt lat="43.361667467911325" lon="13.30426569149015"><ele>237.14285714285714</ele><time>2026-04-20T08:47:10.999Z</time></trkpt><trkpt lat="43.36172649946315" lon="13.304197545457411"><ele>237.85714285714283</ele><time>2026-04-20T08:47:11.999Z</time></trkpt><trkpt lat="43.361783014825996" lon="13.304151987927343"><ele>238.57142857142856</ele><time>2026-04-20T08:47:12.999Z</time></trkpt><trkpt lat="43.361851055515416" lon="13.304097242102788"><ele>239.28571428571428</ele><time>2026-04-20T08:47:13.999Z</time></trkpt><trkpt lat="43.36190095548897" lon="13.30403544314181"><ele>240.0</ele><time>2026-04-20T08:47:14.999Z</time></trkpt><trkpt lat="43.36195698808613" lon="13.303971783129697"><ele>240.0</ele><time>2026-04-20T08:47:15.999Z</time></trkpt><trkpt lat="43.362017252525725" lon="13.30393258817075"><ele>240.0</ele><time>2026-04-20T08:47:16.999Z</time></trkpt><trkpt lat="43.362082240780325" lon="13.303916656125063"><ele>240.0</ele><time>2026-04-20T08:47:17.999Z</time></trkpt><trkpt lat="43.36215044301016" lon="13.303926046059667"><ele>240.0</ele><time>2026-04-20T08:47:18.999Z</time></trkpt><trkpt lat="43.36221361822762" lon="13.303964473737347"><ele>240.0</ele><time>2026-04-20T08:47:19.999Z</time></trkpt><trkpt lat="43.36226439078739" lon="13.304037103582923"><ele>240.0</ele><time>2026-04-20T08:47:20.999Z</time></trkpt><trkpt lat="43.36229160634729" lon="13.304126563625287"><ele>240.0</ele><time>2026-04-20T08:47:21.999Z</time></trkpt><trkpt lat="43.36234549442651" lon="13.30419357249819"><ele>240.0</ele><time>2026-04-20T08:47:22.999Z</time></trkpt><trkpt lat="43.36238699937836" lon="13.304281354457997"><ele>240.0</ele><time>2026-04-20T08:47:23.999Z</time></trkpt><trkpt lat="43.36243493108758" lon="13.304367955237511"><ele>240.0</ele><time>2026-04-20T08:47:24.999Z</time></trkpt><trkpt lat="43.36248063213096" lon="13.304442825786655"><ele>240.0</ele><time>2026-04-20T08:47:25.999Z</time></trkpt><trkpt lat="43.362521269679455" lon="13.304523333378542"><ele>240.0</ele><time>2026-04-20T08:47:26.999Z</time></trkpt><trkpt lat="43.36255926489799" lon="13.304602451486678"><ele>240.0</ele><time>2026-04-20T08:47:27.999Z</time></trkpt><trkpt lat="43.36260501688276" lon="13.304685277106651"><ele>240.0</ele><time>2026-04-20T08:47:28.999Z</time></trkpt><trkpt lat="43.36264604123349" lon="13.30476466482241"><ele>239.71428571428572</ele><time>2026-04-20T08:47:29.999Z</time></trkpt><trkpt lat="43.36268965615421" lon="13.3048446547347"><ele>239.42857142857142</ele><time>2026-04-20T08:47:30.999Z</time></trkpt><trkpt lat="43.36272734249179" lon="13.304928360508333"><ele>239.14285714285714</ele><time>2026-04-20T08:47:31.999Z</time></trkpt><trkpt lat="43.36277376711056" lon="13.304995101350626"><ele>238.85714285714286</ele><time>2026-04-20T08:47:32.999Z</time></trkpt><trkpt lat="43.36281430298494" lon="13.305064931965898"><ele>238.57142857142856</ele><time>2026-04-20T08:47:33.999Z</time></trkpt><trkpt lat="43.362853318738466" lon="13.30513609688991"><ele>238.28571428571428</ele><time>2026-04-20T08:47:34.999Z</time></trkpt><trkpt lat="43.36289010108257" lon="13.305213557067688"><ele>238.0</ele><time>2026-04-20T08:47:35.999Z</time></trkpt><trkpt lat="43.36294322745748" lon="13.305279068402363"><ele>238.0</ele><time>2026-04-20T08:47:36.999Z</time></trkpt><trkpt lat="43.363006266791615" lon="13.3053392558944"><ele>238.0</ele><time>2026-04-20T08:47:37.999Z</time></trkpt><trkpt lat="43.36305549190269" lon="13.305409039600242"><ele>238.0</ele><time>2026-04-20T08:47:38.999Z</time></trkpt><trkpt lat="43.36310940556973" lon="13.305486104552722"><ele>238.0</ele><time>2026-04-20T08:47:39.999Z</time></trkpt><trkpt lat="43.36316651324799" lon="13.305552561614586"><ele>238.0</ele><time>2026-04-20T08:47:40.999Z</time></trkpt><trkpt lat="43.363223273045364" lon="13.305617897873859"><ele>238.0</ele><time>2026-04-20T08:47:42Z</time></trkpt><trkpt lat="43.363270107688415" lon="13.305689895423905"><ele>238.0</ele><time>2026-04-20T08:47:43Z</time></trkpt><trkpt lat="43.36331361319047" lon="13.305762457643421"><ele>237.4</ele><time>2026-04-20T08:47:44Z</time></trkpt><trkpt lat="43.36339353337666" lon="13.305874897380875"><ele>236.8</ele><time>2026-04-20T08:47:46Z</time></trkpt><trkpt lat="43.36348579132781" lon="13.305942267821885"><ele>236.2</ele><time>2026-04-20T08:47:48Z</time></trkpt><trkpt lat="43.363584273459644" lon="13.305983831373947"><ele>235.6</ele><time>2026-04-20T08:47:50Z</time></trkpt><trkpt lat="43.36368723978756" lon="13.306024855167648"><ele>235.0</ele><time>2026-04-20T08:47:52Z</time></trkpt><trkpt lat="43.36380710651193" lon="13.306052121134162"><ele>235.0</ele><time>2026-04-20T08:47:54Z</time></trkpt><trkpt lat="43.363826662653544" lon="13.306225642187687"><ele>235.0</ele><time>2026-04-20T08:47:55Z</time></trkpt><trkpt lat="43.36387157296287" lon="13.3063209354789"><ele>235.0</ele><time>2026-04-20T08:47:56Z</time></trkpt><trkpt lat="43.36393113659424" lon="13.30642290711967"><ele>235.0</ele><time>2026-04-20T08:47:57Z</time></trkpt><trkpt lat="43.363970728417144" lon="13.30649197155089"><ele>235.0</ele><time>2026-04-20T08:47:58Z</time></trkpt><trkpt lat="43.36402651458583" lon="13.306592803808186"><ele>233.8</ele><time>2026-04-20T08:47:59Z</time></trkpt><trkpt lat="43.36408170648795" lon="13.30669871766026"><ele>232.6</ele><time>2026-04-20T08:48:00Z</time></trkpt><trkpt lat="43.364135372974125" lon="13.306807584948663"><ele>231.39999999999998</ele><time>2026-04-20T08:48:01Z</time></trkpt><trkpt lat="43.364184115843834" lon="13.30690841994208"><ele>230.2</ele><time>2026-04-20T08:48:02Z</time></trkpt><trkpt lat="43.3642322078489" lon="13.307014225359085"><ele>229.0</ele><time>2026-04-20T08:48:03Z</time></trkpt><trkpt lat="43.3642754293621" lon="13.307114387269271"><ele>229.0</ele><time>2026-04-20T08:48:04Z</time></trkpt><trkpt lat="43.36431518616422" lon="13.307208342076251"><ele>229.0</ele><time>2026-04-20T08:48:05Z</time></trkpt><trkpt lat="43.36435315483829" lon="13.307299341597645"><ele>229.0</ele><time>2026-04-20T08:48:06Z</time></trkpt><trkpt lat="43.364387219990185" lon="13.30738770833842"><ele>229.0</ele><time>2026-04-20T08:48:07Z</time></trkpt><trkpt lat="43.36442076297328" lon="13.307473404378161"><ele>229.0</ele><time>2026-04-20T08:48:08Z</time></trkpt><trkpt lat="43.36445793866669" lon="13.307555394497538"><ele>229.0</ele><time>2026-04-20T08:48:09Z</time></trkpt><trkpt lat="43.36449223621702" lon="13.307635559538806"><ele>229.0</ele><time>2026-04-20T08:48:10Z</time></trkpt><trkpt lat="43.36453026914802" lon="13.307719749624697"><ele>229.39999999999998</ele><time>2026-04-20T08:48:11Z</time></trkpt><trkpt lat="43.36457315696619" lon="13.307810645341176"><ele>229.79999999999998</ele><time>2026-04-20T08:48:12Z</time></trkpt><trkpt lat="43.36461979941398" lon="13.307912239504411"><ele>230.20000000000002</ele><time>2026-04-20T08:48:13Z</time></trkpt><trkpt lat="43.36467471929533" lon="13.308020714361238"><ele>230.60000000000002</ele><time>2026-04-20T08:48:14Z</time></trkpt><trkpt lat="43.36473438554624" lon="13.308142897414303"><ele>231.0</ele><time>2026-04-20T08:48:15Z</time></trkpt><trkpt lat="43.364804638207886" lon="13.308263198445406"><ele>230.0</ele><time>2026-04-20T08:48:16Z</time></trkpt><trkpt lat="43.36490545093743" lon="13.308370353766307"><ele>229.0</ele><time>2026-04-20T08:48:17Z</time></trkpt><trkpt lat="43.36503689960931" lon="13.308463903313156"><ele>228.0</ele><time>2026-04-20T08:48:18Z</time></trkpt><trkpt lat="43.3651817072081" lon="13.308532125110233"><ele>227.0</ele><time>2026-04-20T08:48:19Z</time></trkpt><trkpt lat="43.36531360694142" lon="13.308595031209409"><ele>227.0</ele><time>2026-04-20T08:48:20Z</time></trkpt><trkpt lat="43.36542560447883" lon="13.308675990891436"><ele>227.0</ele><time>2026-04-20T08:48:21Z</time></trkpt><trkpt lat="43.365526983463795" lon="13.308778067880315"><ele>227.0</ele><time>2026-04-20T08:48:22Z</time></trkpt><trkpt lat="43.36562297153265" lon="13.308879181752301"><ele>227.0</ele><time>2026-04-20T08:48:23Z</time></trkpt><trkpt lat="43.36572005646665" lon="13.308973731744503"><ele>227.6</ele><time>2026-04-20T08:48:24Z</time></trkpt><trkpt lat="43.365808478562734" lon="13.309054402874114"><ele>228.2</ele><time>2026-04-20T08:48:25Z</time></trkpt><trkpt lat="43.36589590284871" lon="13.309138762601702"><ele>228.8</ele><time>2026-04-20T08:48:26Z</time></trkpt><trkpt lat="43.36597951279206" lon="13.309226857998054"><ele>229.4</ele><time>2026-04-20T08:48:27Z</time></trkpt><trkpt lat="43.36607022646782" lon="13.309319494294483"><ele>230.0</ele><time>2026-04-20T08:48:28Z</time></trkpt><trkpt lat="43.366166271184994" lon="13.309412234692122"><ele>230.0</ele><time>2026-04-20T08:48:29Z</time></trkpt><trkpt lat="43.36626543941308" lon="13.309507217152676"><ele>230.0</ele><time>2026-04-20T08:48:30Z</time></trkpt><trkpt lat="43.366365282292804" lon="13.30960268956343"><ele>230.0</ele><time>2026-04-20T08:48:30.999Z</time></trkpt><trkpt lat="43.36646157382348" lon="13.30969889859962"><ele>230.0</ele><time>2026-04-20T08:48:31.999Z</time></trkpt><trkpt lat="43.36655633492603" lon="13.309786576629989"><ele>231.6</ele><time>2026-04-20T08:48:32.999Z</time></trkpt><trkpt lat="43.36664375190177" lon="13.309878610556446"><ele>233.2</ele><time>2026-04-20T08:48:33.999Z</time></trkpt><trkpt lat="43.36672921240113" lon="13.309959007016216"><ele>234.8</ele><time>2026-04-20T08:48:34.999Z</time></trkpt><trkpt lat="43.36681298889532" lon="13.310040266716902"><ele>236.4</ele><time>2026-04-20T08:48:35.999Z</time></trkpt><trkpt lat="43.3668927253773" lon="13.310122625803658"><ele>238.0</ele><time>2026-04-20T08:48:36.999Z</time></trkpt><trkpt lat="43.36697157099273" lon="13.310206526837158"><ele>238.0</ele><time>2026-04-20T08:48:37.999Z</time></trkpt><trkpt lat="43.36705550128953" lon="13.310288911501875"><ele>238.0</ele><time>2026-04-20T08:48:38.999Z</time></trkpt><trkpt lat="43.36713482426765" lon="13.310375506292509"><ele>238.0</ele><time>2026-04-20T08:48:39.999Z</time></trkpt><trkpt lat="43.367218299062245" lon="13.310466605436606"><ele>238.0</ele><time>2026-04-20T08:48:40.999Z</time></trkpt><trkpt lat="43.36730218331533" lon="13.310568064725755"><ele>238.0</ele><time>2026-04-20T08:48:41.999Z</time></trkpt><trkpt lat="43.367380193565474" lon="13.310686230036277"><ele>237.60000000000002</ele><time>2026-04-20T08:48:42.999Z</time></trkpt><trkpt lat="43.367445979862005" lon="13.310813636687643"><ele>237.20000000000002</ele><time>2026-04-20T08:48:43.999Z</time></trkpt><trkpt lat="43.3674993756375" lon="13.310941970856843"><ele>236.8</ele><time>2026-04-20T08:48:44.999Z</time></trkpt><trkpt lat="43.36753674528433" lon="13.311070962477146"><ele>236.4</ele><time>2026-04-20T08:48:45.999Z</time></trkpt><trkpt lat="43.36757069549394" lon="13.311196470189035"><ele>236.0</ele><time>2026-04-20T08:48:46.999Z</time></trkpt><trkpt lat="43.36760335536843" lon="13.31131102378702"><ele>237.0</ele><time>2026-04-20T08:48:47.999Z</time></trkpt><trkpt lat="43.36763781228874" lon="13.311429417184117"><ele>238.00000000000003</ele><time>2026-04-20T08:48:48.999Z</time></trkpt><trkpt lat="43.3676684520243" lon="13.311552808318314"><ele>239.00000000000003</ele><time>2026-04-20T08:48:49.999Z</time></trkpt><trkpt lat="43.36770399903425" lon="13.311680524776023"><ele>240.0</ele><time>2026-04-20T08:48:50.999Z</time></trkpt><trkpt lat="43.36773861469401" lon="13.311807494318236"><ele>241.0</ele><time>2026-04-20T08:48:51.999Z</time></trkpt><trkpt lat="43.36777230218966" lon="13.311939939202825"><ele>241.0</ele><time>2026-04-20T08:48:52.999Z</time></trkpt><trkpt lat="43.36780564638468" lon="13.312080954139526"><ele>241.0</ele><time>2026-04-20T08:48:53.999Z</time></trkpt><trkpt lat="43.36783809374574" lon="13.312223582135152"><ele>241.0</ele><time>2026-04-20T08:48:54.999Z</time></trkpt><trkpt lat="43.36787331469884" lon="13.312378192632824"><ele>241.0</ele><time>2026-04-20T08:48:55.999Z</time></trkpt><trkpt lat="43.36789857617315" lon="13.31253781851755"><ele>241.75</ele><time>2026-04-20T08:48:56.999Z</time></trkpt><trkpt lat="43.367917775698075" lon="13.312703616873163"><ele>242.5</ele><time>2026-04-20T08:48:57.999Z</time></trkpt><trkpt lat="43.36793784468362" lon="13.312889707139101"><ele>243.25</ele><time>2026-04-20T08:48:58.999Z</time></trkpt><trkpt lat="43.367960620423794" lon="13.313077014783564"><ele>244.0</ele><time>2026-04-20T08:48:59.999Z</time></trkpt><trkpt lat="43.36799419317271" lon="13.3132572901064"><ele>242.25</ele><time>2026-04-20T08:49:00.999Z</time></trkpt><trkpt lat="43.3680359308521" lon="13.31342188902939"><ele>240.5</ele><time>2026-04-20T08:49:01.999Z</time></trkpt><trkpt lat="43.36808146725421" lon="13.313572311166654"><ele>238.75</ele><time>2026-04-20T08:49:02.999Z</time></trkpt><trkpt lat="43.368124270238695" lon="13.313722091092785"><ele>237.0</ele><time>2026-04-20T08:49:03.999Z</time></trkpt><trkpt lat="43.36816382049953" lon="13.313867488815943"><ele>238.0</ele><time>2026-04-20T08:49:04.999Z</time></trkpt><trkpt lat="43.36820019987911" lon="13.314008320400779"><ele>239.0</ele><time>2026-04-20T08:49:05.999Z</time></trkpt><trkpt lat="43.36823843972921" lon="13.314139341874059"><ele>240.0</ele><time>2026-04-20T08:49:06.999Z</time></trkpt><trkpt lat="43.36826973243117" lon="13.31425796351497"><ele>241.0</ele><time>2026-04-20T08:49:07.999Z</time></trkpt><trkpt lat="43.36831207330242" lon="13.3144048422357"><ele>242.0</ele><time>2026-04-20T08:49:08.999Z</time></trkpt><trkpt lat="43.36835918411604" lon="13.314569677217499"><ele>242.0</ele><time>2026-04-20T08:49:09.999Z</time></trkpt><trkpt lat="43.3684073259529" lon="13.314726048694949"><ele>242.0</ele><time>2026-04-20T08:49:10.999Z</time></trkpt><trkpt lat="43.36846384565538" lon="13.314885122627466"><ele>242.0</ele><time>2026-04-20T08:49:11.999Z</time></trkpt><trkpt lat="43.36853079330481" lon="13.315045659354613"><ele>242.0</ele><time>2026-04-20T08:49:12.999Z</time></trkpt><trkpt lat="43.36860460023367" lon="13.31520710012263"><ele>243.25</ele><time>2026-04-20T08:49:13.999Z</time></trkpt><trkpt lat="43.36867729844608" lon="13.31536665816738"><ele>244.5</ele><time>2026-04-20T08:49:14.999Z</time></trkpt><trkpt lat="43.368750096467416" lon="13.315536250036322"><ele>245.75</ele><time>2026-04-20T08:49:15.999Z</time></trkpt><trkpt lat="43.36882153747972" lon="13.31570192480223"><ele>247.0</ele><time>2026-04-20T08:49:16.999Z</time></trkpt><trkpt lat="43.36890752343551" lon="13.315860874812879"><ele>247.25</ele><time>2026-04-20T08:49:17.999Z</time></trkpt><trkpt lat="43.368971409655586" lon="13.316012392572073"><ele>247.5</ele><time>2026-04-20T08:49:18.999Z</time></trkpt><trkpt lat="43.3690352461023" lon="13.31616083036314"><ele>247.75</ele><time>2026-04-20T08:49:19.999Z</time></trkpt><trkpt lat="43.36910827312238" lon="13.316295735870645"><ele>248.0</ele><time>2026-04-20T08:49:20.999Z</time></trkpt><trkpt lat="43.36916926367339" lon="13.31644130319118"><ele>249.2</ele><time>2026-04-20T08:49:21.999Z</time></trkpt><trkpt lat="43.369226329106375" lon="13.316585402355601"><ele>250.4</ele><time>2026-04-20T08:49:22.999Z</time></trkpt><trkpt lat="43.36928045930659" lon="13.316723419457157"><ele>251.59999999999997</ele><time>2026-04-20T08:49:23.999Z</time></trkpt><trkpt lat="43.3693285908233" lon="13.316851972790863"><ele>252.79999999999998</ele><time>2026-04-20T08:49:24.999Z</time></trkpt><trkpt lat="43.369378627737724" lon="13.31698818953518"><ele>254.0</ele><time>2026-04-20T08:49:25.999Z</time></trkpt><trkpt lat="43.36941381263876" lon="13.317132123800453"><ele>254.2</ele><time>2026-04-20T08:49:26.999Z</time></trkpt><trkpt lat="43.369439770788986" lon="13.317296201370961"><ele>254.39999999999998</ele><time>2026-04-20T08:49:27.999Z</time></trkpt><trkpt lat="43.369460601482096" lon="13.317453836163853"><ele>254.6</ele><time>2026-04-20T08:49:28.999Z</time></trkpt><trkpt lat="43.36948409268919" lon="13.317592497679131"><ele>254.8</ele><time>2026-04-20T08:49:29.999Z</time></trkpt><trkpt lat="43.36949992372365" lon="13.31771348922336"><ele>255.0</ele><time>2026-04-20T08:49:30.999Z</time></trkpt><trkpt lat="43.36951750863386" lon="13.317836498916796"><ele>255.0</ele><time>2026-04-20T08:49:31.999Z</time></trkpt><trkpt lat="43.36953618779859" lon="13.317961951023433"><ele>255.0</ele><time>2026-04-20T08:49:32.999Z</time></trkpt><trkpt lat="43.36955953833124" lon="13.318100316153402"><ele>255.0</ele><time>2026-04-20T08:49:33.999Z</time></trkpt><trkpt lat="43.36958402290944" lon="13.31823376472405"><ele>255.0</ele><time>2026-04-20T08:49:34.999Z</time></trkpt><trkpt lat="43.36960301824652" lon="13.318353555392207"><ele>255.0</ele><time>2026-04-20T08:49:35.999Z</time></trkpt><trkpt lat="43.369614207997934" lon="13.318471929410178"><ele>255.0</ele><time>2026-04-20T08:49:36.999Z</time></trkpt><trkpt lat="43.36962235450596" lon="13.318591825627898"><ele>255.0</ele><time>2026-04-20T08:49:37.999Z</time></trkpt><trkpt lat="43.3696886085385" lon="13.318824394433966"><ele>255.0</ele><time>2026-04-20T08:49:38.999Z</time></trkpt><trkpt lat="43.36971304078346" lon="13.318975324126571"><ele>255.0</ele><time>2026-04-20T08:49:39.999Z</time></trkpt><trkpt lat="43.36973847533151" lon="13.319127248669869"><ele>255.2</ele><time>2026-04-20T08:49:40.999Z</time></trkpt><trkpt lat="43.36975856250481" lon="13.319284776355472"><ele>255.4</ele><time>2026-04-20T08:49:41.999Z</time></trkpt><trkpt lat="43.36976783191363" lon="13.31944205701679"><ele>255.60000000000002</ele><time>2026-04-20T08:49:42.999Z</time></trkpt><trkpt lat="43.36976619018382" lon="13.319591890253857"><ele>255.8</ele><time>2026-04-20T08:49:43.999Z</time></trkpt><trkpt lat="43.3697630801426" lon="13.319738308332665"><ele>256.0</ele><time>2026-04-20T08:49:44.999Z</time></trkpt><trkpt lat="43.369758058130394" lon="13.319882028412696"><ele>256.0</ele><time>2026-04-20T08:49:45.999Z</time></trkpt><trkpt lat="43.36975073453905" lon="13.320024117163804"><ele>256.0</ele><time>2026-04-20T08:49:46.999Z</time></trkpt><trkpt lat="43.369747247412" lon="13.320174995074764"><ele>256.0</ele><time>2026-04-20T08:49:48Z</time></trkpt><trkpt lat="43.36974366331439" lon="13.32032605005436"><ele>256.0</ele><time>2026-04-20T08:49:49Z</time></trkpt><trkpt lat="43.36974486924202" lon="13.320476951410846"><ele>256.0</ele><time>2026-04-20T08:49:50Z</time></trkpt><trkpt lat="43.36976575560758" lon="13.320633631332084"><ele>256.75</ele><time>2026-04-20T08:49:51Z</time></trkpt><trkpt lat="43.36980544737659" lon="13.32078454761832"><ele>257.5</ele><time>2026-04-20T08:49:52Z</time></trkpt><trkpt lat="43.36985855645725" lon="13.320934666997903"><ele>258.25</ele><time>2026-04-20T08:49:53Z</time></trkpt><trkpt lat="43.36991332877741" lon="13.321086476383162"><ele>259.0</ele><time>2026-04-20T08:49:54Z</time></trkpt><trkpt lat="43.36996191847906" lon="13.321238519949453"><ele>259.0</ele><time>2026-04-20T08:49:55Z</time></trkpt><trkpt lat="43.37001242778177" lon="13.321384509246329"><ele>259.0</ele><time>2026-04-20T08:49:56Z</time></trkpt><trkpt lat="43.3700620687126" lon="13.321532948039696"><ele>259.0</ele><time>2026-04-20T08:49:57Z</time></trkpt><trkpt lat="43.37011154252559" lon="13.321682858672581"><ele>259.0</ele><time>2026-04-20T08:49:58Z</time></trkpt><trkpt lat="43.37016075867521" lon="13.321833368815314"><ele>259.25</ele><time>2026-04-20T08:49:59Z</time></trkpt><trkpt lat="43.37021987652934" lon="13.321977679087531"><ele>259.5</ele><time>2026-04-20T08:50:00Z</time></trkpt><trkpt lat="43.37028946379617" lon="13.32212357487556"><ele>259.75</ele><time>2026-04-20T08:50:01Z</time></trkpt><trkpt lat="43.37037695299506" lon="13.322268891498338"><ele>260.0</ele><time>2026-04-20T08:50:02Z</time></trkpt><trkpt lat="43.370460406283854" lon="13.322415512411961"><ele>259.75</ele><time>2026-04-20T08:50:03Z</time></trkpt><trkpt lat="43.37053053623214" lon="13.322539516887991"><ele>259.5</ele><time>2026-04-20T08:50:04Z</time></trkpt><trkpt lat="43.37060962124071" lon="13.322666030031508"><ele>259.25</ele><time>2026-04-20T08:50:05Z</time></trkpt><trkpt lat="43.370685690557096" lon="13.322810427672021"><ele>259.0</ele><time>2026-04-20T08:50:06Z</time></trkpt><trkpt lat="43.370784484611136" lon="13.322939315448322"><ele>259.0</ele><time>2026-04-20T08:50:07Z</time></trkpt><trkpt lat="43.37086018951046" lon="13.323047272283752"><ele>259.0</ele><time>2026-04-20T08:50:08Z</time></trkpt><trkpt lat="43.37093899715122" lon="13.323187756001603"><ele>259.0</ele><time>2026-04-20T08:50:09Z</time></trkpt><trkpt lat="43.371022580656565" lon="13.323319810976496"><ele>259.0</ele><time>2026-04-20T08:50:10Z</time></trkpt><trkpt lat="43.37110723901165" lon="13.323444717923708"><ele>258.75</ele><time>2026-04-20T08:50:11Z</time></trkpt><trkpt lat="43.3711885805054" lon="13.323578086333846"><ele>258.5</ele><time>2026-04-20T08:50:12Z</time></trkpt><trkpt lat="43.37126404026359" lon="13.323706635736434"><ele>258.25</ele><time>2026-04-20T08:50:13Z</time></trkpt><trkpt lat="43.37133153677672" lon="13.323861326322842"><ele>258.0</ele><time>2026-04-20T08:50:14Z</time></trkpt><trkpt lat="43.37138864561185" lon="13.324009408939496"><ele>257.2</ele><time>2026-04-20T08:50:15Z</time></trkpt><trkpt lat="43.37143241449855" lon="13.324152397754107"><ele>256.4</ele><time>2026-04-20T08:50:16Z</time></trkpt><trkpt lat="43.371469300989254" lon="13.324280627568557"><ele>255.59999999999997</ele><time>2026-04-20T08:50:17Z</time></trkpt><trkpt lat="43.37150761924325" lon="13.324402032036202"><ele>254.79999999999998</ele><time>2026-04-20T08:50:18Z</time></trkpt><trkpt lat="43.37153012941366" lon="13.324511212319905"><ele>254.0</ele><time>2026-04-20T08:50:19Z</time></trkpt><trkpt lat="43.37155934560685" lon="13.32463675071147"><ele>253.6</ele><time>2026-04-20T08:50:20Z</time></trkpt><trkpt lat="43.37157508658255" lon="13.324764461521678"><ele>253.2</ele><time>2026-04-20T08:50:21Z</time></trkpt><trkpt lat="43.37159190504008" lon="13.32489530093455"><ele>252.79999999999998</ele><time>2026-04-20T08:50:22Z</time></trkpt><trkpt lat="43.371599954307" lon="13.325009678839129"><ele>252.39999999999998</ele><time>2026-04-20T08:50:23Z</time></trkpt><trkpt lat="43.3716089658661" lon="13.325106179907763"><ele>252.0</ele><time>2026-04-20T08:50:24Z</time></trkpt><trkpt lat="43.37162345829694" lon="13.325252365152853"><ele>252.0</ele><time>2026-04-20T08:50:26Z</time></trkpt><trkpt lat="43.37165314041082" lon="13.325346955611366"><ele>252.0</ele><time>2026-04-20T08:50:28Z</time></trkpt><trkpt lat="43.37177097514223" lon="13.325336648334316"><ele>252.0</ele><time>2026-04-20T08:50:29.999Z</time></trkpt><trkpt lat="43.371877885832966" lon="13.325271991413732"><ele>252.0</ele><time>2026-04-20T08:50:31.999Z</time></trkpt><trkpt lat="43.37193906891555" lon="13.325242354598082"><ele>252.0</ele><time>2026-04-20T08:50:32.999Z</time></trkpt><trkpt lat="43.37203301250679" lon="13.325190903641328"><ele>252.0</ele><time>2026-04-20T08:50:34.999Z</time></trkpt><trkpt lat="43.372111126126114" lon="13.325142599327199"><ele>252.0</ele><time>2026-04-20T08:50:36.999Z</time></trkpt><trkpt lat="43.37219506633425" lon="13.325092717588506"><ele>252.0</ele><time>2026-04-20T08:50:38.999Z</time></trkpt><trkpt lat="43.372278746735915" lon="13.32503625405141"><ele>252.0</ele><time>2026-04-20T08:50:40.999Z</time></trkpt><trkpt lat="43.37236888327437" lon="13.324986308291356"><ele>252.0</ele><time>2026-04-20T08:50:42.999Z</time></trkpt><trkpt lat="43.372468190656555" lon="13.324922500406519"><ele>250.33333333333334</ele><time>2026-04-20T08:50:44.999Z</time></trkpt><trkpt lat="43.3725720056666" lon="13.32485316083751"><ele>248.66666666666669</ele><time>2026-04-20T08:50:46.999Z</time></trkpt><trkpt lat="43.372681237957025" lon="13.32478139165556"><ele>247.0</ele><time>2026-04-20T08:50:48.999Z</time></trkpt><trkpt lat="43.37274025826435" lon="13.324742720663089"><ele>245.33333333333334</ele><time>2026-04-20T08:50:49.999Z</time></trkpt><trkpt lat="43.37279882086352" lon="13.324700197034977"><ele>243.66666666666669</ele><time>2026-04-20T08:50:50.999Z</time></trkpt><trkpt lat="43.37286051748162" lon="13.32465538551423"><ele>242.0</ele><time>2026-04-20T08:50:51.999Z</time></trkpt><trkpt lat="43.37297334968678" lon="13.324577896432455"><ele>238.5</ele><time>2026-04-20T08:50:53.999Z</time></trkpt><trkpt lat="43.37308540355485" lon="13.324499705155333"><ele>235.0</ele><time>2026-04-20T08:50:55.999Z</time></trkpt><trkpt lat="43.3731878759035" lon="13.32442274044559"><ele>231.5</ele><time>2026-04-20T08:50:57.999Z</time></trkpt><trkpt lat="43.373282134058556" lon="13.324354841037515"><ele>228.0</ele><time>2026-04-20T08:50:59.999Z</time></trkpt><trkpt lat="43.373374495122896" lon="13.32428598786034"><ele>228.0</ele><time>2026-04-20T08:51:01.999Z</time></trkpt><trkpt lat="43.37346234484659" lon="13.324223921080957"><ele>228.0</ele><time>2026-04-20T08:51:03.999Z</time></trkpt><trkpt lat="43.3735562673161" lon="13.324159784311801"><ele>228.0</ele><time>2026-04-20T08:51:05.999Z</time></trkpt><trkpt lat="43.37365215301138" lon="13.324098061210956"><ele>228.0</ele><time>2026-04-20T08:51:07.999Z</time></trkpt><trkpt lat="43.3737558367885" lon="13.324030261103294"><ele>228.0</ele><time>2026-04-20T08:51:09.999Z</time></trkpt><trkpt lat="43.37381264166787" lon="13.32399223398132"><ele>227.2</ele><time>2026-04-20T08:51:10.999Z</time></trkpt><trkpt lat="43.37392546256827" lon="13.323929002275987"><ele>226.4</ele><time>2026-04-20T08:51:12.999Z</time></trkpt><trkpt lat="43.373983016334975" lon="13.323884696481688"><ele>225.59999999999997</ele><time>2026-04-20T08:51:13.999Z</time></trkpt><trkpt lat="43.37409097785999" lon="13.323818610343555"><ele>224.79999999999998</ele><time>2026-04-20T08:51:15.999Z</time></trkpt><trkpt lat="43.37415029902658" lon="13.32378417071611"><ele>224.0</ele><time>2026-04-20T08:51:16.999Z</time></trkpt><trkpt lat="43.37426209962423" lon="13.323701324633241"><ele>222.71428571428572</ele><time>2026-04-20T08:51:18.999Z</time></trkpt><trkpt lat="43.37432302939794" lon="13.323666396833378"><ele>221.42857142857144</ele><time>2026-04-20T08:51:19.999Z</time></trkpt><trkpt lat="43.374383869397306" lon="13.323626561358632"><ele>220.14285714285714</ele><time>2026-04-20T08:51:20.999Z</time></trkpt><trkpt lat="43.37444551646004" lon="13.323583471418875"><ele>218.85714285714286</ele><time>2026-04-20T08:51:21.999Z</time></trkpt><trkpt lat="43.374504200783655" lon="13.323540846880608"><ele>217.57142857142858</ele><time>2026-04-20T08:51:22.999Z</time></trkpt><trkpt lat="43.37456390369193" lon="13.323490397849417"><ele>216.28571428571428</ele><time>2026-04-20T08:51:23.999Z</time></trkpt><trkpt lat="43.37461910166171" lon="13.323443020170107"><ele>215.0</ele><time>2026-04-20T08:51:24.999Z</time></trkpt><trkpt lat="43.37467540505781" lon="13.32338806951433"><ele>214.00000000000003</ele><time>2026-04-20T08:51:25.999Z</time></trkpt><trkpt lat="43.37472816975832" lon="13.323335989385374"><ele>213.0</ele><time>2026-04-20T08:51:26.999Z</time></trkpt><trkpt lat="43.37478721904271" lon="13.323276617513109"><ele>212.0</ele><time>2026-04-20T08:51:27.999Z</time></trkpt><trkpt lat="43.37485320613948" lon="13.323206655695977"><ele>211.0</ele><time>2026-04-20T08:51:28.999Z</time></trkpt><trkpt lat="43.37492128547666" lon="13.323139134630477"><ele>210.00000000000003</ele><time>2026-04-20T08:51:29.999Z</time></trkpt><trkpt lat="43.3749965411622" lon="13.323061463704114"><ele>209.0</ele><time>2026-04-20T08:51:30.999Z</time></trkpt><trkpt lat="43.37506943760469" lon="13.322991141002554"><ele>207.39999999999998</ele><time>2026-04-20T08:51:31.999Z</time></trkpt><trkpt lat="43.37514498857872" lon="13.322916299079575"><ele>205.8</ele><time>2026-04-20T08:51:32.999Z</time></trkpt><trkpt lat="43.37522569481043" lon="13.322835098910906"><ele>204.2</ele><time>2026-04-20T08:51:33.999Z</time></trkpt><trkpt lat="43.37530592902366" lon="13.322758047737686"><ele>202.60000000000002</ele><time>2026-04-20T08:51:34.999Z</time></trkpt><trkpt lat="43.37538260802463" lon="13.322681388911443"><ele>201.0</ele><time>2026-04-20T08:51:35.999Z</time></trkpt><trkpt lat="43.375459065039" lon="13.322606958963819"><ele>199.83333333333334</ele><time>2026-04-20T08:51:36.999Z</time></trkpt><trkpt lat="43.37553156646346" lon="13.322536742509294"><ele>198.66666666666669</ele><time>2026-04-20T08:51:37.999Z</time></trkpt><trkpt lat="43.37560280539759" lon="13.322467545426397"><ele>197.5</ele><time>2026-04-20T08:51:38.999Z</time></trkpt><trkpt lat="43.375674445854735" lon="13.322397780184977"><ele>196.33333333333334</ele><time>2026-04-20T08:51:39.999Z</time></trkpt><trkpt lat="43.37574498877278" lon="13.322329889154695"><ele>195.16666666666669</ele><time>2026-04-20T08:51:40.999Z</time></trkpt><trkpt lat="43.375820327987256" lon="13.32226268947736"><ele>194.0</ele><time>2026-04-20T08:51:41.999Z</time></trkpt><trkpt lat="43.375891841686474" lon="13.322188945290616"><ele>193.00000000000003</ele><time>2026-04-20T08:51:42.999Z</time></trkpt><trkpt lat="43.375959820654636" lon="13.322116540413974"><ele>192.0</ele><time>2026-04-20T08:51:43.999Z</time></trkpt><trkpt lat="43.37601952120798" lon="13.322049743991592"><ele>191.0</ele><time>2026-04-20T08:51:44.999Z</time></trkpt><trkpt lat="43.37607957458853" lon="13.32197476176004"><ele>190.0</ele><time>2026-04-20T08:51:45.999Z</time></trkpt><trkpt lat="43.37614838790166" lon="13.321888258428661"><ele>189.0</ele><time>2026-04-20T08:51:46.999Z</time></trkpt><trkpt lat="43.376216582309006" lon="13.321810548610094"><ele>188.0</ele><time>2026-04-20T08:51:47.999Z</time></trkpt><trkpt lat="43.37628045388595" lon="13.321732952649915"><ele>188.0</ele><time>2026-04-20T08:51:48.999Z</time></trkpt><trkpt lat="43.37634590247833" lon="13.321657795592731"><ele>188.0</ele><time>2026-04-20T08:51:49.999Z</time></trkpt><trkpt lat="43.376401756314706" lon="13.321591605510989"><ele>188.0</ele><time>2026-04-20T08:51:50.999Z</time></trkpt><trkpt lat="43.37645453749203" lon="13.321528563782087"><ele>188.0</ele><time>2026-04-20T08:51:51.999Z</time></trkpt><trkpt lat="43.37651013409987" lon="13.321465827913558"><ele>188.0</ele><time>2026-04-20T08:51:52.999Z</time></trkpt><trkpt lat="43.37656611752546" lon="13.321412993832308"><ele>188.0</ele><time>2026-04-20T08:51:54Z</time></trkpt><trkpt lat="43.37666530552973" lon="13.321306197339933"><ele>188.0</ele><time>2026-04-20T08:51:56Z</time></trkpt><trkpt lat="43.37676642198543" lon="13.321199309988566"><ele>188.0</ele><time>2026-04-20T08:51:58Z</time></trkpt><trkpt lat="43.37681938506098" lon="13.32114955447845"><ele>188.0</ele><time>2026-04-20T08:51:59Z</time></trkpt><trkpt lat="43.3768727519182" lon="13.321095322634731"><ele>188.0</ele><time>2026-04-20T08:52:00Z</time></trkpt><trkpt lat="43.37692390547068" lon="13.32104272021358"><ele>188.0</ele><time>2026-04-20T08:52:01Z</time></trkpt><trkpt lat="43.37702765023938" lon="13.320933919773397"><ele>188.0</ele><time>2026-04-20T08:52:03Z</time></trkpt><trkpt lat="43.37708849940418" lon="13.32087781321107"><ele>188.0</ele><time>2026-04-20T08:52:04Z</time></trkpt><trkpt lat="43.37714056409069" lon="13.320816157387421"><ele>188.0</ele><time>2026-04-20T08:52:05Z</time></trkpt><trkpt lat="43.377244846704244" lon="13.320704767871828"><ele>188.0</ele><time>2026-04-20T08:52:07Z</time></trkpt><trkpt lat="43.377299756365254" lon="13.320654844048489"><ele>188.0</ele><time>2026-04-20T08:52:08Z</time></trkpt><trkpt lat="43.37735097227667" lon="13.320596870388218"><ele>188.0</ele><time>2026-04-20T08:52:09Z</time></trkpt><trkpt lat="43.37740914717751" lon="13.320535602010839"><ele>186.83333333333331</ele><time>2026-04-20T08:52:10Z</time></trkpt><trkpt lat="43.37746643173979" lon="13.32046789587468"><ele>185.66666666666666</ele><time>2026-04-20T08:52:11Z</time></trkpt><trkpt lat="43.377540581255204" lon="13.320418561280665"><ele>184.5</ele><time>2026-04-20T08:52:12Z</time></trkpt><trkpt lat="43.37759538619181" lon="13.320333995036734"><ele>183.33333333333334</ele><time>2026-04-20T08:52:13Z</time></trkpt><trkpt lat="43.37765717950371" lon="13.320273699715237"><ele>182.16666666666669</ele><time>2026-04-20T08:52:14Z</time></trkpt><trkpt lat="43.37771592444452" lon="13.320210723149774"><ele>181.0</ele><time>2026-04-20T08:52:15Z</time></trkpt><trkpt lat="43.377773648732294" lon="13.32015542490906"><ele>181.0</ele><time>2026-04-20T08:52:16Z</time></trkpt><trkpt lat="43.3778365078723" lon="13.320100759542356"><ele>181.0</ele><time>2026-04-20T08:52:17Z</time></trkpt><trkpt lat="43.37789151624176" lon="13.320043662257302"><ele>181.0</ele><time>2026-04-20T08:52:18Z</time></trkpt><trkpt lat="43.377950169292745" lon="13.319986743862076"><ele>181.0</ele><time>2026-04-20T08:52:19Z</time></trkpt><trkpt lat="43.37800799150046" lon="13.319927495685766"><ele>181.0</ele><time>2026-04-20T08:52:20Z</time></trkpt><trkpt lat="43.378060486217606" lon="13.319862638746601"><ele>181.0</ele><time>2026-04-20T08:52:21Z</time></trkpt><trkpt lat="43.37811462345482" lon="13.31979480193759"><ele>181.0</ele><time>2026-04-20T08:52:22Z</time></trkpt><trkpt lat="43.378166452392925" lon="13.319723762648398"><ele>180.0</ele><time>2026-04-20T08:52:23Z</time></trkpt><trkpt lat="43.37821662115752" lon="13.319648180406327"><ele>179.0</ele><time>2026-04-20T08:52:24Z</time></trkpt><trkpt lat="43.37826584146356" lon="13.319560577640297"><ele>178.0</ele><time>2026-04-20T08:52:25Z</time></trkpt><trkpt lat="43.3783140351164" lon="13.319473032945783"><ele>177.0</ele><time>2026-04-20T08:52:26Z</time></trkpt><trkpt lat="43.37835584265993" lon="13.319377578048849"><ele>176.0</ele><time>2026-04-20T08:52:27Z</time></trkpt><trkpt lat="43.37840033407848" lon="13.3192841510263"><ele>175.0</ele><time>2026-04-20T08:52:28Z</time></trkpt><trkpt lat="43.378447156649294" lon="13.319191930012279"><ele>175.0</ele><time>2026-04-20T08:52:29Z</time></trkpt><trkpt lat="43.378493094056836" lon="13.31909649277423"><ele>175.0</ele><time>2026-04-20T08:52:30Z</time></trkpt><trkpt lat="43.37853858947726" lon="13.319001281485871"><ele>175.0</ele><time>2026-04-20T08:52:31Z</time></trkpt><trkpt lat="43.378578591175376" lon="13.31890354752184"><ele>175.0</ele><time>2026-04-20T08:52:32Z</time></trkpt><trkpt lat="43.3786412228764" lon="13.318814484323052"><ele>175.0</ele><time>2026-04-20T08:52:33Z</time></trkpt><trkpt lat="43.37867471679944" lon="13.318704086100253"><ele>175.0</ele><time>2026-04-20T08:52:34Z</time></trkpt><trkpt lat="43.37873550468668" lon="13.318619161461678"><ele>174.66666666666669</ele><time>2026-04-20T08:52:35Z</time></trkpt><trkpt lat="43.37878663716661" lon="13.318514536540356"><ele>174.33333333333334</ele><time>2026-04-20T08:52:36Z</time></trkpt><trkpt lat="43.37883280338007" lon="13.31842007327295"><ele>174.0</ele><time>2026-04-20T08:52:37Z</time></trkpt><trkpt lat="43.3788635892396" lon="13.318319103127624"><ele>173.66666666666666</ele><time>2026-04-20T08:52:38Z</time></trkpt><trkpt lat="43.37890752055628" lon="13.31823291217943"><ele>173.33333333333331</ele><time>2026-04-20T08:52:39Z</time></trkpt><trkpt lat="43.37896218868324" lon="13.31813585457983"><ele>173.0</ele><time>2026-04-20T08:52:40Z</time></trkpt><trkpt lat="43.37901051355922" lon="13.318035441736049"><ele>172.66666666666666</ele><time>2026-04-20T08:52:41Z</time></trkpt><trkpt lat="43.379054190980895" lon="13.317952567017944"><ele>172.33333333333331</ele><time>2026-04-20T08:52:42Z</time></trkpt><trkpt lat="43.37912715244553" lon="13.317815328577685"><ele>172.0</ele><time>2026-04-20T08:52:44Z</time></trkpt><trkpt lat="43.3791650723182" lon="13.317742359270001"><ele>171.66666666666666</ele><time>2026-04-20T08:52:45Z</time></trkpt><trkpt lat="43.37921022189164" lon="13.317666204580025"><ele>171.33333333333334</ele><time>2026-04-20T08:52:45.999Z</time></trkpt><trkpt lat="43.37925164191625" lon="13.317599571126756"><ele>171.0</ele><time>2026-04-20T08:52:46.999Z</time></trkpt><trkpt lat="43.37929168079553" lon="13.317532494381643"><ele>171.0</ele><time>2026-04-20T08:52:47.999Z</time></trkpt><trkpt lat="43.37933487729841" lon="13.31746721462152"><ele>171.0</ele><time>2026-04-20T08:52:48.999Z</time></trkpt><trkpt lat="43.37942898324478" lon="13.317340553684978"><ele>171.0</ele><time>2026-04-20T08:52:50.999Z</time></trkpt><trkpt lat="43.379475845865976" lon="13.317275105315769"><ele>171.0</ele><time>2026-04-20T08:52:51.999Z</time></trkpt><trkpt lat="43.37951951855" lon="13.317211569709329"><ele>171.0</ele><time>2026-04-20T08:52:52.999Z</time></trkpt><trkpt lat="43.379552253468624" lon="13.317134929771136"><ele>171.0</ele><time>2026-04-20T08:52:53.999Z</time></trkpt><trkpt lat="43.37959558320609" lon="13.31706298813671"><ele>171.16666666666666</ele><time>2026-04-20T08:52:54.999Z</time></trkpt><trkpt lat="43.37960782599979" lon="13.316959194509707"><ele>171.33333333333334</ele><time>2026-04-20T08:52:55.999Z</time></trkpt><trkpt lat="43.37960495262839" lon="13.316857672375411"><ele>171.5</ele><time>2026-04-20T08:52:56.999Z</time></trkpt><trkpt lat="43.379595659780954" lon="13.316762530413188"><ele>171.66666666666669</ele><time>2026-04-20T08:52:57.999Z</time></trkpt><trkpt lat="43.37954892720424" lon="13.316683905052997"><ele>171.83333333333334</ele><time>2026-04-20T08:52:58.999Z</time></trkpt><trkpt lat="43.37952384849623" lon="13.316542057640023"><ele>172.0</ele><time>2026-04-20T08:53:00.999Z</time></trkpt><trkpt lat="43.379479012081504" lon="13.316397133930796"><ele>171.66666666666669</ele><time>2026-04-20T08:53:02.999Z</time></trkpt><trkpt lat="43.37944215791855" lon="13.31632212286705"><ele>171.33333333333334</ele><time>2026-04-20T08:53:03.999Z</time></trkpt><trkpt lat="43.37942908949829" lon="13.316226879950806"><ele>171.0</ele><time>2026-04-20T08:53:04.999Z</time></trkpt><trkpt lat="43.379385699304706" lon="13.316069487520346"><ele>170.66666666666666</ele><time>2026-04-20T08:53:06.999Z</time></trkpt><trkpt lat="43.379364383544875" lon="13.315986128599151"><ele>170.33333333333331</ele><time>2026-04-20T08:53:07.999Z</time></trkpt><trkpt lat="43.379344701078175" lon="13.315897357379825"><ele>170.0</ele><time>2026-04-20T08:53:08.999Z</time></trkpt><trkpt lat="43.37932924895174" lon="13.315808632703842"><ele>170.0</ele><time>2026-04-20T08:53:09.999Z</time></trkpt><trkpt lat="43.37931111762154" lon="13.31571931927184"><ele>170.0</ele><time>2026-04-20T08:53:10.999Z</time></trkpt><trkpt lat="43.37933908472028" lon="13.315634402284573"><ele>170.0</ele><time>2026-04-20T08:53:11.999Z</time></trkpt><trkpt lat="43.37936084881581" lon="13.31554471241777"><ele>170.0</ele><time>2026-04-20T08:53:12.999Z</time></trkpt><trkpt lat="43.37938945372865" lon="13.315457971153164"><ele>170.0</ele><time>2026-04-20T08:53:13.999Z</time></trkpt><trkpt lat="43.37942402821542" lon="13.315380930864473"><ele>170.0</ele><time>2026-04-20T08:53:14.999Z</time></trkpt><trkpt lat="43.379446315563484" lon="13.31529363228148"><ele>170.0</ele><time>2026-04-20T08:53:15.999Z</time></trkpt><trkpt lat="43.37952086029672" lon="13.315155861156049"><ele>169.71428571428572</ele><time>2026-04-20T08:53:17.999Z</time></trkpt><trkpt lat="43.379564655962476" lon="13.315089104472538"><ele>169.42857142857142</ele><time>2026-04-20T08:53:18.999Z</time></trkpt><trkpt lat="43.37961098654244" lon="13.315011849962413"><ele>169.14285714285714</ele><time>2026-04-20T08:53:19.999Z</time></trkpt><trkpt lat="43.37965149650351" lon="13.314932811209141"><ele>168.85714285714286</ele><time>2026-04-20T08:53:20.999Z</time></trkpt><trkpt lat="43.37969842463104" lon="13.314851537758269"><ele>168.57142857142856</ele><time>2026-04-20T08:53:21.999Z</time></trkpt><trkpt lat="43.37974809581526" lon="13.314761799169384"><ele>168.28571428571428</ele><time>2026-04-20T08:53:22.999Z</time></trkpt><trkpt lat="43.379794592191175" lon="13.314680743268566"><ele>168.0</ele><time>2026-04-20T08:53:23.999Z</time></trkpt><trkpt lat="43.37983961549293" lon="13.314608590816745"><ele>167.85714285714286</ele><time>2026-04-20T08:53:24.999Z</time></trkpt><trkpt lat="43.37988180100663" lon="13.314530419839587"><ele>167.71428571428572</ele><time>2026-04-20T08:53:25.999Z</time></trkpt><trkpt lat="43.37992956578662" lon="13.314446761565844"><ele>167.57142857142856</ele><time>2026-04-20T08:53:26.999Z</time></trkpt><trkpt lat="43.379974558427335" lon="13.314372776846605"><ele>167.42857142857144</ele><time>2026-04-20T08:53:27.999Z</time></trkpt><trkpt lat="43.380016638175945" lon="13.314299661144071"><ele>167.28571428571428</ele><time>2026-04-20T08:53:28.999Z</time></trkpt><trkpt lat="43.38006315551395" lon="13.314221438804601"><ele>167.14285714285714</ele><time>2026-04-20T08:53:29.999Z</time></trkpt><trkpt lat="43.3801114214976" lon="13.314139950935314"><ele>167.0</ele><time>2026-04-20T08:53:30.999Z</time></trkpt><trkpt lat="43.38015675213497" lon="13.314063591571028"><ele>167.0</ele><time>2026-04-20T08:53:31.999Z</time></trkpt><trkpt lat="43.380202561433265" lon="13.313985272367322"><ele>167.0</ele><time>2026-04-20T08:53:32.999Z</time></trkpt><trkpt lat="43.38024648485775" lon="13.313915094094854"><ele>167.0</ele><time>2026-04-20T08:53:33.999Z</time></trkpt><trkpt lat="43.3802874968803" lon="13.313843127570692"><ele>167.0</ele><time>2026-04-20T08:53:34.999Z</time></trkpt><trkpt lat="43.38032946954707" lon="13.313772016631408"><ele>167.0</ele><time>2026-04-20T08:53:35.999Z</time></trkpt><trkpt lat="43.38037213332253" lon="13.313692533463614"><ele>167.0</ele><time>2026-04-20T08:53:36.999Z</time></trkpt><trkpt lat="43.380414747383035" lon="13.313621130504977"><ele>167.0</ele><time>2026-04-20T08:53:37.999Z</time></trkpt><trkpt lat="43.380489964948055" lon="13.313492610617311"><ele>165.0</ele><time>2026-04-20T08:53:39.999Z</time></trkpt><trkpt lat="43.38056604769461" lon="13.313360065463295"><ele>163.0</ele><time>2026-04-20T08:53:41.999Z</time></trkpt><trkpt lat="43.38064304852093" lon="13.313226645590829"><ele>161.0</ele><time>2026-04-20T08:53:43.999Z</time></trkpt><trkpt lat="43.38072792409873" lon="13.313088793925894"><ele>159.0</ele><time>2026-04-20T08:53:45.999Z</time></trkpt><trkpt lat="43.38077337222395" lon="13.313003653587227"><ele>158.66666666666666</ele><time>2026-04-20T08:53:46.999Z</time></trkpt><trkpt lat="43.38082700390135" lon="13.312920896535086"><ele>158.33333333333334</ele><time>2026-04-20T08:53:47.999Z</time></trkpt><trkpt lat="43.380879561794224" lon="13.312820672983463"><ele>158.0</ele><time>2026-04-20T08:53:48.999Z</time></trkpt><trkpt lat="43.38092591284057" lon="13.312740451859332"><ele>157.66666666666669</ele><time>2026-04-20T08:53:49.999Z</time></trkpt><trkpt lat="43.38097387742595" lon="13.312654118242987"><ele>157.33333333333334</ele><time>2026-04-20T08:53:50.999Z</time></trkpt><trkpt lat="43.38102817867412" lon="13.312575241665899"><ele>157.0</ele><time>2026-04-20T08:53:51.999Z</time></trkpt><trkpt lat="43.38107203868406" lon="13.31249116045722"><ele>156.99999999999997</ele><time>2026-04-20T08:53:52.999Z</time></trkpt><trkpt lat="43.38111206755178" lon="13.312420432098254"><ele>157.0</ele><time>2026-04-20T08:53:53.999Z</time></trkpt><trkpt lat="43.3811523128242" lon="13.312352314537048"><ele>157.0</ele><time>2026-04-20T08:53:54.999Z</time></trkpt><trkpt lat="43.3811954300123" lon="13.312274471856075"><ele>157.0</ele><time>2026-04-20T08:53:55.999Z</time></trkpt><trkpt lat="43.38124065944274" lon="13.312195599075247"><ele>157.0</ele><time>2026-04-20T08:53:56.999Z</time></trkpt><trkpt lat="43.381284693540685" lon="13.312120616639719"><ele>156.99999999999997</ele><time>2026-04-20T08:53:57.999Z</time></trkpt><trkpt lat="43.381336935953556" lon="13.31204094974986"><ele>157.0</ele><time>2026-04-20T08:53:58.999Z</time></trkpt><trkpt lat="43.38138360667113" lon="13.311950304929407"><ele>156.4</ele><time>2026-04-20T08:54:00Z</time></trkpt><trkpt lat="43.381430960519616" lon="13.31186623952987"><ele>155.79999999999998</ele><time>2026-04-20T08:54:01Z</time></trkpt><trkpt lat="43.38151219030112" lon="13.311730526734387"><ele>155.2</ele><time>2026-04-20T08:54:03Z</time></trkpt><trkpt lat="43.38158112123861" lon="13.311604934045777"><ele>154.6</ele><time>2026-04-20T08:54:05Z</time></trkpt><trkpt lat="43.38166202455345" lon="13.311471482008532"><ele>154.0</ele><time>2026-04-20T08:54:07Z</time></trkpt><trkpt lat="43.38170750521743" lon="13.311383993493484"><ele>153.66666666666669</ele><time>2026-04-20T08:54:08Z</time></trkpt><trkpt lat="43.381744593107875" lon="13.31130895329007"><ele>153.33333333333334</ele><time>2026-04-20T08:54:09Z</time></trkpt><trkpt lat="43.38178131857749" lon="13.311235492270503"><ele>153.0</ele><time>2026-04-20T08:54:10Z</time></trkpt><trkpt lat="43.38185781167312" lon="13.31111254652008"><ele>152.66666666666666</ele><time>2026-04-20T08:54:12Z</time></trkpt><trkpt lat="43.38193145809386" lon="13.310982277375487"><ele>152.33333333333331</ele><time>2026-04-20T08:54:14Z</time></trkpt><trkpt lat="43.3819789815887" lon="13.310919110870676"><ele>152.0</ele><time>2026-04-20T08:54:15Z</time></trkpt><trkpt lat="43.382030333425284" lon="13.310866919756773"><ele>152.0</ele><time>2026-04-20T08:54:16Z</time></trkpt><trkpt lat="43.38208844718345" lon="13.310826779914988"><ele>152.0</ele><time>2026-04-20T08:54:17Z</time></trkpt><trkpt lat="43.38215187184024" lon="13.3108092107462"><ele>152.0</ele><time>2026-04-20T08:54:18Z</time></trkpt><trkpt lat="43.382217742468015" lon="13.31079961313302"><ele>152.0</ele><time>2026-04-20T08:54:19Z</time></trkpt><trkpt lat="43.38228979418113" lon="13.31080995619935"><ele>152.0</ele><time>2026-04-20T08:54:20Z</time></trkpt><trkpt lat="43.38236213845748" lon="13.310830727327456"><ele>152.0</ele><time>2026-04-20T08:54:21Z</time></trkpt><trkpt lat="43.38243084567056" lon="13.31087065637228"><ele>152.0</ele><time>2026-04-20T08:54:22Z</time></trkpt><trkpt lat="43.382499200164425" lon="13.310913289582013"><ele>151.0</ele><time>2026-04-20T08:54:23Z</time></trkpt><trkpt lat="43.382568844975765" lon="13.31096229258514"><ele>150.0</ele><time>2026-04-20T08:54:24Z</time></trkpt><trkpt lat="43.38263840279813" lon="13.311002841685195"><ele>149.0</ele><time>2026-04-20T08:54:25Z</time></trkpt><trkpt lat="43.38272097371129" lon="13.311057469789333"><ele>148.0</ele><time>2026-04-20T08:54:26Z</time></trkpt><trkpt lat="43.38281356944868" lon="13.311085621017924"><ele>147.0</ele><time>2026-04-20T08:54:27Z</time></trkpt><trkpt lat="43.38291190359436" lon="13.311091452689304"><ele>146.0</ele><time>2026-04-20T08:54:28Z</time></trkpt><trkpt lat="43.383005467942624" lon="13.311079408388693"><ele>144.33333333333331</ele><time>2026-04-20T08:54:29Z</time></trkpt><trkpt lat="43.38308766054059" lon="13.311056904888131"><ele>142.66666666666666</ele><time>2026-04-20T08:54:30Z</time></trkpt><trkpt lat="43.38315892989922" lon="13.311037247249784"><ele>141.0</ele><time>2026-04-20T08:54:31Z</time></trkpt><trkpt lat="43.38323523085235" lon="13.311017738396382"><ele>139.33333333333334</ele><time>2026-04-20T08:54:32Z</time></trkpt><trkpt lat="43.38330979214549" lon="13.311001991194834"><ele>137.66666666666669</ele><time>2026-04-20T08:54:33Z</time></trkpt><trkpt lat="43.38339165994178" lon="13.31098062797358"><ele>136.0</ele><time>2026-04-20T08:54:34Z</time></trkpt><trkpt lat="43.38346634482231" lon="13.310961581712347"><ele>136.0</ele><time>2026-04-20T08:54:35Z</time></trkpt><trkpt lat="43.383549800538795" lon="13.310944611472655"><ele>136.0</ele><time>2026-04-20T08:54:36Z</time></trkpt><trkpt lat="43.383634638147974" lon="13.310924680922888"><ele>136.0</ele><time>2026-04-20T08:54:37Z</time></trkpt><trkpt lat="43.38371904715374" lon="13.310909408506618"><ele>136.0</ele><time>2026-04-20T08:54:38Z</time></trkpt><trkpt lat="43.383806125890445" lon="13.310889728425286"><ele>136.0</ele><time>2026-04-20T08:54:39Z</time></trkpt><trkpt lat="43.383893374566576" lon="13.310868692188354"><ele>136.0</ele><time>2026-04-20T08:54:40Z</time></trkpt><trkpt lat="43.38397299543028" lon="13.310855188176097"><ele>135.83333333333334</ele><time>2026-04-20T08:54:41Z</time></trkpt><trkpt lat="43.38405637507845" lon="13.310836663087843"><ele>135.66666666666669</ele><time>2026-04-20T08:54:42Z</time></trkpt><trkpt lat="43.38413294604023" lon="13.310824102908532"><ele>135.5</ele><time>2026-04-20T08:54:43Z</time></trkpt><trkpt lat="43.38420444929602" lon="13.31081418196211"><ele>135.33333333333334</ele><time>2026-04-20T08:54:44Z</time></trkpt><trkpt lat="43.38427716504099" lon="13.310799984977074"><ele>135.16666666666666</ele><time>2026-04-20T08:54:45Z</time></trkpt><trkpt lat="43.38435619300787" lon="13.310778683745326"><ele>135.0</ele><time>2026-04-20T08:54:46Z</time></trkpt><trkpt lat="43.38442951972811" lon="13.310747934553694"><ele>135.0</ele><time>2026-04-20T08:54:47Z</time></trkpt><trkpt lat="43.38450201387633" lon="13.310699183018189"><ele>135.0</ele><time>2026-04-20T08:54:48Z</time></trkpt><trkpt lat="43.38456905913386" lon="13.31062919210101"><ele>135.0</ele><time>2026-04-20T08:54:49Z</time></trkpt><trkpt lat="43.38463109838959" lon="13.310553549022545"><ele>135.0</ele><time>2026-04-20T08:54:50Z</time></trkpt><trkpt lat="43.38468233542512" lon="13.310482324094401"><ele>135.0</ele><time>2026-04-20T08:54:51Z</time></trkpt><trkpt lat="43.38473069386999" lon="13.310410316858475"><ele>135.0</ele><time>2026-04-20T08:54:52Z</time></trkpt><trkpt lat="43.38477602725859" lon="13.310329348589399"><ele>134.42857142857142</ele><time>2026-04-20T08:54:53Z</time></trkpt><trkpt lat="43.384827125057846" lon="13.310256878081356"><ele>133.85714285714283</ele><time>2026-04-20T08:54:54Z</time></trkpt><trkpt lat="43.38487303413921" lon="13.310188106945235"><ele>133.28571428571428</ele><time>2026-04-20T08:54:55Z</time></trkpt><trkpt lat="43.384922441375565" lon="13.310121663807314"><ele>132.71428571428572</ele><time>2026-04-20T08:54:56Z</time></trkpt><trkpt lat="43.38498290447312" lon="13.310060709260545"><ele>132.14285714285717</ele><time>2026-04-20T08:54:57Z</time></trkpt><trkpt lat="43.385035408974645" lon="13.30999543932995"><ele>131.57142857142858</ele><time>2026-04-20T08:54:58Z</time></trkpt><trkpt lat="43.38508993490217" lon="13.309942761464324"><ele>131.0</ele><time>2026-04-20T08:54:59Z</time></trkpt><trkpt lat="43.38515117394678" lon="13.309899093921256"><ele>131.0</ele><time>2026-04-20T08:55:00Z</time></trkpt><trkpt lat="43.385211046409054" lon="13.309856690167155"><ele>131.0</ele><time>2026-04-20T08:55:01Z</time></trkpt><trkpt lat="43.385268694623136" lon="13.309811087139028"><ele>131.0</ele><time>2026-04-20T08:55:02Z</time></trkpt><trkpt lat="43.38538579971125" lon="13.30971842575241"><ele>131.0</ele><time>2026-04-20T08:55:03.999Z</time></trkpt><trkpt lat="43.38545332900756" lon="13.309666862124999"><ele>131.0</ele><time>2026-04-20T08:55:04.999Z</time></trkpt><trkpt lat="43.38552545205862" lon="13.309617534271629"><ele>131.0</ele><time>2026-04-20T08:55:05.999Z</time></trkpt><trkpt lat="43.385585152070504" lon="13.309576033302566"><ele>128.8</ele><time>2026-04-20T08:55:06.999Z</time></trkpt><trkpt lat="43.38564444701202" lon="13.309528825857516"><ele>126.6</ele><time>2026-04-20T08:55:07.999Z</time></trkpt><trkpt lat="43.38573106426009" lon="13.309456279253382"><ele>124.4</ele><time>2026-04-20T08:55:09.999Z</time></trkpt><trkpt lat="43.38581367917562" lon="13.309393776058185"><ele>122.2</ele><time>2026-04-20T08:55:11.999Z</time></trkpt><trkpt lat="43.38591211342849" lon="13.309325544071552"><ele>120.0</ele><time>2026-04-20T08:55:13.999Z</time></trkpt><trkpt lat="43.385981170135196" lon="13.309253561786004"><ele>120.0</ele><time>2026-04-20T08:55:15.999Z</time></trkpt><trkpt lat="43.38606484157218" lon="13.3091434095013"><ele>120.0</ele><time>2026-04-20T08:55:17.999Z</time></trkpt><trkpt lat="43.38608070969276" lon="13.309047753310956"><ele>120.0</ele><time>2026-04-20T08:55:18.999Z</time></trkpt><trkpt lat="43.386071995427976" lon="13.308856294814895"><ele>120.0</ele><time>2026-04-20T08:55:20.999Z</time></trkpt><trkpt lat="43.386041102105516" lon="13.308706969377695"><ele>120.0</ele><time>2026-04-20T08:55:22.999Z</time></trkpt><trkpt lat="43.38602217229634" lon="13.308603350697457"><ele>119.0</ele><time>2026-04-20T08:55:24.999Z</time></trkpt><trkpt lat="43.38605531952342" lon="13.308517797827625"><ele>118.0</ele><time>2026-04-20T08:55:27.999Z</time></trkpt><trkpt lat="43.38614809988886" lon="13.308540736835566"><ele>117.0</ele><time>2026-04-20T08:55:56.999Z</time></trkpt><trkpt lat="43.386194945962565" lon="13.30861063849965"><ele>116.0</ele><time>2026-04-20T08:55:57.999Z</time></trkpt><trkpt lat="43.386256979761725" lon="13.308701387273379"><ele>115.0</ele><time>2026-04-20T08:55:58.999Z</time></trkpt><trkpt lat="43.386304949820016" lon="13.308765037218672"><ele>114.0</ele><time>2026-04-20T08:55:59.999Z</time></trkpt><trkpt lat="43.38639367574073" lon="13.308881588481137"><ele>113.57142857142857</ele><time>2026-04-20T08:56:01.999Z</time></trkpt><trkpt lat="43.386448984903964" lon="13.308931401757418"><ele>113.14285714285714</ele><time>2026-04-20T08:56:02.999Z</time></trkpt><trkpt lat="43.38652008054996" lon="13.308964511373294"><ele>112.71428571428571</ele><time>2026-04-20T08:56:03.999Z</time></trkpt><trkpt lat="43.386589211101416" lon="13.308979711582406"><ele>112.28571428571428</ele><time>2026-04-20T08:56:04.999Z</time></trkpt><trkpt lat="43.38665862484705" lon="13.30898307685107"><ele>111.85714285714286</ele><time>2026-04-20T08:56:06Z</time></trkpt><trkpt lat="43.386727725845105" lon="13.308972499254931"><ele>111.42857142857142</ele><time>2026-04-20T08:56:07Z</time></trkpt><trkpt lat="43.38680146053779" lon="13.308965048449174"><ele>111.0</ele><time>2026-04-20T08:56:08Z</time></trkpt><trkpt lat="43.38687055206712" lon="13.308952560330232"><ele>111.0</ele><time>2026-04-20T08:56:09Z</time></trkpt><trkpt lat="43.38694423283972" lon="13.30895234904335"><ele>111.0</ele><time>2026-04-20T08:56:10Z</time></trkpt><trkpt lat="43.38700644745567" lon="13.30898863950685"><ele>111.0</ele><time>2026-04-20T08:56:11Z</time></trkpt><trkpt lat="43.38707381507304" lon="13.30905706987963"><ele>111.0</ele><time>2026-04-20T08:56:12Z</time></trkpt><trkpt lat="43.38712346132463" lon="13.309144527152005"><ele>111.0</ele><time>2026-04-20T08:56:13Z</time></trkpt><trkpt lat="43.38717629699028" lon="13.309209139729814"><ele>111.0</ele><time>2026-04-20T08:56:14Z</time></trkpt><trkpt lat="43.38725165763868" lon="13.309239249099939"><ele>111.19999999999999</ele><time>2026-04-20T08:56:15Z</time></trkpt><trkpt lat="43.38734573988047" lon="13.309238469092561"><ele>111.39999999999999</ele><time>2026-04-20T08:56:16Z</time></trkpt><trkpt lat="43.3874491451306" lon="13.30922277383799"><ele>111.6</ele><time>2026-04-20T08:56:17Z</time></trkpt><trkpt lat="43.3875488040689" lon="13.309202259288234"><ele>111.8</ele><time>2026-04-20T08:56:18Z</time></trkpt><trkpt lat="43.38764098963301" lon="13.3091993437249"><ele>112.0</ele><time>2026-04-20T08:56:19Z</time></trkpt><trkpt lat="43.38772716958083" lon="13.309185107810448"><ele>112.00000000000001</ele><time>2026-04-20T08:56:20Z</time></trkpt><trkpt lat="43.38781500869278" lon="13.309232948062938"><ele>112.0</ele><time>2026-04-20T08:56:21Z</time></trkpt><trkpt lat="43.387882615845825" lon="13.309275505099043"><ele>112.0</ele><time>2026-04-20T08:56:22Z</time></trkpt><trkpt lat="43.387945283916835" lon="13.309325326894621"><ele>112.0</ele><time>2026-04-20T08:56:23Z</time></trkpt><trkpt lat="43.388006747030545" lon="13.30938501357516"><ele>112.00000000000001</ele><time>2026-04-20T08:56:24Z</time></trkpt><trkpt lat="43.38808124580621" lon="13.309446837169073"><ele>112.0</ele><time>2026-04-20T08:56:25Z</time></trkpt><trkpt lat="43.388163162718044" lon="13.30949420598857"><ele>112.16666666666667</ele><time>2026-04-20T08:56:26Z</time></trkpt><trkpt lat="43.38823827226511" lon="13.309528779987987"><ele>112.33333333333334</ele><time>2026-04-20T08:56:27Z</time></trkpt><trkpt lat="43.388319025357674" lon="13.309561563865087"><ele>112.5</ele><time>2026-04-20T08:56:28Z</time></trkpt><trkpt lat="43.38840146931183" lon="13.309588279599378"><ele>112.66666666666666</ele><time>2026-04-20T08:56:29Z</time></trkpt><trkpt lat="43.38848976195752" lon="13.309609309046271"><ele>112.83333333333333</ele><time>2026-04-20T08:56:30Z</time></trkpt><trkpt lat="43.388578401027175" lon="13.309644697611773"><ele>113.0</ele><time>2026-04-20T08:56:31Z</time></trkpt><trkpt lat="43.388670506009476" lon="13.309662105117775"><ele>113.0</ele><time>2026-04-20T08:56:32Z</time></trkpt><trkpt lat="43.388760050578206" lon="13.309684586100326"><ele>113.00000000000001</ele><time>2026-04-20T08:56:33Z</time></trkpt><trkpt lat="43.38884729523369" lon="13.309705422574138"><ele>113.00000000000001</ele><time>2026-04-20T08:56:34Z</time></trkpt><trkpt lat="43.38893957328302" lon="13.309733550464678"><ele>113.0</ele><time>2026-04-20T08:56:35Z</time></trkpt><trkpt lat="43.38902595490171" lon="13.309763193196442"><ele>113.0</ele><time>2026-04-20T08:56:36Z</time></trkpt><trkpt lat="43.38911351307668" lon="13.309808874859872"><ele>112.33333333333333</ele><time>2026-04-20T08:56:37Z</time></trkpt><trkpt lat="43.38919604849465" lon="13.30986068370742"><ele>111.66666666666666</ele><time>2026-04-20T08:56:38Z</time></trkpt><trkpt lat="43.389283612960284" lon="13.309904246502994"><ele>111.0</ele><time>2026-04-20T08:56:39Z</time></trkpt><trkpt lat="43.389359343354386" lon="13.30993537955474"><ele>110.33333333333334</ele><time>2026-04-20T08:56:40Z</time></trkpt><trkpt lat="43.38942668353272" lon="13.309970216825768"><ele>109.66666666666667</ele><time>2026-04-20T08:56:41Z</time></trkpt><trkpt lat="43.389489451159726" lon="13.309994945161078"><ele>109.0</ele><time>2026-04-20T08:56:42Z</time></trkpt><trkpt lat="43.38955878680291" lon="13.310072996883763"><ele>109.00000000000001</ele><time>2026-04-20T08:56:44Z</time></trkpt><trkpt lat="43.38950954463067" lon="13.31026397789919"><ele>109.0</ele><time>2026-04-20T08:56:47Z</time></trkpt><trkpt lat="43.38947556088291" lon="13.310340445246311"><ele>109.0</ele><time>2026-04-20T08:56:48Z</time></trkpt><trkpt lat="43.389481017706395" lon="13.310437427972227"><ele>109.0</ele><time>2026-04-20T08:56:49Z</time></trkpt><trkpt lat="43.38949569934045" lon="13.31052758224707"><ele>109.00000000000001</ele><time>2026-04-20T08:56:50Z</time></trkpt><trkpt lat="43.38952145510274" lon="13.310611750993502"><ele>109.0</ele><time>2026-04-20T08:56:51Z</time></trkpt><trkpt lat="43.38955454522965" lon="13.310702365765794"><ele>108.80000000000001</ele><time>2026-04-20T08:56:52Z</time></trkpt><trkpt lat="43.38960462158507" lon="13.310799526432808"><ele>108.60000000000001</ele><time>2026-04-20T08:56:53Z</time></trkpt><trkpt lat="43.38966696779315" lon="13.310890132544563"><ele>108.4</ele><time>2026-04-20T08:56:54Z</time></trkpt><trkpt lat="43.3897225458069" lon="13.311000120929018"><ele>108.2</ele><time>2026-04-20T08:56:55Z</time></trkpt><trkpt lat="43.389785660765696" lon="13.311094759265746"><ele>108.0</ele><time>2026-04-20T08:56:56Z</time></trkpt><trkpt lat="43.389837878146956" lon="13.311193382007401"><ele>108.0</ele><time>2026-04-20T08:56:57Z</time></trkpt><trkpt lat="43.38987737746695" lon="13.311288414402574"><ele>108.0</ele><time>2026-04-20T08:56:58Z</time></trkpt><trkpt lat="43.38990565517463" lon="13.311371374443228"><ele>108.0</ele><time>2026-04-20T08:56:59Z</time></trkpt><trkpt lat="43.38992116792378" lon="13.311462589104368"><ele>108.0</ele><time>2026-04-20T08:57:00Z</time></trkpt><trkpt lat="43.38995705664945" lon="13.31156963084018"><ele>108.0</ele><time>2026-04-20T08:57:01Z</time></trkpt><trkpt lat="43.390006596544474" lon="13.311687703800777"><ele>108.0</ele><time>2026-04-20T08:57:02Z</time></trkpt><trkpt lat="43.39004019632486" lon="13.311798587132115"><ele>109.60000000000001</ele><time>2026-04-20T08:57:03Z</time></trkpt><trkpt lat="43.39010856874425" lon="13.311948260141888"><ele>111.20000000000002</ele><time>2026-04-20T08:57:05Z</time></trkpt><trkpt lat="43.39011972037466" lon="13.312044273336607"><ele>112.8</ele><time>2026-04-20T08:57:06Z</time></trkpt><trkpt lat="43.39020320168578" lon="13.312182272820854"><ele>114.4</ele><time>2026-04-20T08:57:08Z</time></trkpt><trkpt lat="43.39023188561292" lon="13.312271971520088"><ele>116.0</ele><time>2026-04-20T08:57:09Z</time></trkpt><trkpt lat="43.39026237522466" lon="13.31235298166629"><ele>118.0</ele><time>2026-04-20T08:57:10Z</time></trkpt><trkpt lat="43.39027145972765" lon="13.312442541541795"><ele>120.0</ele><time>2026-04-20T08:57:11Z</time></trkpt><trkpt lat="43.39029030731063" lon="13.312536585473794"><ele>122.0</ele><time>2026-04-20T08:57:12Z</time></trkpt><trkpt lat="43.390260472122776" lon="13.312653519306277"><ele>124.0</ele><time>2026-04-20T08:57:14Z</time></trkpt><trkpt lat="43.39015467782173" lon="13.312708544082788"><ele>126.0</ele><time>2026-04-20T08:57:15.999Z</time></trkpt><trkpt lat="43.390027911120534" lon="13.312675400078355"><ele>126.0</ele><time>2026-04-20T08:57:17.999Z</time></trkpt><trkpt lat="43.38995280344572" lon="13.312622850978181"><ele>126.0</ele><time>2026-04-20T08:57:18.999Z</time></trkpt><trkpt lat="43.38985800401249" lon="13.312550793869933"><ele>126.0</ele><time>2026-04-20T08:57:19.999Z</time></trkpt><trkpt lat="43.38975900837309" lon="13.312478528316637"><ele>126.0</ele><time>2026-04-20T08:57:20.999Z</time></trkpt><trkpt lat="43.389667774287474" lon="13.312388060290399"><ele>126.0</ele><time>2026-04-20T08:57:21.999Z</time></trkpt><trkpt lat="43.38957930067991" lon="13.31234877488757"><ele>127.25</ele><time>2026-04-20T08:57:22.999Z</time></trkpt><trkpt lat="43.38946265582786" lon="13.312302243882755"><ele>128.5</ele><time>2026-04-20T08:57:23.999Z</time></trkpt><trkpt lat="43.38937056934062" lon="13.312250560080017"><ele>129.75</ele><time>2026-04-20T08:57:24.999Z</time></trkpt><trkpt lat="43.3893052510173" lon="13.31221101574358"><ele>131.0</ele><time>2026-04-20T08:57:25.999Z</time></trkpt><trkpt lat="43.38915510325817" lon="13.312123652898393"><ele>131.0</ele><time>2026-04-20T08:57:27.999Z</time></trkpt><trkpt lat="43.38907420372574" lon="13.31207221919381"><ele>131.0</ele><time>2026-04-20T08:57:28.999Z</time></trkpt><trkpt lat="43.388984743638474" lon="13.312018242004992"><ele>131.0</ele><time>2026-04-20T08:57:29.999Z</time></trkpt><trkpt lat="43.3888694098365" lon="13.311957771875072"><ele>131.0</ele><time>2026-04-20T08:57:30.999Z</time></trkpt><trkpt lat="43.38880594967013" lon="13.311915648878694"><ele>131.0</ele><time>2026-04-20T08:57:31.999Z</time></trkpt><trkpt lat="43.38873765348262" lon="13.311872403177354"><ele>132.4</ele><time>2026-04-20T08:57:32.999Z</time></trkpt><trkpt lat="43.388658048415216" lon="13.311826312898503"><ele>133.8</ele><time>2026-04-20T08:57:33.999Z</time></trkpt><trkpt lat="43.38859024342793" lon="13.311794312878584"><ele>135.20000000000002</ele><time>2026-04-20T08:57:34.999Z</time></trkpt><trkpt lat="43.388479348283866" lon="13.311774541900302"><ele>136.6</ele><time>2026-04-20T08:57:36.999Z</time></trkpt><trkpt lat="43.38834782023509" lon="13.311875216029271"><ele>138.0</ele><time>2026-04-20T08:57:38.999Z</time></trkpt><trkpt lat="43.388315739797164" lon="13.31197714287752"><ele>138.0</ele><time>2026-04-20T08:57:39.999Z</time></trkpt><trkpt lat="43.38830745149167" lon="13.31210743214214"><ele>138.0</ele><time>2026-04-20T08:57:40.999Z</time></trkpt><trkpt lat="43.38832862257873" lon="13.31222455990397"><ele>138.0</ele><time>2026-04-20T08:57:41.999Z</time></trkpt><trkpt lat="43.388365222762545" lon="13.312347611085514"><ele>138.0</ele><time>2026-04-20T08:57:42.999Z</time></trkpt><trkpt lat="43.38840593282137" lon="13.312495810863888"><ele>138.0</ele><time>2026-04-20T08:57:43.999Z</time></trkpt><trkpt lat="43.388438200511814" lon="13.312648841796786"><ele>139.0</ele><time>2026-04-20T08:57:44.999Z</time></trkpt><trkpt lat="43.38846487878755" lon="13.312769331263178"><ele>140.0</ele><time>2026-04-20T08:57:45.999Z</time></trkpt><trkpt lat="43.38848852838648" lon="13.31289094380142"><ele>141.0</ele><time>2026-04-20T08:57:46.999Z</time></trkpt><trkpt lat="43.38851509737403" lon="13.31301360459135"><ele>142.0</ele><time>2026-04-20T08:57:47.999Z</time></trkpt><trkpt lat="43.388543977026885" lon="13.313118458629072"><ele>143.0</ele><time>2026-04-20T08:57:48.999Z</time></trkpt><trkpt lat="43.38855966563438" lon="13.313221239184273"><ele>144.0</ele><time>2026-04-20T08:57:49.999Z</time></trkpt><trkpt lat="43.38857567092331" lon="13.313321031958226"><ele>144.8</ele><time>2026-04-20T08:57:50.999Z</time></trkpt><trkpt lat="43.388599073553394" lon="13.313435915795663"><ele>145.60000000000002</ele><time>2026-04-20T08:57:51.999Z</time></trkpt><trkpt lat="43.388634443217036" lon="13.313549145033074"><ele>146.4</ele><time>2026-04-20T08:57:52.999Z</time></trkpt><trkpt lat="43.388682650495234" lon="13.313660028088826"><ele>147.20000000000002</ele><time>2026-04-20T08:57:53.999Z</time></trkpt><trkpt lat="43.38874252948441" lon="13.313767411383486"><ele>148.0</ele><time>2026-04-20T08:57:54.999Z</time></trkpt><trkpt lat="43.38881694715689" lon="13.313864558316451"><ele>148.5</ele><time>2026-04-20T08:57:55.999Z</time></trkpt><trkpt lat="43.38888279433392" lon="13.313965190918877"><ele>149.0</ele><time>2026-04-20T08:57:56.999Z</time></trkpt><trkpt lat="43.388928294521875" lon="13.314056646454905"><ele>149.5</ele><time>2026-04-20T08:57:57.999Z</time></trkpt><trkpt lat="43.388958489969866" lon="13.314149620115447"><ele>150.0</ele><time>2026-04-20T08:57:58.999Z</time></trkpt><trkpt lat="43.388970854193545" lon="13.314265364661384"><ele>150.5</ele><time>2026-04-20T08:57:59.999Z</time></trkpt><trkpt lat="43.38895790509102" lon="13.314399346713271"><ele>151.0</ele><time>2026-04-20T08:58:00.999Z</time></trkpt><trkpt lat="43.38892843340274" lon="13.31456695830422"><ele>151.5</ele><time>2026-04-20T08:58:01.999Z</time></trkpt><trkpt lat="43.38889173409767" lon="13.314793337836766"><ele>152.0</ele><time>2026-04-20T08:58:02.999Z</time></trkpt><trkpt lat="43.38887400574535" lon="13.315004766777413"><ele>152.5</ele><time>2026-04-20T08:58:03.999Z</time></trkpt><trkpt lat="43.38885897680682" lon="13.315167203390267"><ele>153.0</ele><time>2026-04-20T08:58:04.999Z</time></trkpt><trkpt lat="43.3888469596689" lon="13.315308210181612"><ele>153.5</ele><time>2026-04-20T08:58:05.999Z</time></trkpt><trkpt lat="43.388837972865325" lon="13.315431386056881"><ele>154.0</ele><time>2026-04-20T08:58:06.999Z</time></trkpt><trkpt lat="43.3888306082924" lon="13.31553829458803"><ele>154.5</ele><time>2026-04-20T08:58:07.999Z</time></trkpt><trkpt lat="43.38882873016374" lon="13.315654221277514"><ele>155.0</ele><time>2026-04-20T08:58:08.999Z</time></trkpt><trkpt lat="43.388829912897904" lon="13.315772062696345"><ele>155.5</ele><time>2026-04-20T08:58:09.999Z</time></trkpt><trkpt lat="43.388820884300344" lon="13.3158945156747"><ele>156.0</ele><time>2026-04-20T08:58:10.999Z</time></trkpt><trkpt lat="43.388815069401375" lon="13.316016512575919"><ele>156.4</ele><time>2026-04-20T08:58:12Z</time></trkpt><trkpt lat="43.3888142688513" lon="13.31615024217748"><ele>156.8</ele><time>2026-04-20T08:58:13Z</time></trkpt><trkpt lat="43.38881543513293" lon="13.316276912418486"><ele>157.20000000000002</ele><time>2026-04-20T08:58:14Z</time></trkpt><trkpt lat="43.38881582672934" lon="13.316398068202675"><ele>157.6</ele><time>2026-04-20T08:58:15Z</time></trkpt><trkpt lat="43.3888155577664" lon="13.316521391547813"><ele>158.0</ele><time>2026-04-20T08:58:16Z</time></trkpt><trkpt lat="43.38881120869762" lon="13.316646874931733"><ele>158.20000000000002</ele><time>2026-04-20T08:58:17Z</time></trkpt><trkpt lat="43.388806424029" lon="13.316779892540541"><ele>158.4</ele><time>2026-04-20T08:58:18Z</time></trkpt><trkpt lat="43.38880262898413" lon="13.316918123332218"><ele>158.60000000000002</ele><time>2026-04-20T08:58:19Z</time></trkpt><trkpt lat="43.388796625716004" lon="13.317062034744943"><ele>158.8</ele><time>2026-04-20T08:58:20Z</time></trkpt><trkpt lat="43.388785068736546" lon="13.317208886202366"><ele>159.0</ele><time>2026-04-20T08:58:21Z</time></trkpt><trkpt lat="43.388764811336344" lon="13.31735461973526"><ele>160.5</ele><time>2026-04-20T08:58:22Z</time></trkpt><trkpt lat="43.38873172350277" lon="13.317503764461474"><ele>162.0</ele><time>2026-04-20T08:58:23Z</time></trkpt><trkpt lat="43.38868572650395" lon="13.317645065218793"><ele>163.5</ele><time>2026-04-20T08:58:24Z</time></trkpt><trkpt lat="43.38862461656138" lon="13.317771162964645"><ele>165.0</ele><time>2026-04-20T08:58:25Z</time></trkpt><trkpt lat="43.38854263189869" lon="13.317900720387186"><ele>165.0</ele><time>2026-04-20T08:58:26Z</time></trkpt><trkpt lat="43.388464010053156" lon="13.31802834566396"><ele>165.0</ele><time>2026-04-20T08:58:27Z</time></trkpt><trkpt lat="43.38840352649672" lon="13.318141632771022"><ele>165.0</ele><time>2026-04-20T08:58:28Z</time></trkpt><trkpt lat="43.38834064390147" lon="13.318258143450292"><ele>165.0</ele><time>2026-04-20T08:58:29Z</time></trkpt><trkpt lat="43.388277302758915" lon="13.318377956546879"><ele>165.0</ele><time>2026-04-20T08:58:30Z</time></trkpt><trkpt lat="43.38822175124219" lon="13.31849400813481"><ele>166.0</ele><time>2026-04-20T08:58:31Z</time></trkpt><trkpt lat="43.38816705808887" lon="13.31860857040312"><ele>167.0</ele><time>2026-04-20T08:58:32Z</time></trkpt><trkpt lat="43.38811503779042" lon="13.3187191067239"><ele>168.0</ele><time>2026-04-20T08:58:33Z</time></trkpt><trkpt lat="43.38806045666152" lon="13.318829981685662"><ele>169.0</ele><time>2026-04-20T08:58:34Z</time></trkpt><trkpt lat="43.3880031289784" lon="13.318949704120751"><ele>170.0</ele><time>2026-04-20T08:58:35Z</time></trkpt><trkpt lat="43.387948367389875" lon="13.319057841520712"><ele>170.8</ele><time>2026-04-20T08:58:36Z</time></trkpt><trkpt lat="43.38789791092821" lon="13.31915009234471"><ele>171.6</ele><time>2026-04-20T08:58:37Z</time></trkpt><trkpt lat="43.38784623493114" lon="13.319243477233037"><ele>172.39999999999998</ele><time>2026-04-20T08:58:38Z</time></trkpt><trkpt lat="43.387789773507606" lon="13.31933857504993"><ele>173.2</ele><time>2026-04-20T08:58:39Z</time></trkpt><trkpt lat="43.387731761840435" lon="13.319436968026881"><ele>174.0</ele><time>2026-04-20T08:58:40Z</time></trkpt><trkpt lat="43.38767545677329" lon="13.319551142775639"><ele>174.0</ele><time>2026-04-20T08:58:41Z</time></trkpt><trkpt lat="43.38762693782579" lon="13.319657154725729"><ele>174.0</ele><time>2026-04-20T08:58:42Z</time></trkpt><trkpt lat="43.387570072002" lon="13.319761233041678"><ele>174.0</ele><time>2026-04-20T08:58:43Z</time></trkpt><trkpt lat="43.387510901594226" lon="13.319876740116586"><ele>174.0</ele><time>2026-04-20T08:58:44Z</time></trkpt><trkpt lat="43.387459115665145" lon="13.319987846663329"><ele>174.0</ele><time>2026-04-20T08:58:45Z</time></trkpt><trkpt lat="43.387406867361115" lon="13.320097684879993"><ele>174.39999999999998</ele><time>2026-04-20T08:58:46Z</time></trkpt><trkpt lat="43.38736141410511" lon="13.320211190946623"><ele>174.8</ele><time>2026-04-20T08:58:47Z</time></trkpt><trkpt lat="43.38731928085382" lon="13.32031791686841"><ele>175.2</ele><time>2026-04-20T08:58:48Z</time></trkpt><trkpt lat="43.38727115410983" lon="13.320421030303397"><ele>175.60000000000002</ele><time>2026-04-20T08:58:49Z</time></trkpt><trkpt lat="43.3872229085005" lon="13.320541533689164"><ele>176.0</ele><time>2026-04-20T08:58:50Z</time></trkpt><trkpt lat="43.387172515259415" lon="13.32066151068633"><ele>174.8</ele><time>2026-04-20T08:58:51Z</time></trkpt><trkpt lat="43.387116110431826" lon="13.32077091046266"><ele>173.60000000000002</ele><time>2026-04-20T08:58:52Z</time></trkpt><trkpt lat="43.38707637108265" lon="13.320893049374286"><ele>172.4</ele><time>2026-04-20T08:58:53Z</time></trkpt><trkpt lat="43.387041348334265" lon="13.321009071514425"><ele>171.2</ele><time>2026-04-20T08:58:54Z</time></trkpt><trkpt lat="43.38700674333895" lon="13.32112393124959"><ele>170.0</ele><time>2026-04-20T08:58:55Z</time></trkpt><trkpt lat="43.38697719924329" lon="13.321242392054419"><ele>170.0</ele><time>2026-04-20T08:58:56Z</time></trkpt><trkpt lat="43.386948514153225" lon="13.321366916610232"><ele>170.0</ele><time>2026-04-20T08:58:57Z</time></trkpt><trkpt lat="43.38692033469402" lon="13.321492225785148"><ele>170.0</ele><time>2026-04-20T08:58:58Z</time></trkpt><trkpt lat="43.38689536357993" lon="13.321615204283846"><ele>170.0</ele><time>2026-04-20T08:58:59Z</time></trkpt><trkpt lat="43.38686487171391" lon="13.321742739672253"><ele>170.0</ele><time>2026-04-20T08:59:00Z</time></trkpt><trkpt lat="43.38682883913067" lon="13.321865077757506"><ele>170.2</ele><time>2026-04-20T08:59:01Z</time></trkpt><trkpt lat="43.386792292936136" lon="13.321991911888997"><ele>170.4</ele><time>2026-04-20T08:59:02Z</time></trkpt><trkpt lat="43.38675849967014" lon="13.322116133448967"><ele>170.60000000000002</ele><time>2026-04-20T08:59:03Z</time></trkpt><trkpt lat="43.38672452072186" lon="13.322240041946296"><ele>170.8</ele><time>2026-04-20T08:59:03.999Z</time></trkpt><trkpt lat="43.38668783281408" lon="13.322362263156768"><ele>171.0</ele><time>2026-04-20T08:59:04.999Z</time></trkpt><trkpt lat="43.38664851717331" lon="13.322480996116608"><ele>171.0</ele><time>2026-04-20T08:59:05.999Z</time></trkpt><trkpt lat="43.386614505067726" lon="13.322603961268142"><ele>171.0</ele><time>2026-04-20T08:59:06.999Z</time></trkpt><trkpt lat="43.3865744190134" lon="13.322728235192224"><ele>171.0</ele><time>2026-04-20T08:59:07.999Z</time></trkpt><trkpt lat="43.38652549152945" lon="13.32284669426945"><ele>171.0</ele><time>2026-04-20T08:59:08.999Z</time></trkpt><trkpt lat="43.38647028056814" lon="13.322960600881505"><ele>171.0</ele><time>2026-04-20T08:59:09.999Z</time></trkpt><trkpt lat="43.38641081508508" lon="13.323069847425684"><ele>171.0</ele><time>2026-04-20T08:59:10.999Z</time></trkpt><trkpt lat="43.38633444729241" lon="13.323178789751628"><ele>171.0</ele><time>2026-04-20T08:59:11.999Z</time></trkpt><trkpt lat="43.3862553022617" lon="13.323280279121995"><ele>171.0</ele><time>2026-04-20T08:59:12.999Z</time></trkpt><trkpt lat="43.38617618594818" lon="13.323390421148602"><ele>171.0</ele><time>2026-04-20T08:59:13.999Z</time></trkpt><trkpt lat="43.38609857347545" lon="13.323498399784837"><ele>171.0</ele><time>2026-04-20T08:59:14.999Z</time></trkpt><trkpt lat="43.38602216457324" lon="13.32360252081699"><ele>171.0</ele><time>2026-04-20T08:59:15.999Z</time></trkpt><trkpt lat="43.38595022333612" lon="13.323708931536384"><ele>171.0</ele><time>2026-04-20T08:59:16.999Z</time></trkpt><trkpt lat="43.38587226406646" lon="13.323807623296114"><ele>171.0</ele><time>2026-04-20T08:59:17.999Z</time></trkpt><trkpt lat="43.38580586545599" lon="13.323905432073504"><ele>171.0</ele><time>2026-04-20T08:59:18.999Z</time></trkpt><trkpt lat="43.38574231188805" lon="13.323997515011316"><ele>171.0</ele><time>2026-04-20T08:59:19.999Z</time></trkpt><trkpt lat="43.385682369586526" lon="13.324083309073739"><ele>171.66666666666666</ele><time>2026-04-20T08:59:20.999Z</time></trkpt><trkpt lat="43.38563170804703" lon="13.324149037470198"><ele>172.33333333333334</ele><time>2026-04-20T08:59:21.999Z</time></trkpt><trkpt lat="43.385576114220136" lon="13.324220312801609"><ele>173.0</ele><time>2026-04-20T08:59:22.999Z</time></trkpt><trkpt lat="43.38551525191647" lon="13.324300330236419"><ele>173.66666666666669</ele><time>2026-04-20T08:59:23.999Z</time></trkpt><trkpt lat="43.38545712536735" lon="13.324381220739998"><ele>174.33333333333334</ele><time>2026-04-20T08:59:24.999Z</time></trkpt><trkpt lat="43.38540514274611" lon="13.324475566884198"><ele>175.0</ele><time>2026-04-20T08:59:25.999Z</time></trkpt><trkpt lat="43.38535837760512" lon="13.324566744641611"><ele>175.0</ele><time>2026-04-20T08:59:26.999Z</time></trkpt><trkpt lat="43.385310334088324" lon="13.324658582567265"><ele>175.0</ele><time>2026-04-20T08:59:27.999Z</time></trkpt><trkpt lat="43.38526115548768" lon="13.324743516607448"><ele>175.0</ele><time>2026-04-20T08:59:28.999Z</time></trkpt><trkpt lat="43.38521221493638" lon="13.324820144906294"><ele>175.0</ele><time>2026-04-20T08:59:29.999Z</time></trkpt><trkpt lat="43.385163256041196" lon="13.324900938984381"><ele>175.0</ele><time>2026-04-20T08:59:30.999Z</time></trkpt><trkpt lat="43.385125084962496" lon="13.324970808336344"><ele>175.0</ele><time>2026-04-20T08:59:31.999Z</time></trkpt><trkpt lat="43.38509197295814" lon="13.325061551521378"><ele>175.0</ele><time>2026-04-20T08:59:32.999Z</time></trkpt><trkpt lat="43.38507519215289" lon="13.325160172507438"><ele>175.0</ele><time>2026-04-20T08:59:33.999Z</time></trkpt><trkpt lat="43.38511031170278" lon="13.325333169940574"><ele>175.0</ele><time>2026-04-20T08:59:35.999Z</time></trkpt><trkpt lat="43.38516982080156" lon="13.325432951089688"><ele>175.0</ele><time>2026-04-20T08:59:36.999Z</time></trkpt><trkpt lat="43.38523440103281" lon="13.325566706583363"><ele>175.0</ele><time>2026-04-20T08:59:37.999Z</time></trkpt><trkpt lat="43.385338343271684" lon="13.325714326651166"><ele>175.2</ele><time>2026-04-20T08:59:38.999Z</time></trkpt><trkpt lat="43.385417762491066" lon="13.325833328979927"><ele>175.4</ele><time>2026-04-20T08:59:39.999Z</time></trkpt><trkpt lat="43.385488299921825" lon="13.325946869724499"><ele>175.60000000000002</ele><time>2026-04-20T08:59:40.999Z</time></trkpt><trkpt lat="43.385555115633984" lon="13.326041752823095"><ele>175.8</ele><time>2026-04-20T08:59:41.999Z</time></trkpt><trkpt lat="43.38561103666973" lon="13.32613654652427"><ele>176.0</ele><time>2026-04-20T08:59:42.999Z</time></trkpt><trkpt lat="43.38566221810721" lon="13.326215854282585"><ele>176.57142857142858</ele><time>2026-04-20T08:59:43.999Z</time></trkpt><trkpt lat="43.385708444412906" lon="13.326292769758487"><ele>177.14285714285714</ele><time>2026-04-20T08:59:44.999Z</time></trkpt><trkpt lat="43.38575299388887" lon="13.326373437464996"><ele>177.71428571428572</ele><time>2026-04-20T08:59:45.999Z</time></trkpt><trkpt lat="43.385803785066805" lon="13.326439365147229"><ele>178.28571428571428</ele><time>2026-04-20T08:59:46.999Z</time></trkpt><trkpt lat="43.38584593152889" lon="13.326511111508122"><ele>178.85714285714286</ele><time>2026-04-20T08:59:47.999Z</time></trkpt><trkpt lat="43.385892595559106" lon="13.326582502514396"><ele>179.42857142857142</ele><time>2026-04-20T08:59:48.999Z</time></trkpt><trkpt lat="43.38594443494781" lon="13.32665523319698"><ele>180.0</ele><time>2026-04-20T08:59:49.999Z</time></trkpt><trkpt lat="43.38599077898056" lon="13.326731455032245"><ele>180.0</ele><time>2026-04-20T08:59:50.999Z</time></trkpt><trkpt lat="43.386038581750675" lon="13.326811303615344"><ele>180.0</ele><time>2026-04-20T08:59:51.999Z</time></trkpt><trkpt lat="43.386085788649495" lon="13.326894201687397"><ele>180.0</ele><time>2026-04-20T08:59:52.999Z</time></trkpt><trkpt lat="43.38614043730606" lon="13.326976568656054"><ele>180.0</ele><time>2026-04-20T08:59:53.999Z</time></trkpt><trkpt lat="43.38618202589438" lon="13.327069768757964"><ele>180.0</ele><time>2026-04-20T08:59:54.999Z</time></trkpt><trkpt lat="43.38620599534044" lon="13.32716131543552"><ele>180.0</ele><time>2026-04-20T08:59:55.999Z</time></trkpt><trkpt lat="43.386217730531754" lon="13.327256659704865"><ele>179.33333333333334</ele><time>2026-04-20T08:59:56.999Z</time></trkpt><trkpt lat="43.386216939939715" lon="13.327358138059719"><ele>178.66666666666666</ele><time>2026-04-20T08:59:57.999Z</time></trkpt><trkpt lat="43.386203937303534" lon="13.327458476115392"><ele>178.0</ele><time>2026-04-20T08:59:58.999Z</time></trkpt><trkpt lat="43.38615737022033" lon="13.327552067106717"><ele>177.33333333333331</ele><time>2026-04-20T08:59:59.999Z</time></trkpt><trkpt lat="43.38612931623937" lon="13.327645334848087"><ele>176.66666666666666</ele><time>2026-04-20T09:00:00.999Z</time></trkpt><trkpt lat="43.386052100716114" lon="13.327684690552434"><ele>176.0</ele><time>2026-04-20T09:00:01.999Z</time></trkpt><trkpt lat="43.38596730431682" lon="13.32778411830645"><ele>176.0</ele><time>2026-04-20T09:00:02.999Z</time></trkpt><trkpt lat="43.385890916147716" lon="13.327875282699617"><ele>176.0</ele><time>2026-04-20T09:00:03.999Z</time></trkpt><trkpt lat="43.38581780106253" lon="13.327962541230022"><ele>176.0</ele><time>2026-04-20T09:00:04.999Z</time></trkpt><trkpt lat="43.385742145191536" lon="13.32805285297323"><ele>176.0</ele><time>2026-04-20T09:00:05.999Z</time></trkpt><trkpt lat="43.38566339769775" lon="13.32814479074824"><ele>176.0</ele><time>2026-04-20T09:00:06.999Z</time></trkpt><trkpt lat="43.38558511724589" lon="13.32823618382423"><ele>175.4</ele><time>2026-04-20T09:00:07.999Z</time></trkpt><trkpt lat="43.38550825645725" lon="13.328325394582736"><ele>174.8</ele><time>2026-04-20T09:00:08.999Z</time></trkpt><trkpt lat="43.385431244973645" lon="13.328422261390884"><ele>174.20000000000002</ele><time>2026-04-20T09:00:09.999Z</time></trkpt><trkpt lat="43.38535891212364" lon="13.328519270406417"><ele>173.60000000000002</ele><time>2026-04-20T09:00:10.999Z</time></trkpt><trkpt lat="43.385289102082815" lon="13.328605199173646"><ele>173.0</ele><time>2026-04-20T09:00:11.999Z</time></trkpt><trkpt lat="43.3852138564921" lon="13.328688464307694"><ele>173.0</ele><time>2026-04-20T09:00:12.999Z</time></trkpt><trkpt lat="43.385129554396904" lon="13.328781220187215"><ele>173.0</ele><time>2026-04-20T09:00:13.999Z</time></trkpt><trkpt lat="43.38505399997874" lon="13.328871580162204"><ele>173.0</ele><time>2026-04-20T09:00:14.999Z</time></trkpt><trkpt lat="43.38497043564661" lon="13.328966121561427"><ele>173.0</ele><time>2026-04-20T09:00:15.999Z</time></trkpt><trkpt lat="43.38488507928553" lon="13.329051683870924"><ele>173.0</ele><time>2026-04-20T09:00:16.999Z</time></trkpt><trkpt lat="43.38481596565371" lon="13.329135224012505"><ele>173.0</ele><time>2026-04-20T09:00:18Z</time></trkpt><trkpt lat="43.38475770333078" lon="13.329203895811244"><ele>173.0</ele><time>2026-04-20T09:00:19Z</time></trkpt><trkpt lat="43.38469268665125" lon="13.329278998522904"><ele>173.0</ele><time>2026-04-20T09:00:20Z</time></trkpt><trkpt lat="43.38462172827866" lon="13.329340985625109"><ele>173.0</ele><time>2026-04-20T09:00:21Z</time></trkpt><trkpt lat="43.38455653011629" lon="13.329420914285528"><ele>173.0</ele><time>2026-04-20T09:00:22Z</time></trkpt><trkpt lat="43.38449557634373" lon="13.329501374654354"><ele>173.0</ele><time>2026-04-20T09:00:23Z</time></trkpt><trkpt lat="43.38443741667957" lon="13.32956899014571"><ele>173.0</ele><time>2026-04-20T09:00:24Z</time></trkpt><trkpt lat="43.384384092914196" lon="13.329627956002474"><ele>173.0</ele><time>2026-04-20T09:00:25Z</time></trkpt><trkpt lat="43.38433126225712" lon="13.329691156365172"><ele>173.0</ele><time>2026-04-20T09:00:26Z</time></trkpt><trkpt lat="43.384274947390615" lon="13.329748244787027"><ele>173.0</ele><time>2026-04-20T09:00:27Z</time></trkpt><trkpt lat="43.38421989240535" lon="13.329807678937204"><ele>173.0</ele><time>2026-04-20T09:00:28Z</time></trkpt><trkpt lat="43.384157430899144" lon="13.32987868359717"><ele>173.0</ele><time>2026-04-20T09:00:29Z</time></trkpt><trkpt lat="43.38409412980909" lon="13.329945596394783"><ele>173.0</ele><time>2026-04-20T09:00:30Z</time></trkpt><trkpt lat="43.384026075954665" lon="13.330023373158948"><ele>172.83333333333331</ele><time>2026-04-20T09:00:31Z</time></trkpt><trkpt lat="43.383955482471805" lon="13.330082563241671"><ele>172.66666666666666</ele><time>2026-04-20T09:00:32Z</time></trkpt><trkpt lat="43.38388384591521" lon="13.33014655435262"><ele>172.5</ele><time>2026-04-20T09:00:33Z</time></trkpt><trkpt lat="43.3837966650398" lon="13.33019447962533"><ele>172.33333333333334</ele><time>2026-04-20T09:00:34Z</time></trkpt><trkpt lat="43.38371355940612" lon="13.33023071344276"><ele>172.16666666666669</ele><time>2026-04-20T09:00:35Z</time></trkpt><trkpt lat="43.383633663523554" lon="13.330258050575646"><ele>172.0</ele><time>2026-04-20T09:00:36Z</time></trkpt><trkpt lat="43.38356031723266" lon="13.3302986535955"><ele>172.0</ele><time>2026-04-20T09:00:37Z</time></trkpt><trkpt lat="43.3834869299595" lon="13.33035477761474"><ele>172.0</ele><time>2026-04-20T09:00:38Z</time></trkpt><trkpt lat="43.383420634574904" lon="13.330429129331028"><ele>172.0</ele><time>2026-04-20T09:00:39Z</time></trkpt><trkpt lat="43.383363588063474" lon="13.33052555666971"><ele>172.0</ele><time>2026-04-20T09:00:40Z</time></trkpt><trkpt lat="43.38330776690027" lon="13.330630791055542"><ele>172.0</ele><time>2026-04-20T09:00:41Z</time></trkpt><trkpt lat="43.38326255337631" lon="13.330735894173367"><ele>172.0</ele><time>2026-04-20T09:00:42Z</time></trkpt><trkpt lat="43.383217492353616" lon="13.330845359445844"><ele>172.0</ele><time>2026-04-20T09:00:43Z</time></trkpt><trkpt lat="43.38316897507372" lon="13.330949102113127"><ele>172.0</ele><time>2026-04-20T09:00:44Z</time></trkpt><trkpt lat="43.38312899258528" lon="13.331071863208573"><ele>172.0</ele><time>2026-04-20T09:00:45Z</time></trkpt><trkpt lat="43.3830966677501" lon="13.331188743788282"><ele>172.0</ele><time>2026-04-20T09:00:46Z</time></trkpt><trkpt lat="43.38306687144726" lon="13.33129433503057"><ele>172.0</ele><time>2026-04-20T09:00:47Z</time></trkpt><trkpt lat="43.383032757385855" lon="13.331407227565446"><ele>172.0</ele><time>2026-04-20T09:00:48Z</time></trkpt><trkpt lat="43.382999541975444" lon="13.331514290545925"><ele>171.33333333333334</ele><time>2026-04-20T09:00:49Z</time></trkpt><trkpt lat="43.38296572539876" lon="13.331622487790128"><ele>170.66666666666669</ele><time>2026-04-20T09:00:50Z</time></trkpt><trkpt lat="43.38293518067514" lon="13.331729030711926"><ele>170.0</ele><time>2026-04-20T09:00:51Z</time></trkpt><trkpt lat="43.38290071639051" lon="13.331842661205503"><ele>169.33333333333334</ele><time>2026-04-20T09:00:52Z</time></trkpt><trkpt lat="43.38286033712865" lon="13.331958617982583"><ele>168.66666666666666</ele><time>2026-04-20T09:00:53Z</time></trkpt><trkpt lat="43.382814568363635" lon="13.332070635312178"><ele>168.0</ele><time>2026-04-20T09:00:54Z</time></trkpt><trkpt lat="43.3827721955984" lon="13.332188939021542"><ele>168.2</ele><time>2026-04-20T09:00:55Z</time></trkpt><trkpt lat="43.382722632954135" lon="13.332303445133165"><ele>168.4</ele><time>2026-04-20T09:00:56Z</time></trkpt><trkpt lat="43.38266281461744" lon="13.332417518284302"><ele>168.6</ele><time>2026-04-20T09:00:57Z</time></trkpt><trkpt lat="43.382602191149616" lon="13.332534982047608"><ele>168.79999999999998</ele><time>2026-04-20T09:00:58Z</time></trkpt><trkpt lat="43.382537172743184" lon="13.33264509907649"><ele>169.0</ele><time>2026-04-20T09:00:59Z</time></trkpt><trkpt lat="43.382467735634926" lon="13.332750326900168"><ele>169.0</ele><time>2026-04-20T09:01:00Z</time></trkpt><trkpt lat="43.38240001694727" lon="13.332859931460217"><ele>169.0</ele><time>2026-04-20T09:01:01Z</time></trkpt><trkpt lat="43.38233390705276" lon="13.332965946704611"><ele>169.0</ele><time>2026-04-20T09:01:02Z</time></trkpt><trkpt lat="43.382265218644065" lon="13.333057172147496"><ele>169.0</ele><time>2026-04-20T09:01:03Z</time></trkpt><trkpt lat="43.38219817858662" lon="13.333153349085597"><ele>169.0</ele><time>2026-04-20T09:01:04Z</time></trkpt><trkpt lat="43.38213610664966" lon="13.333258996692633"><ele>169.39999999999998</ele><time>2026-04-20T09:01:05Z</time></trkpt><trkpt lat="43.38206524687393" lon="13.333367411703275"><ele>169.8</ele><time>2026-04-20T09:01:06Z</time></trkpt><trkpt lat="43.381991393743505" lon="13.333461114723805"><ele>170.2</ele><time>2026-04-20T09:01:07Z</time></trkpt><trkpt lat="43.38191571642492" lon="13.333558529756813"><ele>170.60000000000002</ele><time>2026-04-20T09:01:08Z</time></trkpt><trkpt lat="43.38184955243242" lon="13.33365408041465"><ele>171.0</ele><time>2026-04-20T09:01:09Z</time></trkpt><trkpt lat="43.381783854135534" lon="13.333739027712326"><ele>171.0</ele><time>2026-04-20T09:01:10Z</time></trkpt><trkpt lat="43.38172127513946" lon="13.333822860376394"><ele>171.0</ele><time>2026-04-20T09:01:11Z</time></trkpt><trkpt lat="43.381655559180786" lon="13.333911340534518"><ele>171.0</ele><time>2026-04-20T09:01:12Z</time></trkpt><trkpt lat="43.38158955683503" lon="13.334000614500138"><ele>171.0</ele><time>2026-04-20T09:01:13Z</time></trkpt><trkpt lat="43.38153180449937" lon="13.33408246261057"><ele>171.0</ele><time>2026-04-20T09:01:14Z</time></trkpt><trkpt lat="43.38147341916945" lon="13.334161405062662"><ele>171.0</ele><time>2026-04-20T09:01:14.999Z</time></trkpt><trkpt lat="43.381412493361005" lon="13.334249046630996"><ele>171.20000000000002</ele><time>2026-04-20T09:01:15.999Z</time></trkpt><trkpt lat="43.38134884938231" lon="13.334340147819573"><ele>171.4</ele><time>2026-04-20T09:01:16.999Z</time></trkpt><trkpt lat="43.38128174316644" lon="13.334442662038663"><ele>171.6</ele><time>2026-04-20T09:01:17.999Z</time></trkpt><trkpt lat="43.38121314609521" lon="13.334558691202297"><ele>171.8</ele><time>2026-04-20T09:01:18.999Z</time></trkpt><trkpt lat="43.38114994667227" lon="13.334664180783932"><ele>172.0</ele><time>2026-04-20T09:01:19.999Z</time></trkpt><trkpt lat="43.38109875907636" lon="13.33475901018319"><ele>173.2</ele><time>2026-04-20T09:01:20.999Z</time></trkpt><trkpt lat="43.381043328864216" lon="13.334863779508547"><ele>174.39999999999998</ele><time>2026-04-20T09:01:21.999Z</time></trkpt><trkpt lat="43.38098098676236" lon="13.334976074139634"><ele>175.60000000000002</ele><time>2026-04-20T09:01:22.999Z</time></trkpt><trkpt lat="43.38091696722625" lon="13.335084752397957"><ele>176.8</ele><time>2026-04-20T09:01:23.999Z</time></trkpt><trkpt lat="43.380857588518424" lon="13.33518313979102"><ele>178.0</ele><time>2026-04-20T09:01:24.999Z</time></trkpt><trkpt lat="43.38080097587646" lon="13.335286126110239"><ele>178.0</ele><time>2026-04-20T09:01:25.999Z</time></trkpt><trkpt lat="43.380748597084484" lon="13.335368434608947"><ele>178.0</ele><time>2026-04-20T09:01:26.999Z</time></trkpt><trkpt lat="43.380697187948755" lon="13.335454144497994"><ele>178.0</ele><time>2026-04-20T09:01:27.999Z</time></trkpt><trkpt lat="43.38063583944332" lon="13.335552192312205"><ele>178.0</ele><time>2026-04-20T09:01:28.999Z</time></trkpt><trkpt lat="43.3805700553251" lon="13.335668789566283"><ele>178.0</ele><time>2026-04-20T09:01:29.999Z</time></trkpt><trkpt lat="43.3804907040966" lon="13.335810599166443"><ele>179.60000000000002</ele><time>2026-04-20T09:01:30.999Z</time></trkpt><trkpt lat="43.38040931008295" lon="13.335948181430181"><ele>181.20000000000002</ele><time>2026-04-20T09:01:31.999Z</time></trkpt><trkpt lat="43.380346143194416" lon="13.336069203032896"><ele>182.8</ele><time>2026-04-20T09:01:32.999Z</time></trkpt><trkpt lat="43.38029024857498" lon="13.336174276863408"><ele>184.4</ele><time>2026-04-20T09:01:33.999Z</time></trkpt><trkpt lat="43.38022801631969" lon="13.336283090046635"><ele>186.0</ele><time>2026-04-20T09:01:34.999Z</time></trkpt><trkpt lat="43.38016793308094" lon="13.33639824488894"><ele>187.16666666666666</ele><time>2026-04-20T09:01:35.999Z</time></trkpt><trkpt lat="43.38010780637465" lon="13.336513490077174"><ele>188.33333333333331</ele><time>2026-04-20T09:01:36.999Z</time></trkpt><trkpt lat="43.38005061299161" lon="13.336627901712168"><ele>189.5</ele><time>2026-04-20T09:01:37.999Z</time></trkpt><trkpt lat="43.379997370469106" lon="13.336733044777942"><ele>190.66666666666666</ele><time>2026-04-20T09:01:38.999Z</time></trkpt><trkpt lat="43.37995444625713" lon="13.336816951976338"><ele>191.83333333333331</ele><time>2026-04-20T09:01:39.999Z</time></trkpt><trkpt lat="43.37991278864209" lon="13.336890536928774"><ele>193.0</ele><time>2026-04-20T09:01:40.999Z</time></trkpt><trkpt lat="43.37988002217303" lon="13.336968216812732"><ele>192.99999999999997</ele><time>2026-04-20T09:01:41.999Z</time></trkpt><trkpt lat="43.379849707221325" lon="13.33704940309891"><ele>193.0</ele><time>2026-04-20T09:01:42.999Z</time></trkpt><trkpt lat="43.379810167323335" lon="13.337137901525736"><ele>193.0</ele><time>2026-04-20T09:01:43.999Z</time></trkpt><trkpt lat="43.379773006718324" lon="13.337223700414858"><ele>193.0</ele><time>2026-04-20T09:01:44.999Z</time></trkpt><trkpt lat="43.37972036531299" lon="13.33731595364095"><ele>192.99999999999997</ele><time>2026-04-20T09:01:45.999Z</time></trkpt><trkpt lat="43.379671940652194" lon="13.337412526468814"><ele>193.0</ele><time>2026-04-20T09:01:46.999Z</time></trkpt><trkpt lat="43.379622623760895" lon="13.337493148093897"><ele>195.33333333333331</ele><time>2026-04-20T09:01:47.999Z</time></trkpt><trkpt lat="43.37957518080299" lon="13.33757180987825"><ele>197.66666666666666</ele><time>2026-04-20T09:01:48.999Z</time></trkpt><trkpt lat="43.37952792425177" lon="13.337667807134505"><ele>200.0</ele><time>2026-04-20T09:01:49.999Z</time></trkpt><trkpt lat="43.3794844593166" lon="13.337757592460381"><ele>202.33333333333331</ele><time>2026-04-20T09:01:50.999Z</time></trkpt><trkpt lat="43.379448164968345" lon="13.33785950276989"><ele>204.66666666666666</ele><time>2026-04-20T09:01:51.999Z</time></trkpt><trkpt lat="43.379424455571" lon="13.33798397605677"><ele>207.0</ele><time>2026-04-20T09:01:52.999Z</time></trkpt><trkpt lat="43.37940845170647" lon="13.33810424038383"><ele>207.0</ele><time>2026-04-20T09:01:53.999Z</time></trkpt><trkpt lat="43.3793961760493" lon="13.3382086216949"><ele>207.0</ele><time>2026-04-20T09:01:54.999Z</time></trkpt><trkpt lat="43.37939301083592" lon="13.33832337845439"><ele>207.0</ele><time>2026-04-20T09:01:55.999Z</time></trkpt><trkpt lat="43.37938319337054" lon="13.338445947527076"><ele>207.0</ele><time>2026-04-20T09:01:56.999Z</time></trkpt><trkpt lat="43.37937014011882" lon="13.338567159487056"><ele>207.0</ele><time>2026-04-20T09:01:57.999Z</time></trkpt><trkpt lat="43.37935842666061" lon="13.338682443465613"><ele>207.0</ele><time>2026-04-20T09:01:58.999Z</time></trkpt><trkpt lat="43.37934840594432" lon="13.338806835045155"><ele>207.39999999999998</ele><time>2026-04-20T09:01:59.999Z</time></trkpt><trkpt lat="43.379340336365146" lon="13.338935438118588"><ele>207.79999999999998</ele><time>2026-04-20T09:02:00.999Z</time></trkpt><trkpt lat="43.37932840331155" lon="13.339059394739987"><ele>208.2</ele><time>2026-04-20T09:02:01.999Z</time></trkpt><trkpt lat="43.379313772147064" lon="13.339196195004051"><ele>208.6</ele><time>2026-04-20T09:02:02.999Z</time></trkpt><trkpt lat="43.379281610185124" lon="13.339331670860846"><ele>209.0</ele><time>2026-04-20T09:02:03.999Z</time></trkpt><trkpt lat="43.37924832993183" lon="13.339473397904538"><ele>209.00000000000003</ele><time>2026-04-20T09:02:04.999Z</time></trkpt><trkpt lat="43.37921567131301" lon="13.339593937034431"><ele>209.0</ele><time>2026-04-20T09:02:05.999Z</time></trkpt><trkpt lat="43.379183951815534" lon="13.339699424056251"><ele>209.0</ele><time>2026-04-20T09:02:06.999Z</time></trkpt><trkpt lat="43.37915453330361" lon="13.339807051749258"><ele>209.0</ele><time>2026-04-20T09:02:07.999Z</time></trkpt><trkpt lat="43.37912478855079" lon="13.339912592378838"><ele>209.00000000000003</ele><time>2026-04-20T09:02:08.999Z</time></trkpt><trkpt lat="43.37908335569348" lon="13.340018956936662"><ele>209.0</ele><time>2026-04-20T09:02:09.999Z</time></trkpt><trkpt lat="43.37905646511607" lon="13.340098706934883"><ele>210.0</ele><time>2026-04-20T09:02:10.999Z</time></trkpt><trkpt lat="43.37901170190805" lon="13.340232390754517"><ele>211.0</ele><time>2026-04-20T09:02:12.999Z</time></trkpt><trkpt lat="43.378982248490715" lon="13.340324894831562"><ele>211.99999999999997</ele><time>2026-04-20T09:02:13.999Z</time></trkpt><trkpt lat="43.378935276942165" lon="13.340409691306759"><ele>213.0</ele><time>2026-04-20T09:02:14.999Z</time></trkpt><trkpt lat="43.378801680548385" lon="13.340429959776724"><ele>214.0</ele><time>2026-04-20T09:02:16.999Z</time></trkpt><trkpt lat="43.37871386962348" lon="13.340348445421188"><ele>216.99999999999997</ele><time>2026-04-20T09:02:17.999Z</time></trkpt><trkpt lat="43.378609253316014" lon="13.340309324889454"><ele>220.0</ele><time>2026-04-20T09:02:18.999Z</time></trkpt><trkpt lat="43.378528253005754" lon="13.340272968213833"><ele>223.0</ele><time>2026-04-20T09:02:19.999Z</time></trkpt><trkpt lat="43.37846981001435" lon="13.340237871765195"><ele>226.0</ele><time>2026-04-20T09:02:20.999Z</time></trkpt><trkpt lat="43.37840548173689" lon="13.340163741983226"><ele>228.99999999999997</ele><time>2026-04-20T09:02:22.999Z</time></trkpt><trkpt lat="43.37832458645578" lon="13.340070185365732"><ele>232.0</ele><time>2026-04-20T09:02:25Z</time></trkpt><trkpt lat="43.378250402489954" lon="13.340002297756408"><ele>232.0</ele><time>2026-04-20T09:06:09.999Z</time></trkpt><trkpt lat="43.37819493430229" lon="13.33984680457124"><ele>232.0</ele><time>2026-04-20T09:06:11.999Z</time></trkpt><trkpt lat="43.378188997110605" lon="13.33973226177951"><ele>232.0</ele><time>2026-04-20T09:06:13.999Z</time></trkpt><trkpt lat="43.37813524844547" lon="13.339612897406539"><ele>232.0</ele><time>2026-04-20T09:06:15.999Z</time></trkpt><trkpt lat="43.37809232965777" lon="13.339508400296706"><ele>232.0</ele><time>2026-04-20T09:06:16.999Z</time></trkpt><trkpt lat="43.37805966460828" lon="13.339370084296215"><ele>233.5</ele><time>2026-04-20T09:06:17.999Z</time></trkpt><trkpt lat="43.378006854767634" lon="13.339232428252354"><ele>235.0</ele><time>2026-04-20T09:06:18.999Z</time></trkpt><trkpt lat="43.37794692142873" lon="13.339083789867189"><ele>236.5</ele><time>2026-04-20T09:06:19.999Z</time></trkpt><trkpt lat="43.37788438598799" lon="13.338928581642024"><ele>238.0</ele><time>2026-04-20T09:06:20.999Z</time></trkpt><trkpt lat="43.37782088438455" lon="13.338756145625045"><ele>238.5</ele><time>2026-04-20T09:06:21.999Z</time></trkpt><trkpt lat="43.377758147994896" lon="13.338598312498688"><ele>239.0</ele><time>2026-04-20T09:06:22.999Z</time></trkpt><trkpt lat="43.37768891413828" lon="13.338465662891247"><ele>239.5</ele><time>2026-04-20T09:06:23.999Z</time></trkpt><trkpt lat="43.37761842015807" lon="13.338335041205124"><ele>240.0</ele><time>2026-04-20T09:06:24.999Z</time></trkpt><trkpt lat="43.37754427094765" lon="13.33820052682055"><ele>240.0</ele><time>2026-04-20T09:06:25.999Z</time></trkpt><trkpt lat="43.3774723704385" lon="13.338069577965353"><ele>240.0</ele><time>2026-04-20T09:06:26.999Z</time></trkpt><trkpt lat="43.37740036901076" lon="13.33793129617161"><ele>240.0</ele><time>2026-04-20T09:06:27.999Z</time></trkpt><trkpt lat="43.37732333065292" lon="13.337796885069546"><ele>240.0</ele><time>2026-04-20T09:06:28.999Z</time></trkpt><trkpt lat="43.3772758863404" lon="13.337637332890132"><ele>239.75</ele><time>2026-04-20T09:06:29.999Z</time></trkpt><trkpt lat="43.37722139995947" lon="13.337494781656783"><ele>239.5</ele><time>2026-04-20T09:06:30.999Z</time></trkpt><trkpt lat="43.37717002866392" lon="13.337348419520172"><ele>239.25</ele><time>2026-04-20T09:06:31.999Z</time></trkpt><trkpt lat="43.37710855350263" lon="13.337204874953224"><ele>239.0</ele><time>2026-04-20T09:06:32.999Z</time></trkpt><trkpt lat="43.37706554804767" lon="13.337046356161993"><ele>240.0</ele><time>2026-04-20T09:06:33.999Z</time></trkpt><trkpt lat="43.37702354498029" lon="13.33688337769262"><ele>241.0</ele><time>2026-04-20T09:06:34.999Z</time></trkpt><trkpt lat="43.376999992456554" lon="13.336705336120271"><ele>242.0</ele><time>2026-04-20T09:06:35.999Z</time></trkpt><trkpt lat="43.3769606890253" lon="13.33652464841776"><ele>243.0</ele><time>2026-04-20T09:06:36.999Z</time></trkpt><trkpt lat="43.37691596552795" lon="13.336339022764939"><ele>243.0</ele><time>2026-04-20T09:06:37.999Z</time></trkpt><trkpt lat="43.37686044193174" lon="13.336160670732772"><ele>243.0</ele><time>2026-04-20T09:06:38.999Z</time></trkpt><trkpt lat="43.37680225317878" lon="13.335993224816924"><ele>243.0</ele><time>2026-04-20T09:06:39.999Z</time></trkpt><trkpt lat="43.37674700509811" lon="13.335841849851555"><ele>243.0</ele><time>2026-04-20T09:06:40.999Z</time></trkpt><trkpt lat="43.37668602558374" lon="13.335702418338728"><ele>242.75</ele><time>2026-04-20T09:06:41.999Z</time></trkpt><trkpt lat="43.37663153933229" lon="13.335552179730431"><ele>242.5</ele><time>2026-04-20T09:06:42.999Z</time></trkpt><trkpt lat="43.376557692997565" lon="13.33540225012836"><ele>242.25</ele><time>2026-04-20T09:06:43.999Z</time></trkpt><trkpt lat="43.37646862893672" lon="13.33526509059347"><ele>242.0</ele><time>2026-04-20T09:06:44.999Z</time></trkpt><trkpt lat="43.37636175638265" lon="13.335151853543907"><ele>242.75</ele><time>2026-04-20T09:06:45.999Z</time></trkpt><trkpt lat="43.37625972739958" lon="13.335024934532905"><ele>243.5</ele><time>2026-04-20T09:06:46.999Z</time></trkpt><trkpt lat="43.376154563013074" lon="13.334892859331918"><ele>244.25</ele><time>2026-04-20T09:06:47.999Z</time></trkpt><trkpt lat="43.376057879249615" lon="13.334747088973065"><ele>245.0</ele><time>2026-04-20T09:06:48.999Z</time></trkpt><trkpt lat="43.37599584330671" lon="13.334574880972438"><ele>245.6</ele><time>2026-04-20T09:06:49.999Z</time></trkpt><trkpt lat="43.37594757237605" lon="13.334431915175117"><ele>246.2</ele><time>2026-04-20T09:06:50.999Z</time></trkpt><trkpt lat="43.37591450048908" lon="13.334319730692199"><ele>246.8</ele><time>2026-04-20T09:06:51.999Z</time></trkpt><trkpt lat="43.375869190442025" lon="13.334226572976222"><ele>247.4</ele><time>2026-04-20T09:06:52.999Z</time></trkpt><trkpt lat="43.37583675583469" lon="13.334114778778034"><ele>248.0</ele><time>2026-04-20T09:06:53.999Z</time></trkpt><trkpt lat="43.37581914474614" lon="13.333993459678881"><ele>248.00000000000003</ele><time>2026-04-20T09:06:54.999Z</time></trkpt><trkpt lat="43.37578955177369" lon="13.333891978184218"><ele>248.0</ele><time>2026-04-20T09:06:55.999Z</time></trkpt><trkpt lat="43.375762696048376" lon="13.333799883119186"><ele>248.0</ele><time>2026-04-20T09:06:56.999Z</time></trkpt><trkpt lat="43.37573410345149" lon="13.333701831903499"><ele>248.0</ele><time>2026-04-20T09:06:57.999Z</time></trkpt><trkpt lat="43.37569320591403" lon="13.33359803334278"><ele>248.00000000000003</ele><time>2026-04-20T09:06:58.999Z</time></trkpt><trkpt lat="43.37565702130528" lon="13.333478492778022"><ele>248.0</ele><time>2026-04-20T09:06:59.999Z</time></trkpt><trkpt lat="43.37560718638141" lon="13.333347362932638"><ele>247.60000000000002</ele><time>2026-04-20T09:07:00.999Z</time></trkpt><trkpt lat="43.375553665619314" lon="13.333219571683935"><ele>247.20000000000002</ele><time>2026-04-20T09:07:01.999Z</time></trkpt><trkpt lat="43.37550870012258" lon="13.333105649648111"><ele>246.8</ele><time>2026-04-20T09:07:02.999Z</time></trkpt><trkpt lat="43.37545561142871" lon="13.332981752701345"><ele>246.4</ele><time>2026-04-20T09:07:03.999Z</time></trkpt><trkpt lat="43.37540053784966" lon="13.332844895686847"><ele>246.0</ele><time>2026-04-20T09:07:04.999Z</time></trkpt><trkpt lat="43.37534089688134" lon="13.332714691861328"><ele>245.5</ele><time>2026-04-20T09:07:05.999Z</time></trkpt><trkpt lat="43.37527659307017" lon="13.332577967519635"><ele>245.0</ele><time>2026-04-20T09:07:06.999Z</time></trkpt><trkpt lat="43.37521268629272" lon="13.332439301608941"><ele>244.5</ele><time>2026-04-20T09:07:07.999Z</time></trkpt><trkpt lat="43.37515454981755" lon="13.33230422338351"><ele>244.0</ele><time>2026-04-20T09:07:08.999Z</time></trkpt><trkpt lat="43.37509781683428" lon="13.33217335036983"><ele>244.0</ele><time>2026-04-20T09:07:09.999Z</time></trkpt><trkpt lat="43.375031073857976" lon="13.332039177624566"><ele>244.0</ele><time>2026-04-20T09:07:10.999Z</time></trkpt><trkpt lat="43.37495994198689" lon="13.33189925174234"><ele>244.0</ele><time>2026-04-20T09:07:11.999Z</time></trkpt><trkpt lat="43.37488036521326" lon="13.331755050621107"><ele>244.0</ele><time>2026-04-20T09:07:12.999Z</time></trkpt><trkpt lat="43.37479569108074" lon="13.331627154869027"><ele>244.0</ele><time>2026-04-20T09:07:13.999Z</time></trkpt><trkpt lat="43.374701898056834" lon="13.331496452603998"><ele>244.0</ele><time>2026-04-20T09:07:14.999Z</time></trkpt><trkpt lat="43.37460109594639" lon="13.331374082702014"><ele>244.0</ele><time>2026-04-20T09:07:15.999Z</time></trkpt><trkpt lat="43.37448997289201" lon="13.33124664043655"><ele>244.0</ele><time>2026-04-20T09:07:16.999Z</time></trkpt><trkpt lat="43.374383893897495" lon="13.331121365588247"><ele>244.0</ele><time>2026-04-20T09:07:17.999Z</time></trkpt><trkpt lat="43.374268974590045" lon="13.330999014624355"><ele>244.0</ele><time>2026-04-20T09:07:18.999Z</time></trkpt><trkpt lat="43.374156778557214" lon="13.330875087341486"><ele>244.0</ele><time>2026-04-20T09:07:19.999Z</time></trkpt><trkpt lat="43.374045174231284" lon="13.330750733916654"><ele>244.0</ele><time>2026-04-20T09:07:20.999Z</time></trkpt><trkpt lat="43.37393321229194" lon="13.330626049273"><ele>245.5</ele><time>2026-04-20T09:07:21.999Z</time></trkpt><trkpt lat="43.37381318971654" lon="13.33051273610864"><ele>247.0</ele><time>2026-04-20T09:07:22.999Z</time></trkpt><trkpt lat="43.37369362676756" lon="13.330399665046965"><ele>248.5</ele><time>2026-04-20T09:07:23.999Z</time></trkpt><trkpt lat="43.37356863829244" lon="13.330299759286872"><ele>250.0</ele><time>2026-04-20T09:07:24.999Z</time></trkpt><trkpt lat="43.37344624714543" lon="13.330204396714565"><ele>250.0</ele><time>2026-04-20T09:07:25.999Z</time></trkpt><trkpt lat="43.37332582159931" lon="13.330108356500649"><ele>250.0</ele><time>2026-04-20T09:07:26.999Z</time></trkpt><trkpt lat="43.373208456162324" lon="13.33001017216277"><ele>250.0</ele><time>2026-04-20T09:07:27.999Z</time></trkpt><trkpt lat="43.373111465983634" lon="13.329881583038238"><ele>250.0</ele><time>2026-04-20T09:07:28.999Z</time></trkpt><trkpt lat="43.37301924035649" lon="13.329753534682848"><ele>252.0</ele><time>2026-04-20T09:07:29.999Z</time></trkpt><trkpt lat="43.37293617623667" lon="13.329612054074055"><ele>254.0</ele><time>2026-04-20T09:07:30.999Z</time></trkpt><trkpt lat="43.37285535821327" lon="13.32945734301433"><ele>256.0</ele><time>2026-04-20T09:07:31.999Z</time></trkpt><trkpt lat="43.37277458211851" lon="13.329298634271616"><ele>258.0</ele><time>2026-04-20T09:07:32.999Z</time></trkpt><trkpt lat="43.372692834224246" lon="13.329150393625946"><ele>258.0</ele><time>2026-04-20T09:07:33.999Z</time></trkpt><trkpt lat="43.372623742037014" lon="13.328994518822398"><ele>258.0</ele><time>2026-04-20T09:07:34.999Z</time></trkpt><trkpt lat="43.37256032986123" lon="13.32884816816681"><ele>258.0</ele><time>2026-04-20T09:07:35.999Z</time></trkpt><trkpt lat="43.372507668783136" lon="13.328720915010429"><ele>258.0</ele><time>2026-04-20T09:07:36.999Z</time></trkpt><trkpt lat="43.37245425301833" lon="13.328584162380052"><ele>258.25</ele><time>2026-04-20T09:07:37.999Z</time></trkpt><trkpt lat="43.37239884042981" lon="13.328444364895615"><ele>258.5</ele><time>2026-04-20T09:07:38.999Z</time></trkpt><trkpt lat="43.37236310894795" lon="13.3282857665393"><ele>258.75</ele><time>2026-04-20T09:07:39.999Z</time></trkpt><trkpt lat="43.37231778279003" lon="13.328130710830994"><ele>259.0</ele><time>2026-04-20T09:07:40.999Z</time></trkpt><trkpt lat="43.37227122182946" lon="13.327968151238046"><ele>259.25</ele><time>2026-04-20T09:07:41.999Z</time></trkpt><trkpt lat="43.372230483296946" lon="13.327816693776843"><ele>259.5</ele><time>2026-04-20T09:07:42.999Z</time></trkpt><trkpt lat="43.37219309298133" lon="13.327663971459867"><ele>259.75</ele><time>2026-04-20T09:07:43.999Z</time></trkpt><trkpt lat="43.372158247275195" lon="13.327510411965365"><ele>260.0</ele><time>2026-04-20T09:07:44.999Z</time></trkpt><trkpt lat="43.37212271339331" lon="13.327353819804665"><ele>258.5</ele><time>2026-04-20T09:07:45.999Z</time></trkpt><trkpt lat="43.37208647310957" lon="13.327197285132396"><ele>257.0</ele><time>2026-04-20T09:07:46.999Z</time></trkpt><trkpt lat="43.37204875223088" lon="13.327040264690481"><ele>255.5</ele><time>2026-04-20T09:07:47.999Z</time></trkpt><trkpt lat="43.37201164085246" lon="13.326885781721726"><ele>254.0</ele><time>2026-04-20T09:07:48.999Z</time></trkpt><trkpt lat="43.371972232456116" lon="13.326727707719346"><ele>254.0</ele><time>2026-04-20T09:07:49.999Z</time></trkpt><trkpt lat="43.37193131583304" lon="13.326579255310111"><ele>254.0</ele><time>2026-04-20T09:07:50.999Z</time></trkpt><trkpt lat="43.37188912699676" lon="13.326430650963813"><ele>254.0</ele><time>2026-04-20T09:07:51.999Z</time></trkpt><trkpt lat="43.37184861357633" lon="13.326285306283042"><ele>254.0</ele><time>2026-04-20T09:07:52.999Z</time></trkpt><trkpt lat="43.371807258353904" lon="13.326136424733075"><ele>253.5</ele><time>2026-04-20T09:07:53.999Z</time></trkpt><trkpt lat="43.37178067745663" lon="13.325977665954431"><ele>253.0</ele><time>2026-04-20T09:07:54.999Z</time></trkpt><trkpt lat="43.37175640698367" lon="13.325823766948396"><ele>252.5</ele><time>2026-04-20T09:07:55.999Z</time></trkpt><trkpt lat="43.37173302946252" lon="13.325668464099925"><ele>252.0</ele><time>2026-04-20T09:07:56.999Z</time></trkpt><trkpt lat="43.37170991797449" lon="13.32550827900632"><ele>252.0</ele><time>2026-04-20T09:07:57.999Z</time></trkpt><trkpt lat="43.371687091503645" lon="13.325350068169064"><ele>252.0</ele><time>2026-04-20T09:07:58.999Z</time></trkpt><trkpt lat="43.37166621736942" lon="13.325191487609722"><ele>252.0</ele><time>2026-04-20T09:07:59.999Z</time></trkpt><trkpt lat="43.37164724855071" lon="13.325038659500805"><ele>252.0</ele><time>2026-04-20T09:08:00.999Z</time></trkpt><trkpt lat="43.37162668355736" lon="13.324882568367986"><ele>252.0</ele><time>2026-04-20T09:08:01.999Z</time></trkpt><trkpt lat="43.37160513202267" lon="13.324731667392829"><ele>252.0</ele><time>2026-04-20T09:08:02.999Z</time></trkpt><trkpt lat="43.371580943963544" lon="13.324577674029056"><ele>252.0</ele><time>2026-04-20T09:08:03.999Z</time></trkpt><trkpt lat="43.37155124388865" lon="13.324424775456434"><ele>252.0</ele><time>2026-04-20T09:08:04.999Z</time></trkpt><trkpt lat="43.371510995372255" lon="13.324268913255025"><ele>252.5</ele><time>2026-04-20T09:08:05.999Z</time></trkpt><trkpt lat="43.37146079097031" lon="13.324110979652376"><ele>253.0</ele><time>2026-04-20T09:08:06.999Z</time></trkpt><trkpt lat="43.371405937932195" lon="13.323958375528974"><ele>253.5</ele><time>2026-04-20T09:08:07.999Z</time></trkpt><trkpt lat="43.37134581944091" lon="13.323814290993662"><ele>254.0</ele><time>2026-04-20T09:08:08.999Z</time></trkpt><trkpt lat="43.371277003058374" lon="13.323668243752604"><ele>255.0</ele><time>2026-04-20T09:08:09.999Z</time></trkpt><trkpt lat="43.37120611617585" lon="13.323534542319887"><ele>256.0</ele><time>2026-04-20T09:08:10.999Z</time></trkpt><trkpt lat="43.37112022307308" lon="13.323420367904113"><ele>257.0</ele><time>2026-04-20T09:08:11.999Z</time></trkpt><trkpt lat="43.37104128336318" lon="13.323298163852549"><ele>258.0</ele><time>2026-04-20T09:08:12.999Z</time></trkpt><trkpt lat="43.37096442756022" lon="13.323175213765582"><ele>258.0</ele><time>2026-04-20T09:08:13.999Z</time></trkpt><trkpt lat="43.37089122342146" lon="13.323065605137941"><ele>258.0</ele><time>2026-04-20T09:08:14.999Z</time></trkpt><trkpt lat="43.37081858646529" lon="13.322954460229967"><ele>258.0</ele><time>2026-04-20T09:08:15.999Z</time></trkpt><trkpt lat="43.370743634167695" lon="13.322838409058761"><ele>258.0</ele><time>2026-04-20T09:08:16.999Z</time></trkpt><trkpt lat="43.37066784132139" lon="13.322716040689384"><ele>258.0</ele><time>2026-04-20T09:08:17.999Z</time></trkpt><trkpt lat="43.37059089977005" lon="13.322593712442345"><ele>258.5</ele><time>2026-04-20T09:08:18.999Z</time></trkpt><trkpt lat="43.37052420344776" lon="13.322454193211962"><ele>259.0</ele><time>2026-04-20T09:08:19.999Z</time></trkpt><trkpt lat="43.37045146910246" lon="13.322326366906783"><ele>259.5</ele><time>2026-04-20T09:08:20.999Z</time></trkpt><trkpt lat="43.37037020540747" lon="13.322205070046282"><ele>260.0</ele><time>2026-04-20T09:08:21.999Z</time></trkpt><trkpt lat="43.370307558625825" lon="13.322062768463738"><ele>260.5</ele><time>2026-04-20T09:08:22.999Z</time></trkpt><trkpt lat="43.370240658162025" lon="13.321914038257473"><ele>261.0</ele><time>2026-04-20T09:08:23.999Z</time></trkpt><trkpt lat="43.37017689919727" lon="13.321766992911243"><ele>261.5</ele><time>2026-04-20T09:08:24.999Z</time></trkpt><trkpt lat="43.37012553265093" lon="13.321605570831418"><ele>262.0</ele><time>2026-04-20T09:08:25.999Z</time></trkpt><trkpt lat="43.37006915351156" lon="13.321444920391226"><ele>261.25</ele><time>2026-04-20T09:08:26.999Z</time></trkpt><trkpt lat="43.37000999134405" lon="13.32127879443219"><ele>260.5</ele><time>2026-04-20T09:08:27.999Z</time></trkpt><trkpt lat="43.369965417178484" lon="13.32113726531331"><ele>259.75</ele><time>2026-04-20T09:08:28.999Z</time></trkpt><trkpt lat="43.36992124677178" lon="13.320996519732438"><ele>259.0</ele><time>2026-04-20T09:08:29.999Z</time></trkpt><trkpt lat="43.36988288281172" lon="13.320842114324083"><ele>259.0</ele><time>2026-04-20T09:08:30.999Z</time></trkpt><trkpt lat="43.36983606619147" lon="13.320668051846571"><ele>259.0</ele><time>2026-04-20T09:08:31.999Z</time></trkpt><trkpt lat="43.36979405012222" lon="13.320491278120583"><ele>259.0</ele><time>2026-04-20T09:08:32.999Z</time></trkpt><trkpt lat="43.3697726213772" lon="13.320333602104215"><ele>259.0</ele><time>2026-04-20T09:08:33.999Z</time></trkpt><trkpt lat="43.36978924329277" lon="13.320157375392743"><ele>258.5</ele><time>2026-04-20T09:08:34.999Z</time></trkpt><trkpt lat="43.369794979623535" lon="13.319974494917318"><ele>258.0</ele><time>2026-04-20T09:08:35.999Z</time></trkpt><trkpt lat="43.369787809897964" lon="13.319779996794743"><ele>257.5</ele><time>2026-04-20T09:08:36.999Z</time></trkpt><trkpt lat="43.36979687324754" lon="13.319580834827244"><ele>257.0</ele><time>2026-04-20T09:08:37.999Z</time></trkpt><trkpt lat="43.3697873953916" lon="13.319375263691406"><ele>257.0</ele><time>2026-04-20T09:08:38.999Z</time></trkpt><trkpt lat="43.36976665255021" lon="13.319167664778115"><ele>257.0</ele><time>2026-04-20T09:08:39.999Z</time></trkpt><trkpt lat="43.36973807683626" lon="13.318966513798264"><ele>257.0</ele><time>2026-04-20T09:08:40.999Z</time></trkpt><trkpt lat="43.36972261766167" lon="13.318782052543252"><ele>257.0</ele><time>2026-04-20T09:08:41.999Z</time></trkpt><trkpt lat="43.36968018050242" lon="13.318622401549929"><ele>256.5</ele><time>2026-04-20T09:08:42.999Z</time></trkpt><trkpt lat="43.36964963193685" lon="13.318464395569498"><ele>256.0</ele><time>2026-04-20T09:08:43.999Z</time></trkpt><trkpt lat="43.36962071394064" lon="13.318296278270292"><ele>255.5</ele><time>2026-04-20T09:08:44.999Z</time></trkpt><trkpt lat="43.369589898649856" lon="13.318124754910663"><ele>255.0</ele><time>2026-04-20T09:08:45.999Z</time></trkpt><trkpt lat="43.369576368239194" lon="13.317945353851314"><ele>255.0</ele><time>2026-04-20T09:08:46.999Z</time></trkpt><trkpt lat="43.3695485776656" lon="13.317769359887748"><ele>255.0</ele><time>2026-04-20T09:08:47.999Z</time></trkpt><trkpt lat="43.369505397188114" lon="13.317594564745816"><ele>255.0</ele><time>2026-04-20T09:08:48.999Z</time></trkpt><trkpt lat="43.36949695383195" lon="13.317416653886225"><ele>255.0</ele><time>2026-04-20T09:08:49.999Z</time></trkpt><trkpt lat="43.36947208590108" lon="13.317241171053961"><ele>254.75</ele><time>2026-04-20T09:08:50.999Z</time></trkpt><trkpt lat="43.369440354453765" lon="13.317066275219126"><ele>254.5</ele><time>2026-04-20T09:08:51.999Z</time></trkpt><trkpt lat="43.36938771286961" lon="13.316914007650208"><ele>254.25</ele><time>2026-04-20T09:08:52.999Z</time></trkpt><trkpt lat="43.36931721040738" lon="13.31668995787507"><ele>254.0</ele><time>2026-04-20T09:08:53.999Z</time></trkpt><trkpt lat="43.369250772583804" lon="13.316545051001091"><ele>252.5</ele><time>2026-04-20T09:08:54.999Z</time></trkpt><trkpt lat="43.36920163833804" lon="13.316396996293951"><ele>251.0</ele><time>2026-04-20T09:08:55.999Z</time></trkpt><trkpt lat="43.36911490967007" lon="13.316242772462507"><ele>249.5</ele><time>2026-04-20T09:08:56.999Z</time></trkpt><trkpt lat="43.36905194014638" lon="13.316065745521785"><ele>248.0</ele><time>2026-04-20T09:08:57.999Z</time></trkpt><trkpt lat="43.36897826028686" lon="13.315910626294896"><ele>248.0</ele><time>2026-04-20T09:08:58.999Z</time></trkpt><trkpt lat="43.368902019563414" lon="13.315750552917486"><ele>248.0</ele><time>2026-04-20T09:08:59.999Z</time></trkpt><trkpt lat="43.36882071415974" lon="13.315599987685376"><ele>248.0</ele><time>2026-04-20T09:09:00.999Z</time></trkpt><trkpt lat="43.36874334803884" lon="13.315440036680101"><ele>248.0</ele><time>2026-04-20T09:09:01.999Z</time></trkpt><trkpt lat="43.368676046178685" lon="13.315290726910968"><ele>247.8</ele><time>2026-04-20T09:09:02.999Z</time></trkpt><trkpt lat="43.36861398079826" lon="13.315152104968547"><ele>247.60000000000002</ele><time>2026-04-20T09:09:03.999Z</time></trkpt><trkpt lat="43.36855952758928" lon="13.315018676746512"><ele>247.39999999999998</ele><time>2026-04-20T09:09:04.999Z</time></trkpt><trkpt lat="43.368502127073704" lon="13.314891963141328"><ele>247.2</ele><time>2026-04-20T09:09:05.999Z</time></trkpt><trkpt lat="43.36846652907515" lon="13.314756713566151"><ele>247.0</ele><time>2026-04-20T09:09:06.999Z</time></trkpt><trkpt lat="43.36842267572697" lon="13.31462501975287"><ele>246.0</ele><time>2026-04-20T09:09:07.999Z</time></trkpt><trkpt lat="43.368382883898704" lon="13.31448942714245"><ele>245.0</ele><time>2026-04-20T09:09:08.999Z</time></trkpt><trkpt lat="43.368342027075236" lon="13.314345514312096"><ele>244.0</ele><time>2026-04-20T09:09:09.999Z</time></trkpt><trkpt lat="43.36830054705636" lon="13.314197342179854"><ele>243.0</ele><time>2026-04-20T09:09:10.999Z</time></trkpt><trkpt lat="43.368259190216214" lon="13.314049472792522"><ele>242.0</ele><time>2026-04-20T09:09:11.999Z</time></trkpt><trkpt lat="43.368216772584965" lon="13.313904085215878"><ele>242.39999999999998</ele><time>2026-04-20T09:09:12.999Z</time></trkpt><trkpt lat="43.36817278238652" lon="13.313758700797788"><ele>242.79999999999998</ele><time>2026-04-20T09:09:13.999Z</time></trkpt><trkpt lat="43.36812751562804" lon="13.31360440753451"><ele>243.2</ele><time>2026-04-20T09:09:14.999Z</time></trkpt><trkpt lat="43.368075707134345" lon="13.31346770093612"><ele>243.6</ele><time>2026-04-20T09:09:15.999Z</time></trkpt><trkpt lat="43.3680576697424" lon="13.313355024792182"><ele>244.0</ele><time>2026-04-20T09:09:16.999Z</time></trkpt><trkpt lat="43.3680226361053" lon="13.313215243369793"><ele>244.0</ele><time>2026-04-20T09:09:17.999Z</time></trkpt><trkpt lat="43.36800460234252" lon="13.313095365473455"><ele>243.99999999999997</ele><time>2026-04-20T09:09:18.999Z</time></trkpt><trkpt lat="43.367992081531064" lon="13.312983868270727"><ele>243.99999999999997</ele><time>2026-04-20T09:09:19.999Z</time></trkpt><trkpt lat="43.3679615601271" lon="13.312841082620556"><ele>244.0</ele><time>2026-04-20T09:09:20.999Z</time></trkpt><trkpt lat="43.36795326227012" lon="13.312695104900131"><ele>244.0</ele><time>2026-04-20T09:09:21.999Z</time></trkpt><trkpt lat="43.367925246965484" lon="13.312551262035905"><ele>244.0</ele><time>2026-04-20T09:09:22.999Z</time></trkpt><trkpt lat="43.36791846506125" lon="13.312403922582801"><ele>243.99999999999997</ele><time>2026-04-20T09:09:23.999Z</time></trkpt><trkpt lat="43.36789252936143" lon="13.31226926615673"><ele>243.99999999999997</ele><time>2026-04-20T09:09:24.999Z</time></trkpt><trkpt lat="43.36785810878505" lon="13.31212162654946"><ele>244.0</ele><time>2026-04-20T09:09:25.999Z</time></trkpt><trkpt lat="43.36781955772207" lon="13.311968717902916"><ele>244.0</ele><time>2026-04-20T09:09:26.999Z</time></trkpt><trkpt lat="43.36778491985825" lon="13.311832777320305"><ele>243.25</ele><time>2026-04-20T09:09:27.999Z</time></trkpt><trkpt lat="43.367747873320646" lon="13.311689778561576"><ele>242.5</ele><time>2026-04-20T09:09:28.999Z</time></trkpt><trkpt lat="43.367705189519256" lon="13.311525376849543"><ele>241.75</ele><time>2026-04-20T09:09:29.999Z</time></trkpt><trkpt lat="43.367662436390724" lon="13.311366288123796"><ele>241.0</ele><time>2026-04-20T09:09:30.999Z</time></trkpt><trkpt lat="43.3676184407545" lon="13.311207506159736"><ele>239.75</ele><time>2026-04-20T09:09:31.999Z</time></trkpt><trkpt lat="43.36757198830976" lon="13.311047919638577"><ele>238.5</ele><time>2026-04-20T09:09:32.999Z</time></trkpt><trkpt lat="43.36751601094323" lon="13.310880829752543"><ele>237.25</ele><time>2026-04-20T09:09:33.999Z</time></trkpt><trkpt lat="43.36745183228434" lon="13.310729210195323"><ele>236.0</ele><time>2026-04-20T09:09:34.999Z</time></trkpt><trkpt lat="43.36736696192396" lon="13.31059634054616"><ele>235.5</ele><time>2026-04-20T09:09:35.999Z</time></trkpt><trkpt lat="43.36726268156647" lon="13.310468328725554"><ele>235.0</ele><time>2026-04-20T09:09:36.999Z</time></trkpt><trkpt lat="43.36717064253479" lon="13.310341255606854"><ele>234.5</ele><time>2026-04-20T09:09:37.999Z</time></trkpt><trkpt lat="43.3670699774669" lon="13.31023134987861"><ele>234.0</ele><time>2026-04-20T09:09:38.999Z</time></trkpt><trkpt lat="43.36696554718447" lon="13.310122644295042"><ele>234.75</ele><time>2026-04-20T09:09:39.999Z</time></trkpt><trkpt lat="43.366855343450645" lon="13.310012737448337"><ele>235.5</ele><time>2026-04-20T09:09:40.999Z</time></trkpt><trkpt lat="43.366755709551846" lon="13.309916252778867"><ele>236.25</ele><time>2026-04-20T09:09:41.999Z</time></trkpt><trkpt lat="43.3666547031289" lon="13.309819189540372"><ele>237.0</ele><time>2026-04-20T09:09:42.999Z</time></trkpt><trkpt lat="43.36654696610126" lon="13.309727569513175"><ele>237.0</ele><time>2026-04-20T09:09:43.999Z</time></trkpt><trkpt lat="43.36646006679312" lon="13.309626249201475"><ele>237.0</ele><time>2026-04-20T09:09:44.999Z</time></trkpt><trkpt lat="43.36636703982101" lon="13.309534163579888"><ele>237.0</ele><time>2026-04-20T09:09:45.999Z</time></trkpt><trkpt lat="43.366277119180175" lon="13.309446608040941"><ele>237.0</ele><time>2026-04-20T09:09:46.999Z</time></trkpt><trkpt lat="43.36618091554974" lon="13.309378192737922"><ele>237.0</ele><time>2026-04-20T09:09:47.999Z</time></trkpt><trkpt lat="43.36609662349761" lon="13.309288139059865"><ele>235.6</ele><time>2026-04-20T09:09:48.999Z</time></trkpt><trkpt lat="43.36600163097286" lon="13.309202456807453"><ele>234.2</ele><time>2026-04-20T09:09:49.999Z</time></trkpt><trkpt lat="43.365913754007764" lon="13.309116277967199"><ele>232.8</ele><time>2026-04-20T09:09:50.999Z</time></trkpt><trkpt lat="43.365828599579025" lon="13.309023571152466"><ele>231.4</ele><time>2026-04-20T09:09:51.999Z</time></trkpt><trkpt lat="43.36574142358987" lon="13.30893179685545"><ele>230.0</ele><time>2026-04-20T09:09:52.999Z</time></trkpt><trkpt lat="43.36565890729639" lon="13.308858511399514"><ele>229.8</ele><time>2026-04-20T09:09:53.999Z</time></trkpt><trkpt lat="43.36557483865313" lon="13.308771454554947"><ele>229.6</ele><time>2026-04-20T09:09:54.999Z</time></trkpt><trkpt lat="43.365479509940286" lon="13.30868266195415"><ele>229.39999999999998</ele><time>2026-04-20T09:09:55.999Z</time></trkpt><trkpt lat="43.36538460107545" lon="13.308595409305273"><ele>229.2</ele><time>2026-04-20T09:09:56.999Z</time></trkpt><trkpt lat="43.36528695854893" lon="13.308528583342577"><ele>229.0</ele><time>2026-04-20T09:09:57.999Z</time></trkpt><trkpt lat="43.3651776434268" lon="13.3084737742703"><ele>228.6</ele><time>2026-04-20T09:09:58.999Z</time></trkpt><trkpt lat="43.365065584709185" lon="13.308434292590846"><ele>228.2</ele><time>2026-04-20T09:09:59.999Z</time></trkpt><trkpt lat="43.364969133972885" lon="13.30837013617602"><ele>227.79999999999998</ele><time>2026-04-20T09:10:00.999Z</time></trkpt><trkpt lat="43.364884619804506" lon="13.308298336736156"><ele>227.39999999999998</ele><time>2026-04-20T09:10:01.999Z</time></trkpt><trkpt lat="43.3648082557801" lon="13.308201098494331"><ele>227.0</ele><time>2026-04-20T09:10:02.999Z</time></trkpt><trkpt lat="43.36475202047856" lon="13.30810786670883"><ele>227.0</ele><time>2026-04-20T09:10:03.999Z</time></trkpt><trkpt lat="43.36470816485718" lon="13.308023427584168"><ele>227.0</ele><time>2026-04-20T09:10:04.999Z</time></trkpt><trkpt lat="43.36463941262785" lon="13.307876735078528"><ele>227.0</ele><time>2026-04-20T09:10:06.999Z</time></trkpt><trkpt lat="43.36457631564972" lon="13.307751623531878"><ele>227.0</ele><time>2026-04-20T09:10:08.999Z</time></trkpt><trkpt lat="43.36452241361965" lon="13.30764688212571"><ele>227.0</ele><time>2026-04-20T09:10:10.999Z</time></trkpt><trkpt lat="43.36441151911982" lon="13.307681375379959"><ele>227.8</ele><time>2026-04-20T09:10:13.999Z</time></trkpt><trkpt lat="43.36433278599715" lon="13.30779800077232"><ele>228.6</ele><time>2026-04-20T09:10:15.999Z</time></trkpt><trkpt lat="43.36426583563298" lon="13.307845118396527"><ele>229.40000000000003</ele><time>2026-04-20T09:10:16.999Z</time></trkpt><trkpt lat="43.36419785160762" lon="13.307920652826247"><ele>230.20000000000002</ele><time>2026-04-20T09:10:17.999Z</time></trkpt><trkpt lat="43.36413264341332" lon="13.307991994269901"><ele>231.0</ele><time>2026-04-20T09:10:18.999Z</time></trkpt><trkpt lat="43.36404932186596" lon="13.308081022565197"><ele>231.20000000000002</ele><time>2026-04-20T09:10:20.999Z</time></trkpt><trkpt lat="43.36393980844925" lon="13.308195859450782"><ele>231.40000000000003</ele><time>2026-04-20T09:10:22.999Z</time></trkpt><trkpt lat="43.363877989055574" lon="13.30825993462879"><ele>231.6</ele><time>2026-04-20T09:10:23.999Z</time></trkpt><trkpt lat="43.36380531522561" lon="13.308337474548377"><ele>231.8</ele><time>2026-04-20T09:10:24.999Z</time></trkpt><trkpt lat="43.36374389207621" lon="13.30841975395721"><ele>232.0</ele><time>2026-04-20T09:10:25.999Z</time></trkpt><trkpt lat="43.36367697641996" lon="13.308473562825249"><ele>231.66666666666666</ele><time>2026-04-20T09:10:26.999Z</time></trkpt><trkpt lat="43.3636203276688" lon="13.308537468970192"><ele>231.33333333333331</ele><time>2026-04-20T09:10:27.999Z</time></trkpt><trkpt lat="43.36357036837487" lon="13.308591561715184"><ele>231.0</ele><time>2026-04-20T09:10:28.999Z</time></trkpt><trkpt lat="43.36347265811546" lon="13.308703461812122"><ele>230.66666666666669</ele><time>2026-04-20T09:10:30.999Z</time></trkpt><trkpt lat="43.36342601958843" lon="13.30876995373124"><ele>230.33333333333334</ele><time>2026-04-20T09:10:31.999Z</time></trkpt><trkpt lat="43.36333703387032" lon="13.30887651296396"><ele>230.0</ele><time>2026-04-20T09:10:33.999Z</time></trkpt><trkpt lat="43.36323981943956" lon="13.308986122167415"><ele>230.0</ele><time>2026-04-20T09:10:35.999Z</time></trkpt><trkpt lat="43.3631379552929" lon="13.309071958025147"><ele>230.0</ele><time>2026-04-20T09:10:37.999Z</time></trkpt><trkpt lat="43.363088289365756" lon="13.309136293939018"><ele>230.0</ele><time>2026-04-20T09:10:38.999Z</time></trkpt><trkpt lat="43.363034382106186" lon="13.309192778884295"><ele>230.0</ele><time>2026-04-20T09:10:39.999Z</time></trkpt><trkpt lat="43.36293299208687" lon="13.309272989836135"><ele>230.0</ele><time>2026-04-20T09:10:41.999Z</time></trkpt><trkpt lat="43.362843448895454" lon="13.309373188728307"><ele>229.4285714285714</ele><time>2026-04-20T09:10:43.999Z</time></trkpt><trkpt lat="43.36279270793071" lon="13.30943502707205"><ele>228.85714285714283</ele><time>2026-04-20T09:10:44.999Z</time></trkpt><trkpt lat="43.362753901723515" lon="13.30952358255073"><ele>228.28571428571428</ele><time>2026-04-20T09:10:46.999Z</time></trkpt><trkpt lat="43.36273817235519" lon="13.309618726391774"><ele>227.7142857142857</ele><time>2026-04-20T09:10:47.999Z</time></trkpt><trkpt lat="43.36273302300927" lon="13.309712439550912"><ele>227.1428571428571</ele><time>2026-04-20T09:10:48.999Z</time></trkpt><trkpt lat="43.36274585985295" lon="13.309804724138447"><ele>226.57142857142858</ele><time>2026-04-20T09:10:49.999Z</time></trkpt><trkpt lat="43.36277928310568" lon="13.30990615164313"><ele>226.0</ele><time>2026-04-20T09:10:50.999Z</time></trkpt><trkpt lat="43.36283494712414" lon="13.310015624699462"><ele>226.0</ele><time>2026-04-20T09:10:52.999Z</time></trkpt><trkpt lat="43.36288667561565" lon="13.310078972729254"><ele>226.00000000000003</ele><time>2026-04-20T09:10:59.999Z</time></trkpt><trkpt lat="43.362942984696595" lon="13.31015306669764"><ele>226.00000000000003</ele><time>2026-04-20T09:11:02Z</time></trkpt><trkpt lat="43.3630281642242" lon="13.31027560865853"><ele>226.0</ele><time>2026-04-20T09:11:04Z</time></trkpt><trkpt lat="43.363133193097916" lon="13.310345883556861"><ele>226.0</ele><time>2026-04-20T09:11:06Z</time></trkpt><trkpt lat="43.363220406333774" lon="13.310392848448616"><ele>225.20000000000002</ele><time>2026-04-20T09:11:08Z</time></trkpt><trkpt lat="43.3632973345874" lon="13.310435590784662"><ele>224.40000000000003</ele><time>2026-04-20T09:11:15Z</time></trkpt><trkpt lat="43.363368290094776" lon="13.31054602727052"><ele>223.6</ele><time>2026-04-20T09:11:17Z</time></trkpt><trkpt lat="43.3633841081985" lon="13.31065174992834"><ele>222.8</ele><time>2026-04-20T09:11:19Z</time></trkpt><trkpt lat="43.36332132805233" lon="13.31079682855431"><ele>222.0</ele><time>2026-04-20T09:11:21Z</time></trkpt><trkpt lat="43.36320477397749" lon="13.310844327078883"><ele>222.0</ele><time>2026-04-20T09:11:23Z</time></trkpt><trkpt lat="43.36311233079443" lon="13.3108939330437"><ele>222.0</ele><time>2026-04-20T09:11:25Z</time></trkpt><trkpt lat="43.362997077879754" lon="13.310931185527329"><ele>222.0</ele><time>2026-04-20T09:11:27Z</time></trkpt><trkpt lat="43.36293328991299" lon="13.310957498319414"><ele>222.0</ele><time>2026-04-20T09:11:28Z</time></trkpt><trkpt lat="43.36285506067966" lon="13.311000299475621"><ele>222.0</ele><time>2026-04-20T09:11:29Z</time></trkpt><trkpt lat="43.362777770111364" lon="13.311035995708382"><ele>223.5</ele><time>2026-04-20T09:11:30Z</time></trkpt><trkpt lat="43.362704380704166" lon="13.31107372579259"><ele>225.0</ele><time>2026-04-20T09:11:31Z</time></trkpt><trkpt lat="43.36264056717926" lon="13.31111381071896"><ele>226.5</ele><time>2026-04-20T09:11:32Z</time></trkpt><trkpt lat="43.36257415340621" lon="13.31115674764997"><ele>228.0</ele><time>2026-04-20T09:11:33Z</time></trkpt><trkpt lat="43.36250552277143" lon="13.311205315384463"><ele>229.5</ele><time>2026-04-20T09:11:34Z</time></trkpt><trkpt lat="43.362442070647866" lon="13.311243111290004"><ele>231.0</ele><time>2026-04-20T09:11:35Z</time></trkpt><trkpt lat="43.36234260741472" lon="13.311289330951066"><ele>231.0</ele><time>2026-04-20T09:11:37Z</time></trkpt><trkpt lat="43.36224780764567" lon="13.311340936342235"><ele>231.0</ele><time>2026-04-20T09:11:39Z</time></trkpt><trkpt lat="43.36213506753682" lon="13.311392825227847"><ele>231.0</ele><time>2026-04-20T09:11:41Z</time></trkpt><trkpt lat="43.362075862500554" lon="13.311428923438218"><ele>231.0</ele><time>2026-04-20T09:11:42Z</time></trkpt><trkpt lat="43.36200906916223" lon="13.311463440254943"><ele>231.0</ele><time>2026-04-20T09:11:43Z</time></trkpt><trkpt lat="43.361938673210744" lon="13.311488674922465"><ele>231.0</ele><time>2026-04-20T09:11:44Z</time></trkpt><trkpt lat="43.36187059099674" lon="13.31152070190117"><ele>231.57142857142856</ele><time>2026-04-20T09:11:45Z</time></trkpt><trkpt lat="43.36180929492612" lon="13.311555921377874"><ele>232.14285714285714</ele><time>2026-04-20T09:11:46Z</time></trkpt><trkpt lat="43.36174412084218" lon="13.311594171752784"><ele>232.71428571428572</ele><time>2026-04-20T09:11:47Z</time></trkpt><trkpt lat="43.36167807613095" lon="13.311625477010903"><ele>233.28571428571428</ele><time>2026-04-20T09:11:48Z</time></trkpt><trkpt lat="43.3616097201809" lon="13.311661186969014"><ele>233.85714285714283</ele><time>2026-04-20T09:11:49Z</time></trkpt><trkpt lat="43.3615355434837" lon="13.31170611990857"><ele>234.42857142857142</ele><time>2026-04-20T09:11:50Z</time></trkpt><trkpt lat="43.361456218533796" lon="13.31174227244841"><ele>235.0</ele><time>2026-04-20T09:11:51Z</time></trkpt><trkpt lat="43.36136820567719" lon="13.311787598553138"><ele>234.99999999999997</ele><time>2026-04-20T09:11:52Z</time></trkpt><trkpt lat="43.36128959505772" lon="13.311826717334014"><ele>235.0</ele><time>2026-04-20T09:11:53Z</time></trkpt><trkpt lat="43.36120943355057" lon="13.31186941085157"><ele>235.0</ele><time>2026-04-20T09:11:54Z</time></trkpt><trkpt lat="43.36112642656532" lon="13.311916120419017"><ele>235.0</ele><time>2026-04-20T09:11:55Z</time></trkpt><trkpt lat="43.36104544725984" lon="13.311962752554662"><ele>234.99999999999997</ele><time>2026-04-20T09:11:56Z</time></trkpt><trkpt lat="43.36096118704002" lon="13.312013269190198"><ele>235.0</ele><time>2026-04-20T09:11:57Z</time></trkpt><trkpt lat="43.3608816192139" lon="13.312049214288253"><ele>234.99999999999997</ele><time>2026-04-20T09:11:58Z</time></trkpt><trkpt lat="43.36080186899846" lon="13.312085387397495"><ele>235.0</ele><time>2026-04-20T09:11:59Z</time></trkpt><trkpt lat="43.36071713363258" lon="13.312126686154489"><ele>235.0</ele><time>2026-04-20T09:12:00Z</time></trkpt><trkpt lat="43.36063210397567" lon="13.312170120650478"><ele>235.0</ele><time>2026-04-20T09:12:00.999Z</time></trkpt><trkpt lat="43.36055424680122" lon="13.312207923088586"><ele>234.99999999999997</ele><time>2026-04-20T09:12:01.999Z</time></trkpt><trkpt lat="43.36048092513682" lon="13.312250133883943"><ele>235.0</ele><time>2026-04-20T09:12:02.999Z</time></trkpt><trkpt lat="43.36039987123795" lon="13.31228851496415"><ele>235.0</ele><time>2026-04-20T09:12:03.999Z</time></trkpt><trkpt lat="43.360330339699026" lon="13.31232927594112"><ele>234.99999999999997</ele><time>2026-04-20T09:12:04.999Z</time></trkpt><trkpt lat="43.36026982895748" lon="13.312363385567147"><ele>235.0</ele><time>2026-04-20T09:12:05.999Z</time></trkpt><trkpt lat="43.36021097737933" lon="13.312399284419891"><ele>235.0</ele><time>2026-04-20T09:12:06.999Z</time></trkpt><trkpt lat="43.36014421135868" lon="13.312418774086655"><ele>234.99999999999997</ele><time>2026-04-20T09:12:07.999Z</time></trkpt><trkpt lat="43.36007485352474" lon="13.312446719397371"><ele>235.0</ele><time>2026-04-20T09:12:08.999Z</time></trkpt><trkpt lat="43.36001461066863" lon="13.312492502222458"><ele>235.0</ele><time>2026-04-20T09:12:09.999Z</time></trkpt><trkpt lat="43.35994971678193" lon="13.312564424796946"><ele>235.0</ele><time>2026-04-20T09:12:11.999Z</time></trkpt><trkpt lat="43.35990424133867" lon="13.312638542966019"><ele>235.0</ele><time>2026-04-20T09:13:25Z</time></trkpt><trkpt lat="43.35991507268473" lon="13.31254707059191"><ele>235.0</ele><time>2026-04-20T09:13:35Z</time></trkpt><trkpt lat="43.359776511854605" lon="13.312240316576583"><ele>235.0</ele><time>2026-04-20T09:13:37Z</time></trkpt><trkpt lat="43.359753331172" lon="13.31212415120863"><ele>235.2</ele><time>2026-04-20T09:13:38Z</time></trkpt><trkpt lat="43.35969588891219" lon="13.311972561709347"><ele>235.4</ele><time>2026-04-20T09:13:40Z</time></trkpt><trkpt lat="43.359665665152555" lon="13.311890958749292"><ele>235.60000000000002</ele><time>2026-04-20T09:13:41Z</time></trkpt><trkpt lat="43.35965421120513" lon="13.311796010009246"><ele>235.8</ele><time>2026-04-20T09:13:42Z</time></trkpt><trkpt lat="43.359618479937254" lon="13.311656204983212"><ele>236.0</ele><time>2026-04-20T09:13:44Z</time></trkpt><trkpt lat="43.359579338573596" lon="13.311501180822495"><ele>236.25</ele><time>2026-04-20T09:13:46Z</time></trkpt><trkpt lat="43.35953924825097" lon="13.311342398240674"><ele>236.5</ele><time>2026-04-20T09:13:48Z</time></trkpt><trkpt lat="43.35949587656204" lon="13.311188686846076"><ele>236.75</ele><time>2026-04-20T09:13:50Z</time></trkpt><trkpt lat="43.35945487499202" lon="13.311053672410473"><ele>237.0</ele><time>2026-04-20T09:13:52Z</time></trkpt><trkpt lat="43.359410715431366" lon="13.31091773347991"><ele>237.0</ele><time>2026-04-20T09:13:54Z</time></trkpt><trkpt lat="43.35936114782746" lon="13.310770064987297"><ele>237.0</ele><time>2026-04-20T09:13:56Z</time></trkpt><trkpt lat="43.35930881549793" lon="13.310614453217541"><ele>237.0</ele><time>2026-04-20T09:13:58Z</time></trkpt><trkpt lat="43.35928045294671" lon="13.31053096628592"><ele>237.0</ele><time>2026-04-20T09:13:59Z</time></trkpt><trkpt lat="43.35925098531007" lon="13.31044713314311"><ele>237.0</ele><time>2026-04-20T09:14:00Z</time></trkpt><trkpt lat="43.359177548389695" lon="13.310282341340727"><ele>237.2</ele><time>2026-04-20T09:14:02Z</time></trkpt><trkpt lat="43.359155456431715" lon="13.310175360915435"><ele>237.39999999999998</ele><time>2026-04-20T09:14:03Z</time></trkpt><trkpt lat="43.35911593500358" lon="13.310062925522415"><ele>237.60000000000002</ele><time>2026-04-20T09:14:04Z</time></trkpt><trkpt lat="43.359072595267264" lon="13.30993829637249"><ele>237.8</ele><time>2026-04-20T09:14:05Z</time></trkpt><trkpt lat="43.3590324955012" lon="13.3098122862252"><ele>238.0</ele><time>2026-04-20T09:14:06Z</time></trkpt><trkpt lat="43.358991890486095" lon="13.30967667058678"><ele>238.16666666666666</ele><time>2026-04-20T09:14:07Z</time></trkpt><trkpt lat="43.35895730249733" lon="13.30956031889048"><ele>238.33333333333331</ele><time>2026-04-20T09:14:08Z</time></trkpt><trkpt lat="43.35892726461831" lon="13.309459273942318"><ele>238.5</ele><time>2026-04-20T09:14:09Z</time></trkpt><trkpt lat="43.35889265042275" lon="13.309352871009196"><ele>238.66666666666669</ele><time>2026-04-20T09:14:10Z</time></trkpt><trkpt lat="43.35885398347668" lon="13.309236586968327"><ele>238.83333333333334</ele><time>2026-04-20T09:14:11Z</time></trkpt><trkpt lat="43.35881560322536" lon="13.30912116503798"><ele>239.0</ele><time>2026-04-20T09:14:12Z</time></trkpt><trkpt lat="43.35877930658838" lon="13.309012009233268"><ele>239.16666666666669</ele><time>2026-04-20T09:14:13Z</time></trkpt><trkpt lat="43.35874916039675" lon="13.308916463302877"><ele>239.33333333333334</ele><time>2026-04-20T09:14:14Z</time></trkpt><trkpt lat="43.35872100116104" lon="13.308822854511648"><ele>239.5</ele><time>2026-04-20T09:14:15Z</time></trkpt><trkpt lat="43.3586906768918" lon="13.308722048519229"><ele>239.66666666666669</ele><time>2026-04-20T09:14:16Z</time></trkpt><trkpt lat="43.358658359781046" lon="13.308614618741379"><ele>239.83333333333334</ele><time>2026-04-20T09:14:17Z</time></trkpt><trkpt lat="43.35861179244693" lon="13.30848599813321"><ele>240.0</ele><time>2026-04-20T09:14:18Z</time></trkpt><trkpt lat="43.35854700184885" lon="13.308362880605353"><ele>240.8</ele><time>2026-04-20T09:14:19Z</time></trkpt><trkpt lat="43.35850277409887" lon="13.308238904677486"><ele>241.6</ele><time>2026-04-20T09:14:20Z</time></trkpt><trkpt lat="43.35846814245358" lon="13.308127813996855"><ele>242.39999999999998</ele><time>2026-04-20T09:14:21Z</time></trkpt><trkpt lat="43.35842333242461" lon="13.308015285880703"><ele>243.2</ele><time>2026-04-20T09:14:22Z</time></trkpt><trkpt lat="43.358388036685135" lon="13.307896964955793"><ele>244.0</ele><time>2026-04-20T09:14:23Z</time></trkpt><trkpt lat="43.35835773194148" lon="13.307768589556217"><ele>244.0</ele><time>2026-04-20T09:14:24Z</time></trkpt><trkpt lat="43.3583060276937" lon="13.307653932376834"><ele>243.99999999999997</ele><time>2026-04-20T09:14:25Z</time></trkpt><trkpt lat="43.35826407679195" lon="13.307528891676352"><ele>243.99999999999997</ele><time>2026-04-20T09:14:26Z</time></trkpt><trkpt lat="43.3582262410792" lon="13.307396856653611"><ele>244.0</ele><time>2026-04-20T09:14:27Z</time></trkpt><trkpt lat="43.35817990087362" lon="13.307273300864626"><ele>244.0</ele><time>2026-04-20T09:14:28Z</time></trkpt><trkpt lat="43.35813470655122" lon="13.30714360118924"><ele>244.0</ele><time>2026-04-20T09:14:29Z</time></trkpt><trkpt lat="43.35809176411058" lon="13.307010728367171"><ele>243.99999999999997</ele><time>2026-04-20T09:14:30Z</time></trkpt><trkpt lat="43.35804757955116" lon="13.306880845836774"><ele>243.99999999999997</ele><time>2026-04-20T09:14:31Z</time></trkpt><trkpt lat="43.358003264123255" lon="13.30674905276059"><ele>244.0</ele><time>2026-04-20T09:14:32Z</time></trkpt><trkpt lat="43.357959639326054" lon="13.30662060736879"><ele>244.0</ele><time>2026-04-20T09:14:33Z</time></trkpt><trkpt lat="43.357919812938846" lon="13.306503123607529"><ele>244.39999999999998</ele><time>2026-04-20T09:14:34Z</time></trkpt><trkpt lat="43.35788321944265" lon="13.306375463074296"><ele>244.79999999999998</ele><time>2026-04-20T09:14:35Z</time></trkpt><trkpt lat="43.35783486717676" lon="13.30624903709388"><ele>245.20000000000002</ele><time>2026-04-20T09:14:36Z</time></trkpt><trkpt lat="43.35780317793732" lon="13.306139052606909"><ele>245.60000000000002</ele><time>2026-04-20T09:14:37Z</time></trkpt><trkpt lat="43.35776644007316" lon="13.306029775845479"><ele>246.0</ele><time>2026-04-20T09:14:38Z</time></trkpt><trkpt lat="43.35772671100958" lon="13.30591302426132"><ele>246.0</ele><time>2026-04-20T09:14:39Z</time></trkpt><trkpt lat="43.35768774997534" lon="13.305795383785618"><ele>246.00000000000003</ele><time>2026-04-20T09:14:40Z</time></trkpt><trkpt lat="43.357649187634024" lon="13.305677416455058"><ele>246.00000000000003</ele><time>2026-04-20T09:14:41Z</time></trkpt><trkpt lat="43.35761236322519" lon="13.305561715873749"><ele>246.0</ele><time>2026-04-20T09:14:42Z</time></trkpt><trkpt lat="43.35757899881576" lon="13.305440946405158"><ele>246.0</ele><time>2026-04-20T09:14:43Z</time></trkpt><trkpt lat="43.357538303991845" lon="13.305343702905244"><ele>246.00000000000003</ele><time>2026-04-20T09:14:44Z</time></trkpt><trkpt lat="43.35751009062702" lon="13.305255261190695"><ele>246.0</ele><time>2026-04-20T09:14:45Z</time></trkpt><trkpt lat="43.357486942797074" lon="13.305165214183837"><ele>246.00000000000003</ele><time>2026-04-20T09:14:46Z</time></trkpt><trkpt lat="43.357450386467264" lon="13.30505774579558"><ele>246.00000000000003</ele><time>2026-04-20T09:14:47Z</time></trkpt><trkpt lat="43.35741633808063" lon="13.304962938138642"><ele>246.0</ele><time>2026-04-20T09:14:48Z</time></trkpt><trkpt lat="43.357388454284965" lon="13.304867336855562"><ele>246.00000000000003</ele><time>2026-04-20T09:14:49Z</time></trkpt><trkpt lat="43.3573580252226" lon="13.304781621419615"><ele>246.00000000000003</ele><time>2026-04-20T09:14:50Z</time></trkpt><trkpt lat="43.35732840176943" lon="13.304701840724423"><ele>245.75</ele><time>2026-04-20T09:14:51Z</time></trkpt><trkpt lat="43.35728121830309" lon="13.304567689636878"><ele>245.5</ele><time>2026-04-20T09:14:53Z</time></trkpt><trkpt lat="43.35722742375121" lon="13.304436926183124"><ele>245.25</ele><time>2026-04-20T09:14:55Z</time></trkpt><trkpt lat="43.35708203202566" lon="13.304430385636804"><ele>245.0</ele><time>2026-04-20T09:14:57Z</time></trkpt><trkpt lat="43.35698804024061" lon="13.30446189982161"><ele>246.0</ele><time>2026-04-20T09:14:58Z</time></trkpt><trkpt lat="43.35688010351775" lon="13.304506500288678"><ele>247.0</ele><time>2026-04-20T09:14:59Z</time></trkpt><trkpt lat="43.356786814622524" lon="13.304525859155868"><ele>248.0</ele><time>2026-04-20T09:15:00Z</time></trkpt><trkpt lat="43.35669174445455" lon="13.304539058168924"><ele>249.0</ele><time>2026-04-20T09:15:01Z</time></trkpt><trkpt lat="43.356596129062204" lon="13.304563280374614"><ele>250.0</ele><time>2026-04-20T09:15:02Z</time></trkpt><trkpt lat="43.356499818169524" lon="13.304585283703618"><ele>250.0</ele><time>2026-04-20T09:15:03Z</time></trkpt><trkpt lat="43.35640147923653" lon="13.304599161503312"><ele>250.0</ele><time>2026-04-20T09:15:04Z</time></trkpt><trkpt lat="43.356301708895344" lon="13.304620825057507"><ele>250.0</ele><time>2026-04-20T09:15:05Z</time></trkpt><trkpt lat="43.35621227780422" lon="13.304653843923926"><ele>250.0</ele><time>2026-04-20T09:15:06Z</time></trkpt><trkpt lat="43.356122732539426" lon="13.30468415314725"><ele>250.0</ele><time>2026-04-20T09:15:07Z</time></trkpt><trkpt lat="43.35603323517103" lon="13.304717278229113"><ele>250.0</ele><time>2026-04-20T09:15:08Z</time></trkpt><trkpt lat="43.35593691443097" lon="13.30474545828494"><ele>250.0</ele><time>2026-04-20T09:15:09Z</time></trkpt><trkpt lat="43.355835681266996" lon="13.30476698998147"><ele>250.0</ele><time>2026-04-20T09:15:10Z</time></trkpt><trkpt lat="43.355735139949225" lon="13.30479775715497"><ele>250.0</ele><time>2026-04-20T09:15:11Z</time></trkpt><trkpt lat="43.355629704457115" lon="13.304818363476649"><ele>250.0</ele><time>2026-04-20T09:15:12Z</time></trkpt><trkpt lat="43.35553045293451" lon="13.30482495236604"><ele>250.2</ele><time>2026-04-20T09:15:13Z</time></trkpt><trkpt lat="43.355435838264974" lon="13.304835409871163"><ele>250.4</ele><time>2026-04-20T09:15:14Z</time></trkpt><trkpt lat="43.355333216412475" lon="13.304852029260944"><ele>250.60000000000002</ele><time>2026-04-20T09:15:15Z</time></trkpt><trkpt lat="43.35523774818537" lon="13.304878996925245"><ele>250.8</ele><time>2026-04-20T09:15:16Z</time></trkpt><trkpt lat="43.35513871260875" lon="13.304901698460645"><ele>251.0</ele><time>2026-04-20T09:15:17Z</time></trkpt><trkpt lat="43.35503802958841" lon="13.304923026984275"><ele>251.0</ele><time>2026-04-20T09:15:18Z</time></trkpt><trkpt lat="43.354943973105144" lon="13.3049386075014"><ele>251.00000000000003</ele><time>2026-04-20T09:15:19Z</time></trkpt><trkpt lat="43.35485698028584" lon="13.304977369065837"><ele>251.00000000000003</ele><time>2026-04-20T09:15:20Z</time></trkpt><trkpt lat="43.354762275423724" lon="13.305023663054506"><ele>251.0</ele><time>2026-04-20T09:15:21Z</time></trkpt><trkpt lat="43.35464971724273" lon="13.305094138420758"><ele>251.0</ele><time>2026-04-20T09:15:22Z</time></trkpt><trkpt lat="43.35456037714378" lon="13.305160744953412"><ele>251.60000000000002</ele><time>2026-04-20T09:15:23Z</time></trkpt><trkpt lat="43.35448033761114" lon="13.305203181301975"><ele>252.20000000000002</ele><time>2026-04-20T09:15:24Z</time></trkpt><trkpt lat="43.354408679505646" lon="13.305267548979339"><ele>252.79999999999998</ele><time>2026-04-20T09:15:25Z</time></trkpt><trkpt lat="43.354310404678486" lon="13.305279998455138"><ele>253.39999999999998</ele><time>2026-04-20T09:15:26Z</time></trkpt><trkpt lat="43.35422595854093" lon="13.305299920574287"><ele>254.0</ele><time>2026-04-20T09:15:27Z</time></trkpt><trkpt lat="43.35411880925284" lon="13.305293320952313"><ele>254.0</ele><time>2026-04-20T09:15:28Z</time></trkpt><trkpt lat="43.354014772928096" lon="13.305292511909947"><ele>253.99999999999997</ele><time>2026-04-20T09:15:29Z</time></trkpt><trkpt lat="43.3539157096181" lon="13.305300235186913"><ele>253.99999999999997</ele><time>2026-04-20T09:15:30Z</time></trkpt><trkpt lat="43.353811683142155" lon="13.305322550980499"><ele>254.0</ele><time>2026-04-20T09:15:31Z</time></trkpt><trkpt lat="43.353709790464514" lon="13.305356751780657"><ele>254.0</ele><time>2026-04-20T09:15:32Z</time></trkpt><trkpt lat="43.35359784549109" lon="13.305380533347963"><ele>254.0</ele><time>2026-04-20T09:15:33Z</time></trkpt><trkpt lat="43.353491103682295" lon="13.30540765104338"><ele>253.99999999999997</ele><time>2026-04-20T09:15:34Z</time></trkpt><trkpt lat="43.353388909189036" lon="13.305436921083"><ele>253.99999999999997</ele><time>2026-04-20T09:15:35Z</time></trkpt><trkpt lat="43.353290451713335" lon="13.305465360862975"><ele>254.0</ele><time>2026-04-20T09:15:36Z</time></trkpt><trkpt lat="43.3531941075393" lon="13.305494187184237"><ele>254.0</ele><time>2026-04-20T09:15:37Z</time></trkpt><trkpt lat="43.35310182318628" lon="13.305523130050233"><ele>254.39999999999998</ele><time>2026-04-20T09:15:38Z</time></trkpt><trkpt lat="43.35300359281403" lon="13.30554558043451"><ele>254.79999999999998</ele><time>2026-04-20T09:15:39Z</time></trkpt><trkpt lat="43.35290742445415" lon="13.305577252006444"><ele>255.20000000000002</ele><time>2026-04-20T09:15:40Z</time></trkpt><trkpt lat="43.35281037558825" lon="13.305606647785957"><ele>255.60000000000002</ele><time>2026-04-20T09:15:41Z</time></trkpt><trkpt lat="43.352711577964456" lon="13.305645748649084"><ele>256.0</ele><time>2026-04-20T09:15:42Z</time></trkpt><trkpt lat="43.352605981349235" lon="13.30568036984426"><ele>256.0</ele><time>2026-04-20T09:15:43Z</time></trkpt><trkpt lat="43.352498244854864" lon="13.305720593170745"><ele>256.0</ele><time>2026-04-20T09:15:44Z</time></trkpt><trkpt lat="43.352383894848906" lon="13.305756767560876"><ele>256.0</ele><time>2026-04-20T09:15:45Z</time></trkpt><trkpt lat="43.35226633758165" lon="13.305791971832676"><ele>256.0</ele><time>2026-04-20T09:15:46Z</time></trkpt><trkpt lat="43.352147263079985" lon="13.305827669321838"><ele>255.75</ele><time>2026-04-20T09:15:47Z</time></trkpt><trkpt lat="43.35203619553719" lon="13.305868971976647"><ele>255.5</ele><time>2026-04-20T09:15:48Z</time></trkpt><trkpt lat="43.351918132977275" lon="13.305910624439644"><ele>255.25</ele><time>2026-04-20T09:15:49Z</time></trkpt><trkpt lat="43.35179174163329" lon="13.305946399804135"><ele>255.0</ele><time>2026-04-20T09:15:50Z</time></trkpt><trkpt lat="43.3516621185652" lon="13.305992405243806"><ele>255.0</ele><time>2026-04-20T09:15:51Z</time></trkpt><trkpt lat="43.351528512839685" lon="13.30604213530204"><ele>255.0</ele><time>2026-04-20T09:15:52Z</time></trkpt><trkpt lat="43.35139968658653" lon="13.306081764903459"><ele>255.0</ele><time>2026-04-20T09:15:53Z</time></trkpt><trkpt lat="43.351279157575156" lon="13.306119409483072"><ele>255.0</ele><time>2026-04-20T09:15:54Z</time></trkpt><trkpt lat="43.351170682394034" lon="13.30615578100717"><ele>255.4</ele><time>2026-04-20T09:15:55Z</time></trkpt><trkpt lat="43.351062913811866" lon="13.306188511073675"><ele>255.8</ele><time>2026-04-20T09:15:56Z</time></trkpt><trkpt lat="43.350949359797" lon="13.306220194942794"><ele>256.2</ele><time>2026-04-20T09:15:57Z</time></trkpt><trkpt lat="43.35083778908703" lon="13.306258063004794"><ele>256.6</ele><time>2026-04-20T09:15:58Z</time></trkpt><trkpt lat="43.35073368024037" lon="13.30628633039462"><ele>257.0</ele><time>2026-04-20T09:15:59Z</time></trkpt><trkpt lat="43.35062455157832" lon="13.306322528760008"><ele>257.0</ele><time>2026-04-20T09:16:00Z</time></trkpt><trkpt lat="43.3505224367977" lon="13.30635194307145"><ele>257.0</ele><time>2026-04-20T09:16:01Z</time></trkpt><trkpt lat="43.35041456399288" lon="13.30638819491037"><ele>257.0</ele><time>2026-04-20T09:16:02Z</time></trkpt><trkpt lat="43.35030762680332" lon="13.30641874138064"><ele>257.0</ele><time>2026-04-20T09:16:03Z</time></trkpt><trkpt lat="43.350209169265135" lon="13.306449982587118"><ele>257.0</ele><time>2026-04-20T09:16:04Z</time></trkpt><trkpt lat="43.350117373365954" lon="13.306483108946704"><ele>257.0</ele><time>2026-04-20T09:16:05Z</time></trkpt><trkpt lat="43.350036147519226" lon="13.30650814760712"><ele>257.0</ele><time>2026-04-20T09:16:06Z</time></trkpt><trkpt lat="43.3499709722543" lon="13.306527886795305"><ele>257.0</ele><time>2026-04-20T09:16:07Z</time></trkpt><trkpt lat="43.34986673887934" lon="13.306553564945615"><ele>257.0</ele><time>2026-04-20T09:16:09Z</time></trkpt><trkpt lat="43.34978037598553" lon="13.306548774704808"><ele>257.0</ele><time>2026-04-20T09:16:11Z</time></trkpt><trkpt lat="43.349774304582354" lon="13.306339693319085"><ele>257.0</ele><time>2026-04-20T09:16:16Z</time></trkpt><trkpt lat="43.349796319831945" lon="13.306234374826952"><ele>257.0</ele><time>2026-04-20T09:16:17Z</time></trkpt><trkpt lat="43.349815087864734" lon="13.30609944275757"><ele>257.0</ele><time>2026-04-20T09:16:18Z</time></trkpt><trkpt lat="43.3498405861494" lon="13.305971231636226"><ele>257.0</ele><time>2026-04-20T09:16:19Z</time></trkpt><trkpt lat="43.3498791585472" lon="13.305863859085154"><ele>257.0</ele><time>2026-04-20T09:16:20Z</time></trkpt><trkpt lat="43.34990086781513" lon="13.305736763086472"><ele>257.0</ele><time>2026-04-20T09:16:21Z</time></trkpt><trkpt lat="43.34992986316" lon="13.30560223932865"><ele>257.0</ele><time>2026-04-20T09:16:22Z</time></trkpt><trkpt lat="43.34996078892768" lon="13.305481869606705"><ele>257.0</ele><time>2026-04-20T09:16:23Z</time></trkpt><trkpt lat="43.34998782710439" lon="13.305347411961666"><ele>257.0</ele><time>2026-04-20T09:16:24Z</time></trkpt><trkpt lat="43.35001286873495" lon="13.3052033182523"><ele>257.0</ele><time>2026-04-20T09:16:25Z</time></trkpt><trkpt lat="43.35004600000206" lon="13.305063092643508"><ele>256.5</ele><time>2026-04-20T09:16:26Z</time></trkpt><trkpt lat="43.35007910396306" lon="13.304912432373786"><ele>256.0</ele><time>2026-04-20T09:16:27Z</time></trkpt><trkpt lat="43.350111029786696" lon="13.304762157660425"><ele>255.5</ele><time>2026-04-20T09:16:28Z</time></trkpt><trkpt lat="43.350142643782135" lon="13.304617285389352"><ele>255.0</ele><time>2026-04-20T09:16:29Z</time></trkpt><trkpt lat="43.35017767752037" lon="13.304471042151189"><ele>254.8</ele><time>2026-04-20T09:16:30Z</time></trkpt><trkpt lat="43.350209652223725" lon="13.30432963312925"><ele>254.6</ele><time>2026-04-20T09:16:31Z</time></trkpt><trkpt lat="43.35025168457788" lon="13.30418868201068"><ele>254.39999999999998</ele><time>2026-04-20T09:16:32Z</time></trkpt><trkpt lat="43.35028333511885" lon="13.304044949884124"><ele>254.2</ele><time>2026-04-20T09:16:33Z</time></trkpt><trkpt lat="43.350298426672914" lon="13.303899645998884"><ele>254.0</ele><time>2026-04-20T09:16:34Z</time></trkpt><trkpt lat="43.350331112493215" lon="13.303760027257095"><ele>254.6</ele><time>2026-04-20T09:16:35Z</time></trkpt><trkpt lat="43.35036008560635" lon="13.303623574000685"><ele>255.2</ele><time>2026-04-20T09:16:36Z</time></trkpt><trkpt lat="43.350380655808706" lon="13.30348462488559"><ele>255.79999999999998</ele><time>2026-04-20T09:16:37Z</time></trkpt><trkpt lat="43.35039896345488" lon="13.303331920930203"><ele>256.4</ele><time>2026-04-20T09:16:38Z</time></trkpt><trkpt lat="43.35041487669126" lon="13.303180494286462"><ele>257.0</ele><time>2026-04-20T09:16:39Z</time></trkpt><trkpt lat="43.350433385196425" lon="13.303026914760457"><ele>257.2</ele><time>2026-04-20T09:16:40Z</time></trkpt><trkpt lat="43.3504463718448" lon="13.302889110568794"><ele>257.4</ele><time>2026-04-20T09:16:41Z</time></trkpt><trkpt lat="43.3504553440157" lon="13.302765110638301"><ele>257.6</ele><time>2026-04-20T09:16:42Z</time></trkpt><trkpt lat="43.35048870993157" lon="13.302627866788171"><ele>257.8</ele><time>2026-04-20T09:16:43Z</time></trkpt><trkpt lat="43.35050415187123" lon="13.302510542863683"><ele>258.0</ele><time>2026-04-20T09:16:44Z</time></trkpt><trkpt lat="43.35052370921232" lon="13.302352486845395"><ele>259.0</ele><time>2026-04-20T09:16:45Z</time></trkpt><trkpt lat="43.35054149712492" lon="13.302205809551761"><ele>260.0</ele><time>2026-04-20T09:16:46Z</time></trkpt><trkpt lat="43.350557217337176" lon="13.302076502035748"><ele>261.0</ele><time>2026-04-20T09:16:47Z</time></trkpt><trkpt lat="43.350572123611144" lon="13.30194697375917"><ele>262.0</ele><time>2026-04-20T09:16:48Z</time></trkpt><trkpt lat="43.35057473971173" lon="13.301790553785066"><ele>263.0</ele><time>2026-04-20T09:16:49Z</time></trkpt><trkpt lat="43.350591784839395" lon="13.301626637926047"><ele>263.0</ele><time>2026-04-20T09:16:50Z</time></trkpt><trkpt lat="43.35062204955433" lon="13.301502496400456"><ele>263.0</ele><time>2026-04-20T09:16:51Z</time></trkpt><trkpt lat="43.350623144021576" lon="13.30135240537111"><ele>263.0</ele><time>2026-04-20T09:16:52Z</time></trkpt><trkpt lat="43.35064589602934" lon="13.301176343121432"><ele>263.0</ele><time>2026-04-20T09:16:53Z</time></trkpt><trkpt lat="43.350664136862285" lon="13.301014561720558"><ele>262.75</ele><time>2026-04-20T09:16:54Z</time></trkpt><trkpt lat="43.35067845822902" lon="13.3008595400316"><ele>262.5</ele><time>2026-04-20T09:16:55Z</time></trkpt><trkpt lat="43.35069618524716" lon="13.30070811015971"><ele>262.25</ele><time>2026-04-20T09:16:56Z</time></trkpt><trkpt lat="43.35071398819116" lon="13.300555726918285"><ele>262.0</ele><time>2026-04-20T09:16:57Z</time></trkpt><trkpt lat="43.35072368471225" lon="13.300396059155311"><ele>262.5</ele><time>2026-04-20T09:16:58Z</time></trkpt><trkpt lat="43.350753972616616" lon="13.300242395033406"><ele>263.0</ele><time>2026-04-20T09:16:59Z</time></trkpt><trkpt lat="43.35075563217668" lon="13.30007380810663"><ele>263.5</ele><time>2026-04-20T09:17:00Z</time></trkpt><trkpt lat="43.35078121754618" lon="13.29990721223903"><ele>264.0</ele><time>2026-04-20T09:17:01Z</time></trkpt><trkpt lat="43.35079830661815" lon="13.29973968459306"><ele>264.5</ele><time>2026-04-20T09:17:02Z</time></trkpt><trkpt lat="43.35081287814483" lon="13.299584925457467"><ele>265.0</ele><time>2026-04-20T09:17:03Z</time></trkpt><trkpt lat="43.35082505545944" lon="13.299422675060786"><ele>265.5</ele><time>2026-04-20T09:17:04Z</time></trkpt><trkpt lat="43.35083592223244" lon="13.299260252070969"><ele>266.0</ele><time>2026-04-20T09:17:05Z</time></trkpt><trkpt lat="43.35084678361794" lon="13.299097440834295"><ele>266.0</ele><time>2026-04-20T09:17:06Z</time></trkpt><trkpt lat="43.35084542811943" lon="13.298929772954116"><ele>266.0</ele><time>2026-04-20T09:17:07Z</time></trkpt><trkpt lat="43.35084323779473" lon="13.298769168159776"><ele>266.0</ele><time>2026-04-20T09:17:08Z</time></trkpt><trkpt lat="43.35085702922397" lon="13.298629114953846"><ele>266.0</ele><time>2026-04-20T09:17:09Z</time></trkpt><trkpt lat="43.35085855102773" lon="13.298475430043979"><ele>266.2</ele><time>2026-04-20T09:17:10Z</time></trkpt><trkpt lat="43.350857725518324" lon="13.298316471748423"><ele>266.40000000000003</ele><time>2026-04-20T09:17:11Z</time></trkpt><trkpt lat="43.350854663261" lon="13.298172947721312"><ele>266.6</ele><time>2026-04-20T09:17:12Z</time></trkpt><trkpt lat="43.35085012857298" lon="13.29805845985295"><ele>266.8</ele><time>2026-04-20T09:17:13Z</time></trkpt><trkpt lat="43.35084160769087" lon="13.297936822237817"><ele>267.0</ele><time>2026-04-20T09:17:14Z</time></trkpt><trkpt lat="43.350819281058165" lon="13.297786732176402"><ele>267.0</ele><time>2026-04-20T09:17:15Z</time></trkpt><trkpt lat="43.350802743062374" lon="13.297657486754511"><ele>267.0</ele><time>2026-04-20T09:17:16Z</time></trkpt><trkpt lat="43.35077321855949" lon="13.297526203181308"><ele>267.0</ele><time>2026-04-20T09:17:17Z</time></trkpt><trkpt lat="43.35074427327382" lon="13.297385030756212"><ele>267.0</ele><time>2026-04-20T09:17:18Z</time></trkpt><trkpt lat="43.350714726117666" lon="13.297258283353896"><ele>267.0</ele><time>2026-04-20T09:17:19Z</time></trkpt><trkpt lat="43.3506767958282" lon="13.297131427773566"><ele>267.0</ele><time>2026-04-20T09:17:20Z</time></trkpt><trkpt lat="43.35064627540652" lon="13.29700983348566"><ele>267.0</ele><time>2026-04-20T09:17:21Z</time></trkpt><trkpt lat="43.350620174641335" lon="13.296895972048727"><ele>267.0</ele><time>2026-04-20T09:17:22Z</time></trkpt><trkpt lat="43.35059578481068" lon="13.29679441082787"><ele>267.0</ele><time>2026-04-20T09:17:23Z</time></trkpt><trkpt lat="43.35057297246918" lon="13.296709063194417"><ele>267.0</ele><time>2026-04-20T09:17:24Z</time></trkpt><trkpt lat="43.350524474951605" lon="13.296569551201781"><ele>267.0</ele><time>2026-04-20T09:17:26Z</time></trkpt><trkpt lat="43.350490488787194" lon="13.296407494531243"><ele>267.6666666666667</ele><time>2026-04-20T09:17:28Z</time></trkpt><trkpt lat="43.35045775413923" lon="13.296324994676882"><ele>268.3333333333333</ele><time>2026-04-20T09:17:29Z</time></trkpt><trkpt lat="43.35043058088908" lon="13.296221628641533"><ele>269.0</ele><time>2026-04-20T09:17:30Z</time></trkpt><trkpt lat="43.35038621180357" lon="13.296141213430253"><ele>269.66666666666663</ele><time>2026-04-20T09:17:31Z</time></trkpt><trkpt lat="43.35035896484294" lon="13.296044373777832"><ele>270.3333333333333</ele><time>2026-04-20T09:17:32Z</time></trkpt><trkpt lat="43.35032862301252" lon="13.295933713545217"><ele>271.0</ele><time>2026-04-20T09:17:33Z</time></trkpt><trkpt lat="43.35028003667603" lon="13.295822016019688"><ele>271.0</ele><time>2026-04-20T09:17:34Z</time></trkpt><trkpt lat="43.35025264159746" lon="13.295715061806577"><ele>271.0</ele><time>2026-04-20T09:17:35Z</time></trkpt><trkpt lat="43.350209324290745" lon="13.295623792087927"><ele>271.0</ele><time>2026-04-20T09:17:36Z</time></trkpt><trkpt lat="43.35019735007351" lon="13.295516955580569"><ele>271.0</ele><time>2026-04-20T09:17:37Z</time></trkpt><trkpt lat="43.35017953092177" lon="13.295414287301083"><ele>271.0</ele><time>2026-04-20T09:17:38Z</time></trkpt><trkpt lat="43.350170811526304" lon="13.295319834254498"><ele>271.0</ele><time>2026-04-20T09:17:39Z</time></trkpt><trkpt lat="43.350168951009344" lon="13.295218379449933"><ele>271.0</ele><time>2026-04-20T09:17:40Z</time></trkpt><trkpt lat="43.35016043862132" lon="13.295099390038688"><ele>271.0</ele><time>2026-04-20T09:17:41Z</time></trkpt><trkpt lat="43.35019549371199" lon="13.294968838009854"><ele>271.0</ele><time>2026-04-20T09:17:42Z</time></trkpt><trkpt lat="43.35020332149924" lon="13.294867445429583"><ele>271.0</ele><time>2026-04-20T09:17:43Z</time></trkpt><trkpt lat="43.350218913844934" lon="13.294761336948886"><ele>271.0</ele><time>2026-04-20T09:17:44Z</time></trkpt><trkpt lat="43.350225709571454" lon="13.294665849249382"><ele>271.0</ele><time>2026-04-20T09:17:45Z</time></trkpt><trkpt lat="43.35022882815993" lon="13.294574856664717"><ele>271.0</ele><time>2026-04-20T09:17:46Z</time></trkpt><trkpt lat="43.35023270414909" lon="13.294470863318862"><ele>271.0</ele><time>2026-04-20T09:17:47Z</time></trkpt><trkpt lat="43.35024526304195" lon="13.294346798472219"><ele>271.0</ele><time>2026-04-20T09:17:48Z</time></trkpt><trkpt lat="43.35025450683134" lon="13.294208423350527"><ele>271.0</ele><time>2026-04-20T09:17:49Z</time></trkpt><trkpt lat="43.35026678581057" lon="13.294075867165537"><ele>271.0</ele><time>2026-04-20T09:17:50Z</time></trkpt><trkpt lat="43.350276473220156" lon="13.293987593204463"><ele>271.0</ele><time>2026-04-20T09:17:51Z</time></trkpt><trkpt lat="43.35028200478481" lon="13.29389611470061"><ele>271.2</ele><time>2026-04-20T09:17:52Z</time></trkpt><trkpt lat="43.35029097444872" lon="13.293773050225548"><ele>271.40000000000003</ele><time>2026-04-20T09:17:53Z</time></trkpt><trkpt lat="43.350303678627846" lon="13.293640402944504"><ele>271.6</ele><time>2026-04-20T09:17:54Z</time></trkpt><trkpt lat="43.35032362815925" lon="13.293512223120018"><ele>271.8</ele><time>2026-04-20T09:17:55Z</time></trkpt><trkpt lat="43.35033527519444" lon="13.293392291734753"><ele>272.0</ele><time>2026-04-20T09:17:56Z</time></trkpt><trkpt lat="43.350345178638854" lon="13.293263850359867"><ele>272.0</ele><time>2026-04-20T09:17:57Z</time></trkpt><trkpt lat="43.350356688162115" lon="13.293148435050803"><ele>272.0</ele><time>2026-04-20T09:17:58Z</time></trkpt><trkpt lat="43.350364602767094" lon="13.293029991415342"><ele>272.0</ele><time>2026-04-20T09:17:59Z</time></trkpt><trkpt lat="43.35038069773363" lon="13.292920921510692"><ele>272.0</ele><time>2026-04-20T09:18:00Z</time></trkpt><trkpt lat="43.3503948773527" lon="13.292795884317101"><ele>272.0</ele><time>2026-04-20T09:18:01Z</time></trkpt><trkpt lat="43.350409351300705" lon="13.29266560175134"><ele>272.0</ele><time>2026-04-20T09:18:02Z</time></trkpt><trkpt lat="43.350423089918515" lon="13.292528217722523"><ele>272.6</ele><time>2026-04-20T09:18:03Z</time></trkpt><trkpt lat="43.3504371683602" lon="13.29239273062551"><ele>273.2</ele><time>2026-04-20T09:18:04Z</time></trkpt><trkpt lat="43.350449510314135" lon="13.292257024594948"><ele>273.8</ele><time>2026-04-20T09:18:05Z</time></trkpt><trkpt lat="43.35045993749611" lon="13.292123320017865"><ele>274.4</ele><time>2026-04-20T09:18:06Z</time></trkpt><trkpt lat="43.350473131310444" lon="13.291989309926928"><ele>275.0</ele><time>2026-04-20T09:18:07Z</time></trkpt><trkpt lat="43.350486346381174" lon="13.291859308832324"><ele>275.0</ele><time>2026-04-20T09:18:08Z</time></trkpt><trkpt lat="43.350502295177755" lon="13.29173520307607"><ele>275.0</ele><time>2026-04-20T09:18:09Z</time></trkpt><trkpt lat="43.350508299576745" lon="13.29159814700748"><ele>275.0</ele><time>2026-04-20T09:18:10Z</time></trkpt><trkpt lat="43.3505168076874" lon="13.291464262776033"><ele>275.0</ele><time>2026-04-20T09:18:11Z</time></trkpt><trkpt lat="43.350535013532294" lon="13.291333145566693"><ele>275.0</ele><time>2026-04-20T09:18:12Z</time></trkpt><trkpt lat="43.350548921779684" lon="13.291203019518186"><ele>275.0</ele><time>2026-04-20T09:18:13Z</time></trkpt><trkpt lat="43.35054727465676" lon="13.29107009958316"><ele>275.0</ele><time>2026-04-20T09:18:14Z</time></trkpt><trkpt lat="43.35057145875066" lon="13.290944856402458"><ele>275.0</ele><time>2026-04-20T09:18:15Z</time></trkpt><trkpt lat="43.35057137692938" lon="13.290832561169198"><ele>275.0</ele><time>2026-04-20T09:18:16Z</time></trkpt><trkpt lat="43.35057959669373" lon="13.29072307096829"><ele>275.0</ele><time>2026-04-20T09:18:17Z</time></trkpt><trkpt lat="43.35058110185226" lon="13.290613117634463"><ele>275.0</ele><time>2026-04-20T09:18:18Z</time></trkpt><trkpt lat="43.350587690996996" lon="13.290509552523313"><ele>275.2</ele><time>2026-04-20T09:18:19Z</time></trkpt><trkpt lat="43.350612615339735" lon="13.290408868882203"><ele>275.4</ele><time>2026-04-20T09:18:20Z</time></trkpt><trkpt lat="43.35061960690448" lon="13.290322792344915"><ele>275.6</ele><time>2026-04-20T09:18:21Z</time></trkpt><trkpt lat="43.35061603225181" lon="13.290155824605591"><ele>275.8</ele><time>2026-04-20T09:18:23Z</time></trkpt><trkpt lat="43.35062709758967" lon="13.28999210252564"><ele>276.0</ele><time>2026-04-20T09:18:25Z</time></trkpt><trkpt lat="43.35063986267843" lon="13.289823007872627"><ele>276.0</ele><time>2026-04-20T09:18:27Z</time></trkpt><trkpt lat="43.35061972421082" lon="13.289740946960087"><ele>276.0</ele><time>2026-04-20T09:18:28Z</time></trkpt><trkpt lat="43.350549588879396" lon="13.289622602835701"><ele>276.0</ele><time>2026-04-20T09:18:30Z</time></trkpt><trkpt lat="43.35048350202543" lon="13.289445219515983"><ele>276.0</ele><time>2026-04-20T09:18:31.999Z</time></trkpt><trkpt lat="43.35043910056086" lon="13.289326945477509"><ele>276.0</ele><time>2026-04-20T09:18:32.999Z</time></trkpt><trkpt lat="43.35039165068732" lon="13.289200276672265"><ele>276.5</ele><time>2026-04-20T09:18:33.999Z</time></trkpt><trkpt lat="43.35034563338932" lon="13.289077432063971"><ele>277.0</ele><time>2026-04-20T09:18:34.999Z</time></trkpt><trkpt lat="43.350306533314985" lon="13.288973053241394"><ele>277.5</ele><time>2026-04-20T09:18:35.999Z</time></trkpt><trkpt lat="43.350268936622584" lon="13.288872687723513"><ele>278.0</ele><time>2026-04-20T09:18:36.999Z</time></trkpt><trkpt lat="43.35023629331924" lon="13.28878554533964"><ele>278.5</ele><time>2026-04-20T09:18:37.999Z</time></trkpt><trkpt lat="43.35020579040864" lon="13.288704116971907"><ele>279.0</ele><time>2026-04-20T09:18:38.999Z</time></trkpt><trkpt lat="43.350147541641206" lon="13.288548620192278"><ele>279.0</ele><time>2026-04-20T09:18:40.999Z</time></trkpt><trkpt lat="43.35011484503514" lon="13.288461335561676"><ele>279.0</ele><time>2026-04-20T09:18:41.999Z</time></trkpt><trkpt lat="43.350080278201425" lon="13.288369749684295"><ele>279.0</ele><time>2026-04-20T09:18:42.999Z</time></trkpt><trkpt lat="43.35004373480497" lon="13.288273186095068"><ele>279.0</ele><time>2026-04-20T09:18:43.999Z</time></trkpt><trkpt lat="43.35000662142567" lon="13.288175116267496"><ele>279.0</ele><time>2026-04-20T09:18:44.999Z</time></trkpt><trkpt lat="43.349967699707186" lon="13.28807226795841"><ele>279.0</ele><time>2026-04-20T09:18:45.999Z</time></trkpt><trkpt lat="43.34992823585996" lon="13.28796798728575"><ele>279.0</ele><time>2026-04-20T09:18:46.999Z</time></trkpt><trkpt lat="43.3498896495526" lon="13.287866025367164"><ele>279.0</ele><time>2026-04-20T09:18:47.999Z</time></trkpt><trkpt lat="43.34985027679646" lon="13.287761985428723"><ele>279.0</ele><time>2026-04-20T09:18:48.999Z</time></trkpt><trkpt lat="43.34980983728328" lon="13.287655126398764"><ele>279.0</ele><time>2026-04-20T09:18:49.999Z</time></trkpt><trkpt lat="43.34976972830654" lon="13.28754914095851"><ele>279.0</ele><time>2026-04-20T09:18:50.999Z</time></trkpt><trkpt lat="43.3497277948672" lon="13.287438334470151"><ele>279.0</ele><time>2026-04-20T09:18:51.999Z</time></trkpt><trkpt lat="43.34968825386818" lon="13.287333849325096"><ele>279.8333333333333</ele><time>2026-04-20T09:18:52.999Z</time></trkpt><trkpt lat="43.34964796233002" lon="13.287226057227555"><ele>280.6666666666667</ele><time>2026-04-20T09:18:53.999Z</time></trkpt><trkpt lat="43.34960869745226" lon="13.287121245598208"><ele>281.5</ele><time>2026-04-20T09:18:54.999Z</time></trkpt><trkpt lat="43.34957283357929" lon="13.287028749953603"><ele>282.33333333333337</ele><time>2026-04-20T09:18:55.999Z</time></trkpt><trkpt lat="43.34953235103994" lon="13.286925986646944"><ele>283.1666666666667</ele><time>2026-04-20T09:18:56.999Z</time></trkpt><trkpt lat="43.34949707537518" lon="13.286839344048506"><ele>284.0</ele><time>2026-04-20T09:18:57.999Z</time></trkpt><trkpt lat="43.349454020430045" lon="13.286736915043253"><ele>284.0</ele><time>2026-04-20T09:18:58.999Z</time></trkpt><trkpt lat="43.34941471290991" lon="13.286642846194578"><ele>284.0</ele><time>2026-04-20T09:18:59.999Z</time></trkpt><trkpt lat="43.34937862588732" lon="13.28655552210025"><ele>284.0</ele><time>2026-04-20T09:19:00.999Z</time></trkpt><trkpt lat="43.349327500501474" lon="13.286424851364773"><ele>284.0</ele><time>2026-04-20T09:19:01.999Z</time></trkpt><trkpt lat="43.34928496334744" lon="13.28627428976405"><ele>284.0</ele><time>2026-04-20T09:19:02.999Z</time></trkpt><trkpt lat="43.3492571900324" lon="13.286156888579741"><ele>284.33333333333337</ele><time>2026-04-20T09:19:04.999Z</time></trkpt><trkpt lat="43.349249085118316" lon="13.286066236001336"><ele>284.6666666666667</ele><time>2026-04-20T09:19:07.999Z</time></trkpt><trkpt lat="43.34960202764772" lon="13.285933698043229"><ele>285.0</ele><time>2026-04-20T09:19:09.999Z</time></trkpt><trkpt lat="43.3495037208572" lon="13.285993296771816"><ele>285.0</ele><time>2026-04-20T09:19:10.999Z</time></trkpt><trkpt lat="43.349426090110235" lon="13.286050883897037"><ele>285.0</ele><time>2026-04-20T09:19:12Z</time></trkpt><trkpt lat="43.34935375129367" lon="13.286098578776702"><ele>285.0</ele><time>2026-04-20T09:19:13Z</time></trkpt><trkpt lat="43.34928068449522" lon="13.286144288728456"><ele>285.0</ele><time>2026-04-20T09:19:14Z</time></trkpt><trkpt lat="43.34918844407425" lon="13.286176532563449"><ele>285.0</ele><time>2026-04-20T09:19:16Z</time></trkpt><trkpt lat="43.349055974018135" lon="13.286271561957742"><ele>285.0</ele><time>2026-04-20T09:19:43Z</time></trkpt><trkpt lat="43.34898250554943" lon="13.286322577037744"><ele>285.0</ele><time>2026-04-20T09:19:44Z</time></trkpt><trkpt lat="43.34891542498647" lon="13.286363203807918"><ele>285.0</ele><time>2026-04-20T09:19:45Z</time></trkpt><trkpt lat="43.348848474976094" lon="13.286400000682436"><ele>285.0</ele><time>2026-04-20T09:19:46Z</time></trkpt><trkpt lat="43.34877475714181" lon="13.286448126643117"><ele>285.0</ele><time>2026-04-20T09:19:47Z</time></trkpt><trkpt lat="43.3486957480792" lon="13.286508527911366"><ele>285.0</ele><time>2026-04-20T09:19:48Z</time></trkpt><trkpt lat="43.34862751855196" lon="13.286575111065527"><ele>285.3333333333333</ele><time>2026-04-20T09:19:49Z</time></trkpt><trkpt lat="43.34855955639793" lon="13.28664789263959"><ele>285.6666666666667</ele><time>2026-04-20T09:19:50Z</time></trkpt><trkpt lat="43.348484939040276" lon="13.28671232815167"><ele>286.0</ele><time>2026-04-20T09:19:51Z</time></trkpt><trkpt lat="43.34840891927734" lon="13.286755800792287"><ele>286.33333333333337</ele><time>2026-04-20T09:19:52Z</time></trkpt><trkpt lat="43.348318937350335" lon="13.286774517812484"><ele>286.6666666666667</ele><time>2026-04-20T09:19:53Z</time></trkpt><trkpt lat="43.348227872510456" lon="13.286798201338335"><ele>287.0</ele><time>2026-04-20T09:19:54Z</time></trkpt><trkpt lat="43.34814618175689" lon="13.286762877153228"><ele>287.0</ele><time>2026-04-20T09:19:55Z</time></trkpt><trkpt lat="43.348065974554764" lon="13.286722769712012"><ele>287.0</ele><time>2026-04-20T09:19:56Z</time></trkpt><trkpt lat="43.34797971928335" lon="13.286687641451643"><ele>287.0</ele><time>2026-04-20T09:19:57Z</time></trkpt><trkpt lat="43.34789157260491" lon="13.28666476115798"><ele>287.0</ele><time>2026-04-20T09:19:58Z</time></trkpt><trkpt lat="43.34779734909724" lon="13.28668375671038"><ele>287.0</ele><time>2026-04-20T09:19:59Z</time></trkpt><trkpt lat="43.347693763541194" lon="13.286719666721904"><ele>287.25</ele><time>2026-04-20T09:20:00Z</time></trkpt><trkpt lat="43.347578803305915" lon="13.286763733662308"><ele>287.5</ele><time>2026-04-20T09:20:01Z</time></trkpt><trkpt lat="43.347456719725955" lon="13.286812114416257"><ele>287.75</ele><time>2026-04-20T09:20:02Z</time></trkpt><trkpt lat="43.347342702019226" lon="13.28686571671812"><ele>288.0</ele><time>2026-04-20T09:20:03Z</time></trkpt><trkpt lat="43.34723388053623" lon="13.286916007043969"><ele>287.6</ele><time>2026-04-20T09:20:04Z</time></trkpt><trkpt lat="43.347128301713376" lon="13.286982335831855"><ele>287.20000000000005</ele><time>2026-04-20T09:20:05Z</time></trkpt><trkpt lat="43.34702596724146" lon="13.28702655147939"><ele>286.8</ele><time>2026-04-20T09:20:06Z</time></trkpt><trkpt lat="43.34693817594937" lon="13.28706941605668"><ele>286.40000000000003</ele><time>2026-04-20T09:20:07Z</time></trkpt><trkpt lat="43.346841450681666" lon="13.287100922061706"><ele>286.0</ele><time>2026-04-20T09:20:08Z</time></trkpt><trkpt lat="43.346750936792866" lon="13.28712603491162"><ele>286.0</ele><time>2026-04-20T09:20:09Z</time></trkpt><trkpt lat="43.34666363751618" lon="13.287143602741736"><ele>286.0</ele><time>2026-04-20T09:20:10Z</time></trkpt><trkpt lat="43.34659084024048" lon="13.287157844989242"><ele>286.0</ele><time>2026-04-20T09:20:11Z</time></trkpt><trkpt lat="43.346526682568225" lon="13.287169817372925"><ele>286.0</ele><time>2026-04-20T09:20:12Z</time></trkpt><trkpt lat="43.34643464104965" lon="13.287210184776523"><ele>286.0</ele><time>2026-04-20T09:20:14Z</time></trkpt><trkpt lat="43.34635100728986" lon="13.287224979484005"><ele>286.0</ele><time>2026-04-20T09:20:16Z</time></trkpt><trkpt lat="43.346344834109146" lon="13.287468216432949"><ele>286.0</ele><time>2026-04-20T09:20:17Z</time></trkpt><trkpt lat="43.34632120932538" lon="13.287565181077051"><ele>286.0</ele><time>2026-04-20T09:20:18Z</time></trkpt><trkpt lat="43.346308075980275" lon="13.287675919151674"><ele>286.0</ele><time>2026-04-20T09:20:19Z</time></trkpt><trkpt lat="43.346311826586714" lon="13.287799764833242"><ele>286.0</ele><time>2026-04-20T09:20:20Z</time></trkpt><trkpt lat="43.346330536492744" lon="13.287930481593305"><ele>286.0</ele><time>2026-04-20T09:20:21Z</time></trkpt><trkpt lat="43.346355378716325" lon="13.28805622663788"><ele>286.0</ele><time>2026-04-20T09:20:22Z</time></trkpt><trkpt lat="43.34638395032212" lon="13.28817865789895"><ele>286.0</ele><time>2026-04-20T09:20:23Z</time></trkpt><trkpt lat="43.3464098736795" lon="13.288320417637195"><ele>286.0</ele><time>2026-04-20T09:20:24Z</time></trkpt><trkpt lat="43.34643291665716" lon="13.288449068131385"><ele>286.0</ele><time>2026-04-20T09:20:25Z</time></trkpt><trkpt lat="43.34645311245025" lon="13.288575907072383"><ele>286.0</ele><time>2026-04-20T09:20:26Z</time></trkpt><trkpt lat="43.34648458586815" lon="13.28869771263292"><ele>286.0</ele><time>2026-04-20T09:20:27Z</time></trkpt><trkpt lat="43.34650018979063" lon="13.288828683473385"><ele>285.6</ele><time>2026-04-20T09:20:28Z</time></trkpt><trkpt lat="43.3465360879033" lon="13.288963513884521"><ele>285.20000000000005</ele><time>2026-04-20T09:20:29Z</time></trkpt><trkpt lat="43.346568761887646" lon="13.28909045346771"><ele>284.79999999999995</ele><time>2026-04-20T09:20:30Z</time></trkpt><trkpt lat="43.34660550996055" lon="13.289217132931302"><ele>284.4</ele><time>2026-04-20T09:20:31Z</time></trkpt><trkpt lat="43.34663305680529" lon="13.289350659435568"><ele>284.0</ele><time>2026-04-20T09:20:32Z</time></trkpt><trkpt lat="43.34666101085333" lon="13.289476336075989"><ele>284.0</ele><time>2026-04-20T09:20:33Z</time></trkpt><trkpt lat="43.34669341706049" lon="13.289600989923288"><ele>284.0</ele><time>2026-04-20T09:20:34Z</time></trkpt><trkpt lat="43.34672785835755" lon="13.289723130843681"><ele>284.0</ele><time>2026-04-20T09:20:35Z</time></trkpt><trkpt lat="43.34675653867004" lon="13.289839450938416"><ele>284.0</ele><time>2026-04-20T09:20:36Z</time></trkpt><trkpt lat="43.34678256744732" lon="13.28995802217743"><ele>284.0</ele><time>2026-04-20T09:20:37Z</time></trkpt><trkpt lat="43.346810467634825" lon="13.290064404701608"><ele>283.83333333333337</ele><time>2026-04-20T09:20:38Z</time></trkpt><trkpt lat="43.346844508221544" lon="13.290163263613946"><ele>283.6666666666667</ele><time>2026-04-20T09:20:39Z</time></trkpt><trkpt lat="43.3468728678868" lon="13.2902607953729"><ele>283.5</ele><time>2026-04-20T09:20:40Z</time></trkpt><trkpt lat="43.34691841828883" lon="13.290414576406315"><ele>283.3333333333333</ele><time>2026-04-20T09:20:42Z</time></trkpt><trkpt lat="43.34696644939332" lon="13.290525837680903"><ele>283.16666666666663</ele><time>2026-04-20T09:20:44Z</time></trkpt><trkpt lat="43.346984037752016" lon="13.290621494274607"><ele>283.0</ele><time>2026-04-20T09:20:46Z</time></trkpt><trkpt lat="43.3468542532047" lon="13.290734083848744"><ele>283.0</ele><time>2026-04-20T09:20:48Z</time></trkpt><trkpt lat="43.34681378280631" lon="13.29082110290802"><ele>283.0</ele><time>2026-04-20T09:20:48.999Z</time></trkpt><trkpt lat="43.34675553930035" lon="13.290907014038256"><ele>283.0</ele><time>2026-04-20T09:20:49.999Z</time></trkpt><trkpt lat="43.346709958249576" lon="13.290983942253092"><ele>283.0</ele><time>2026-04-20T09:20:50.999Z</time></trkpt><trkpt lat="43.346645672263904" lon="13.291041719932647"><ele>283.0</ele><time>2026-04-20T09:20:51.999Z</time></trkpt><trkpt lat="43.34658638050607" lon="13.291113248324068"><ele>283.0</ele><time>2026-04-20T09:20:52.999Z</time></trkpt><trkpt lat="43.3465253436712" lon="13.291193950324761"><ele>283.0</ele><time>2026-04-20T09:20:53.999Z</time></trkpt><trkpt lat="43.346435905121886" lon="13.29122544905499"><ele>283.0</ele><time>2026-04-20T09:20:54.999Z</time></trkpt><trkpt lat="43.34634560017149" lon="13.291264069694826"><ele>283.0</ele><time>2026-04-20T09:20:55.999Z</time></trkpt><trkpt lat="43.34623071660994" lon="13.291312672655685"><ele>283.0</ele><time>2026-04-20T09:20:56.999Z</time></trkpt><trkpt lat="43.34612520543673" lon="13.291355734061238"><ele>283.0</ele><time>2026-04-20T09:20:57.999Z</time></trkpt><trkpt lat="43.34601739341306" lon="13.291420942723741"><ele>282.8</ele><time>2026-04-20T09:20:58.999Z</time></trkpt><trkpt lat="43.34591716739794" lon="13.29146034541317"><ele>282.6</ele><time>2026-04-20T09:20:59.999Z</time></trkpt><trkpt lat="43.34581224795614" lon="13.29149765481883"><ele>282.4</ele><time>2026-04-20T09:21:00.999Z</time></trkpt><trkpt lat="43.345716979674265" lon="13.291546189955117"><ele>282.2</ele><time>2026-04-20T09:21:01.999Z</time></trkpt><trkpt lat="43.34562190646576" lon="13.291599262436058"><ele>282.0</ele><time>2026-04-20T09:21:02.999Z</time></trkpt><trkpt lat="43.34552737137354" lon="13.291650050714217"><ele>282.0</ele><time>2026-04-20T09:21:03.999Z</time></trkpt><trkpt lat="43.34544330751224" lon="13.291700019709241"><ele>282.0</ele><time>2026-04-20T09:21:04.999Z</time></trkpt><trkpt lat="43.34535097697756" lon="13.291739977125312"><ele>282.0</ele><time>2026-04-20T09:21:05.999Z</time></trkpt><trkpt lat="43.345264083959066" lon="13.291784063088457"><ele>282.0</ele><time>2026-04-20T09:21:06.999Z</time></trkpt><trkpt lat="43.345172666390376" lon="13.291831121432917"><ele>282.0</ele><time>2026-04-20T09:21:07.999Z</time></trkpt><trkpt lat="43.34507834259897" lon="13.291879054222074"><ele>282.0</ele><time>2026-04-20T09:21:08.999Z</time></trkpt><trkpt lat="43.34497907364081" lon="13.291912524978049"><ele>282.0</ele><time>2026-04-20T09:21:09.999Z</time></trkpt><trkpt lat="43.34489879417045" lon="13.29193407942165"><ele>282.0</ele><time>2026-04-20T09:21:10.999Z</time></trkpt><trkpt lat="43.34480841745304" lon="13.291972926200408"><ele>282.0</ele><time>2026-04-20T09:21:11.999Z</time></trkpt><trkpt lat="43.3447330406959" lon="13.292021469607013"><ele>282.0</ele><time>2026-04-20T09:21:12.999Z</time></trkpt><trkpt lat="43.34462560216515" lon="13.292062430823051"><ele>281.75</ele><time>2026-04-20T09:21:14.999Z</time></trkpt><trkpt lat="43.344533534486686" lon="13.292003467744637"><ele>281.5</ele><time>2026-04-20T09:21:16.999Z</time></trkpt><trkpt lat="43.3444370273013" lon="13.291924968319458"><ele>281.25</ele><time>2026-04-20T09:21:19Z</time></trkpt><trkpt lat="43.344293070737535" lon="13.29196776950758"><ele>281.0</ele><time>2026-04-20T09:21:21Z</time></trkpt><trkpt lat="43.34420589453545" lon="13.292018311866114"><ele>281.0</ele><time>2026-04-20T09:21:22Z</time></trkpt><trkpt lat="43.34411623922778" lon="13.292061390939374"><ele>281.0</ele><time>2026-04-20T09:21:23Z</time></trkpt><trkpt lat="43.34404633700327" lon="13.29210372919135"><ele>281.0</ele><time>2026-04-20T09:21:24Z</time></trkpt><trkpt lat="43.34396845744548" lon="13.292135361691756"><ele>281.0</ele><time>2026-04-20T09:21:25Z</time></trkpt><trkpt lat="43.34388524346291" lon="13.292158930634168"><ele>281.0</ele><time>2026-04-20T09:21:26Z</time></trkpt><trkpt lat="43.343797782560536" lon="13.292196589353468"><ele>281.0</ele><time>2026-04-20T09:21:27Z</time></trkpt><trkpt lat="43.34369424630534" lon="13.292239993522657"><ele>277.25</ele><time>2026-04-20T09:21:28Z</time></trkpt><trkpt lat="43.34358059169131" lon="13.292280481475235"><ele>273.5</ele><time>2026-04-20T09:21:29Z</time></trkpt><trkpt lat="43.34345916148236" lon="13.29233212245497"><ele>269.75</ele><time>2026-04-20T09:21:30Z</time></trkpt><trkpt lat="43.34334892911443" lon="13.292366270131572"><ele>266.0</ele><time>2026-04-20T09:21:31Z</time></trkpt><trkpt lat="43.343230765956385" lon="13.29241007385092"><ele>266.0</ele><time>2026-04-20T09:21:32Z</time></trkpt><trkpt lat="43.3431139061262" lon="13.29245044576005"><ele>266.0</ele><time>2026-04-20T09:21:33Z</time></trkpt><trkpt lat="43.342988286826134" lon="13.29249957357191"><ele>266.0</ele><time>2026-04-20T09:21:34Z</time></trkpt><trkpt lat="43.342868545300476" lon="13.292548840507918"><ele>266.0</ele><time>2026-04-20T09:21:35Z</time></trkpt><trkpt lat="43.342747411448826" lon="13.292602146589639"><ele>263.5</ele><time>2026-04-20T09:21:36Z</time></trkpt><trkpt lat="43.34262229267166" lon="13.292617124983563"><ele>261.0</ele><time>2026-04-20T09:21:37Z</time></trkpt><trkpt lat="43.34250202118773" lon="13.292669513245414"><ele>258.5</ele><time>2026-04-20T09:21:38Z</time></trkpt><trkpt lat="43.342378998725984" lon="13.292697793562052"><ele>256.0</ele><time>2026-04-20T09:21:39Z</time></trkpt><trkpt lat="43.34225437400387" lon="13.292723026753968"><ele>255.25</ele><time>2026-04-20T09:21:40Z</time></trkpt><trkpt lat="43.34212752302609" lon="13.292740771916279"><ele>254.5</ele><time>2026-04-20T09:21:41Z</time></trkpt><trkpt lat="43.34200155973513" lon="13.292758161638046"><ele>253.75</ele><time>2026-04-20T09:21:42Z</time></trkpt><trkpt lat="43.34187441033635" lon="13.292778493248134"><ele>253.0</ele><time>2026-04-20T09:21:43Z</time></trkpt><trkpt lat="43.34175063555946" lon="13.292796534373338"><ele>253.0</ele><time>2026-04-20T09:21:44Z</time></trkpt><trkpt lat="43.34162663273563" lon="13.292809264175514"><ele>253.0</ele><time>2026-04-20T09:21:45Z</time></trkpt><trkpt lat="43.34150660322612" lon="13.292811684222805"><ele>253.0</ele><time>2026-04-20T09:21:46Z</time></trkpt><trkpt lat="43.34138306708836" lon="13.292798088681813"><ele>253.0</ele><time>2026-04-20T09:21:47Z</time></trkpt><trkpt lat="43.34125813771618" lon="13.292807313630478"><ele>252.75</ele><time>2026-04-20T09:21:48Z</time></trkpt><trkpt lat="43.341140898377425" lon="13.292828654834077"><ele>252.5</ele><time>2026-04-20T09:21:49Z</time></trkpt><trkpt lat="43.341025239848285" lon="13.292841013176382"><ele>252.25</ele><time>2026-04-20T09:21:50Z</time></trkpt><trkpt lat="43.34090833059484" lon="13.29284124766119"><ele>252.0</ele><time>2026-04-20T09:21:51Z</time></trkpt><trkpt lat="43.3407909592782" lon="13.292846114808125"><ele>252.0</ele><time>2026-04-20T09:21:52Z</time></trkpt><trkpt lat="43.340675167816784" lon="13.292850571951172"><ele>252.0</ele><time>2026-04-20T09:21:53Z</time></trkpt><trkpt lat="43.34057469863154" lon="13.292852789141063"><ele>252.0</ele><time>2026-04-20T09:21:54Z</time></trkpt><trkpt lat="43.34048277166141" lon="13.292847176079887"><ele>252.0</ele><time>2026-04-20T09:21:55Z</time></trkpt><trkpt lat="43.34040071779754" lon="13.292868343563757"><ele>252.0</ele><time>2026-04-20T09:21:56Z</time></trkpt><trkpt lat="43.34033342400198" lon="13.292864522103944"><ele>251.66666666666666</ele><time>2026-04-20T09:21:57Z</time></trkpt><trkpt lat="43.34024971161478" lon="13.292852049682562"><ele>251.33333333333331</ele><time>2026-04-20T09:21:59Z</time></trkpt><trkpt lat="43.34018176367091" lon="13.292852082501113"><ele>251.0</ele><time>2026-04-20T09:22:04Z</time></trkpt><trkpt lat="43.34015400936066" lon="13.292974161404276"><ele>250.66666666666666</ele><time>2026-04-20T09:22:05Z</time></trkpt><trkpt lat="43.340146953953216" lon="13.293095215305177"><ele>250.33333333333331</ele><time>2026-04-20T09:22:06Z</time></trkpt><trkpt lat="43.34013984879918" lon="13.293241839270058"><ele>250.0</ele><time>2026-04-20T09:22:07Z</time></trkpt><trkpt lat="43.34012900293854" lon="13.293403082033675"><ele>249.5</ele><time>2026-04-20T09:22:08Z</time></trkpt><trkpt lat="43.3401078093738" lon="13.293591732775186"><ele>249.0</ele><time>2026-04-20T09:22:09Z</time></trkpt><trkpt lat="43.340079988590354" lon="13.293794061828555"><ele>248.5</ele><time>2026-04-20T09:22:10Z</time></trkpt><trkpt lat="43.3400585323599" lon="13.294010635518283"><ele>248.0</ele><time>2026-04-20T09:22:11Z</time></trkpt><trkpt lat="43.340032715941256" lon="13.294241113777748"><ele>248.0</ele><time>2026-04-20T09:22:12Z</time></trkpt><trkpt lat="43.34000870423076" lon="13.294475185393843"><ele>248.0</ele><time>2026-04-20T09:22:13Z</time></trkpt><trkpt lat="43.339997162248494" lon="13.294714284963346"><ele>248.0</ele><time>2026-04-20T09:22:14Z</time></trkpt><trkpt lat="43.33999211919996" lon="13.294949809911104"><ele>247.33333333333334</ele><time>2026-04-20T09:22:15Z</time></trkpt><trkpt lat="43.33999331880357" lon="13.295166056703279"><ele>246.66666666666669</ele><time>2026-04-20T09:22:16Z</time></trkpt><trkpt lat="43.339991317185046" lon="13.29538111646179"><ele>246.0</ele><time>2026-04-20T09:22:17Z</time></trkpt><trkpt lat="43.33998297381968" lon="13.295597345338987"><ele>245.66666666666669</ele><time>2026-04-20T09:22:17.999Z</time></trkpt><trkpt lat="43.339972068287246" lon="13.295798889423155"><ele>245.33333333333334</ele><time>2026-04-20T09:22:18.999Z</time></trkpt><trkpt lat="43.339964831009894" lon="13.29600190181439"><ele>245.0</ele><time>2026-04-20T09:22:19.999Z</time></trkpt><trkpt lat="43.33995894782767" lon="13.296219915895218"><ele>245.0</ele><time>2026-04-20T09:22:20.999Z</time></trkpt><trkpt lat="43.33994936519376" lon="13.296414614323716"><ele>245.0</ele><time>2026-04-20T09:22:21.999Z</time></trkpt><trkpt lat="43.339942367356315" lon="13.29659593808136"><ele>245.0</ele><time>2026-04-20T09:22:22.999Z</time></trkpt><trkpt lat="43.33993110844173" lon="13.296749653870258"><ele>245.0</ele><time>2026-04-20T09:22:23.999Z</time></trkpt><trkpt lat="43.339919447965116" lon="13.29688667073352"><ele>245.00000000000003</ele><time>2026-04-20T09:22:24.999Z</time></trkpt><trkpt lat="43.33991241808026" lon="13.297005438719214"><ele>245.0</ele><time>2026-04-20T09:22:25.999Z</time></trkpt><trkpt lat="43.33991048501379" lon="13.297107173836123"><ele>245.0</ele><time>2026-04-20T09:22:26.999Z</time></trkpt><trkpt lat="43.33990407224021" lon="13.297194555084491"><ele>245.0</ele><time>2026-04-20T09:22:27.999Z</time></trkpt><trkpt lat="43.339836506774176" lon="13.297282720315275"><ele>245.00000000000003</ele><time>2026-04-20T09:22:29.999Z</time></trkpt><trkpt lat="43.33974527504248" lon="13.297240267459982"><ele>245.0</ele><time>2026-04-20T09:22:31.999Z</time></trkpt><trkpt lat="43.33966751529803" lon="13.297241047493268"><ele>245.00000000000003</ele><time>2026-04-20T09:22:32.999Z</time></trkpt><trkpt lat="43.33957821501363" lon="13.297204878767857"><ele>245.0</ele><time>2026-04-20T09:22:33.999Z</time></trkpt><trkpt lat="43.339485029272055" lon="13.297186257622963"><ele>245.0</ele><time>2026-04-20T09:22:34.999Z</time></trkpt><trkpt lat="43.339401456351574" lon="13.297172338787702"><ele>245.0</ele><time>2026-04-20T09:22:35.999Z</time></trkpt><trkpt lat="43.339330498376064" lon="13.297182428067268"><ele>245.00000000000003</ele><time>2026-04-20T09:22:36.999Z</time></trkpt><trkpt lat="43.33926707392494" lon="13.297167217370168"><ele>245.0</ele><time>2026-04-20T09:22:37.999Z</time></trkpt><trkpt lat="43.339197669938514" lon="13.297150506115141"><ele>245.0</ele><time>2026-04-20T09:22:38.999Z</time></trkpt><trkpt lat="43.339111720582196" lon="13.297135760029732"><ele>245.0</ele><time>2026-04-20T09:22:39.999Z</time></trkpt><trkpt lat="43.33902483724759" lon="13.297126014494896"><ele>245.0</ele><time>2026-04-20T09:22:40.999Z</time></trkpt><trkpt lat="43.338943602630664" lon="13.29711025421828"><ele>245.0</ele><time>2026-04-20T09:22:41.999Z</time></trkpt><trkpt lat="43.338849744553166" lon="13.297077106459284"><ele>245.0</ele><time>2026-04-20T09:22:42.999Z</time></trkpt><trkpt lat="43.338750337521546" lon="13.297059108303955"><ele>244.8</ele><time>2026-04-20T09:22:43.999Z</time></trkpt><trkpt lat="43.33865102313185" lon="13.297038918503697"><ele>244.6</ele><time>2026-04-20T09:22:44.999Z</time></trkpt><trkpt lat="43.3385478013214" lon="13.297031659572923"><ele>244.39999999999998</ele><time>2026-04-20T09:22:45.999Z</time></trkpt><trkpt lat="43.33845406265561" lon="13.297009996966151"><ele>244.2</ele><time>2026-04-20T09:22:46.999Z</time></trkpt><trkpt lat="43.338361941783916" lon="13.296978730844282"><ele>244.0</ele><time>2026-04-20T09:22:47.999Z</time></trkpt><trkpt lat="43.33825931652591" lon="13.296954356719203"><ele>244.0</ele><time>2026-04-20T09:22:48.999Z</time></trkpt><trkpt lat="43.338161007381416" lon="13.296895379192838"><ele>243.99999999999997</ele><time>2026-04-20T09:22:49.999Z</time></trkpt><trkpt lat="43.3380625385322" lon="13.29685689039795"><ele>243.99999999999997</ele><time>2026-04-20T09:22:50.999Z</time></trkpt><trkpt lat="43.33796229487281" lon="13.296843360274492"><ele>244.0</ele><time>2026-04-20T09:22:51.999Z</time></trkpt><trkpt lat="43.337893442118784" lon="13.296801319960919"><ele>244.0</ele><time>2026-04-20T09:22:52.999Z</time></trkpt><trkpt lat="43.33780822048295" lon="13.29677451628536"><ele>243.33333333333331</ele><time>2026-04-20T09:22:53.999Z</time></trkpt><trkpt lat="43.337720572971456" lon="13.296748581369824"><ele>242.66666666666666</ele><time>2026-04-20T09:22:54.999Z</time></trkpt><trkpt lat="43.33763110574372" lon="13.29673213855644"><ele>242.0</ele><time>2026-04-20T09:22:55.999Z</time></trkpt><trkpt lat="43.3375544653256" lon="13.29671351192463"><ele>241.33333333333331</ele><time>2026-04-20T09:22:56.999Z</time></trkpt><trkpt lat="43.33747902498545" lon="13.296697550807458"><ele>240.66666666666666</ele><time>2026-04-20T09:22:57.999Z</time></trkpt><trkpt lat="43.33741197210337" lon="13.29667272946821"><ele>240.0</ele><time>2026-04-20T09:22:58.999Z</time></trkpt><trkpt lat="43.33734154404559" lon="13.296637272518495"><ele>240.0</ele><time>2026-04-20T09:22:59.999Z</time></trkpt><trkpt lat="43.33727589564621" lon="13.29661938909883"><ele>240.0</ele><time>2026-04-20T09:23:00.999Z</time></trkpt><trkpt lat="43.33715264021814" lon="13.296584857310604"><ele>240.0</ele><time>2026-04-20T09:23:02.999Z</time></trkpt><trkpt lat="43.33703452553061" lon="13.296558086721486"><ele>240.0</ele><time>2026-04-20T09:23:04.999Z</time></trkpt><trkpt lat="43.336933998101614" lon="13.296462740267716"><ele>240.0</ele><time>2026-04-20T09:23:06.999Z</time></trkpt><trkpt lat="43.33687762368274" lon="13.296410955468412"><ele>238.66666666666666</ele><time>2026-04-20T09:23:07.999Z</time></trkpt><trkpt lat="43.33678357031603" lon="13.296281771881931"><ele>237.33333333333331</ele><time>2026-04-20T09:23:09.999Z</time></trkpt><trkpt lat="43.336749644260095" lon="13.296203449037343"><ele>236.0</ele><time>2026-04-20T09:23:10.999Z</time></trkpt><trkpt lat="43.33672253502335" lon="13.296104920450192"><ele>234.66666666666666</ele><time>2026-04-20T09:23:11.999Z</time></trkpt><trkpt lat="43.33669396611426" lon="13.296017023259381"><ele>233.33333333333331</ele><time>2026-04-20T09:23:12.999Z</time></trkpt><trkpt lat="43.33666096881458" lon="13.295929310631438"><ele>232.0</ele><time>2026-04-20T09:23:13.999Z</time></trkpt><trkpt lat="43.3365803278852" lon="13.295804301856162"><ele>232.0</ele><time>2026-04-20T09:23:15.999Z</time></trkpt><trkpt lat="43.33654506249303" lon="13.295715097561995"><ele>232.0</ele><time>2026-04-20T09:23:16.999Z</time></trkpt><trkpt lat="43.33655169139601" lon="13.295532404416475"><ele>232.0</ele><time>2026-04-20T09:23:18.999Z</time></trkpt><trkpt lat="43.33659620768881" lon="13.295423867741013"><ele>232.0</ele><time>2026-04-20T09:23:19.999Z</time></trkpt><trkpt lat="43.33664229100487" lon="13.295273681896603"><ele>232.0</ele><time>2026-04-20T09:23:20.999Z</time></trkpt><trkpt lat="43.33669003628243" lon="13.29510266728305"><ele>232.75</ele><time>2026-04-20T09:23:21.999Z</time></trkpt><trkpt lat="43.33675628538009" lon="13.294971912925094"><ele>233.5</ele><time>2026-04-20T09:23:22.999Z</time></trkpt><trkpt lat="43.3368034478582" lon="13.294815109275994"><ele>234.25</ele><time>2026-04-20T09:23:24Z</time></trkpt><trkpt lat="43.33686513630562" lon="13.294685309131136"><ele>235.0</ele><time>2026-04-20T09:23:25Z</time></trkpt><trkpt lat="43.33691348979885" lon="13.294544084194573"><ele>236.2</ele><time>2026-04-20T09:23:26Z</time></trkpt><trkpt lat="43.336961182853734" lon="13.294384089327123"><ele>237.4</ele><time>2026-04-20T09:23:27Z</time></trkpt><trkpt lat="43.336993516134115" lon="13.294279924611784"><ele>238.60000000000002</ele><time>2026-04-20T09:23:28Z</time></trkpt><trkpt lat="43.337002069845234" lon="13.294141295509924"><ele>239.8</ele><time>2026-04-20T09:23:29Z</time></trkpt><trkpt lat="43.336988636098" lon="13.294005886908113"><ele>241.0</ele><time>2026-04-20T09:23:30Z</time></trkpt><trkpt lat="43.336965897121885" lon="13.29389188936146"><ele>242.0</ele><time>2026-04-20T09:23:31Z</time></trkpt><trkpt lat="43.33688525414203" lon="13.293786312494795"><ele>243.0</ele><time>2026-04-20T09:23:32Z</time></trkpt><trkpt lat="43.33680737555095" lon="13.293657543567617"><ele>244.0</ele><time>2026-04-20T09:23:33Z</time></trkpt><trkpt lat="43.33670979509036" lon="13.29352740813078"><ele>245.0</ele><time>2026-04-20T09:23:34Z</time></trkpt><trkpt lat="43.33663662526751" lon="13.293371962948388"><ele>245.0</ele><time>2026-04-20T09:23:35Z</time></trkpt><trkpt lat="43.33654157990503" lon="13.293226101295677"><ele>245.0</ele><time>2026-04-20T09:23:36Z</time></trkpt><trkpt lat="43.336470394597534" lon="13.293097036959471"><ele>245.0</ele><time>2026-04-20T09:23:37Z</time></trkpt><trkpt lat="43.33641658880901" lon="13.292963072757685"><ele>245.0</ele><time>2026-04-20T09:23:38Z</time></trkpt><trkpt lat="43.33634618765024" lon="13.292841065543081"><ele>246.0</ele><time>2026-04-20T09:23:39Z</time></trkpt><trkpt lat="43.336282002562065" lon="13.29272983093376"><ele>247.0</ele><time>2026-04-20T09:23:40Z</time></trkpt><trkpt lat="43.336200095469295" lon="13.292631793301883"><ele>248.0</ele><time>2026-04-20T09:23:41Z</time></trkpt><trkpt lat="43.33613417552414" lon="13.292531339449873"><ele>249.0</ele><time>2026-04-20T09:23:42Z</time></trkpt><trkpt lat="43.3360721550278" lon="13.292448757102754"><ele>250.0</ele><time>2026-04-20T09:23:43Z</time></trkpt><trkpt lat="43.33598095786408" lon="13.292378496426943"><ele>250.0</ele><time>2026-04-20T09:23:44Z</time></trkpt><trkpt lat="43.33588250408371" lon="13.292317511915003"><ele>250.0</ele><time>2026-04-20T09:23:45Z</time></trkpt><trkpt lat="43.335778598491295" lon="13.292256490016447"><ele>250.0</ele><time>2026-04-20T09:23:46Z</time></trkpt><trkpt lat="43.3356690632797" lon="13.292192655862195"><ele>250.0</ele><time>2026-04-20T09:23:47Z</time></trkpt><trkpt lat="43.33557838416688" lon="13.292136315734265"><ele>250.0</ele><time>2026-04-20T09:23:48Z</time></trkpt><trkpt lat="43.335484270213065" lon="13.292074186680253"><ele>249.6</ele><time>2026-04-20T09:23:49Z</time></trkpt><trkpt lat="43.335390869070096" lon="13.29201627091033"><ele>249.2</ele><time>2026-04-20T09:23:50Z</time></trkpt><trkpt lat="43.33529852547509" lon="13.291961021126792"><ele>248.8</ele><time>2026-04-20T09:23:51Z</time></trkpt><trkpt lat="43.335205351127996" lon="13.291887757894514"><ele>248.4</ele><time>2026-04-20T09:23:52Z</time></trkpt><trkpt lat="43.33510327885815" lon="13.291875614029609"><ele>248.0</ele><time>2026-04-20T09:23:53Z</time></trkpt><trkpt lat="43.33500818494069" lon="13.291868969132256"><ele>248.0</ele><time>2026-04-20T09:23:54Z</time></trkpt><trkpt lat="43.334909187577274" lon="13.291867684415386"><ele>248.0</ele><time>2026-04-20T09:23:55Z</time></trkpt><trkpt lat="43.334808440592994" lon="13.291898730765057"><ele>248.0</ele><time>2026-04-20T09:23:56Z</time></trkpt><trkpt lat="43.33471369033949" lon="13.291930024996079"><ele>248.0</ele><time>2026-04-20T09:23:57Z</time></trkpt><trkpt lat="43.334614314777056" lon="13.291958190328431"><ele>248.0</ele><time>2026-04-20T09:23:58Z</time></trkpt><trkpt lat="43.334518994587384" lon="13.291978385977897"><ele>247.8</ele><time>2026-04-20T09:23:59Z</time></trkpt><trkpt lat="43.33440819295729" lon="13.291957738975935"><ele>247.60000000000002</ele><time>2026-04-20T09:24:00Z</time></trkpt><trkpt lat="43.33430568120779" lon="13.291949936494076"><ele>247.39999999999998</ele><time>2026-04-20T09:24:01Z</time></trkpt><trkpt lat="43.33419887305374" lon="13.291959553063947"><ele>247.2</ele><time>2026-04-20T09:24:02Z</time></trkpt><trkpt lat="43.334104449309876" lon="13.291944562415352"><ele>247.0</ele><time>2026-04-20T09:24:03Z</time></trkpt><trkpt lat="43.3339819683175" lon="13.291919716833227"><ele>245.83333333333331</ele><time>2026-04-20T09:24:04Z</time></trkpt><trkpt lat="43.33388115523056" lon="13.2918886027361"><ele>244.66666666666666</ele><time>2026-04-20T09:24:05Z</time></trkpt><trkpt lat="43.33379939400092" lon="13.291869406222162"><ele>243.5</ele><time>2026-04-20T09:24:06Z</time></trkpt><trkpt lat="43.33371916296208" lon="13.291844804620078"><ele>242.33333333333331</ele><time>2026-04-20T09:24:07Z</time></trkpt><trkpt lat="43.33364601818578" lon="13.291828399953165"><ele>241.16666666666666</ele><time>2026-04-20T09:24:08Z</time></trkpt><trkpt lat="43.333557096211436" lon="13.291813352463016"><ele>240.0</ele><time>2026-04-20T09:24:09Z</time></trkpt><trkpt lat="43.3334665163812" lon="13.291780508850971"><ele>240.0</ele><time>2026-04-20T09:24:10Z</time></trkpt><trkpt lat="43.33339204906308" lon="13.291736197037588"><ele>240.0</ele><time>2026-04-20T09:24:11Z</time></trkpt><trkpt lat="43.33331235893593" lon="13.291659178107663"><ele>240.0</ele><time>2026-04-20T09:24:12Z</time></trkpt><trkpt lat="43.33322629481869" lon="13.291611330795265"><ele>240.0</ele><time>2026-04-20T09:24:13Z</time></trkpt><trkpt lat="43.333147545527034" lon="13.291548353442778"><ele>240.0</ele><time>2026-04-20T09:24:14Z</time></trkpt><trkpt lat="43.33307456150191" lon="13.291489590017811"><ele>240.0</ele><time>2026-04-20T09:24:15Z</time></trkpt><trkpt lat="43.333000225794706" lon="13.291432738808256"><ele>240.2</ele><time>2026-04-20T09:24:16Z</time></trkpt><trkpt lat="43.332942245339005" lon="13.29138218121203"><ele>240.4</ele><time>2026-04-20T09:24:17Z</time></trkpt><trkpt lat="43.332832111615744" lon="13.291304762923618"><ele>240.60000000000002</ele><time>2026-04-20T09:24:19Z</time></trkpt><trkpt lat="43.33270543211201" lon="13.291330846238584"><ele>240.8</ele><time>2026-04-20T09:24:21Z</time></trkpt><trkpt lat="43.33267101561382" lon="13.291428614025428"><ele>241.0</ele><time>2026-04-20T09:24:22Z</time></trkpt><trkpt lat="43.33266506602978" lon="13.291628992357463"><ele>241.0</ele><time>2026-04-20T09:24:24Z</time></trkpt><trkpt lat="43.332689870123794" lon="13.291752712755075"><ele>241.00000000000003</ele><time>2026-04-20T09:24:25Z</time></trkpt><trkpt lat="43.3327086257551" lon="13.291900887129595"><ele>241.00000000000003</ele><time>2026-04-20T09:24:26Z</time></trkpt><trkpt lat="43.33266230484745" lon="13.29201984876658"><ele>241.0</ele><time>2026-04-20T09:24:27Z</time></trkpt><trkpt lat="43.33262376116663" lon="13.292141718764832"><ele>241.0</ele><time>2026-04-20T09:24:28Z</time></trkpt><trkpt lat="43.33255373578804" lon="13.292246387697467"><ele>240.60000000000002</ele><time>2026-04-20T09:24:29Z</time></trkpt><trkpt lat="43.33247594741404" lon="13.29233198206756"><ele>240.20000000000002</ele><time>2026-04-20T09:24:30Z</time></trkpt><trkpt lat="43.3324096421024" lon="13.292317822297283"><ele>239.79999999999998</ele><time>2026-04-20T09:24:31Z</time></trkpt><trkpt lat="43.33231216674568" lon="13.292317776473801"><ele>239.39999999999998</ele><time>2026-04-20T09:24:32Z</time></trkpt><trkpt lat="43.3321817954363" lon="13.292328304002028"><ele>239.0</ele><time>2026-04-20T09:24:33Z</time></trkpt><trkpt lat="43.332044884997465" lon="13.292331584566666"><ele>242.0</ele><time>2026-04-20T09:24:34Z</time></trkpt><trkpt lat="43.331918937677116" lon="13.292332087405118"><ele>245.0</ele><time>2026-04-20T09:24:35Z</time></trkpt><trkpt lat="43.33178075881835" lon="13.292322078342705"><ele>248.0</ele><time>2026-04-20T09:24:36Z</time></trkpt><trkpt lat="43.331638638663364" lon="13.292317805449652"><ele>251.0</ele><time>2026-04-20T09:24:37Z</time></trkpt><trkpt lat="43.33149232291898" lon="13.292336697819508"><ele>253.25</ele><time>2026-04-20T09:24:38Z</time></trkpt><trkpt lat="43.33136093673728" lon="13.292341284207327"><ele>255.5</ele><time>2026-04-20T09:24:39Z</time></trkpt><trkpt lat="43.33122537993894" lon="13.292353079579822"><ele>257.75</ele><time>2026-04-20T09:24:39.999Z</time></trkpt><trkpt lat="43.33107275009797" lon="13.292321207044244"><ele>260.0</ele><time>2026-04-20T09:24:40.999Z</time></trkpt><trkpt lat="43.33092945777612" lon="13.292330517809715"><ele>260.0</ele><time>2026-04-20T09:24:41.999Z</time></trkpt><trkpt lat="43.33080079617533" lon="13.292354999949655"><ele>260.0</ele><time>2026-04-20T09:24:42.999Z</time></trkpt><trkpt lat="43.33067997015946" lon="13.292345722511453"><ele>260.0</ele><time>2026-04-20T09:24:43.999Z</time></trkpt><trkpt lat="43.330561415196094" lon="13.292355702028303"><ele>260.0</ele><time>2026-04-20T09:24:44.999Z</time></trkpt><trkpt lat="43.33044034695385" lon="13.292361512053372"><ele>259.5</ele><time>2026-04-20T09:24:45.999Z</time></trkpt><trkpt lat="43.33031454203715" lon="13.292365161719077"><ele>259.0</ele><time>2026-04-20T09:24:46.999Z</time></trkpt><trkpt lat="43.33018058450828" lon="13.292345437582465"><ele>258.5</ele><time>2026-04-20T09:24:47.999Z</time></trkpt><trkpt lat="43.33005794926938" lon="13.29234163242458"><ele>258.0</ele><time>2026-04-20T09:24:48.999Z</time></trkpt><trkpt lat="43.329920511151" lon="13.292354681138502"><ele>258.0</ele><time>2026-04-20T09:24:49.999Z</time></trkpt><trkpt lat="43.32978569579811" lon="13.292348331360255"><ele>258.0</ele><time>2026-04-20T09:24:50.999Z</time></trkpt><trkpt lat="43.32964646108361" lon="13.292348650768707"><ele>258.0</ele><time>2026-04-20T09:24:51.999Z</time></trkpt><trkpt lat="43.3295097383642" lon="13.292343118062268"><ele>258.0</ele><time>2026-04-20T09:24:52.999Z</time></trkpt><trkpt lat="43.329387879697116" lon="13.292348844907655"><ele>258.0</ele><time>2026-04-20T09:24:53.999Z</time></trkpt><trkpt lat="43.32926385308688" lon="13.292327835958838"><ele>258.0</ele><time>2026-04-20T09:24:54.999Z</time></trkpt><trkpt lat="43.32914930657387" lon="13.29234861617573"><ele>258.0</ele><time>2026-04-20T09:24:55.999Z</time></trkpt><trkpt lat="43.32903574099151" lon="13.292343908019992"><ele>258.0</ele><time>2026-04-20T09:24:56.999Z</time></trkpt><trkpt lat="43.328937371843566" lon="13.292352353705638"><ele>258.6</ele><time>2026-04-20T09:24:57.999Z</time></trkpt><trkpt lat="43.32885869470565" lon="13.292355692342518"><ele>259.20000000000005</ele><time>2026-04-20T09:24:58.999Z</time></trkpt><trkpt lat="43.32878130079001" lon="13.292338942446754"><ele>259.8</ele><time>2026-04-20T09:24:59.999Z</time></trkpt><trkpt lat="43.328701303971656" lon="13.292313319691187"><ele>260.40000000000003</ele><time>2026-04-20T09:25:00.999Z</time></trkpt><trkpt lat="43.328605505812824" lon="13.292312391240724"><ele>261.0</ele><time>2026-04-20T09:25:01.999Z</time></trkpt><trkpt lat="43.32848177358567" lon="13.292349821797844"><ele>261.0</ele><time>2026-04-20T09:25:02.999Z</time></trkpt><trkpt lat="43.32833962968293" lon="13.292367539029204"><ele>261.0</ele><time>2026-04-20T09:25:03.999Z</time></trkpt><trkpt lat="43.32816166124459" lon="13.292407862624085"><ele>261.0</ele><time>2026-04-20T09:25:04.999Z</time></trkpt><trkpt lat="43.3279694398958" lon="13.292454300467451"><ele>262.0</ele><time>2026-04-20T09:25:05.999Z</time></trkpt><trkpt lat="43.32776502429606" lon="13.292485134088734"><ele>263.0</ele><time>2026-04-20T09:25:06.999Z</time></trkpt><trkpt lat="43.32758681264755" lon="13.292530295673393"><ele>264.0</ele><time>2026-04-20T09:25:07.999Z</time></trkpt><trkpt lat="43.32741632646489" lon="13.292566870763226"><ele>264.0</ele><time>2026-04-20T09:25:08.999Z</time></trkpt><trkpt lat="43.32724838836951" lon="13.29261447335092"><ele>264.0</ele><time>2026-04-20T09:25:09.999Z</time></trkpt><trkpt lat="43.32710081711437" lon="13.292659803800538"><ele>264.0</ele><time>2026-04-20T09:25:10.999Z</time></trkpt><trkpt lat="43.3269609298962" lon="13.292684707275852"><ele>263.75</ele><time>2026-04-20T09:25:11.999Z</time></trkpt><trkpt lat="43.32682503177157" lon="13.292723026952018"><ele>263.5</ele><time>2026-04-20T09:25:12.999Z</time></trkpt><trkpt lat="43.326694112857396" lon="13.292765910761693"><ele>263.25</ele><time>2026-04-20T09:25:13.999Z</time></trkpt><trkpt lat="43.32656100463842" lon="13.292838014315006"><ele>263.0</ele><time>2026-04-20T09:25:14.999Z</time></trkpt><trkpt lat="43.32641911761368" lon="13.29293559799308"><ele>263.33333333333337</ele><time>2026-04-20T09:25:15.999Z</time></trkpt><trkpt lat="43.32627878342314" lon="13.293062777268188"><ele>263.6666666666667</ele><time>2026-04-20T09:25:16.999Z</time></trkpt><trkpt lat="43.32613119101212" lon="13.293178133906038"><ele>264.0</ele><time>2026-04-20T09:25:17.999Z</time></trkpt><trkpt lat="43.32599077619393" lon="13.293286944609143"><ele>264.0</ele><time>2026-04-20T09:25:18.999Z</time></trkpt><trkpt lat="43.32584689096186" lon="13.29338491297187"><ele>264.0</ele><time>2026-04-20T09:25:19.999Z</time></trkpt><trkpt lat="43.32570560620728" lon="13.293465881118324"><ele>264.0</ele><time>2026-04-20T09:25:20.999Z</time></trkpt><trkpt lat="43.32554299806086" lon="13.293552333884433"><ele>261.0</ele><time>2026-04-20T09:25:21.999Z</time></trkpt><trkpt lat="43.325408244492074" lon="13.293631477736824"><ele>258.0</ele><time>2026-04-20T09:25:22.999Z</time></trkpt><trkpt lat="43.325265774398886" lon="13.293705880171926"><ele>255.0</ele><time>2026-04-20T09:25:23.999Z</time></trkpt><trkpt lat="43.32512146823942" lon="13.293809419168495"><ele>257.6666666666667</ele><time>2026-04-20T09:25:24.999Z</time></trkpt><trkpt lat="43.32499169707571" lon="13.293944563377423"><ele>260.33333333333337</ele><time>2026-04-20T09:25:25.999Z</time></trkpt><trkpt lat="43.32487819909953" lon="13.294110150208391"><ele>263.0</ele><time>2026-04-20T09:25:26.999Z</time></trkpt><trkpt lat="43.32477638885125" lon="13.294265848383828"><ele>258.0</ele><time>2026-04-20T09:25:27.999Z</time></trkpt><trkpt lat="43.324694912186544" lon="13.29442865558518"><ele>253.0</ele><time>2026-04-20T09:25:28.999Z</time></trkpt><trkpt lat="43.32460896762544" lon="13.294620266030394"><ele>248.0</ele><time>2026-04-20T09:25:30Z</time></trkpt><trkpt lat="43.324533682103855" lon="13.29481901092763"><ele>248.0</ele><time>2026-04-20T09:25:31Z</time></trkpt><trkpt lat="43.324465424139504" lon="13.295025364374384"><ele>248.0</ele><time>2026-04-20T09:25:32Z</time></trkpt><trkpt lat="43.3244036317042" lon="13.295247679875096"><ele>248.0</ele><time>2026-04-20T09:25:33Z</time></trkpt><trkpt lat="43.3243665509823" lon="13.295479487408514"><ele>247.0</ele><time>2026-04-20T09:25:34Z</time></trkpt><trkpt lat="43.3243471616925" lon="13.295720225581015"><ele>246.0</ele><time>2026-04-20T09:25:35Z</time></trkpt><trkpt lat="43.324327472903505" lon="13.295957143798425"><ele>245.0</ele><time>2026-04-20T09:25:36Z</time></trkpt><trkpt lat="43.324307388617406" lon="13.296191407876421"><ele>245.0</ele><time>2026-04-20T09:25:37Z</time></trkpt><trkpt lat="43.324274642247325" lon="13.2964122466258"><ele>245.0</ele><time>2026-04-20T09:25:38Z</time></trkpt><trkpt lat="43.324249631281496" lon="13.296626288565593"><ele>245.0</ele><time>2026-04-20T09:25:39Z</time></trkpt><trkpt lat="43.32425349760081" lon="13.29684289778729"><ele>244.0</ele><time>2026-04-20T09:25:40Z</time></trkpt><trkpt lat="43.324288562874045" lon="13.297042164772325"><ele>243.0</ele><time>2026-04-20T09:25:41Z</time></trkpt><trkpt lat="43.32433028845567" lon="13.297215566374545"><ele>242.0</ele><time>2026-04-20T09:25:42Z</time></trkpt><trkpt lat="43.32433937236021" lon="13.297384242156257"><ele>241.0</ele><time>2026-04-20T09:25:43Z</time></trkpt><trkpt lat="43.32431293670027" lon="13.297563279029644"><ele>239.0</ele><time>2026-04-20T09:25:44Z</time></trkpt><trkpt lat="43.32423529140716" lon="13.297754398155655"><ele>237.0</ele><time>2026-04-20T09:25:45Z</time></trkpt><trkpt lat="43.32412731425577" lon="13.29793867392546"><ele>235.0</ele><time>2026-04-20T09:25:46Z</time></trkpt><trkpt lat="43.324016711818956" lon="13.298131712194227"><ele>233.33333333333331</ele><time>2026-04-20T09:25:47Z</time></trkpt><trkpt lat="43.32390676197185" lon="13.29834023752916"><ele>231.66666666666669</ele><time>2026-04-20T09:25:48Z</time></trkpt><trkpt lat="43.32379795843501" lon="13.298541726169237"><ele>230.0</ele><time>2026-04-20T09:25:49Z</time></trkpt><trkpt lat="43.32369811158129" lon="13.298732262570837"><ele>226.66666666666669</ele><time>2026-04-20T09:25:50Z</time></trkpt><trkpt lat="43.323602145861635" lon="13.298918859998967"><ele>223.33333333333331</ele><time>2026-04-20T09:25:51Z</time></trkpt><trkpt lat="43.323513733654934" lon="13.299110201375724"><ele>220.0</ele><time>2026-04-20T09:25:52Z</time></trkpt><trkpt lat="43.323430189146485" lon="13.29930456721033"><ele>220.0</ele><time>2026-04-20T09:25:53Z</time></trkpt><trkpt lat="43.323346667601676" lon="13.299493806824968"><ele>220.0</ele><time>2026-04-20T09:25:54Z</time></trkpt><trkpt lat="43.32325524001924" lon="13.299684677192849"><ele>220.0</ele><time>2026-04-20T09:25:55Z</time></trkpt><trkpt lat="43.323170403508556" lon="13.299867025347652"><ele>219.66666666666666</ele><time>2026-04-20T09:25:56Z</time></trkpt><trkpt lat="43.32308642413029" lon="13.300054070838236"><ele>219.33333333333331</ele><time>2026-04-20T09:25:57Z</time></trkpt><trkpt lat="43.32300952782362" lon="13.300246606871138"><ele>219.0</ele><time>2026-04-20T09:25:58Z</time></trkpt><trkpt lat="43.32295337202965" lon="13.300441274790982"><ele>218.5</ele><time>2026-04-20T09:25:59Z</time></trkpt><trkpt lat="43.322907340687884" lon="13.300638861628865"><ele>218.0</ele><time>2026-04-20T09:26:00Z</time></trkpt><trkpt lat="43.32286253624485" lon="13.300819218431881"><ele>217.5</ele><time>2026-04-20T09:26:01Z</time></trkpt><trkpt lat="43.32282649596005" lon="13.300990704606914"><ele>217.0</ele><time>2026-04-20T09:26:02Z</time></trkpt><trkpt lat="43.322794475955455" lon="13.301149902871884"><ele>217.0</ele><time>2026-04-20T09:26:03Z</time></trkpt><trkpt lat="43.32275820652952" lon="13.301300379225067"><ele>217.0</ele><time>2026-04-20T09:26:04Z</time></trkpt><trkpt lat="43.32272656928357" lon="13.301433864776273"><ele>217.0</ele><time>2026-04-20T09:26:05Z</time></trkpt><trkpt lat="43.32269861121612" lon="13.301561760186692"><ele>217.0</ele><time>2026-04-20T09:26:06Z</time></trkpt><trkpt lat="43.322667269483354" lon="13.301667749099167"><ele>217.0</ele><time>2026-04-20T09:26:07Z</time></trkpt><trkpt lat="43.32263721214184" lon="13.30175670611479"><ele>217.0</ele><time>2026-04-20T09:26:08Z</time></trkpt><trkpt lat="43.32260343331539" lon="13.301885343696766"><ele>217.0</ele><time>2026-04-20T09:26:10Z</time></trkpt><trkpt lat="43.322731573292174" lon="13.302062259214159"><ele>217.0</ele><time>2026-04-20T09:26:12Z</time></trkpt><trkpt lat="43.32279904110368" lon="13.302156560279002"><ele>217.0</ele><time>2026-04-20T09:26:13Z</time></trkpt><trkpt lat="43.32287563648862" lon="13.302265727109205"><ele>217.0</ele><time>2026-04-20T09:26:14Z</time></trkpt><trkpt lat="43.32296335756331" lon="13.302396968850447"><ele>217.0</ele><time>2026-04-20T09:26:15Z</time></trkpt><trkpt lat="43.32304568173138" lon="13.302536488301367"><ele>217.0</ele><time>2026-04-20T09:26:16Z</time></trkpt><trkpt lat="43.32311699829643" lon="13.30265661975584"><ele>217.0</ele><time>2026-04-20T09:26:17Z</time></trkpt><trkpt lat="43.32317157530374" lon="13.302793934810092"><ele>218.2</ele><time>2026-04-20T09:26:18Z</time></trkpt><trkpt lat="43.32324509728132" lon="13.302906600490035"><ele>219.39999999999998</ele><time>2026-04-20T09:26:19Z</time></trkpt><trkpt lat="43.32330129169299" lon="13.30304849695536"><ele>220.60000000000002</ele><time>2026-04-20T09:26:20Z</time></trkpt><trkpt lat="43.32336293924618" lon="13.303165412991584"><ele>221.8</ele><time>2026-04-20T09:26:21Z</time></trkpt><trkpt lat="43.323430865596904" lon="13.303288962528507"><ele>223.0</ele><time>2026-04-20T09:26:22Z</time></trkpt><trkpt lat="43.323502711902904" lon="13.303410172586121"><ele>223.0</ele><time>2026-04-20T09:26:23Z</time></trkpt><trkpt lat="43.323576684176494" lon="13.30352840452605"><ele>223.0</ele><time>2026-04-20T09:26:24Z</time></trkpt><trkpt lat="43.32363986326868" lon="13.303656692750398"><ele>223.0</ele><time>2026-04-20T09:26:25Z</time></trkpt><trkpt lat="43.32369805748773" lon="13.303723587992526"><ele>223.0</ele><time>2026-04-20T09:26:26Z</time></trkpt><trkpt lat="43.32378222949724" lon="13.30383326896637"><ele>223.0</ele><time>2026-04-20T09:26:27Z</time></trkpt><trkpt lat="43.32385160400073" lon="13.30395003190556"><ele>223.83333333333331</ele><time>2026-04-20T09:26:28Z</time></trkpt><trkpt lat="43.3239122501773" lon="13.304042936101881"><ele>224.66666666666666</ele><time>2026-04-20T09:26:29Z</time></trkpt><trkpt lat="43.32397419515248" lon="13.304129871336018"><ele>225.5</ele><time>2026-04-20T09:26:30Z</time></trkpt><trkpt lat="43.32402017939342" lon="13.304220033774962"><ele>226.33333333333331</ele><time>2026-04-20T09:26:31Z</time></trkpt><trkpt lat="43.324074706100234" lon="13.304335351812991"><ele>227.16666666666666</ele><time>2026-04-20T09:26:32Z</time></trkpt><trkpt lat="43.324112736613536" lon="13.304443145793178"><ele>228.0</ele><time>2026-04-20T09:26:33Z</time></trkpt><trkpt lat="43.324160343368604" lon="13.304545595217064"><ele>228.0</ele><time>2026-04-20T09:26:34Z</time></trkpt><trkpt lat="43.32421480599787" lon="13.304665331623577"><ele>228.0</ele><time>2026-04-20T09:26:35Z</time></trkpt><trkpt lat="43.32426123428486" lon="13.304785207888044"><ele>228.0</ele><time>2026-04-20T09:26:36Z</time></trkpt><trkpt lat="43.32430806296936" lon="13.304906503231964"><ele>228.0</ele><time>2026-04-20T09:26:37Z</time></trkpt><trkpt lat="43.32435393398359" lon="13.30501910064827"><ele>228.0</ele><time>2026-04-20T09:26:38Z</time></trkpt><trkpt lat="43.32440323580522" lon="13.305145757704796"><ele>227.8</ele><time>2026-04-20T09:26:39Z</time></trkpt><trkpt lat="43.32444814073676" lon="13.305273468752805"><ele>227.60000000000002</ele><time>2026-04-20T09:26:40Z</time></trkpt><trkpt lat="43.32450644688164" lon="13.305384458064449"><ele>227.39999999999998</ele><time>2026-04-20T09:26:41Z</time></trkpt><trkpt lat="43.32456476030463" lon="13.30551777192023"><ele>227.2</ele><time>2026-04-20T09:26:42Z</time></trkpt><trkpt lat="43.32462163137557" lon="13.305641575847833"><ele>227.0</ele><time>2026-04-20T09:26:43Z</time></trkpt><trkpt lat="43.324668255796745" lon="13.30577150839692"><ele>227.0</ele><time>2026-04-20T09:26:44Z</time></trkpt><trkpt lat="43.32472584694509" lon="13.305911605348632"><ele>227.0</ele><time>2026-04-20T09:26:45Z</time></trkpt><trkpt lat="43.32478269845978" lon="13.306045377411065"><ele>227.0</ele><time>2026-04-20T09:26:46Z</time></trkpt><trkpt lat="43.324832267437586" lon="13.306174421398275"><ele>227.0</ele><time>2026-04-20T09:26:47Z</time></trkpt><trkpt lat="43.32488378898578" lon="13.306299545783393"><ele>227.0</ele><time>2026-04-20T09:26:48Z</time></trkpt><trkpt lat="43.32490529537231" lon="13.306421328878125"><ele>227.39999999999998</ele><time>2026-04-20T09:26:49Z</time></trkpt><trkpt lat="43.32497355787202" lon="13.306553927278129"><ele>227.79999999999998</ele><time>2026-04-20T09:26:50Z</time></trkpt><trkpt lat="43.32502057209696" lon="13.306673948154488"><ele>228.2</ele><time>2026-04-20T09:26:51Z</time></trkpt><trkpt lat="43.32507177015358" lon="13.306778976783313"><ele>228.6</ele><time>2026-04-20T09:26:52Z</time></trkpt><trkpt lat="43.325121062629776" lon="13.306919829838062"><ele>229.0</ele><time>2026-04-20T09:26:53Z</time></trkpt><trkpt lat="43.32517914258446" lon="13.307059924055864"><ele>229.0</ele><time>2026-04-20T09:26:54Z</time></trkpt><trkpt lat="43.32524171593944" lon="13.307212148178172"><ele>229.0</ele><time>2026-04-20T09:26:55Z</time></trkpt><trkpt lat="43.3253057919023" lon="13.307356307714203"><ele>229.0</ele><time>2026-04-20T09:26:56Z</time></trkpt><trkpt lat="43.325367739235" lon="13.30749391211263"><ele>229.0</ele><time>2026-04-20T09:26:57Z</time></trkpt><trkpt lat="43.32542404930519" lon="13.307636553093717"><ele>229.25</ele><time>2026-04-20T09:26:58Z</time></trkpt><trkpt lat="43.32547819512157" lon="13.307771841523564"><ele>229.5</ele><time>2026-04-20T09:26:59Z</time></trkpt><trkpt lat="43.325536911843585" lon="13.30790850764637"><ele>229.75</ele><time>2026-04-20T09:27:00Z</time></trkpt><trkpt lat="43.32559502386255" lon="13.308046924678358"><ele>230.0</ele><time>2026-04-20T09:27:01Z</time></trkpt><trkpt lat="43.32565433267895" lon="13.308189531160979"><ele>230.8</ele><time>2026-04-20T09:27:02Z</time></trkpt><trkpt lat="43.32571445444615" lon="13.30833155354565"><ele>231.6</ele><time>2026-04-20T09:27:03Z</time></trkpt><trkpt lat="43.325763528765236" lon="13.308460995348755"><ele>232.39999999999998</ele><time>2026-04-20T09:27:04Z</time></trkpt><trkpt lat="43.325807086578735" lon="13.308578949337226"><ele>233.2</ele><time>2026-04-20T09:27:04.999Z</time></trkpt><trkpt lat="43.32585932240902" lon="13.308704628900722"><ele>234.0</ele><time>2026-04-20T09:27:05.999Z</time></trkpt><trkpt lat="43.32590542342481" lon="13.30882062246906"><ele>234.0</ele><time>2026-04-20T09:27:06.999Z</time></trkpt><trkpt lat="43.32595232525427" lon="13.308928257677229"><ele>234.0</ele><time>2026-04-20T09:27:07.999Z</time></trkpt><trkpt lat="43.32599477767027" lon="13.309033180474099"><ele>234.0</ele><time>2026-04-20T09:27:08.999Z</time></trkpt><trkpt lat="43.32604376827853" lon="13.30913404114292"><ele>234.0</ele><time>2026-04-20T09:27:09.999Z</time></trkpt><trkpt lat="43.326092905415614" lon="13.309233011534344"><ele>234.0</ele><time>2026-04-20T09:27:10.999Z</time></trkpt><trkpt lat="43.32615450670831" lon="13.309319463805727"><ele>234.0</ele><time>2026-04-20T09:27:11.999Z</time></trkpt><trkpt lat="43.326199220204515" lon="13.309409936722133"><ele>234.0</ele><time>2026-04-20T09:27:12.999Z</time></trkpt><trkpt lat="43.326257686086755" lon="13.309524012366362"><ele>233.99999999999997</ele><time>2026-04-20T09:27:13.999Z</time></trkpt><trkpt lat="43.32631138678139" lon="13.309628970536082"><ele>233.99999999999997</ele><time>2026-04-20T09:27:14.999Z</time></trkpt><trkpt lat="43.3263715186404" lon="13.30973436331144"><ele>234.0</ele><time>2026-04-20T09:27:15.999Z</time></trkpt><trkpt lat="43.32642625075775" lon="13.309822635298113"><ele>234.0</ele><time>2026-04-20T09:27:16.999Z</time></trkpt><trkpt lat="43.32648004386673" lon="13.30989927558815"><ele>233.66666666666666</ele><time>2026-04-20T09:27:17.999Z</time></trkpt><trkpt lat="43.32654391286442" lon="13.309976178267096"><ele>233.33333333333331</ele><time>2026-04-20T09:27:18.999Z</time></trkpt><trkpt lat="43.32661485368826" lon="13.310058462016977"><ele>233.0</ele><time>2026-04-20T09:27:19.999Z</time></trkpt><trkpt lat="43.32668787131505" lon="13.310133258766797"><ele>232.66666666666666</ele><time>2026-04-20T09:27:20.999Z</time></trkpt><trkpt lat="43.32676474855874" lon="13.310199604504916"><ele>232.33333333333331</ele><time>2026-04-20T09:27:21.999Z</time></trkpt><trkpt lat="43.32683526514777" lon="13.310252220637345"><ele>232.0</ele><time>2026-04-20T09:27:22.999Z</time></trkpt><trkpt lat="43.32690723754042" lon="13.310308989760697"><ele>231.99999999999997</ele><time>2026-04-20T09:27:23.999Z</time></trkpt><trkpt lat="43.32697173058767" lon="13.310363972394866"><ele>232.0</ele><time>2026-04-20T09:27:24.999Z</time></trkpt><trkpt lat="43.32702077777373" lon="13.310443649623899"><ele>232.0</ele><time>2026-04-20T09:27:25.999Z</time></trkpt><trkpt lat="43.32706354807097" lon="13.310521326426397"><ele>232.0</ele><time>2026-04-20T09:27:26.999Z</time></trkpt><trkpt lat="43.32710125362074" lon="13.31061669598149"><ele>231.99999999999997</ele><time>2026-04-20T09:27:27.999Z</time></trkpt><trkpt lat="43.32710775189049" lon="13.3107239444885"><ele>232.0</ele><time>2026-04-20T09:27:28.999Z</time></trkpt><trkpt lat="43.32714039143917" lon="13.310827827950671"><ele>231.39999999999998</ele><time>2026-04-20T09:27:29.999Z</time></trkpt><trkpt lat="43.32714569425978" lon="13.3109492318566"><ele>230.79999999999998</ele><time>2026-04-20T09:27:30.999Z</time></trkpt><trkpt lat="43.32715945115281" lon="13.311054647672785"><ele>230.2</ele><time>2026-04-20T09:27:31.999Z</time></trkpt><trkpt lat="43.327191162948615" lon="13.311173907892368"><ele>229.6</ele><time>2026-04-20T09:27:32.999Z</time></trkpt><trkpt lat="43.32720398139284" lon="13.31131307294921"><ele>229.0</ele><time>2026-04-20T09:27:33.999Z</time></trkpt><trkpt lat="43.32724623149856" lon="13.311454548976995"><ele>227.0</ele><time>2026-04-20T09:27:34.999Z</time></trkpt><trkpt lat="43.327273802871666" lon="13.311603336526412"><ele>224.99999999999997</ele><time>2026-04-20T09:27:36Z</time></trkpt><trkpt lat="43.32730022229897" lon="13.311765795551993"><ele>222.99999999999997</ele><time>2026-04-20T09:27:37Z</time></trkpt><trkpt lat="43.32733021085648" lon="13.311906698035493"><ele>221.0</ele><time>2026-04-20T09:27:38Z</time></trkpt><trkpt lat="43.32735136468032" lon="13.312053736583458"><ele>219.0</ele><time>2026-04-20T09:27:39Z</time></trkpt><trkpt lat="43.32735780499037" lon="13.312210199552666"><ele>219.39999999999998</ele><time>2026-04-20T09:27:40Z</time></trkpt><trkpt lat="43.327358397870185" lon="13.31236225468008"><ele>219.79999999999998</ele><time>2026-04-20T09:27:41Z</time></trkpt><trkpt lat="43.32734117188302" lon="13.312497741016541"><ele>220.20000000000002</ele><time>2026-04-20T09:27:42Z</time></trkpt><trkpt lat="43.32732307630759" lon="13.3126185267152"><ele>220.60000000000002</ele><time>2026-04-20T09:27:43Z</time></trkpt><trkpt lat="43.32727551056653" lon="13.312717423947035"><ele>221.0</ele><time>2026-04-20T09:27:44Z</time></trkpt><trkpt lat="43.327211729467436" lon="13.312810681319293"><ele>221.0</ele><time>2026-04-20T09:27:45Z</time></trkpt><trkpt lat="43.32716093899239" lon="13.312927328357198"><ele>221.0</ele><time>2026-04-20T09:27:46Z</time></trkpt><trkpt lat="43.32711997090953" lon="13.313075303471047"><ele>221.0</ele><time>2026-04-20T09:27:47Z</time></trkpt><trkpt lat="43.32709517176617" lon="13.313249472815343"><ele>221.0</ele><time>2026-04-20T09:27:48Z</time></trkpt><trkpt lat="43.32706472868084" lon="13.313413099652392"><ele>220.75</ele><time>2026-04-20T09:27:49Z</time></trkpt><trkpt lat="43.32701951728763" lon="13.313586093487752"><ele>220.5</ele><time>2026-04-20T09:27:50Z</time></trkpt><trkpt lat="43.32697208417171" lon="13.313758817334074"><ele>220.25</ele><time>2026-04-20T09:27:51Z</time></trkpt><trkpt lat="43.3269217832601" lon="13.313918384435581"><ele>220.0</ele><time>2026-04-20T09:27:52Z</time></trkpt><trkpt lat="43.326873609153274" lon="13.314076798406434"><ele>218.25</ele><time>2026-04-20T09:27:53Z</time></trkpt><trkpt lat="43.32682266206456" lon="13.314238694691232"><ele>216.5</ele><time>2026-04-20T09:27:54Z</time></trkpt><trkpt lat="43.32676941342254" lon="13.314392455986296"><ele>214.75</ele><time>2026-04-20T09:27:55Z</time></trkpt><trkpt lat="43.326714039781365" lon="13.31454684625419"><ele>213.0</ele><time>2026-04-20T09:27:56Z</time></trkpt><trkpt lat="43.32663762820206" lon="13.314705378330775"><ele>214.0</ele><time>2026-04-20T09:27:57Z</time></trkpt><trkpt lat="43.32657282410571" lon="13.314841985659163"><ele>215.0</ele><time>2026-04-20T09:27:58Z</time></trkpt><trkpt lat="43.32650650833353" lon="13.314987528805938"><ele>216.0</ele><time>2026-04-20T09:27:59Z</time></trkpt><trkpt lat="43.326438476759535" lon="13.315143606350341"><ele>217.0</ele><time>2026-04-20T09:28:00Z</time></trkpt><trkpt lat="43.32637403849326" lon="13.315294806885785"><ele>217.0</ele><time>2026-04-20T09:28:01Z</time></trkpt><trkpt lat="43.326317449663094" lon="13.31543006713113"><ele>217.0</ele><time>2026-04-20T09:28:02Z</time></trkpt><trkpt lat="43.326257514854674" lon="13.315544623057004"><ele>217.0</ele><time>2026-04-20T09:28:03Z</time></trkpt><trkpt lat="43.3261982589154" lon="13.31565805231533"><ele>217.0</ele><time>2026-04-20T09:28:04Z</time></trkpt><trkpt lat="43.32615179235903" lon="13.315771696821049"><ele>217.0</ele><time>2026-04-20T09:28:05Z</time></trkpt><trkpt lat="43.32610535566346" lon="13.315872862008277"><ele>216.2</ele><time>2026-04-20T09:28:06Z</time></trkpt><trkpt lat="43.326039545679556" lon="13.315991199271279"><ele>215.39999999999998</ele><time>2026-04-20T09:28:08Z</time></trkpt><trkpt lat="43.32599649535946" lon="13.316059364147238"><ele>214.60000000000002</ele><time>2026-04-20T09:28:11Z</time></trkpt><trkpt lat="43.32590795491244" lon="13.316086177919784"><ele>213.8</ele><time>2026-04-20T09:28:18Z</time></trkpt><trkpt lat="43.32582632761621" lon="13.316057231939814"><ele>213.0</ele><time>2026-04-20T09:28:19Z</time></trkpt><trkpt lat="43.3257189124294" lon="13.316041528234825"><ele>213.0</ele><time>2026-04-20T09:28:20Z</time></trkpt><trkpt lat="43.32558970952185" lon="13.316006408168704"><ele>213.0</ele><time>2026-04-20T09:28:21Z</time></trkpt><trkpt lat="43.32544713705406" lon="13.315990765577647"><ele>213.0</ele><time>2026-04-20T09:28:22Z</time></trkpt><trkpt lat="43.325328686120535" lon="13.315986366968254"><ele>213.0</ele><time>2026-04-20T09:28:23Z</time></trkpt><trkpt lat="43.325212930323325" lon="13.31596690795882"><ele>212.75</ele><time>2026-04-20T09:28:24Z</time></trkpt><trkpt lat="43.325092949676936" lon="13.315968925255737"><ele>212.5</ele><time>2026-04-20T09:28:25Z</time></trkpt><trkpt lat="43.32495654386393" lon="13.315968803166081"><ele>212.25</ele><time>2026-04-20T09:28:26Z</time></trkpt><trkpt lat="43.32481911430609" lon="13.315985491433036"><ele>212.0</ele><time>2026-04-20T09:28:27Z</time></trkpt><trkpt lat="43.32470512405091" lon="13.316001122004543"><ele>212.0</ele><time>2026-04-20T09:28:28Z</time></trkpt><trkpt lat="43.324571186138286" lon="13.315967328759692"><ele>212.0</ele><time>2026-04-20T09:28:29Z</time></trkpt><trkpt lat="43.32443079749215" lon="13.315910967700598"><ele>212.0</ele><time>2026-04-20T09:28:30Z</time></trkpt><trkpt lat="43.324316031117" lon="13.315808701994296"><ele>212.0</ele><time>2026-04-20T09:28:31Z</time></trkpt><trkpt lat="43.32418280287244" lon="13.315717352147404"><ele>212.0</ele><time>2026-04-20T09:28:32Z</time></trkpt><trkpt lat="43.32405425472594" lon="13.315608436394767"><ele>212.0</ele><time>2026-04-20T09:28:33Z</time></trkpt><trkpt lat="43.323905693644576" lon="13.315521241849252"><ele>212.0</ele><time>2026-04-20T09:28:34Z</time></trkpt><trkpt lat="43.323748915778054" lon="13.315429400548913"><ele>211.66666666666669</ele><time>2026-04-20T09:28:35Z</time></trkpt><trkpt lat="43.32358845926625" lon="13.315331035212804"><ele>211.33333333333331</ele><time>2026-04-20T09:28:36Z</time></trkpt><trkpt lat="43.32342765671809" lon="13.3152123040398"><ele>211.0</ele><time>2026-04-20T09:28:37Z</time></trkpt><trkpt lat="43.32327799532956" lon="13.315073038425233"><ele>211.0</ele><time>2026-04-20T09:28:38Z</time></trkpt><trkpt lat="43.32314639263223" lon="13.314932617519938"><ele>211.0</ele><time>2026-04-20T09:28:39Z</time></trkpt><trkpt lat="43.32300883618699" lon="13.314796400226363"><ele>211.0</ele><time>2026-04-20T09:28:40Z</time></trkpt><trkpt lat="43.32288148735775" lon="13.314660059053946"><ele>209.66666666666666</ele><time>2026-04-20T09:28:41Z</time></trkpt><trkpt lat="43.32274012745653" lon="13.314547707662536"><ele>208.33333333333331</ele><time>2026-04-20T09:28:42Z</time></trkpt><trkpt lat="43.32258211483813" lon="13.314461403378548"><ele>207.0</ele><time>2026-04-20T09:28:43Z</time></trkpt><trkpt lat="43.322417165334656" lon="13.314396047957995"><ele>207.0</ele><time>2026-04-20T09:28:44Z</time></trkpt><trkpt lat="43.32224402570561" lon="13.31436038277271"><ele>207.0</ele><time>2026-04-20T09:28:45Z</time></trkpt><trkpt lat="43.32206989894961" lon="13.314342127256625"><ele>207.0</ele><time>2026-04-20T09:28:46Z</time></trkpt><trkpt lat="43.32189346415233" lon="13.3143485747157"><ele>204.66666666666669</ele><time>2026-04-20T09:28:47Z</time></trkpt><trkpt lat="43.32173333622053" lon="13.31435440037547"><ele>202.33333333333334</ele><time>2026-04-20T09:28:48Z</time></trkpt><trkpt lat="43.321563130156385" lon="13.314367056079217"><ele>200.0</ele><time>2026-04-20T09:28:49Z</time></trkpt><trkpt lat="43.32140152186262" lon="13.314372444435653"><ele>199.66666666666669</ele><time>2026-04-20T09:28:50Z</time></trkpt><trkpt lat="43.32123581307408" lon="13.314331708870451"><ele>199.33333333333331</ele><time>2026-04-20T09:28:51Z</time></trkpt><trkpt lat="43.32107971459047" lon="13.314254812756197"><ele>199.0</ele><time>2026-04-20T09:28:52Z</time></trkpt><trkpt lat="43.32092786194381" lon="13.314144538869611"><ele>199.0</ele><time>2026-04-20T09:28:53Z</time></trkpt><trkpt lat="43.32077415971285" lon="13.314017260893431"><ele>199.0</ele><time>2026-04-20T09:28:54Z</time></trkpt><trkpt lat="43.32061676337078" lon="13.313883284146545"><ele>199.0</ele><time>2026-04-20T09:28:55Z</time></trkpt><trkpt lat="43.32044600193746" lon="13.313748239289025"><ele>199.0</ele><time>2026-04-20T09:28:56Z</time></trkpt><trkpt lat="43.32027427637935" lon="13.313610009092706"><ele>199.0</ele><time>2026-04-20T09:28:57Z</time></trkpt><trkpt lat="43.32012001736264" lon="13.313476167934464"><ele>199.0</ele><time>2026-04-20T09:28:58Z</time></trkpt><trkpt lat="43.319960304761906" lon="13.313344659630765"><ele>199.0</ele><time>2026-04-20T09:28:59Z</time></trkpt><trkpt lat="43.3198010712108" lon="13.313215755176122"><ele>199.0</ele><time>2026-04-20T09:29:00Z</time></trkpt><trkpt lat="43.31964971856888" lon="13.31308179800762"><ele>199.0</ele><time>2026-04-20T09:29:01Z</time></trkpt><trkpt lat="43.31950892596029" lon="13.312934336125553"><ele>200.33333333333331</ele><time>2026-04-20T09:29:02Z</time></trkpt><trkpt lat="43.31938306432415" lon="13.312777883817889"><ele>201.66666666666669</ele><time>2026-04-20T09:29:03Z</time></trkpt><trkpt lat="43.319280829309655" lon="13.312632285774992"><ele>203.0</ele><time>2026-04-20T09:29:04Z</time></trkpt><trkpt lat="43.31918858693563" lon="13.312491283240481"><ele>203.0</ele><time>2026-04-20T09:29:05Z</time></trkpt><trkpt lat="43.31911486797753" lon="13.31232831620077"><ele>203.0</ele><time>2026-04-20T09:29:06Z</time></trkpt><trkpt lat="43.31907540441394" lon="13.312135919069586"><ele>203.0</ele><time>2026-04-20T09:29:07Z</time></trkpt><trkpt lat="43.31907763637394" lon="13.311928016113992"><ele>203.0</ele><time>2026-04-20T09:29:08Z</time></trkpt><trkpt lat="43.31907425633013" lon="13.311710700701177"><ele>203.0</ele><time>2026-04-20T09:29:09Z</time></trkpt><trkpt lat="43.31901625817043" lon="13.311512380627367"><ele>203.0</ele><time>2026-04-20T09:29:10Z</time></trkpt><trkpt lat="43.31891515710274" lon="13.311315574239169"><ele>203.0</ele><time>2026-04-20T09:29:11Z</time></trkpt><trkpt lat="43.3187869066042" lon="13.311127616358705"><ele>208.33333333333334</ele><time>2026-04-20T09:29:12Z</time></trkpt><trkpt lat="43.31867227099781" lon="13.31095481857573"><ele>213.66666666666669</ele><time>2026-04-20T09:29:13Z</time></trkpt><trkpt lat="43.31858126042798" lon="13.31072866665964"><ele>219.0</ele><time>2026-04-20T09:29:14Z</time></trkpt><trkpt lat="43.31850137732185" lon="13.310457928818902"><ele>219.0</ele><time>2026-04-20T09:29:15Z</time></trkpt><trkpt lat="43.31842341763373" lon="13.310170448633276"><ele>219.0</ele><time>2026-04-20T09:29:16Z</time></trkpt><trkpt lat="43.318326312351445" lon="13.309917738923506"><ele>219.0</ele><time>2026-04-20T09:29:17Z</time></trkpt><trkpt lat="43.31825277665619" lon="13.309696812049998"><ele>218.75</ele><time>2026-04-20T09:29:18Z</time></trkpt><trkpt lat="43.31820563515101" lon="13.309495216901672"><ele>218.5</ele><time>2026-04-20T09:29:19Z</time></trkpt><trkpt lat="43.31818523630667" lon="13.309298794746852"><ele>218.25</ele><time>2026-04-20T09:29:20Z</time></trkpt><trkpt lat="43.31816753336312" lon="13.309108983262135"><ele>218.0</ele><time>2026-04-20T09:29:21Z</time></trkpt><trkpt lat="43.318109367960716" lon="13.308943846978826"><ele>221.66666666666669</ele><time>2026-04-20T09:29:22Z</time></trkpt><trkpt lat="43.318008272675115" lon="13.308791379590183"><ele>225.33333333333331</ele><time>2026-04-20T09:29:23Z</time></trkpt><trkpt lat="43.317865865585055" lon="13.308650525257598"><ele>229.0</ele><time>2026-04-20T09:29:24Z</time></trkpt><trkpt lat="43.3176942037892" lon="13.308521998923691"><ele>229.0</ele><time>2026-04-20T09:29:25Z</time></trkpt><trkpt lat="43.31749361816364" lon="13.308421195934148"><ele>229.0</ele><time>2026-04-20T09:29:26Z</time></trkpt><trkpt lat="43.31730662862362" lon="13.308357947834644"><ele>229.0</ele><time>2026-04-20T09:29:27Z</time></trkpt><trkpt lat="43.31708714684474" lon="13.308311460978967"><ele>232.0</ele><time>2026-04-20T09:29:28Z</time></trkpt><trkpt lat="43.31685447996295" lon="13.308306801170891"><ele>235.0</ele><time>2026-04-20T09:29:29Z</time></trkpt><trkpt lat="43.31665466540034" lon="13.308302747871265"><ele>238.0</ele><time>2026-04-20T09:29:30Z</time></trkpt><trkpt lat="43.3164676183997" lon="13.308262483909829"><ele>239.0</ele><time>2026-04-20T09:29:31Z</time></trkpt><trkpt lat="43.31630181037776" lon="13.308235226997022"><ele>240.0</ele><time>2026-04-20T09:29:31.999Z</time></trkpt><trkpt lat="43.31615149023934" lon="13.308232136695954"><ele>241.0</ele><time>2026-04-20T09:29:32.999Z</time></trkpt><trkpt lat="43.31601500448131" lon="13.30827928395321"><ele>241.0</ele><time>2026-04-20T09:29:33.999Z</time></trkpt><trkpt lat="43.315875331197226" lon="13.308377363103379"><ele>241.0</ele><time>2026-04-20T09:29:34.999Z</time></trkpt><trkpt lat="43.31573398407367" lon="13.308493645311648"><ele>241.0</ele><time>2026-04-20T09:29:35.999Z</time></trkpt><trkpt lat="43.31560002006563" lon="13.308606048915246"><ele>244.0</ele><time>2026-04-20T09:29:36.999Z</time></trkpt><trkpt lat="43.315485770997455" lon="13.30867533434654"><ele>247.0</ele><time>2026-04-20T09:29:37.999Z</time></trkpt><trkpt lat="43.31535894405047" lon="13.308747790341712"><ele>250.0</ele><time>2026-04-20T09:29:38.999Z</time></trkpt><trkpt lat="43.31522158591725" lon="13.308782150506438"><ele>253.0</ele><time>2026-04-20T09:29:39.999Z</time></trkpt><trkpt lat="43.315088286640936" lon="13.308773178510469"><ele>253.0</ele><time>2026-04-20T09:29:40.999Z</time></trkpt><trkpt lat="43.314987327162534" lon="13.308717472692365"><ele>253.0</ele><time>2026-04-20T09:29:42Z</time></trkpt><trkpt lat="43.31490702322355" lon="13.30863958629494"><ele>253.0</ele><time>2026-04-20T09:29:43Z</time></trkpt><trkpt lat="43.31483779775498" lon="13.308523640420386"><ele>253.0</ele><time>2026-04-20T09:29:44Z</time></trkpt><trkpt lat="43.31482044217551" lon="13.308353947581619"><ele>253.0</ele><time>2026-04-20T09:29:45Z</time></trkpt><trkpt lat="43.314853016860496" lon="13.308180296736657"><ele>253.0</ele><time>2026-04-20T09:29:46Z</time></trkpt><trkpt lat="43.31487699229559" lon="13.308019992205399"><ele>253.0</ele><time>2026-04-20T09:29:47Z</time></trkpt><trkpt lat="43.314862826310836" lon="13.30787053018753"><ele>253.0</ele><time>2026-04-20T09:29:48Z</time></trkpt><trkpt lat="43.314825267170754" lon="13.307709547402034"><ele>253.0</ele><time>2026-04-20T09:29:49Z</time></trkpt><trkpt lat="43.3147309539943" lon="13.307562280764241"><ele>257.66666666666663</ele><time>2026-04-20T09:29:50Z</time></trkpt><trkpt lat="43.31459006556" lon="13.30743173938516"><ele>262.3333333333333</ele><time>2026-04-20T09:29:51Z</time></trkpt><trkpt lat="43.31444315938342" lon="13.307326024622363"><ele>267.0</ele><time>2026-04-20T09:29:52Z</time></trkpt><trkpt lat="43.31429846718507" lon="13.30722566055865"><ele>267.0</ele><time>2026-04-20T09:29:53Z</time></trkpt><trkpt lat="43.314178899964624" lon="13.307118828324818"><ele>267.0</ele><time>2026-04-20T09:29:54Z</time></trkpt><trkpt lat="43.31406161741968" lon="13.307007383672454"><ele>267.0</ele><time>2026-04-20T09:29:55Z</time></trkpt><trkpt lat="43.31394245660352" lon="13.306887765313654"><ele>267.0</ele><time>2026-04-20T09:29:56Z</time></trkpt><trkpt lat="43.3138266236356" lon="13.306754529616235"><ele>269.5</ele><time>2026-04-20T09:29:57Z</time></trkpt><trkpt lat="43.313711909898345" lon="13.306623941087452"><ele>272.0</ele><time>2026-04-20T09:29:58Z</time></trkpt><trkpt lat="43.31358508461289" lon="13.306501313396483"><ele>274.5</ele><time>2026-04-20T09:29:59Z</time></trkpt><trkpt lat="43.313470983182185" lon="13.306383660402327"><ele>277.0</ele><time>2026-04-20T09:30:00Z</time></trkpt><trkpt lat="43.313345354871686" lon="13.306282425974265"><ele>277.4</ele><time>2026-04-20T09:30:01Z</time></trkpt><trkpt lat="43.31322801781576" lon="13.306244515019685"><ele>277.79999999999995</ele><time>2026-04-20T09:30:02Z</time></trkpt><trkpt lat="43.313106770458596" lon="13.306234152560105"><ele>278.2</ele><time>2026-04-20T09:30:03Z</time></trkpt><trkpt lat="43.31299396123378" lon="13.306262980280582"><ele>278.59999999999997</ele><time>2026-04-20T09:30:04Z</time></trkpt><trkpt lat="43.31292608132304" lon="13.306326948488788"><ele>279.0</ele><time>2026-04-20T09:30:05Z</time></trkpt><trkpt lat="43.31284497663926" lon="13.306383254851955"><ele>278.75</ele><time>2026-04-20T09:30:06Z</time></trkpt><trkpt lat="43.3127410628488" lon="13.306468572180897"><ele>278.5</ele><time>2026-04-20T09:30:07Z</time></trkpt><trkpt lat="43.31264436409252" lon="13.306551977654408"><ele>278.25</ele><time>2026-04-20T09:30:08Z</time></trkpt><trkpt lat="43.3125425408061" lon="13.30665104373271"><ele>278.0</ele><time>2026-04-20T09:30:09Z</time></trkpt><trkpt lat="43.31245704238529" lon="13.306742661567393"><ele>278.0</ele><time>2026-04-20T09:30:10Z</time></trkpt><trkpt lat="43.31238515227404" lon="13.306830148822725"><ele>278.0</ele><time>2026-04-20T09:30:11Z</time></trkpt><trkpt lat="43.31232821685734" lon="13.306930619601967"><ele>278.0</ele><time>2026-04-20T09:30:12Z</time></trkpt><trkpt lat="43.31230858832931" lon="13.307056928429313"><ele>278.0</ele><time>2026-04-20T09:30:13Z</time></trkpt><trkpt lat="43.312340593694984" lon="13.307172555573013"><ele>278.0</ele><time>2026-04-20T09:30:14Z</time></trkpt><trkpt lat="43.31239719920295" lon="13.307269439748639"><ele>278.8</ele><time>2026-04-20T09:30:15Z</time></trkpt><trkpt lat="43.312481298394005" lon="13.307356037168102"><ele>279.6</ele><time>2026-04-20T09:30:16Z</time></trkpt><trkpt lat="43.31257331769257" lon="13.307431651443354"><ele>280.4</ele><time>2026-04-20T09:30:17Z</time></trkpt><trkpt lat="43.31265919346057" lon="13.307530125210922"><ele>281.2</ele><time>2026-04-20T09:30:18Z</time></trkpt><trkpt lat="43.3127451289951" lon="13.307640293325337"><ele>282.0</ele><time>2026-04-20T09:30:19Z</time></trkpt><trkpt lat="43.312825409893144" lon="13.307735952842108"><ele>282.0</ele><time>2026-04-20T09:30:20Z</time></trkpt><trkpt lat="43.312889729374795" lon="13.307824892951192"><ele>282.0</ele><time>2026-04-20T09:30:21Z</time></trkpt><trkpt lat="43.31295838351895" lon="13.307906817426064"><ele>282.0</ele><time>2026-04-20T09:30:22Z</time></trkpt><trkpt lat="43.31301765275586" lon="13.307987075032269"><ele>282.0</ele><time>2026-04-20T09:30:23Z</time></trkpt><trkpt lat="43.313073353762164" lon="13.308055813252912"><ele>282.0</ele><time>2026-04-20T09:30:24Z</time></trkpt><trkpt lat="43.31312928680962" lon="13.308130026000054"><ele>282.0</ele><time>2026-04-20T09:30:25Z</time></trkpt><trkpt lat="43.31318903525903" lon="13.308208894500789"><ele>282.8333333333333</ele><time>2026-04-20T09:30:26Z</time></trkpt><trkpt lat="43.3132612071101" lon="13.308281825990623"><ele>283.6666666666667</ele><time>2026-04-20T09:30:27Z</time></trkpt><trkpt lat="43.313323697933356" lon="13.308356169164508"><ele>284.5</ele><time>2026-04-20T09:30:28Z</time></trkpt><trkpt lat="43.313368584415805" lon="13.308453584475714"><ele>285.33333333333337</ele><time>2026-04-20T09:30:29Z</time></trkpt><trkpt lat="43.31341858965869" lon="13.308540151934736"><ele>286.1666666666667</ele><time>2026-04-20T09:30:30Z</time></trkpt><trkpt lat="43.31346582942937" lon="13.308630998671893"><ele>287.0</ele><time>2026-04-20T09:30:31Z</time></trkpt><trkpt lat="43.31350502139373" lon="13.30872989192815"><ele>287.0</ele><time>2026-04-20T09:30:32Z</time></trkpt><trkpt lat="43.313530947992845" lon="13.308831462558146"><ele>287.0</ele><time>2026-04-20T09:30:33Z</time></trkpt><trkpt lat="43.313550360802665" lon="13.308939908993226"><ele>287.0</ele><time>2026-04-20T09:30:34Z</time></trkpt><trkpt lat="43.31356087475493" lon="13.309060680914747"><ele>287.0</ele><time>2026-04-20T09:30:35Z</time></trkpt><trkpt lat="43.31357669222919" lon="13.309180834677218"><ele>287.0</ele><time>2026-04-20T09:30:36Z</time></trkpt><trkpt lat="43.313571442848804" lon="13.309270638258576"><ele>287.0</ele><time>2026-04-20T09:30:37Z</time></trkpt><trkpt lat="43.313553569968605" lon="13.309421580901638"><ele>287.4</ele><time>2026-04-20T09:30:39Z</time></trkpt><trkpt lat="43.31350682803839" lon="13.309512596088334"><ele>287.79999999999995</ele><time>2026-04-20T09:30:40Z</time></trkpt><trkpt lat="43.31342958652291" lon="13.309593704774246"><ele>288.2</ele><time>2026-04-20T09:30:41Z</time></trkpt><trkpt lat="43.313344111152375" lon="13.309648314454657"><ele>288.59999999999997</ele><time>2026-04-20T09:30:42Z</time></trkpt><trkpt lat="43.313241792509444" lon="13.3096834317088"><ele>289.0</ele><time>2026-04-20T09:30:43Z</time></trkpt><trkpt lat="43.313126025662584" lon="13.309711996760084"><ele>289.5</ele><time>2026-04-20T09:30:44Z</time></trkpt><trkpt lat="43.31299294837188" lon="13.309741548312578"><ele>290.0</ele><time>2026-04-20T09:30:45Z</time></trkpt><trkpt lat="43.312862807165196" lon="13.309784985666894"><ele>290.5</ele><time>2026-04-20T09:30:46Z</time></trkpt><trkpt lat="43.31275100224239" lon="13.309825423746876"><ele>291.0</ele><time>2026-04-20T09:30:47Z</time></trkpt><trkpt lat="43.312623566705845" lon="13.309850442437295"><ele>291.0</ele><time>2026-04-20T09:30:48Z</time></trkpt><trkpt lat="43.312498396266776" lon="13.30988470632945"><ele>291.0</ele><time>2026-04-20T09:30:49Z</time></trkpt><trkpt lat="43.31236528976448" lon="13.309917688758441"><ele>291.0</ele><time>2026-04-20T09:30:50Z</time></trkpt><trkpt lat="43.312226357271726" lon="13.309944012869876"><ele>291.0</ele><time>2026-04-20T09:30:51Z</time></trkpt><trkpt lat="43.31208268751019" lon="13.309968185398466"><ele>289.6666666666667</ele><time>2026-04-20T09:30:52Z</time></trkpt><trkpt lat="43.311928299576856" lon="13.309983916682446"><ele>288.33333333333337</ele><time>2026-04-20T09:30:53Z</time></trkpt><trkpt lat="43.31177589183386" lon="13.30999879629276"><ele>287.0</ele><time>2026-04-20T09:30:54Z</time></trkpt><trkpt lat="43.311617880885514" lon="13.310015995848394"><ele>287.0</ele><time>2026-04-20T09:30:55Z</time></trkpt><trkpt lat="43.31146163112566" lon="13.310039636208131"><ele>287.0</ele><time>2026-04-20T09:30:56Z</time></trkpt><trkpt lat="43.311297170258314" lon="13.310055094356665"><ele>287.0</ele><time>2026-04-20T09:30:57Z</time></trkpt><trkpt lat="43.31113546193473" lon="13.310068565087311"><ele>285.0</ele><time>2026-04-20T09:30:58Z</time></trkpt><trkpt lat="43.310974501030564" lon="13.31009436991561"><ele>283.0</ele><time>2026-04-20T09:30:59Z</time></trkpt><trkpt lat="43.31081373897521" lon="13.31011397547859"><ele>281.0</ele><time>2026-04-20T09:31:00Z</time></trkpt><trkpt lat="43.31064861953704" lon="13.310130866911576"><ele>279.6666666666667</ele><time>2026-04-20T09:31:01Z</time></trkpt><trkpt lat="43.31048558088776" lon="13.310148098955441"><ele>278.3333333333333</ele><time>2026-04-20T09:31:02Z</time></trkpt><trkpt lat="43.310317195148016" lon="13.310167085357635"><ele>277.0</ele><time>2026-04-20T09:31:03Z</time></trkpt><trkpt lat="43.310152414628284" lon="13.31019113332857"><ele>277.0</ele><time>2026-04-20T09:31:04Z</time></trkpt><trkpt lat="43.30999898800352" lon="13.310212100533755"><ele>277.0</ele><time>2026-04-20T09:31:05Z</time></trkpt><trkpt lat="43.30984348531691" lon="13.310233188935344"><ele>277.0</ele><time>2026-04-20T09:31:06Z</time></trkpt><trkpt lat="43.309694284322354" lon="13.31028142141526"><ele>277.0</ele><time>2026-04-20T09:31:07Z</time></trkpt><trkpt lat="43.3095550865146" lon="13.310350683671764"><ele>277.0</ele><time>2026-04-20T09:31:08Z</time></trkpt><trkpt lat="43.30944493971198" lon="13.310424073939718"><ele>277.0</ele><time>2026-04-20T09:31:09Z</time></trkpt><trkpt lat="43.30933481434869" lon="13.31052869506101"><ele>277.0</ele><time>2026-04-20T09:31:10Z</time></trkpt><trkpt lat="43.30922575271308" lon="13.310632906259569"><ele>277.0</ele><time>2026-04-20T09:31:11Z</time></trkpt><trkpt lat="43.30911984114335" lon="13.310726869829782"><ele>277.0</ele><time>2026-04-20T09:31:12Z</time></trkpt><trkpt lat="43.309020699386096" lon="13.310814852861036"><ele>277.0</ele><time>2026-04-20T09:31:13Z</time></trkpt><trkpt lat="43.308922975823286" lon="13.310906967969915"><ele>277.0</ele><time>2026-04-20T09:31:14Z</time></trkpt><trkpt lat="43.30882578795798" lon="13.310995453377616"><ele>275.8</ele><time>2026-04-20T09:31:15Z</time></trkpt><trkpt lat="43.308737697852216" lon="13.31107923002401"><ele>274.6</ele><time>2026-04-20T09:31:16Z</time></trkpt><trkpt lat="43.3086544260677" lon="13.311164200080325"><ele>273.40000000000003</ele><time>2026-04-20T09:31:17Z</time></trkpt><trkpt lat="43.3085646211813" lon="13.31122498023241"><ele>272.2</ele><time>2026-04-20T09:31:18Z</time></trkpt><trkpt lat="43.30847360748243" lon="13.311241578491819"><ele>271.0</ele><time>2026-04-20T09:31:19Z</time></trkpt><trkpt lat="43.30837509514236" lon="13.311216181419791"><ele>271.0</ele><time>2026-04-20T09:31:20Z</time></trkpt><trkpt lat="43.30827595087794" lon="13.311169296896464"><ele>271.0</ele><time>2026-04-20T09:31:21Z</time></trkpt><trkpt lat="43.30818157636087" lon="13.311112228742742"><ele>271.0</ele><time>2026-04-20T09:31:22Z</time></trkpt><trkpt lat="43.30809641060774" lon="13.311053405955143"><ele>271.0</ele><time>2026-04-20T09:31:23Z</time></trkpt><trkpt lat="43.30801630437987" lon="13.310998892831861"><ele>271.0</ele><time>2026-04-20T09:31:24Z</time></trkpt><trkpt lat="43.30793835684872" lon="13.310949831117671"><ele>271.1428571428571</ele><time>2026-04-20T09:31:25Z</time></trkpt><trkpt lat="43.307865035074336" lon="13.310893217958164"><ele>271.2857142857143</ele><time>2026-04-20T09:31:26Z</time></trkpt><trkpt lat="43.307803820966235" lon="13.3108313330666"><ele>271.42857142857144</ele><time>2026-04-20T09:31:27Z</time></trkpt><trkpt lat="43.30774096429085" lon="13.310806780566637"><ele>271.57142857142856</ele><time>2026-04-20T09:31:28Z</time></trkpt><trkpt lat="43.307677810803405" lon="13.310763445385374"><ele>271.7142857142857</ele><time>2026-04-20T09:31:29Z</time></trkpt><trkpt lat="43.307617713046895" lon="13.310715266464149"><ele>271.85714285714283</ele><time>2026-04-20T09:31:30Z</time></trkpt><trkpt lat="43.307545693448766" lon="13.310677922079336"><ele>272.0</ele><time>2026-04-20T09:31:31Z</time></trkpt><trkpt lat="43.3074321008207" lon="13.310608720986055"><ele>269.8</ele><time>2026-04-20T09:31:33Z</time></trkpt><trkpt lat="43.30736913501322" lon="13.310568288093378"><ele>267.6</ele><time>2026-04-20T09:31:34Z</time></trkpt><trkpt lat="43.307258175244776" lon="13.310485937707037"><ele>265.40000000000003</ele><time>2026-04-20T09:31:36Z</time></trkpt><trkpt lat="43.30714888123089" lon="13.310433372512449"><ele>263.2</ele><time>2026-04-20T09:31:38Z</time></trkpt><trkpt lat="43.30708589648232" lon="13.310421498720258"><ele>261.0</ele><time>2026-04-20T09:31:39Z</time></trkpt><trkpt lat="43.307010432655645" lon="13.310424799858083"><ele>261.0</ele><time>2026-04-20T09:31:40Z</time></trkpt><trkpt lat="43.30694009191257" lon="13.310426180506955"><ele>261.0</ele><time>2026-04-20T09:31:41Z</time></trkpt><trkpt lat="43.306881971231846" lon="13.310479987221681"><ele>261.0</ele><time>2026-04-20T09:31:42Z</time></trkpt><trkpt lat="43.30681273487363" lon="13.310509874055557"><ele>261.0</ele><time>2026-04-20T09:31:43Z</time></trkpt><trkpt lat="43.30674406005098" lon="13.310555547235769"><ele>261.0</ele><time>2026-04-20T09:31:44Z</time></trkpt><trkpt lat="43.30666163356653" lon="13.310606329471273"><ele>261.0</ele><time>2026-04-20T09:31:45Z</time></trkpt><trkpt lat="43.30658497514421" lon="13.310648422379113"><ele>260.5</ele><time>2026-04-20T09:31:46Z</time></trkpt><trkpt lat="43.30651014601884" lon="13.31069580998"><ele>260.0</ele><time>2026-04-20T09:31:47Z</time></trkpt><trkpt lat="43.306438498644226" lon="13.310738165055229"><ele>259.5</ele><time>2026-04-20T09:31:48Z</time></trkpt><trkpt lat="43.30636569444299" lon="13.310786175944989"><ele>259.0</ele><time>2026-04-20T09:31:49Z</time></trkpt><trkpt lat="43.30629903857669" lon="13.310827393491845"><ele>258.5</ele><time>2026-04-20T09:31:50Z</time></trkpt><trkpt lat="43.30623387219823" lon="13.310871260804063"><ele>258.0</ele><time>2026-04-20T09:31:51Z</time></trkpt><trkpt lat="43.306170266440425" lon="13.310914132220297"><ele>258.0</ele><time>2026-04-20T09:31:52Z</time></trkpt><trkpt lat="43.30606064697498" lon="13.310988555231885"><ele>258.0</ele><time>2026-04-20T09:31:54Z</time></trkpt><trkpt lat="43.30597020673992" lon="13.31106337095652"><ele>258.0</ele><time>2026-04-20T09:31:56Z</time></trkpt><trkpt lat="43.305894606191984" lon="13.31117798706499"><ele>258.0</ele><time>2026-04-20T09:31:58Z</time></trkpt><trkpt lat="43.30586865056044" lon="13.31127127199868"><ele>258.0</ele><time>2026-04-20T09:31:59Z</time></trkpt><trkpt lat="43.30585366152465" lon="13.311376025558339"><ele>257.85714285714283</ele><time>2026-04-20T09:32:00Z</time></trkpt><trkpt lat="43.305851297940144" lon="13.311480386094633"><ele>257.7142857142857</ele><time>2026-04-20T09:32:01Z</time></trkpt><trkpt lat="43.30584381273016" lon="13.311581138831807"><ele>257.57142857142856</ele><time>2026-04-20T09:32:02Z</time></trkpt><trkpt lat="43.305841703228396" lon="13.31168294989154"><ele>257.42857142857144</ele><time>2026-04-20T09:32:03Z</time></trkpt><trkpt lat="43.30584504681802" lon="13.31178926480279"><ele>257.2857142857143</ele><time>2026-04-20T09:32:04Z</time></trkpt><trkpt lat="43.305846872885354" lon="13.311896273150253"><ele>257.1428571428571</ele><time>2026-04-20T09:32:05Z</time></trkpt><trkpt lat="43.30584543764396" lon="13.31199192758486"><ele>257.0</ele><time>2026-04-20T09:32:06Z</time></trkpt><trkpt lat="43.3058434330277" lon="13.312083022663641"><ele>257.1666666666667</ele><time>2026-04-20T09:32:07Z</time></trkpt><trkpt lat="43.30583830295615" lon="13.312253864263086"><ele>257.33333333333337</ele><time>2026-04-20T09:32:09Z</time></trkpt><trkpt lat="43.305833577992914" lon="13.312345482734584"><ele>257.5</ele><time>2026-04-20T09:32:10Z</time></trkpt><trkpt lat="43.30580960571563" lon="13.312442609085398"><ele>257.6666666666667</ele><time>2026-04-20T09:32:11Z</time></trkpt><trkpt lat="43.30577039746258" lon="13.312526048232442"><ele>257.8333333333333</ele><time>2026-04-20T09:32:12Z</time></trkpt><trkpt lat="43.305717066041225" lon="13.312593880225275"><ele>258.0</ele><time>2026-04-20T09:32:13Z</time></trkpt><trkpt lat="43.30564113456622" lon="13.312642988369625"><ele>256.71428571428567</ele><time>2026-04-20T09:32:14Z</time></trkpt><trkpt lat="43.30556986859135" lon="13.312666253816776"><ele>255.42857142857142</ele><time>2026-04-20T09:32:15Z</time></trkpt><trkpt lat="43.30550032373466" lon="13.312681680696262"><ele>254.1428571428571</ele><time>2026-04-20T09:32:16Z</time></trkpt><trkpt lat="43.3054295846764" lon="13.31268338641836"><ele>252.85714285714283</ele><time>2026-04-20T09:32:17Z</time></trkpt><trkpt lat="43.30535580737091" lon="13.312690881292685"><ele>251.57142857142856</ele><time>2026-04-20T09:32:18Z</time></trkpt><trkpt lat="43.30528234264005" lon="13.31269636515464"><ele>250.28571428571428</ele><time>2026-04-20T09:32:19Z</time></trkpt><trkpt lat="43.305209266212096" lon="13.312707306511324"><ele>249.0</ele><time>2026-04-20T09:32:20Z</time></trkpt><trkpt lat="43.305140604471624" lon="13.31271343002279"><ele>249.0</ele><time>2026-04-20T09:32:21Z</time></trkpt><trkpt lat="43.30506371568962" lon="13.312721366958485"><ele>248.99999999999997</ele><time>2026-04-20T09:32:22Z</time></trkpt><trkpt lat="43.30499268738023" lon="13.3127262284826"><ele>249.0</ele><time>2026-04-20T09:32:23Z</time></trkpt><trkpt lat="43.30491572849462" lon="13.312732145509324"><ele>249.0</ele><time>2026-04-20T09:32:24Z</time></trkpt><trkpt lat="43.30484334724382" lon="13.312737906313362"><ele>248.99999999999997</ele><time>2026-04-20T09:32:25Z</time></trkpt><trkpt lat="43.30476689264065" lon="13.31274332030052"><ele>249.0</ele><time>2026-04-20T09:32:26Z</time></trkpt><trkpt lat="43.30469718707311" lon="13.312751628877992"><ele>249.0</ele><time>2026-04-20T09:32:27Z</time></trkpt><trkpt lat="43.304576871879064" lon="13.312771221240924"><ele>248.5</ele><time>2026-04-20T09:32:29Z</time></trkpt><trkpt lat="43.30450870019311" lon="13.312779117843329"><ele>248.0</ele><time>2026-04-20T09:32:30Z</time></trkpt><trkpt lat="43.304424879635434" lon="13.312791658214302"><ele>247.5</ele><time>2026-04-20T09:32:31Z</time></trkpt><trkpt lat="43.30434183541158" lon="13.312817672441449"><ele>247.0</ele><time>2026-04-20T09:32:32Z</time></trkpt><trkpt lat="43.30425663144617" lon="13.312857305372463"><ele>246.5</ele><time>2026-04-20T09:32:33Z</time></trkpt><trkpt lat="43.30416665045737" lon="13.31291203621588"><ele>246.0</ele><time>2026-04-20T09:32:34Z</time></trkpt><trkpt lat="43.30407979107933" lon="13.312979387284207"><ele>246.0</ele><time>2026-04-20T09:32:35Z</time></trkpt><trkpt lat="43.30398669916018" lon="13.313058146836488"><ele>246.00000000000003</ele><time>2026-04-20T09:32:36Z</time></trkpt><trkpt lat="43.30388553333444" lon="13.313141247940687"><ele>246.00000000000003</ele><time>2026-04-20T09:32:37Z</time></trkpt><trkpt lat="43.30378983461805" lon="13.313218832693247"><ele>246.0</ele><time>2026-04-20T09:32:38Z</time></trkpt><trkpt lat="43.303696116415615" lon="13.313294771969185"><ele>246.0</ele><time>2026-04-20T09:32:39Z</time></trkpt><trkpt lat="43.30360969829582" lon="13.313359262035808"><ele>245.0</ele><time>2026-04-20T09:32:40Z</time></trkpt><trkpt lat="43.303496899687" lon="13.313432391107526"><ele>244.0</ele><time>2026-04-20T09:32:41Z</time></trkpt><trkpt lat="43.303368004012704" lon="13.31347302832991"><ele>243.0</ele><time>2026-04-20T09:32:42Z</time></trkpt><trkpt lat="43.30323383651264" lon="13.313469241559515"><ele>242.0</ele><time>2026-04-20T09:32:43Z</time></trkpt><trkpt lat="43.30309707124725" lon="13.313458758178546"><ele>241.25</ele><time>2026-04-20T09:32:44Z</time></trkpt><trkpt lat="43.30296118532855" lon="13.313464680887101"><ele>240.5</ele><time>2026-04-20T09:32:45Z</time></trkpt><trkpt lat="43.302831438739965" lon="13.313466691644392"><ele>239.75</ele><time>2026-04-20T09:32:46Z</time></trkpt><trkpt lat="43.30270792754897" lon="13.313456328405218"><ele>239.0</ele><time>2026-04-20T09:32:47Z</time></trkpt><trkpt lat="43.30258223437029" lon="13.313456583114814"><ele>239.0</ele><time>2026-04-20T09:32:48Z</time></trkpt><trkpt lat="43.30246021626446" lon="13.31346044052947"><ele>239.0</ele><time>2026-04-20T09:32:49Z</time></trkpt><trkpt lat="43.302340125677155" lon="13.313472920250216"><ele>239.0</ele><time>2026-04-20T09:32:50Z</time></trkpt><trkpt lat="43.30221199437721" lon="13.313467887901659"><ele>239.0</ele><time>2026-04-20T09:32:51Z</time></trkpt><trkpt lat="43.3021065146854" lon="13.313585707547368"><ele>237.75</ele><time>2026-04-20T09:32:52Z</time></trkpt><trkpt lat="43.302000439414094" lon="13.313664211153416"><ele>236.5</ele><time>2026-04-20T09:32:53Z</time></trkpt><trkpt lat="43.30191315805313" lon="13.313798025731352"><ele>235.25</ele><time>2026-04-20T09:32:54Z</time></trkpt><trkpt lat="43.30180479187887" lon="13.313919363870172"><ele>234.0</ele><time>2026-04-20T09:32:55Z</time></trkpt><trkpt lat="43.30170290710482" lon="13.314048575729228"><ele>234.0</ele><time>2026-04-20T09:32:56Z</time></trkpt><trkpt lat="43.30160433817872" lon="13.314163879180311"><ele>234.0</ele><time>2026-04-20T09:32:57Z</time></trkpt><trkpt lat="43.301512416115884" lon="13.314275820970321"><ele>234.0</ele><time>2026-04-20T09:32:58Z</time></trkpt><trkpt lat="43.30141393427399" lon="13.314394921211603"><ele>234.0</ele><time>2026-04-20T09:32:59Z</time></trkpt><trkpt lat="43.301318258668054" lon="13.314523129715266"><ele>232.39999999999998</ele><time>2026-04-20T09:33:00Z</time></trkpt><trkpt lat="43.30122893117378" lon="13.314636582983635"><ele>230.79999999999998</ele><time>2026-04-20T09:33:01Z</time></trkpt><trkpt lat="43.30115329289028" lon="13.314732481257046"><ele>229.20000000000002</ele><time>2026-04-20T09:33:02Z</time></trkpt><trkpt lat="43.301100284440345" lon="13.314799822477957"><ele>227.60000000000002</ele><time>2026-04-20T09:33:04Z</time></trkpt><trkpt lat="43.301019372521814" lon="13.314919902157135"><ele>226.0</ele><time>2026-04-20T09:33:06Z</time></trkpt><trkpt lat="43.30096345586061" lon="13.314986195621847"><ele>226.0</ele><time>2026-04-20T09:33:07Z</time></trkpt><trkpt lat="43.300892488491804" lon="13.315062504724919"><ele>226.00000000000003</ele><time>2026-04-20T09:33:08Z</time></trkpt><trkpt lat="43.30081092314558" lon="13.315154453211903"><ele>226.00000000000003</ele><time>2026-04-20T09:33:09Z</time></trkpt><trkpt lat="43.300734464779104" lon="13.315257914105745"><ele>226.0</ele><time>2026-04-20T09:33:10Z</time></trkpt><trkpt lat="43.30064026522648" lon="13.3153752998546"><ele>226.0</ele><time>2026-04-20T09:33:11Z</time></trkpt><trkpt lat="43.30053797767536" lon="13.315495889638425"><ele>224.25</ele><time>2026-04-20T09:33:12Z</time></trkpt><trkpt lat="43.300434920774485" lon="13.3156273552464"><ele>222.5</ele><time>2026-04-20T09:33:13Z</time></trkpt><trkpt lat="43.30032613765453" lon="13.315762778348125"><ele>220.75</ele><time>2026-04-20T09:33:14Z</time></trkpt><trkpt lat="43.30021506305391" lon="13.31590980644786"><ele>219.0</ele><time>2026-04-20T09:33:15Z</time></trkpt><trkpt lat="43.300096563530886" lon="13.316057890451198"><ele>219.0</ele><time>2026-04-20T09:33:16Z</time></trkpt><trkpt lat="43.299970525435356" lon="13.316209190987825"><ele>219.0</ele><time>2026-04-20T09:33:17Z</time></trkpt><trkpt lat="43.29984926412263" lon="13.31635913880724"><ele>219.0</ele><time>2026-04-20T09:33:18Z</time></trkpt><trkpt lat="43.2997342049906" lon="13.316505970754552"><ele>217.33333333333331</ele><time>2026-04-20T09:33:19Z</time></trkpt><trkpt lat="43.2996219947218" lon="13.316651246763296"><ele>215.66666666666666</ele><time>2026-04-20T09:33:20Z</time></trkpt><trkpt lat="43.299505591626136" lon="13.316793122545297"><ele>214.0</ele><time>2026-04-20T09:33:21Z</time></trkpt><trkpt lat="43.299395232612895" lon="13.316927096926575"><ele>214.0</ele><time>2026-04-20T09:33:22Z</time></trkpt><trkpt lat="43.29929624110829" lon="13.317046273312947"><ele>214.0</ele><time>2026-04-20T09:33:23Z</time></trkpt><trkpt lat="43.29919950762437" lon="13.317166253067386"><ele>214.0</ele><time>2026-04-20T09:33:24Z</time></trkpt><trkpt lat="43.299110747388184" lon="13.317269767834794"><ele>214.0</ele><time>2026-04-20T09:33:25Z</time></trkpt><trkpt lat="43.29902648740857" lon="13.31737309830334"><ele>214.75</ele><time>2026-04-20T09:33:26Z</time></trkpt><trkpt lat="43.29894704118579" lon="13.317471552839628"><ele>215.5</ele><time>2026-04-20T09:33:27Z</time></trkpt><trkpt lat="43.29887957263151" lon="13.317583759594765"><ele>216.25</ele><time>2026-04-20T09:33:28Z</time></trkpt><trkpt lat="43.298863214467545" lon="13.317733374418818"><ele>217.0</ele><time>2026-04-20T09:33:29Z</time></trkpt><trkpt lat="43.298855109078964" lon="13.3179297785138"><ele>216.6</ele><time>2026-04-20T09:33:30Z</time></trkpt><trkpt lat="43.29888359990526" lon="13.31810552717482"><ele>216.2</ele><time>2026-04-20T09:33:31Z</time></trkpt><trkpt lat="43.29890903673228" lon="13.318270989781675"><ele>215.8</ele><time>2026-04-20T09:33:32Z</time></trkpt><trkpt lat="43.2989297109585" lon="13.318403887410327"><ele>215.4</ele><time>2026-04-20T09:33:33Z</time></trkpt><trkpt lat="43.29893620476411" lon="13.318526382670308"><ele>215.0</ele><time>2026-04-20T09:33:34Z</time></trkpt><trkpt lat="43.298924272474906" lon="13.318628365926738"><ele>213.25</ele><time>2026-04-20T09:33:35Z</time></trkpt><trkpt lat="43.29888412395598" lon="13.318738477028813"><ele>211.5</ele><time>2026-04-20T09:33:36Z</time></trkpt><trkpt lat="43.298811641213284" lon="13.318850085438337"><ele>209.75</ele><time>2026-04-20T09:33:37Z</time></trkpt><trkpt lat="43.29870693993559" lon="13.318918568226605"><ele>208.0</ele><time>2026-04-20T09:33:38Z</time></trkpt><trkpt lat="43.298564290240826" lon="13.318959333128483"><ele>208.0</ele><time>2026-04-20T09:33:39Z</time></trkpt><trkpt lat="43.29840119401259" lon="13.318989616958852"><ele>208.0</ele><time>2026-04-20T09:33:40Z</time></trkpt><trkpt lat="43.298229771449854" lon="13.31903670781402"><ele>208.0</ele><time>2026-04-20T09:33:41Z</time></trkpt><trkpt lat="43.29805594525259" lon="13.319094689247235"><ele>206.0</ele><time>2026-04-20T09:33:42Z</time></trkpt><trkpt lat="43.2978962537807" lon="13.31913438963409"><ele>204.0</ele><time>2026-04-20T09:33:43Z</time></trkpt><trkpt lat="43.29772362218752" lon="13.319173783092113"><ele>202.0</ele><time>2026-04-20T09:33:44Z</time></trkpt><trkpt lat="43.29754586779961" lon="13.319190505464789"><ele>202.0</ele><time>2026-04-20T09:33:44.999Z</time></trkpt><trkpt lat="43.29737462068114" lon="13.319188158293768"><ele>202.0</ele><time>2026-04-20T09:33:45.999Z</time></trkpt><trkpt lat="43.29720683527793" lon="13.31920186098898"><ele>202.0</ele><time>2026-04-20T09:33:46.999Z</time></trkpt><trkpt lat="43.297043419080886" lon="13.319259051301044"><ele>198.33333333333331</ele><time>2026-04-20T09:33:47.999Z</time></trkpt><trkpt lat="43.29689609732433" lon="13.319368927082158"><ele>194.66666666666666</ele><time>2026-04-20T09:33:48.999Z</time></trkpt><trkpt lat="43.29674438488542" lon="13.319534809729802"><ele>191.0</ele><time>2026-04-20T09:33:49.999Z</time></trkpt><trkpt lat="43.296628170684485" lon="13.319732202381003"><ele>192.66666666666666</ele><time>2026-04-20T09:33:50.999Z</time></trkpt><trkpt lat="43.29653246233528" lon="13.319961595164722"><ele>194.33333333333331</ele><time>2026-04-20T09:33:51.999Z</time></trkpt><trkpt lat="43.2964500275765" lon="13.320194684319874"><ele>196.0</ele><time>2026-04-20T09:33:52.999Z</time></trkpt><trkpt lat="43.29636899616427" lon="13.320427194799557"><ele>192.33333333333331</ele><time>2026-04-20T09:33:54Z</time></trkpt><trkpt lat="43.29628750791888" lon="13.320645416542323"><ele>188.66666666666666</ele><time>2026-04-20T09:33:55Z</time></trkpt><trkpt lat="43.29619600330306" lon="13.320877505604411"><ele>185.0</ele><time>2026-04-20T09:33:56Z</time></trkpt><trkpt lat="43.296088551286026" lon="13.321122501596417"><ele>185.0</ele><time>2026-04-20T09:33:57Z</time></trkpt><trkpt lat="43.29598844191785" lon="13.321351097388423"><ele>185.0</ele><time>2026-04-20T09:33:58Z</time></trkpt><trkpt lat="43.29588438050634" lon="13.321570803909456"><ele>185.0</ele><time>2026-04-20T09:33:59Z</time></trkpt><trkpt lat="43.29576450336273" lon="13.321779926298445"><ele>185.0</ele><time>2026-04-20T09:34:00Z</time></trkpt><trkpt lat="43.29563211288631" lon="13.321972320594073"><ele>185.0</ele><time>2026-04-20T09:34:01Z</time></trkpt><trkpt lat="43.29548194006455" lon="13.322144779673646"><ele>185.0</ele><time>2026-04-20T09:34:02Z</time></trkpt><trkpt lat="43.295317063769154" lon="13.322290755615098"><ele>185.0</ele><time>2026-04-20T09:34:03Z</time></trkpt><trkpt lat="43.295148287026606" lon="13.322424890403383"><ele>185.0</ele><time>2026-04-20T09:34:04Z</time></trkpt><trkpt lat="43.294984601564636" lon="13.322548798024327"><ele>185.0</ele><time>2026-04-20T09:34:05Z</time></trkpt><trkpt lat="43.294829727065725" lon="13.322681373604642"><ele>184.33333333333331</ele><time>2026-04-20T09:34:06Z</time></trkpt><trkpt lat="43.29467020248254" lon="13.322819214944031"><ele>183.66666666666666</ele><time>2026-04-20T09:34:07Z</time></trkpt><trkpt lat="43.29451393879939" lon="13.322943963111783"><ele>183.0</ele><time>2026-04-20T09:34:08Z</time></trkpt><trkpt lat="43.294377180351304" lon="13.323066365183077"><ele>183.0</ele><time>2026-04-20T09:34:09Z</time></trkpt><trkpt lat="43.29422474640297" lon="13.323190929399372"><ele>183.0</ele><time>2026-04-20T09:34:10Z</time></trkpt><trkpt lat="43.294068774466105" lon="13.323310102877665"><ele>183.0</ele><time>2026-04-20T09:34:11Z</time></trkpt><trkpt lat="43.29391267319892" lon="13.323426489552046"><ele>176.66666666666666</ele><time>2026-04-20T09:34:12Z</time></trkpt><trkpt lat="43.29376042321723" lon="13.323559248361848"><ele>170.33333333333331</ele><time>2026-04-20T09:34:13Z</time></trkpt><trkpt lat="43.29360348039857" lon="13.32368918800983"><ele>164.0</ele><time>2026-04-20T09:34:14Z</time></trkpt><trkpt lat="43.29344762448755" lon="13.323824503562959"><ele>163.0</ele><time>2026-04-20T09:34:15Z</time></trkpt><trkpt lat="43.29329942497638" lon="13.323949471775103"><ele>162.0</ele><time>2026-04-20T09:34:16Z</time></trkpt><trkpt lat="43.293150678760774" lon="13.324076304672372"><ele>161.0</ele><time>2026-04-20T09:34:17Z</time></trkpt><trkpt lat="43.293006163341595" lon="13.324190613400317"><ele>161.0</ele><time>2026-04-20T09:34:18Z</time></trkpt><trkpt lat="43.29287557257878" lon="13.3243176805439"><ele>161.0</ele><time>2026-04-20T09:34:19Z</time></trkpt><trkpt lat="43.29275652772788" lon="13.324462263292759"><ele>161.0</ele><time>2026-04-20T09:34:20Z</time></trkpt><trkpt lat="43.292651862419774" lon="13.324640814917567"><ele>163.33333333333331</ele><time>2026-04-20T09:34:21Z</time></trkpt><trkpt lat="43.29256576055424" lon="13.324840271406575"><ele>165.66666666666666</ele><time>2026-04-20T09:34:22Z</time></trkpt><trkpt lat="43.292494801096886" lon="13.325060321819878"><ele>168.0</ele><time>2026-04-20T09:34:23Z</time></trkpt><trkpt lat="43.292435829907156" lon="13.325275250793702"><ele>168.0</ele><time>2026-04-20T09:34:24Z</time></trkpt><trkpt lat="43.29237906395387" lon="13.3254712670314"><ele>168.0</ele><time>2026-04-20T09:34:25Z</time></trkpt><trkpt lat="43.292325041188754" lon="13.325676779081212"><ele>168.0</ele><time>2026-04-20T09:34:26Z</time></trkpt><trkpt lat="43.292283587098105" lon="13.325887882939302"><ele>167.66666666666666</ele><time>2026-04-20T09:34:27Z</time></trkpt><trkpt lat="43.29226155042449" lon="13.326105267092045"><ele>167.33333333333331</ele><time>2026-04-20T09:34:28Z</time></trkpt><trkpt lat="43.2922583798137" lon="13.326332444669834"><ele>167.0</ele><time>2026-04-20T09:34:29Z</time></trkpt><trkpt lat="43.29227069269679" lon="13.326548596861636"><ele>167.0</ele><time>2026-04-20T09:34:30Z</time></trkpt><trkpt lat="43.292291432799715" lon="13.326768667193827"><ele>167.0</ele><time>2026-04-20T09:34:31Z</time></trkpt><trkpt lat="43.29231779889668" lon="13.32698795737811"><ele>167.0</ele><time>2026-04-20T09:34:32Z</time></trkpt><trkpt lat="43.292349653244294" lon="13.32719562775745"><ele>165.75</ele><time>2026-04-20T09:34:33Z</time></trkpt><trkpt lat="43.29239823065368" lon="13.327398103589465"><ele>164.5</ele><time>2026-04-20T09:34:34Z</time></trkpt><trkpt lat="43.29245715820215" lon="13.327581103154907"><ele>163.25</ele><time>2026-04-20T09:34:35Z</time></trkpt><trkpt lat="43.292522941458145" lon="13.32776169644425"><ele>162.0</ele><time>2026-04-20T09:34:36Z</time></trkpt><trkpt lat="43.29259684172669" lon="13.327923689736664"><ele>162.0</ele><time>2026-04-20T09:34:37Z</time></trkpt><trkpt lat="43.29266363492019" lon="13.328081257007845"><ele>162.0</ele><time>2026-04-20T09:34:38Z</time></trkpt><trkpt lat="43.29273189044165" lon="13.328225817101877"><ele>162.0</ele><time>2026-04-20T09:34:39Z</time></trkpt><trkpt lat="43.292791525845814" lon="13.328366797646193"><ele>162.0</ele><time>2026-04-20T09:34:40Z</time></trkpt><trkpt lat="43.292828747834896" lon="13.328522986072564"><ele>162.0</ele><time>2026-04-20T09:34:41Z</time></trkpt><trkpt lat="43.292837574505164" lon="13.328686849643338"><ele>162.0</ele><time>2026-04-20T09:34:42Z</time></trkpt><trkpt lat="43.2928117316822" lon="13.328858252287578"><ele>162.0</ele><time>2026-04-20T09:34:43Z</time></trkpt><trkpt lat="43.29275507134384" lon="13.32902295968172"><ele>162.0</ele><time>2026-04-20T09:34:44Z</time></trkpt><trkpt lat="43.292668689005566" lon="13.329174203347435"><ele>161.25</ele><time>2026-04-20T09:34:45Z</time></trkpt><trkpt lat="43.29256320219656" lon="13.329305387353061"><ele>160.5</ele><time>2026-04-20T09:34:46Z</time></trkpt><trkpt lat="43.29244556810685" lon="13.329422697282949"><ele>159.75</ele><time>2026-04-20T09:34:47Z</time></trkpt><trkpt lat="43.29233075317887" lon="13.329565882563257"><ele>159.0</ele><time>2026-04-20T09:34:48Z</time></trkpt><trkpt lat="43.292227935276415" lon="13.329678657919386"><ele>156.66666666666666</ele><time>2026-04-20T09:34:49Z</time></trkpt><trkpt lat="43.292109966688365" lon="13.329811269557657"><ele>154.33333333333331</ele><time>2026-04-20T09:34:50Z</time></trkpt><trkpt lat="43.2919885358399" lon="13.329939670832722"><ele>152.0</ele><time>2026-04-20T09:34:51Z</time></trkpt><trkpt lat="43.29186692154306" lon="13.330078225510546"><ele>152.0</ele><time>2026-04-20T09:34:52Z</time></trkpt><trkpt lat="43.291742446232895" lon="13.330221870130078"><ele>152.0</ele><time>2026-04-20T09:34:53Z</time></trkpt><trkpt lat="43.29163075979867" lon="13.330352781692975"><ele>152.0</ele><time>2026-04-20T09:34:54Z</time></trkpt><trkpt lat="43.29150900971441" lon="13.330500125177899"><ele>151.0</ele><time>2026-04-20T09:34:55Z</time></trkpt><trkpt lat="43.29138422066728" lon="13.330645858915537"><ele>150.0</ele><time>2026-04-20T09:34:56Z</time></trkpt><trkpt lat="43.291256841497" lon="13.330791998109552"><ele>149.0</ele><time>2026-04-20T09:34:57Z</time></trkpt><trkpt lat="43.29113831278135" lon="13.330927783625786"><ele>149.0</ele><time>2026-04-20T09:34:58Z</time></trkpt><trkpt lat="43.29101487534027" lon="13.331069712064844"><ele>149.0</ele><time>2026-04-20T09:34:59Z</time></trkpt><trkpt lat="43.29089642744882" lon="13.33121049371736"><ele>149.0</ele><time>2026-04-20T09:35:00Z</time></trkpt><trkpt lat="43.29077325519719" lon="13.331362249819339"><ele>149.0</ele><time>2026-04-20T09:35:01Z</time></trkpt><trkpt lat="43.29065196411474" lon="13.331508310438885"><ele>149.0</ele><time>2026-04-20T09:35:02Z</time></trkpt><trkpt lat="43.29053225284057" lon="13.331648970113275"><ele>149.0</ele><time>2026-04-20T09:35:03Z</time></trkpt><trkpt lat="43.290414181650476" lon="13.331781331860963"><ele>148.66666666666666</ele><time>2026-04-20T09:35:04Z</time></trkpt><trkpt lat="43.2902917467191" lon="13.331920010116955"><ele>148.33333333333334</ele><time>2026-04-20T09:35:05Z</time></trkpt><trkpt lat="43.29017094709128" lon="13.332049365394615"><ele>148.0</ele><time>2026-04-20T09:35:06Z</time></trkpt><trkpt lat="43.290048961969696" lon="13.332165776196696"><ele>148.25</ele><time>2026-04-20T09:35:07Z</time></trkpt><trkpt lat="43.28992702618735" lon="13.332281392020187"><ele>148.5</ele><time>2026-04-20T09:35:08Z</time></trkpt><trkpt lat="43.28980050854925" lon="13.33238188560677"><ele>148.75</ele><time>2026-04-20T09:35:09Z</time></trkpt><trkpt lat="43.28968077004548" lon="13.332486647867084"><ele>149.0</ele><time>2026-04-20T09:35:10Z</time></trkpt><trkpt lat="43.289550115827154" lon="13.332606280389323"><ele>149.0</ele><time>2026-04-20T09:35:11Z</time></trkpt><trkpt lat="43.28941918113092" lon="13.332735743595947"><ele>149.0</ele><time>2026-04-20T09:35:12Z</time></trkpt><trkpt lat="43.28930022691122" lon="13.332847719214573"><ele>149.0</ele><time>2026-04-20T09:35:13Z</time></trkpt><trkpt lat="43.28918542118848" lon="13.3329561311417"><ele>149.0</ele><time>2026-04-20T09:35:14Z</time></trkpt><trkpt lat="43.289078219283674" lon="13.333078277587703"><ele>149.0</ele><time>2026-04-20T09:35:15Z</time></trkpt><trkpt lat="43.288976019028404" lon="13.33317588868738"><ele>149.0</ele><time>2026-04-20T09:35:16Z</time></trkpt><trkpt lat="43.28889667249417" lon="13.33325081037725"><ele>149.0</ele><time>2026-04-20T09:35:17Z</time></trkpt><trkpt lat="43.28883573826394" lon="13.333321965795237"><ele>149.0</ele><time>2026-04-20T09:35:18Z</time></trkpt><trkpt lat="43.288732154690855" lon="13.333425122651787"><ele>149.0</ele><time>2026-04-20T09:35:20Z</time></trkpt><trkpt lat="43.28866143737258" lon="13.333479232717162"><ele>148.4</ele><time>2026-04-20T09:35:21Z</time></trkpt><trkpt lat="43.288582789972814" lon="13.333544916353162"><ele>147.8</ele><time>2026-04-20T09:35:22Z</time></trkpt><trkpt lat="43.288486219141156" lon="13.333610208177767"><ele>147.2</ele><time>2026-04-20T09:35:23Z</time></trkpt><trkpt lat="43.28838956874918" lon="13.33364837631209"><ele>146.6</ele><time>2026-04-20T09:35:24Z</time></trkpt><trkpt lat="43.28830116088199" lon="13.333662913025757"><ele>146.0</ele><time>2026-04-20T09:35:25Z</time></trkpt><trkpt lat="43.288219738328046" lon="13.333665684251917"><ele>146.0</ele><time>2026-04-20T09:35:26Z</time></trkpt><trkpt lat="43.28813226253596" lon="13.333646020170665"><ele>146.0</ele><time>2026-04-20T09:35:27Z</time></trkpt><trkpt lat="43.28803741817951" lon="13.333600668562184"><ele>146.0</ele><time>2026-04-20T09:35:28Z</time></trkpt><trkpt lat="43.2879350366034" lon="13.333559821764297"><ele>146.0</ele><time>2026-04-20T09:35:29Z</time></trkpt><trkpt lat="43.2878349573013" lon="13.333513213299454"><ele>146.0</ele><time>2026-04-20T09:35:30Z</time></trkpt><trkpt lat="43.287744416219795" lon="13.333436891914422"><ele>145.75</ele><time>2026-04-20T09:35:31Z</time></trkpt><trkpt lat="43.287659273061884" lon="13.333342268160369"><ele>145.5</ele><time>2026-04-20T09:35:32Z</time></trkpt><trkpt lat="43.287582528055516" lon="13.333222957463597"><ele>145.25</ele><time>2026-04-20T09:35:33Z</time></trkpt><trkpt lat="43.28750621475419" lon="13.333098679326136"><ele>145.0</ele><time>2026-04-20T09:35:34Z</time></trkpt><trkpt lat="43.28741339342536" lon="13.332976932368055"><ele>145.0</ele><time>2026-04-20T09:35:35Z</time></trkpt><trkpt lat="43.28733386114471" lon="13.332866429233276"><ele>145.0</ele><time>2026-04-20T09:35:35.999Z</time></trkpt><trkpt lat="43.28724907827282" lon="13.332753787231242"><ele>145.0</ele><time>2026-04-20T09:35:36.999Z</time></trkpt><trkpt lat="43.2871612366819" lon="13.3326634646469"><ele>145.0</ele><time>2026-04-20T09:35:37.999Z</time></trkpt><trkpt lat="43.28707658695203" lon="13.332595769916594"><ele>145.0</ele><time>2026-04-20T09:35:38.999Z</time></trkpt><trkpt lat="43.28698848185097" lon="13.332541975658648"><ele>145.25</ele><time>2026-04-20T09:35:39.999Z</time></trkpt><trkpt lat="43.28689137926523" lon="13.332468122569217"><ele>145.5</ele><time>2026-04-20T09:35:40.999Z</time></trkpt><trkpt lat="43.28680019712151" lon="13.332377545442272"><ele>145.75</ele><time>2026-04-20T09:35:41.999Z</time></trkpt><trkpt lat="43.28669619126924" lon="13.332298685636232"><ele>146.0</ele><time>2026-04-20T09:35:42.999Z</time></trkpt><trkpt lat="43.28658854855414" lon="13.332226475438407"><ele>145.8</ele><time>2026-04-20T09:35:43.999Z</time></trkpt><trkpt lat="43.28648607840157" lon="13.332152369265776"><ele>145.6</ele><time>2026-04-20T09:35:44.999Z</time></trkpt><trkpt lat="43.28638428649231" lon="13.332085584799282"><ele>145.4</ele><time>2026-04-20T09:35:45.999Z</time></trkpt><trkpt lat="43.28629285644741" lon="13.332026775710004"><ele>145.2</ele><time>2026-04-20T09:35:46.999Z</time></trkpt><trkpt lat="43.286215135280244" lon="13.33197863950725"><ele>145.0</ele><time>2026-04-20T09:35:47.999Z</time></trkpt><trkpt lat="43.28612909587636" lon="13.331932001771706"><ele>145.0</ele><time>2026-04-20T09:35:48.999Z</time></trkpt><trkpt lat="43.28604967447326" lon="13.331892303254907"><ele>145.0</ele><time>2026-04-20T09:35:49.999Z</time></trkpt><trkpt lat="43.28598370026468" lon="13.331842994628825"><ele>145.0</ele><time>2026-04-20T09:35:50.999Z</time></trkpt><trkpt lat="43.28594616314758" lon="13.331761981438882"><ele>145.0</ele><time>2026-04-20T09:35:51.999Z</time></trkpt><trkpt lat="43.28593793638116" lon="13.331652205330519"><ele>145.0</ele><time>2026-04-20T09:35:52.999Z</time></trkpt><trkpt lat="43.28594321139729" lon="13.33151611104141"><ele>145.0</ele><time>2026-04-20T09:35:53.999Z</time></trkpt><trkpt lat="43.2859418530504" lon="13.331365139012172"><ele>145.0</ele><time>2026-04-20T09:35:54.999Z</time></trkpt><trkpt lat="43.285927280105675" lon="13.331191605553483"><ele>145.0</ele><time>2026-04-20T09:35:55.999Z</time></trkpt><trkpt lat="43.28588321827122" lon="13.331066637752965"><ele>145.0</ele><time>2026-04-20T09:35:56.999Z</time></trkpt><trkpt lat="43.28585703791363" lon="13.330911664517654"><ele>145.0</ele><time>2026-04-20T09:35:57.999Z</time></trkpt><trkpt lat="43.28583824617185" lon="13.330750475574638"><ele>145.0</ele><time>2026-04-20T09:35:58.999Z</time></trkpt><trkpt lat="43.285800964027075" lon="13.330610861113692"><ele>145.0</ele><time>2026-04-20T09:36:00Z</time></trkpt><trkpt lat="43.285780348160706" lon="13.330478718510486"><ele>145.0</ele><time>2026-04-20T09:36:01Z</time></trkpt><trkpt lat="43.28578243061866" lon="13.330342056972006"><ele>145.0</ele><time>2026-04-20T09:36:02Z</time></trkpt><trkpt lat="43.28576662879399" lon="13.330201433751222"><ele>145.0</ele><time>2026-04-20T09:36:03Z</time></trkpt><trkpt lat="43.285749975821794" lon="13.330052719198806"><ele>145.2</ele><time>2026-04-20T09:36:04Z</time></trkpt><trkpt lat="43.28573927145809" lon="13.32989923994695"><ele>145.4</ele><time>2026-04-20T09:36:05Z</time></trkpt><trkpt lat="43.285719135566744" lon="13.329743506527693"><ele>145.6</ele><time>2026-04-20T09:36:06Z</time></trkpt><trkpt lat="43.285689885287624" lon="13.32959970875594"><ele>145.8</ele><time>2026-04-20T09:36:07Z</time></trkpt><trkpt lat="43.2856595539202" lon="13.329472758451947"><ele>146.0</ele><time>2026-04-20T09:36:08Z</time></trkpt><trkpt lat="43.285632272240115" lon="13.32934569545276"><ele>146.0</ele><time>2026-04-20T09:36:09Z</time></trkpt><trkpt lat="43.28559802089382" lon="13.329223472926289"><ele>146.0</ele><time>2026-04-20T09:36:10Z</time></trkpt><trkpt lat="43.28555958856241" lon="13.329097987197253"><ele>146.0</ele><time>2026-04-20T09:36:11Z</time></trkpt><trkpt lat="43.285535807945664" lon="13.328984329029172"><ele>146.0</ele><time>2026-04-20T09:36:12Z</time></trkpt><trkpt lat="43.28549910523479" lon="13.328887124107819"><ele>146.0</ele><time>2026-04-20T09:36:13Z</time></trkpt><trkpt lat="43.28546836859665" lon="13.328788556760705"><ele>146.0</ele><time>2026-04-20T09:36:14Z</time></trkpt><trkpt lat="43.28543197296127" lon="13.32866661289947"><ele>146.2</ele><time>2026-04-20T09:36:15Z</time></trkpt><trkpt lat="43.28538663193903" lon="13.328532204460998"><ele>146.39999999999998</ele><time>2026-04-20T09:36:16Z</time></trkpt><trkpt lat="43.28534008464148" lon="13.328389895235492"><ele>146.6</ele><time>2026-04-20T09:36:17Z</time></trkpt><trkpt lat="43.28529522993294" lon="13.328272002690378"><ele>146.79999999999998</ele><time>2026-04-20T09:36:18Z</time></trkpt><trkpt lat="43.285239455096054" lon="13.328192310811481"><ele>147.0</ele><time>2026-04-20T09:36:19Z</time></trkpt><trkpt lat="43.28517009901989" lon="13.328045972570823"><ele>147.33333333333334</ele><time>2026-04-20T09:36:21Z</time></trkpt><trkpt lat="43.28513316752747" lon="13.327945071214474"><ele>147.66666666666666</ele><time>2026-04-20T09:36:22Z</time></trkpt><trkpt lat="43.2850838278331" lon="13.327843872959676"><ele>148.0</ele><time>2026-04-20T09:36:23Z</time></trkpt><trkpt lat="43.28503777561859" lon="13.327750987384515"><ele>148.33333333333331</ele><time>2026-04-20T09:36:24Z</time></trkpt><trkpt lat="43.28497382631303" lon="13.3276435557582"><ele>148.66666666666666</ele><time>2026-04-20T09:36:26Z</time></trkpt><trkpt lat="43.28490001574065" lon="13.327685067073148"><ele>149.0</ele><time>2026-04-20T09:36:28Z</time></trkpt><trkpt lat="43.2848990201726" lon="13.32781889485358"><ele>149.0</ele><time>2026-04-20T09:37:38.999Z</time></trkpt><trkpt lat="43.28495812058031" lon="13.327788271551599"><ele>149.0</ele><time>2026-04-20T09:40:13.001Z</time></trkpt><trkpt lat="43.28505410984904" lon="13.327865594798487"><ele>149.0</ele><time>2026-04-20T09:40:15.001Z</time></trkpt><trkpt lat="43.28508983029336" lon="13.327941295016473"><ele>149.0</ele><time>2026-04-20T09:40:16.001Z</time></trkpt><trkpt lat="43.28514117730963" lon="13.328062851431765"><ele>149.0</ele><time>2026-04-20T09:40:18.001Z</time></trkpt><trkpt lat="43.285196302252565" lon="13.328171756326046"><ele>149.0</ele><time>2026-04-20T09:40:20.001Z</time></trkpt><trkpt lat="43.28511716048269" lon="13.328280274420646"><ele>148.6</ele><time>2026-04-20T09:40:21.001Z</time></trkpt><trkpt lat="43.28504253976009" lon="13.328336851524094"><ele>148.2</ele><time>2026-04-20T09:40:22.001Z</time></trkpt><trkpt lat="43.28495825244156" lon="13.328369428747472"><ele>147.79999999999998</ele><time>2026-04-20T09:40:23.001Z</time></trkpt><trkpt lat="43.28489484326551" lon="13.328402016416687"><ele>147.4</ele><time>2026-04-20T09:40:24.001Z</time></trkpt><trkpt lat="43.28481591065556" lon="13.328509021805878"><ele>147.0</ele><time>2026-04-20T09:40:26.001Z</time></trkpt><trkpt lat="43.2848354034029" lon="13.328679021237269"><ele>147.0</ele><time>2026-04-20T09:40:28.001Z</time></trkpt><trkpt lat="43.284891206866035" lon="13.328787858929052"><ele>147.0</ele><time>2026-04-20T09:40:29Z</time></trkpt><trkpt lat="43.28492371726073" lon="13.328882468381531"><ele>147.0</ele><time>2026-04-20T09:40:30Z</time></trkpt><trkpt lat="43.284953525079004" lon="13.32898235940496"><ele>147.0</ele><time>2026-04-20T09:40:31Z</time></trkpt><trkpt lat="43.28498322413302" lon="13.329085685438745"><ele>147.0</ele><time>2026-04-20T09:40:32Z</time></trkpt><trkpt lat="43.28501863294993" lon="13.329180779075697"><ele>147.0</ele><time>2026-04-20T09:40:33Z</time></trkpt><trkpt lat="43.285043853758815" lon="13.329284877637592"><ele>146.83333333333334</ele><time>2026-04-20T09:40:34Z</time></trkpt><trkpt lat="43.28506626640265" lon="13.329390403939268"><ele>146.66666666666666</ele><time>2026-04-20T09:40:35Z</time></trkpt><trkpt lat="43.28508607493085" lon="13.329504908689259"><ele>146.5</ele><time>2026-04-20T09:40:36Z</time></trkpt><trkpt lat="43.28510595971812" lon="13.329631539450217"><ele>146.33333333333331</ele><time>2026-04-20T09:40:37Z</time></trkpt><trkpt lat="43.28512946717279" lon="13.329756963555914"><ele>146.16666666666666</ele><time>2026-04-20T09:40:38Z</time></trkpt><trkpt lat="43.2851525489018" lon="13.329881169283755"><ele>146.0</ele><time>2026-04-20T09:40:39Z</time></trkpt><trkpt lat="43.285170992522076" lon="13.33001121967538"><ele>146.0</ele><time>2026-04-20T09:40:40Z</time></trkpt><trkpt lat="43.285191148060846" lon="13.330141939737896"><ele>146.0</ele><time>2026-04-20T09:40:41Z</time></trkpt><trkpt lat="43.285212805985445" lon="13.330281719347697"><ele>146.0</ele><time>2026-04-20T09:40:42Z</time></trkpt><trkpt lat="43.28523527481736" lon="13.330423227124115"><ele>146.0</ele><time>2026-04-20T09:40:43Z</time></trkpt><trkpt lat="43.285248176955555" lon="13.330552443115847"><ele>146.0</ele><time>2026-04-20T09:40:44Z</time></trkpt><trkpt lat="43.28526844822277" lon="13.330662909399546"><ele>145.8</ele><time>2026-04-20T09:40:45Z</time></trkpt><trkpt lat="43.28526086334567" lon="13.330772835021474"><ele>145.6</ele><time>2026-04-20T09:40:46Z</time></trkpt><trkpt lat="43.285361115448445" lon="13.330858298612252"><ele>145.4</ele><time>2026-04-20T09:40:47Z</time></trkpt><trkpt lat="43.2854445125735" lon="13.330923695454317"><ele>145.2</ele><time>2026-04-20T09:40:48Z</time></trkpt><trkpt lat="43.28554472601406" lon="13.330972281831604"><ele>145.0</ele><time>2026-04-20T09:40:49Z</time></trkpt><trkpt lat="43.28564255011016" lon="13.331020115577862"><ele>145.0</ele><time>2026-04-20T09:40:50Z</time></trkpt><trkpt lat="43.28572144014034" lon="13.331062033186324"><ele>145.0</ele><time>2026-04-20T09:40:51Z</time></trkpt><trkpt lat="43.285788604752135" lon="13.331061941826558"><ele>145.0</ele><time>2026-04-20T09:40:52Z</time></trkpt><trkpt lat="43.28584726772786" lon="13.330904113296752"><ele>145.0</ele><time>2026-04-20T09:40:55Z</time></trkpt><trkpt lat="43.28582932321226" lon="13.330792633296863"><ele>145.0</ele><time>2026-04-20T09:40:56Z</time></trkpt><trkpt lat="43.28580881526827" lon="13.330661184677604"><ele>145.25</ele><time>2026-04-20T09:40:57Z</time></trkpt><trkpt lat="43.285808706908234" lon="13.330497270350403"><ele>145.5</ele><time>2026-04-20T09:40:58Z</time></trkpt><trkpt lat="43.28579089012948" lon="13.330322288327023"><ele>145.75</ele><time>2026-04-20T09:40:59Z</time></trkpt><trkpt lat="43.28577539916104" lon="13.330125082464736"><ele>146.0</ele><time>2026-04-20T09:41:00Z</time></trkpt><trkpt lat="43.28576184897698" lon="13.329951313620489"><ele>146.0</ele><time>2026-04-20T09:41:01Z</time></trkpt><trkpt lat="43.28574033399222" lon="13.329807574660256"><ele>146.0</ele><time>2026-04-20T09:41:02Z</time></trkpt><trkpt lat="43.285711005183344" lon="13.329678460541446"><ele>146.0</ele><time>2026-04-20T09:41:03Z</time></trkpt><trkpt lat="43.285684253647375" lon="13.329556569925561"><ele>146.0</ele><time>2026-04-20T09:41:04Z</time></trkpt><trkpt lat="43.28566259104824" lon="13.329447079615775"><ele>146.0</ele><time>2026-04-20T09:41:05Z</time></trkpt><trkpt lat="43.28563469211436" lon="13.329351833425337"><ele>146.0</ele><time>2026-04-20T09:41:06Z</time></trkpt><trkpt lat="43.28559675667628" lon="13.329231291112016"><ele>146.0</ele><time>2026-04-20T09:41:08Z</time></trkpt><trkpt lat="43.28571771318996" lon="13.329120625162751"><ele>146.0</ele><time>2026-04-20T09:42:10.999Z</time></trkpt><trkpt lat="43.28564806148259" lon="13.329152535729996"><ele>146.0</ele><time>2026-04-20T09:45:48.999Z</time></trkpt><trkpt lat="43.28557981090486" lon="13.329065139175189"><ele>146.0</ele><time>2026-04-20T09:46:34Z</time></trkpt><trkpt lat="43.28553458438225" lon="13.328981433955082"><ele>146.2</ele><time>2026-04-20T09:46:35Z</time></trkpt><trkpt lat="43.285500969212706" lon="13.32886511444376"><ele>146.39999999999998</ele><time>2026-04-20T09:46:36Z</time></trkpt><trkpt lat="43.28547513461593" lon="13.328752642092216"><ele>146.6</ele><time>2026-04-20T09:46:37Z</time></trkpt><trkpt lat="43.285450962922546" lon="13.328664799781736"><ele>146.79999999999998</ele><time>2026-04-20T09:46:38Z</time></trkpt><trkpt lat="43.28540532938128" lon="13.328520206387656"><ele>147.0</ele><time>2026-04-20T09:46:40Z</time></trkpt><trkpt lat="43.285363177854144" lon="13.328404915571545"><ele>147.0</ele><time>2026-04-20T09:46:42Z</time></trkpt><trkpt lat="43.28531090831349" lon="13.32829139999426"><ele>147.0</ele><time>2026-04-20T09:46:44Z</time></trkpt><trkpt lat="43.28523605100379" lon="13.328217394955658"><ele>147.0</ele><time>2026-04-20T09:46:46Z</time></trkpt><trkpt lat="43.285120272428635" lon="13.32825061571437"><ele>147.0</ele><time>2026-04-20T09:46:48Z</time></trkpt><trkpt lat="43.285023239727536" lon="13.328329770122735"><ele>147.0</ele><time>2026-04-20T09:46:50Z</time></trkpt><trkpt lat="43.284939380904206" lon="13.328393018405501"><ele>147.0</ele><time>2026-04-20T09:46:52Z</time></trkpt><trkpt lat="43.28483650012981" lon="13.328450686335422"><ele>147.0</ele><time>2026-04-20T09:46:54Z</time></trkpt><trkpt lat="43.2847462321306" lon="13.32852911215706"><ele>147.0</ele><time>2026-04-20T09:46:56Z</time></trkpt><trkpt lat="43.28466196756801" lon="13.328597428618517"><ele>147.0</ele><time>2026-04-20T09:46:58Z</time></trkpt><trkpt lat="43.284588823395616" lon="13.328652279332344"><ele>147.0</ele><time>2026-04-20T09:47:00Z</time></trkpt><trkpt lat="43.28451887512433" lon="13.328711439926181"><ele>147.4</ele><time>2026-04-20T09:47:02Z</time></trkpt><trkpt lat="43.284436317717514" lon="13.32877243763774"><ele>147.79999999999998</ele><time>2026-04-20T09:47:04Z</time></trkpt><trkpt lat="43.28437429819638" lon="13.328824786133534"><ele>148.2</ele><time>2026-04-20T09:47:06Z</time></trkpt><trkpt lat="43.284308128012135" lon="13.328870562921404"><ele>148.6</ele><time>2026-04-20T09:47:08Z</time></trkpt><trkpt lat="43.28421721769061" lon="13.328913339898108"><ele>149.0</ele><time>2026-04-20T09:47:10Z</time></trkpt><trkpt lat="43.28412993287071" lon="13.329022752894552"><ele>148.33333333333331</ele><time>2026-04-20T09:47:12Z</time></trkpt><trkpt lat="43.284070941045954" lon="13.329074553172081"><ele>147.66666666666666</ele><time>2026-04-20T09:47:13Z</time></trkpt><trkpt lat="43.284005176375935" lon="13.329116364081226"><ele>147.0</ele><time>2026-04-20T09:47:14Z</time></trkpt><trkpt lat="43.28393555781846" lon="13.329169508240323"><ele>146.33333333333334</ele><time>2026-04-20T09:47:15Z</time></trkpt><trkpt lat="43.28387279536706" lon="13.329229213748553"><ele>145.66666666666669</ele><time>2026-04-20T09:47:16Z</time></trkpt><trkpt lat="43.28380751313899" lon="13.329260653541722"><ele>145.0</ele><time>2026-04-20T09:47:17Z</time></trkpt><trkpt lat="43.283699500175054" lon="13.329205917715697"><ele>145.0</ele><time>2026-04-20T09:47:18.999Z</time></trkpt><trkpt lat="43.28366334743566" lon="13.329129617075054"><ele>145.0</ele><time>2026-04-20T09:47:19.999Z</time></trkpt><trkpt lat="43.28364248437214" lon="13.329040154368258"><ele>145.0</ele><time>2026-04-20T09:47:20.999Z</time></trkpt><trkpt lat="43.283619452677" lon="13.328941552025293"><ele>145.0</ele><time>2026-04-20T09:47:21.999Z</time></trkpt><trkpt lat="43.28360613617277" lon="13.32883316930873"><ele>145.0</ele><time>2026-04-20T09:47:22.999Z</time></trkpt><trkpt lat="43.28356399638913" lon="13.328742648111131"><ele>145.0</ele><time>2026-04-20T09:47:23.999Z</time></trkpt><trkpt lat="43.283540654220246" lon="13.328659670437816"><ele>145.0</ele><time>2026-04-20T09:47:24.999Z</time></trkpt><trkpt lat="43.28352742253949" lon="13.328560849986156"><ele>145.0</ele><time>2026-04-20T09:47:25.999Z</time></trkpt><trkpt lat="43.28349176047021" lon="13.328473885550109"><ele>145.0</ele><time>2026-04-20T09:47:26.999Z</time></trkpt><trkpt lat="43.28345636121068" lon="13.328392381047022"><ele>145.0</ele><time>2026-04-20T09:47:27.999Z</time></trkpt><trkpt lat="43.283353396134" lon="13.32832403274347"><ele>145.0</ele><time>2026-04-20T09:47:29.999Z</time></trkpt><trkpt lat="43.283287933643166" lon="13.328346677438207"><ele>145.0</ele><time>2026-04-20T09:47:30.999Z</time></trkpt><trkpt lat="43.2832331395685" lon="13.328395484389011"><ele>145.0</ele><time>2026-04-20T09:47:31.999Z</time></trkpt><trkpt lat="43.283177701737266" lon="13.32846797149423"><ele>145.0</ele><time>2026-04-20T09:47:40.999Z</time></trkpt><trkpt lat="43.283220581671" lon="13.328670744949092"><ele>145.0</ele><time>2026-04-20T09:47:42.999Z</time></trkpt><trkpt lat="43.28326002552456" lon="13.328774092541932"><ele>145.0</ele><time>2026-04-20T09:47:43.999Z</time></trkpt><trkpt lat="43.28328476164799" lon="13.328903932792048"><ele>145.0</ele><time>2026-04-20T09:47:44.999Z</time></trkpt><trkpt lat="43.28332501150948" lon="13.329040424720326"><ele>145.0</ele><time>2026-04-20T09:47:45.999Z</time></trkpt><trkpt lat="43.28336745284799" lon="13.329183737943792"><ele>144.83333333333334</ele><time>2026-04-20T09:47:46.999Z</time></trkpt><trkpt lat="43.28340289360652" lon="13.329299000376345"><ele>144.66666666666669</ele><time>2026-04-20T09:47:47.999Z</time></trkpt><trkpt lat="43.28343637296493" lon="13.329406971375347"><ele>144.5</ele><time>2026-04-20T09:47:48.999Z</time></trkpt><trkpt lat="43.28346842685908" lon="13.32951382529306"><ele>144.33333333333334</ele><time>2026-04-20T09:47:49.999Z</time></trkpt><trkpt lat="43.283492834191605" lon="13.329609024596666"><ele>144.16666666666666</ele><time>2026-04-20T09:47:50.999Z</time></trkpt><trkpt lat="43.28351353891843" lon="13.329704442957706"><ele>144.0</ele><time>2026-04-20T09:47:51.999Z</time></trkpt><trkpt lat="43.28352730755832" lon="13.329844425957747"><ele>142.0</ele><time>2026-04-20T09:47:53.999Z</time></trkpt><trkpt lat="43.28354131036605" lon="13.329943723315187"><ele>142.0</ele><time>2026-04-20T09:47:56.999Z</time></trkpt><trkpt lat="43.28350283076048" lon="13.329869443895406"><ele>142.0</ele><time>2026-04-20T09:48:19.999Z</time></trkpt><trkpt lat="43.28353278103678" lon="13.329783847141163"><ele>142.0</ele><time>2026-04-20T09:48:24.998Z</time></trkpt></trkseg></trk></gpx>